<?xml version='1.0' encoding='UTF-8'?><gpx version="1.1" creator="JPX - https://github.com/jenetics/jpx" xmlns="http://www.topografix.com/GPX/1/1"><trk><trkseg><trkpt lat="44.59729296272281" lon="7.482933785619359"><ele>425.0</ele><time>2026-04-11T07:30:19Z</time></trkpt><trkpt lat="44.597243808209214" lon="7.482994994635725"><ele>425.0</ele><time>2026-04-11T07:30:26Z</time></trkpt><trkpt lat="44.59731429836168" lon="7.483033933539246"><ele>425.0</ele><time>2026-04-11T07:30:29Z</time></trkpt><trkpt lat="44.597390337619515" lon="7.483039759110906"><ele>425.0</ele><time>2026-04-11T07:30:33Z</time></trkpt><trkpt lat="44.59745759923633" lon="7.48305720208659"><ele>425.0</ele><time>2026-04-11T07:30:38Z</time></trkpt><trkpt lat="44.5975120437992" lon="7.483142930051145"><ele>425.0</ele><time>2026-04-11T07:30:44Z</time></trkpt><trkpt lat="44.59757527326804" lon="7.483095451403711"><ele>425.0</ele><time>2026-04-11T07:30:46Z</time></trkpt><trkpt lat="44.59766407777706" lon="7.483090893030896"><ele>424.99999999999994</ele><time>2026-04-11T07:30:48Z</time></trkpt><trkpt lat="44.597736083706" lon="7.4830743419676535"><ele>425.0</ele><time>2026-04-11T07:30:50Z</time></trkpt><trkpt lat="44.597818601473655" lon="7.483118931040354"><ele>425.0</ele><time>2026-04-11T07:30:52Z</time></trkpt><trkpt lat="44.59790135444585" lon="7.483130366364388"><ele>425.0</ele><time>2026-04-11T07:30:54Z</time></trkpt><trkpt lat="44.59797631634256" lon="7.483141925508058"><ele>424.99999999999994</ele><time>2026-04-11T07:30:55.999Z</time></trkpt><trkpt lat="44.59805100678155" lon="7.483133959178875"><ele>425.0</ele><time>2026-04-11T07:30:57.999Z</time></trkpt><trkpt lat="44.59811767402407" lon="7.483154561647875"><ele>424.4</ele><time>2026-04-11T07:30:59.999Z</time></trkpt><trkpt lat="44.59821699038802" lon="7.483157115573809"><ele>423.8</ele><time>2026-04-11T07:31:01.999Z</time></trkpt><trkpt lat="44.59829811244113" lon="7.48314441361994"><ele>423.20000000000005</ele><time>2026-04-11T07:31:03.999Z</time></trkpt><trkpt lat="44.59838312789205" lon="7.483083765645156"><ele>422.6</ele><time>2026-04-11T07:31:05.999Z</time></trkpt><trkpt lat="44.59847149102256" lon="7.483019272448591"><ele>422.0</ele><time>2026-04-11T07:31:07.999Z</time></trkpt><trkpt lat="44.598543100851835" lon="7.482969936855162"><ele>421.99999999999994</ele><time>2026-04-11T07:31:09.999Z</time></trkpt><trkpt lat="44.59861979324236" lon="7.482948232247136"><ele>422.0</ele><time>2026-04-11T07:31:11.999Z</time></trkpt><trkpt lat="44.598701138612434" lon="7.482945287605074"><ele>422.0</ele><time>2026-04-11T07:31:13.999Z</time></trkpt><trkpt lat="44.59878595072528" lon="7.482954879534064"><ele>422.0</ele><time>2026-04-11T07:31:15.999Z</time></trkpt><trkpt lat="44.598878175534644" lon="7.482943669177116"><ele>421.99999999999994</ele><time>2026-04-11T07:31:17.999Z</time></trkpt><trkpt lat="44.59896504597113" lon="7.482916630200587"><ele>422.0</ele><time>2026-04-11T07:31:19.999Z</time></trkpt><trkpt lat="44.599050628718906" lon="7.482914232030579"><ele>422.16666666666663</ele><time>2026-04-11T07:31:21.999Z</time></trkpt><trkpt lat="44.59914731178776" lon="7.482906853814866"><ele>422.3333333333333</ele><time>2026-04-11T07:31:23.999Z</time></trkpt><trkpt lat="44.599216967964956" lon="7.482889028484676"><ele>422.5</ele><time>2026-04-11T07:31:25.999Z</time></trkpt><trkpt lat="44.599289459744725" lon="7.482887336158483"><ele>422.66666666666663</ele><time>2026-04-11T07:31:27.999Z</time></trkpt><trkpt lat="44.599355362941765" lon="7.482836620470464"><ele>422.8333333333333</ele><time>2026-04-11T07:31:29.999Z</time></trkpt><trkpt lat="44.59943792171691" lon="7.482779009189402"><ele>423.0</ele><time>2026-04-11T07:31:31.999Z</time></trkpt><trkpt lat="44.59951949033887" lon="7.482786836991507"><ele>423.0</ele><time>2026-04-11T07:31:33.999Z</time></trkpt><trkpt lat="44.599633880580704" lon="7.482825832374789"><ele>423.0</ele><time>2026-04-11T07:31:35.999Z</time></trkpt><trkpt lat="44.599716593236494" lon="7.482822892935604"><ele>423.0</ele><time>2026-04-11T07:31:37.999Z</time></trkpt><trkpt lat="44.5997975866365" lon="7.482783422001742"><ele>423.0</ele><time>2026-04-11T07:31:40.999Z</time></trkpt><trkpt lat="44.59987765984148" lon="7.482728464300988"><ele>423.0</ele><time>2026-04-11T07:31:42.999Z</time></trkpt><trkpt lat="44.59995014518048" lon="7.482674734348671"><ele>423.0</ele><time>2026-04-11T07:31:44.999Z</time></trkpt><trkpt lat="44.6000262813397" lon="7.482644955657367"><ele>423.0</ele><time>2026-04-11T07:31:46.999Z</time></trkpt><trkpt lat="44.60009093485621" lon="7.482626645936826"><ele>423.0</ele><time>2026-04-11T07:31:48.999Z</time></trkpt><trkpt lat="44.60017234429227" lon="7.482615365218042"><ele>423.0</ele><time>2026-04-11T07:31:51.999Z</time></trkpt><trkpt lat="44.60027523341057" lon="7.482579288032046"><ele>423.0</ele><time>2026-04-11T07:31:54.999Z</time></trkpt><trkpt lat="44.60035075901707" lon="7.482555295599553"><ele>423.0</ele><time>2026-04-11T07:31:57.998Z</time></trkpt><trkpt lat="44.600419607206746" lon="7.482524000169337"><ele>423.0</ele><time>2026-04-11T07:32:00.998Z</time></trkpt><trkpt lat="44.600506600411066" lon="7.482536963640682"><ele>423.0</ele><time>2026-04-11T07:32:03.998Z</time></trkpt><trkpt lat="44.600584060854885" lon="7.482557750011372"><ele>423.0</ele><time>2026-04-11T07:32:06.998Z</time></trkpt><trkpt lat="44.60066874340165" lon="7.482578617055429"><ele>423.0</ele><time>2026-04-11T07:32:08.998Z</time></trkpt><trkpt lat="44.60069934208102" lon="7.482678585778705"><ele>423.0</ele><time>2026-04-11T07:32:11.998Z</time></trkpt><trkpt lat="44.600745055714896" lon="7.482752437901554"><ele>423.0</ele><time>2026-04-11T07:32:15Z</time></trkpt><trkpt lat="44.60079872661512" lon="7.482805897706417"><ele>423.0</ele><time>2026-04-11T07:32:17Z</time></trkpt><trkpt lat="44.60088132182043" lon="7.482836878416051"><ele>423.0</ele><time>2026-04-11T07:32:19Z</time></trkpt><trkpt lat="44.60095490245682" lon="7.482856786200814"><ele>423.0</ele><time>2026-04-11T07:32:22Z</time></trkpt><trkpt lat="44.601028960614244" lon="7.48287703394114"><ele>423.0</ele><time>2026-04-11T07:32:25Z</time></trkpt><trkpt lat="44.60110454032319" lon="7.482886660627202"><ele>423.0</ele><time>2026-04-11T07:32:28Z</time></trkpt><trkpt lat="44.60116717557725" lon="7.482898195506048"><ele>423.0</ele><time>2026-04-11T07:32:30Z</time></trkpt><trkpt lat="44.601251520213076" lon="7.482918089035611"><ele>422.6666666666667</ele><time>2026-04-11T07:32:33Z</time></trkpt><trkpt lat="44.60133740623022" lon="7.482935504308244"><ele>422.33333333333337</ele><time>2026-04-11T07:32:36Z</time></trkpt><trkpt lat="44.60142456284335" lon="7.482952946465275"><ele>422.0</ele><time>2026-04-11T07:32:39Z</time></trkpt><trkpt lat="44.60150428499026" lon="7.482968900797197"><ele>421.6666666666667</ele><time>2026-04-11T07:32:42Z</time></trkpt><trkpt lat="44.60159805369222" lon="7.482983280278314"><ele>421.33333333333337</ele><time>2026-04-11T07:32:45Z</time></trkpt><trkpt lat="44.60169253252322" lon="7.482998163931583"><ele>421.0</ele><time>2026-04-11T07:32:48Z</time></trkpt><trkpt lat="44.60175534255241" lon="7.483008886826413"><ele>421.00000000000006</ele><time>2026-04-11T07:32:50Z</time></trkpt><trkpt lat="44.60181818749734" lon="7.483019909369017"><ele>421.0</ele><time>2026-04-11T07:32:52Z</time></trkpt><trkpt lat="44.60188140622692" lon="7.483032042302819"><ele>421.0</ele><time>2026-04-11T07:32:54Z</time></trkpt><trkpt lat="44.60197418734784" lon="7.4830499898867275"><ele>421.0</ele><time>2026-04-11T07:32:57Z</time></trkpt><trkpt lat="44.60206857687371" lon="7.483068248599332"><ele>421.00000000000006</ele><time>2026-04-11T07:33:00Z</time></trkpt><trkpt lat="44.602167169996086" lon="7.483082735639739"><ele>421.0</ele><time>2026-04-11T07:33:02Z</time></trkpt><trkpt lat="44.602243039743286" lon="7.48310359692089"><ele>421.00000000000006</ele><time>2026-04-11T07:33:04Z</time></trkpt><trkpt lat="44.60231978323434" lon="7.48311297810441"><ele>421.0</ele><time>2026-04-11T07:33:06Z</time></trkpt><trkpt lat="44.602380926746775" lon="7.483143859775884"><ele>421.0</ele><time>2026-04-11T07:33:07.999Z</time></trkpt><trkpt lat="44.60244753139903" lon="7.483159817476806"><ele>421.0</ele><time>2026-04-11T07:33:09.999Z</time></trkpt><trkpt lat="44.602528750688826" lon="7.483156450936252"><ele>421.0</ele><time>2026-04-11T07:33:11.999Z</time></trkpt><trkpt lat="44.602613374579306" lon="7.4831632294780235"><ele>421.00000000000006</ele><time>2026-04-11T07:33:13.999Z</time></trkpt><trkpt lat="44.60268577786442" lon="7.483171197549551"><ele>421.0</ele><time>2026-04-11T07:33:15.999Z</time></trkpt><trkpt lat="44.6027697995913" lon="7.483183105683974"><ele>420.6666666666667</ele><time>2026-04-11T07:33:18.999Z</time></trkpt><trkpt lat="44.60285299911668" lon="7.483219526642378"><ele>420.33333333333337</ele><time>2026-04-11T07:33:21.999Z</time></trkpt><trkpt lat="44.60291997774401" lon="7.483229359376838"><ele>420.0</ele><time>2026-04-11T07:33:23.999Z</time></trkpt><trkpt lat="44.602990250169526" lon="7.48323229072016"><ele>419.66666666666663</ele><time>2026-04-11T07:33:25.999Z</time></trkpt><trkpt lat="44.60306363176182" lon="7.483249523283306"><ele>419.3333333333333</ele><time>2026-04-11T07:33:27.999Z</time></trkpt><trkpt lat="44.6031362974498" lon="7.483264544452992"><ele>419.0</ele><time>2026-04-11T07:33:29.999Z</time></trkpt><trkpt lat="44.60321134404899" lon="7.483288878431735"><ele>418.99999999999994</ele><time>2026-04-11T07:33:31.999Z</time></trkpt><trkpt lat="44.603288427620356" lon="7.4832830070804235"><ele>419.0</ele><time>2026-04-11T07:33:33.999Z</time></trkpt><trkpt lat="44.60337032658789" lon="7.483297598663601"><ele>419.0</ele><time>2026-04-11T07:33:35.999Z</time></trkpt><trkpt lat="44.60344931771685" lon="7.483312502827983"><ele>419.0</ele><time>2026-04-11T07:33:37.999Z</time></trkpt><trkpt lat="44.603521994173086" lon="7.483324284913656"><ele>418.99999999999994</ele><time>2026-04-11T07:33:40.999Z</time></trkpt><trkpt lat="44.60360102659282" lon="7.483338116239268"><ele>419.0</ele><time>2026-04-11T07:33:42.999Z</time></trkpt><trkpt lat="44.60367579944157" lon="7.483350440861665"><ele>419.2857142857143</ele><time>2026-04-11T07:33:44.999Z</time></trkpt><trkpt lat="44.60375068091655" lon="7.483358190810275"><ele>419.57142857142856</ele><time>2026-04-11T07:33:46.999Z</time></trkpt><trkpt lat="44.603815259958125" lon="7.483391586835657"><ele>419.8571428571429</ele><time>2026-04-11T07:33:48.999Z</time></trkpt><trkpt lat="44.60388689939312" lon="7.483408059737117"><ele>420.1428571428571</ele><time>2026-04-11T07:33:50.999Z</time></trkpt><trkpt lat="44.60395832000718" lon="7.483415551192437"><ele>420.42857142857144</ele><time>2026-04-11T07:33:52.999Z</time></trkpt><trkpt lat="44.604041610505845" lon="7.4834416445918945"><ele>420.7142857142857</ele><time>2026-04-11T07:33:54.999Z</time></trkpt><trkpt lat="44.60410889261436" lon="7.483436360747077"><ele>421.0</ele><time>2026-04-11T07:33:56.999Z</time></trkpt><trkpt lat="44.60418250397149" lon="7.483434777047828"><ele>421.00000000000006</ele><time>2026-04-11T07:33:58.999Z</time></trkpt><trkpt lat="44.604273824606416" lon="7.483444217133223"><ele>421.0</ele><time>2026-04-11T07:34:01.999Z</time></trkpt><trkpt lat="44.6043467378936" lon="7.4834653622903105"><ele>421.0</ele><time>2026-04-11T07:34:03.999Z</time></trkpt><trkpt lat="44.60442024624694" lon="7.483485325427877"><ele>421.0</ele><time>2026-04-11T07:34:05.998Z</time></trkpt><trkpt lat="44.60450516936907" lon="7.483502886331655"><ele>421.00000000000006</ele><time>2026-04-11T07:34:07.998Z</time></trkpt><trkpt lat="44.604598288561235" lon="7.4835307192125855"><ele>421.0</ele><time>2026-04-11T07:34:09.998Z</time></trkpt><trkpt lat="44.60468108244693" lon="7.483534297972966"><ele>420.50000000000006</ele><time>2026-04-11T07:34:11.998Z</time></trkpt><trkpt lat="44.60478023837593" lon="7.4835578844910415"><ele>420.0</ele><time>2026-04-11T07:34:14.998Z</time></trkpt><trkpt lat="44.60484368597898" lon="7.483570549743589"><ele>419.5</ele><time>2026-04-11T07:34:15.998Z</time></trkpt><trkpt lat="44.60492110775541" lon="7.483589984226341"><ele>419.0</ele><time>2026-04-11T07:34:17.998Z</time></trkpt><trkpt lat="44.605006417772145" lon="7.483600089132636"><ele>418.50000000000006</ele><time>2026-04-11T07:34:20Z</time></trkpt><trkpt lat="44.605089902208015" lon="7.48361099196443"><ele>418.0</ele><time>2026-04-11T07:34:22Z</time></trkpt><trkpt lat="44.605169586575364" lon="7.483624694629054"><ele>418.00000000000006</ele><time>2026-04-11T07:34:24Z</time></trkpt><trkpt lat="44.60524623698942" lon="7.483637528826928"><ele>418.0</ele><time>2026-04-11T07:34:26Z</time></trkpt><trkpt lat="44.60533245684302" lon="7.483643896680783"><ele>418.0</ele><time>2026-04-11T07:34:28Z</time></trkpt><trkpt lat="44.605414953885436" lon="7.483657699543528"><ele>418.0</ele><time>2026-04-11T07:34:30Z</time></trkpt><trkpt lat="44.60549094486357" lon="7.483682495360799"><ele>418.00000000000006</ele><time>2026-04-11T07:34:32Z</time></trkpt><trkpt lat="44.60556847878015" lon="7.483715747000962"><ele>418.0</ele><time>2026-04-11T07:34:34Z</time></trkpt><trkpt lat="44.60565209964815" lon="7.483776062153681"><ele>417.00000000000006</ele><time>2026-04-11T07:34:36Z</time></trkpt><trkpt lat="44.60574124586763" lon="7.48380416190111"><ele>416.0</ele><time>2026-04-11T07:34:38Z</time></trkpt><trkpt lat="44.6058241008385" lon="7.483813019336152"><ele>415.0</ele><time>2026-04-11T07:34:40Z</time></trkpt><trkpt lat="44.60589828574202" lon="7.483816532153228"><ele>414.0</ele><time>2026-04-11T07:34:42Z</time></trkpt><trkpt lat="44.60597240420596" lon="7.483833175783896"><ele>413.00000000000006</ele><time>2026-04-11T07:34:44Z</time></trkpt><trkpt lat="44.606039059905385" lon="7.4838574470601245"><ele>412.0</ele><time>2026-04-11T07:34:46Z</time></trkpt><trkpt lat="44.606111047964475" lon="7.483861297803883"><ele>412.1666666666667</ele><time>2026-04-11T07:34:48Z</time></trkpt><trkpt lat="44.606184864167034" lon="7.483879860404201"><ele>412.33333333333337</ele><time>2026-04-11T07:34:50Z</time></trkpt><trkpt lat="44.60626662232344" lon="7.483887872264109"><ele>412.5</ele><time>2026-04-11T07:34:52Z</time></trkpt><trkpt lat="44.60634140891422" lon="7.48388650922595"><ele>412.66666666666663</ele><time>2026-04-11T07:34:54Z</time></trkpt><trkpt lat="44.606419516329474" lon="7.483897944327497"><ele>412.8333333333333</ele><time>2026-04-11T07:34:56Z</time></trkpt><trkpt lat="44.60649165525845" lon="7.483912888648769"><ele>413.0</ele><time>2026-04-11T07:34:58Z</time></trkpt><trkpt lat="44.60656373999601" lon="7.483922392549743"><ele>412.99999999999994</ele><time>2026-04-11T07:35:00Z</time></trkpt><trkpt lat="44.606640366779516" lon="7.483943331771435"><ele>413.0</ele><time>2026-04-11T07:35:02Z</time></trkpt><trkpt lat="44.606716913528835" lon="7.483960771477854"><ele>413.0</ele><time>2026-04-11T07:35:04Z</time></trkpt><trkpt lat="44.60680564708396" lon="7.483970198621611"><ele>413.0</ele><time>2026-04-11T07:35:06Z</time></trkpt><trkpt lat="44.60689123037018" lon="7.48398497909511"><ele>412.99999999999994</ele><time>2026-04-11T07:35:10Z</time></trkpt><trkpt lat="44.60697626900695" lon="7.484025078212314"><ele>413.0</ele><time>2026-04-11T07:35:13Z</time></trkpt><trkpt lat="44.607060091161934" lon="7.484060713869279"><ele>413.0</ele><time>2026-04-11T07:35:15Z</time></trkpt><trkpt lat="44.60716139333303" lon="7.484089783614562"><ele>413.0</ele><time>2026-04-11T07:35:16.999Z</time></trkpt><trkpt lat="44.60725931331335" lon="7.484113275980165"><ele>413.0</ele><time>2026-04-11T07:35:18.999Z</time></trkpt><trkpt lat="44.60736153560738" lon="7.484140581238059"><ele>413.0</ele><time>2026-04-11T07:35:20.999Z</time></trkpt><trkpt lat="44.60746166522795" lon="7.484171851513914"><ele>413.0</ele><time>2026-04-11T07:35:22.999Z</time></trkpt><trkpt lat="44.60752422202077" lon="7.484195232960438"><ele>413.0</ele><time>2026-04-11T07:35:24.999Z</time></trkpt><trkpt lat="44.60772769462863" lon="7.4842357132656305"><ele>413.0</ele><time>2026-04-11T07:35:27.999Z</time></trkpt><trkpt lat="44.60782194538209" lon="7.484252044767577"><ele>413.0</ele><time>2026-04-11T07:35:29.999Z</time></trkpt><trkpt lat="44.60791542868764" lon="7.484272010273319"><ele>413.0</ele><time>2026-04-11T07:35:31.999Z</time></trkpt><trkpt lat="44.60800313787626" lon="7.484292321243085"><ele>413.59999999999997</ele><time>2026-04-11T07:35:33.999Z</time></trkpt><trkpt lat="44.60809419027347" lon="7.4843138019298445"><ele>414.2</ele><time>2026-04-11T07:35:35.999Z</time></trkpt><trkpt lat="44.60818719083314" lon="7.48433074169231"><ele>414.8</ele><time>2026-04-11T07:35:37.999Z</time></trkpt><trkpt lat="44.60828147502408" lon="7.484342916981688"><ele>415.4</ele><time>2026-04-11T07:35:39.999Z</time></trkpt><trkpt lat="44.60836527745358" lon="7.484363015544138"><ele>416.0</ele><time>2026-04-11T07:35:41.999Z</time></trkpt><trkpt lat="44.608450652170305" lon="7.484367855420785"><ele>415.99999999999994</ele><time>2026-04-11T07:35:43.999Z</time></trkpt><trkpt lat="44.60852208742675" lon="7.484368662970259"><ele>416.0</ele><time>2026-04-11T07:35:45.999Z</time></trkpt><trkpt lat="44.608590560576566" lon="7.484384360529915"><ele>416.0</ele><time>2026-04-11T07:35:47.999Z</time></trkpt><trkpt lat="44.608668938766336" lon="7.484386188977054"><ele>416.0</ele><time>2026-04-11T07:35:49.999Z</time></trkpt><trkpt lat="44.608744660494025" lon="7.484402974903693"><ele>415.99999999999994</ele><time>2026-04-11T07:35:51.999Z</time></trkpt><trkpt lat="44.60881813005211" lon="7.484408528875395"><ele>416.0</ele><time>2026-04-11T07:35:53.999Z</time></trkpt><trkpt lat="44.608902234661514" lon="7.48440562621176"><ele>416.0</ele><time>2026-04-11T07:35:55.999Z</time></trkpt><trkpt lat="44.608996820762" lon="7.4843963137357665"><ele>416.0</ele><time>2026-04-11T07:35:57.999Z</time></trkpt><trkpt lat="44.60907424158" lon="7.484400633335478"><ele>416.0</ele><time>2026-04-11T07:35:59.999Z</time></trkpt><trkpt lat="44.609145157621406" lon="7.484401113281566"><ele>416.0</ele><time>2026-04-11T07:36:01.999Z</time></trkpt><trkpt lat="44.60921335209155" lon="7.484402527798136"><ele>416.0</ele><time>2026-04-11T07:36:03.999Z</time></trkpt><trkpt lat="44.60928421333886" lon="7.484403469070379"><ele>416.0</ele><time>2026-04-11T07:36:05.999Z</time></trkpt><trkpt lat="44.6093485071482" lon="7.484403909121787"><ele>416.0</ele><time>2026-04-11T07:36:07.999Z</time></trkpt><trkpt lat="44.60942204859622" lon="7.484409484136632"><ele>415.20000000000005</ele><time>2026-04-11T07:36:09.999Z</time></trkpt><trkpt lat="44.609506754260934" lon="7.484404385269471"><ele>414.40000000000003</ele><time>2026-04-11T07:36:11.999Z</time></trkpt><trkpt lat="44.60958953833467" lon="7.4843972560909044"><ele>413.6</ele><time>2026-04-11T07:36:13.998Z</time></trkpt><trkpt lat="44.60968612048967" lon="7.484385512351699"><ele>412.8</ele><time>2026-04-11T07:36:15.998Z</time></trkpt><trkpt lat="44.60978813663928" lon="7.484361325779926"><ele>412.0</ele><time>2026-04-11T07:36:17.998Z</time></trkpt><trkpt lat="44.60989158185927" lon="7.484336273960158"><ele>412.0</ele><time>2026-04-11T07:36:19.998Z</time></trkpt><trkpt lat="44.61000690172506" lon="7.484316179716637"><ele>412.0</ele><time>2026-04-11T07:36:21.998Z</time></trkpt><trkpt lat="44.61011643425086" lon="7.484307743543504"><ele>412.0</ele><time>2026-04-11T07:36:23.998Z</time></trkpt><trkpt lat="44.61023286900745" lon="7.484278838759981"><ele>412.0</ele><time>2026-04-11T07:36:26Z</time></trkpt><trkpt lat="44.61035122720971" lon="7.484296113159132"><ele>410.6666666666667</ele><time>2026-04-11T07:36:28Z</time></trkpt><trkpt lat="44.61045222234061" lon="7.484275606597101"><ele>409.33333333333337</ele><time>2026-04-11T07:36:30Z</time></trkpt><trkpt lat="44.61052729255799" lon="7.484285184200238"><ele>408.0</ele><time>2026-04-11T07:36:33Z</time></trkpt><trkpt lat="44.61059867401638" lon="7.4842931202197684"><ele>406.66666666666663</ele><time>2026-04-11T07:36:35Z</time></trkpt><trkpt lat="44.61065998570107" lon="7.484212889822996"><ele>405.3333333333333</ele><time>2026-04-11T07:36:37Z</time></trkpt><trkpt lat="44.61071574844883" lon="7.484149024420452"><ele>404.0</ele><time>2026-04-11T07:36:39Z</time></trkpt><trkpt lat="44.61077932756555" lon="7.484083549052217"><ele>403.99999999999994</ele><time>2026-04-11T07:36:41Z</time></trkpt><trkpt lat="44.610840081308694" lon="7.484011076623902"><ele>404.0</ele><time>2026-04-11T07:36:43Z</time></trkpt><trkpt lat="44.610926236048016" lon="7.484108719050152"><ele>404.0</ele><time>2026-04-11T07:36:45Z</time></trkpt><trkpt lat="44.610962427576176" lon="7.484216406447124"><ele>404.0</ele><time>2026-04-11T07:36:47Z</time></trkpt><trkpt lat="44.610991132944555" lon="7.484323480534548"><ele>403.99999999999994</ele><time>2026-04-11T07:36:49Z</time></trkpt><trkpt lat="44.61102723880457" lon="7.484431243601936"><ele>404.0</ele><time>2026-04-11T07:36:51Z</time></trkpt><trkpt lat="44.611064336552374" lon="7.4845323949965215"><ele>403.66666666666663</ele><time>2026-04-11T07:36:53Z</time></trkpt><trkpt lat="44.61111172175897" lon="7.4846220334931415"><ele>403.3333333333333</ele><time>2026-04-11T07:36:55Z</time></trkpt><trkpt lat="44.61116601010556" lon="7.484706738651417"><ele>403.0</ele><time>2026-04-11T07:36:57Z</time></trkpt><trkpt lat="44.61122215906421" lon="7.48478240330434"><ele>402.66666666666663</ele><time>2026-04-11T07:36:59Z</time></trkpt><trkpt lat="44.61128426900709" lon="7.4848608345822205"><ele>402.3333333333333</ele><time>2026-04-11T07:37:01Z</time></trkpt><trkpt lat="44.61135259780657" lon="7.484919911230302"><ele>402.0</ele><time>2026-04-11T07:37:03Z</time></trkpt><trkpt lat="44.611419193882945" lon="7.48497869600589"><ele>401.8333333333333</ele><time>2026-04-11T07:37:05Z</time></trkpt><trkpt lat="44.61149592586573" lon="7.485034117804805"><ele>401.66666666666663</ele><time>2026-04-11T07:37:07Z</time></trkpt><trkpt lat="44.61156998463128" lon="7.485095515087137"><ele>401.5</ele><time>2026-04-11T07:37:09Z</time></trkpt><trkpt lat="44.611654887466685" lon="7.485146776622563"><ele>401.3333333333333</ele><time>2026-04-11T07:37:11Z</time></trkpt><trkpt lat="44.61173528008372" lon="7.485203288345805"><ele>401.16666666666663</ele><time>2026-04-11T07:37:13Z</time></trkpt><trkpt lat="44.61181746895666" lon="7.485255634911439"><ele>401.0</ele><time>2026-04-11T07:37:15Z</time></trkpt><trkpt lat="44.61191035862206" lon="7.485322640317875"><ele>400.99999999999994</ele><time>2026-04-11T07:37:17Z</time></trkpt><trkpt lat="44.61196064795811" lon="7.485387845986677"><ele>401.0</ele><time>2026-04-11T07:37:19Z</time></trkpt><trkpt lat="44.61204196314012" lon="7.485396672645711"><ele>401.0</ele><time>2026-04-11T07:37:21Z</time></trkpt><trkpt lat="44.61211706270597" lon="7.485431690057862"><ele>401.0</ele><time>2026-04-11T07:37:23Z</time></trkpt><trkpt lat="44.61219099235701" lon="7.485479441415327"><ele>400.99999999999994</ele><time>2026-04-11T07:37:25Z</time></trkpt><trkpt lat="44.61226793049666" lon="7.485513143357826"><ele>401.0</ele><time>2026-04-11T07:37:26.999Z</time></trkpt><trkpt lat="44.61233881051233" lon="7.485568003143345"><ele>400.8333333333333</ele><time>2026-04-11T07:37:28.999Z</time></trkpt><trkpt lat="44.61241029812989" lon="7.485614648255553"><ele>400.66666666666663</ele><time>2026-04-11T07:37:30.999Z</time></trkpt><trkpt lat="44.61247629008256" lon="7.485654961954233"><ele>400.5</ele><time>2026-04-11T07:37:32.999Z</time></trkpt><trkpt lat="44.61253930959433" lon="7.485695290504345"><ele>400.33333333333337</ele><time>2026-04-11T07:37:34.999Z</time></trkpt><trkpt lat="44.61260968075389" lon="7.4857462611499415"><ele>400.1666666666667</ele><time>2026-04-11T07:37:36.999Z</time></trkpt><trkpt lat="44.61268996719077" lon="7.485797071435724"><ele>400.0</ele><time>2026-04-11T07:37:38.999Z</time></trkpt><trkpt lat="44.61277770502039" lon="7.485844409793022"><ele>400.1666666666667</ele><time>2026-04-11T07:37:40.999Z</time></trkpt><trkpt lat="44.6128611888023" lon="7.485888746507209"><ele>400.33333333333337</ele><time>2026-04-11T07:37:42.999Z</time></trkpt><trkpt lat="44.61293586644129" lon="7.485934776137228"><ele>400.5</ele><time>2026-04-11T07:37:44.999Z</time></trkpt><trkpt lat="44.61300045633445" lon="7.485972996222273"><ele>400.66666666666663</ele><time>2026-04-11T07:37:46.999Z</time></trkpt><trkpt lat="44.61309158335069" lon="7.486007062205314"><ele>400.8333333333333</ele><time>2026-04-11T07:37:49.999Z</time></trkpt><trkpt lat="44.61315935471423" lon="7.486044595787013"><ele>401.0</ele><time>2026-04-11T07:37:51.999Z</time></trkpt><trkpt lat="44.61323660519352" lon="7.486084194793344"><ele>400.99999999999994</ele><time>2026-04-11T07:37:53.999Z</time></trkpt><trkpt lat="44.613311148270434" lon="7.486134574459606"><ele>401.0</ele><time>2026-04-11T07:37:55.999Z</time></trkpt><trkpt lat="44.613390332793436" lon="7.486179406053369"><ele>401.0</ele><time>2026-04-11T07:37:57.999Z</time></trkpt><trkpt lat="44.61347013292412" lon="7.48622346544398"><ele>401.0</ele><time>2026-04-11T07:37:59.999Z</time></trkpt><trkpt lat="44.613547351352814" lon="7.48626718331431"><ele>400.99999999999994</ele><time>2026-04-11T07:38:01.999Z</time></trkpt><trkpt lat="44.61361991912688" lon="7.48630623910241"><ele>401.0</ele><time>2026-04-11T07:38:03.999Z</time></trkpt><trkpt lat="44.61368970133663" lon="7.486344100165544"><ele>400.8333333333333</ele><time>2026-04-11T07:38:05.999Z</time></trkpt><trkpt lat="44.613765962027834" lon="7.486385649712591"><ele>400.66666666666663</ele><time>2026-04-11T07:38:07.999Z</time></trkpt><trkpt lat="44.61384105045221" lon="7.486422616717514"><ele>400.5</ele><time>2026-04-11T07:38:09.999Z</time></trkpt><trkpt lat="44.61391687356704" lon="7.486473970659061"><ele>400.33333333333337</ele><time>2026-04-11T07:38:11.999Z</time></trkpt><trkpt lat="44.61399065571317" lon="7.486522090263986"><ele>400.1666666666667</ele><time>2026-04-11T07:38:13.999Z</time></trkpt><trkpt lat="44.614071407018024" lon="7.486562328300114"><ele>400.0</ele><time>2026-04-11T07:38:15.999Z</time></trkpt><trkpt lat="44.61413852302964" lon="7.48661734231494"><ele>400.00000000000006</ele><time>2026-04-11T07:38:17.999Z</time></trkpt><trkpt lat="44.61420077443661" lon="7.486662369281311"><ele>400.0</ele><time>2026-04-11T07:38:19.999Z</time></trkpt><trkpt lat="44.61427036371187" lon="7.4867156376339485"><ele>400.0</ele><time>2026-04-11T07:38:21.998Z</time></trkpt><trkpt lat="44.61433744077028" lon="7.4867651642180855"><ele>400.0</ele><time>2026-04-11T07:38:23.998Z</time></trkpt><trkpt lat="44.61439884243388" lon="7.486806608570061"><ele>400.0</ele><time>2026-04-11T07:38:25.998Z</time></trkpt><trkpt lat="44.61445650258369" lon="7.486846541984041"><ele>400.00000000000006</ele><time>2026-04-11T07:38:27.998Z</time></trkpt><trkpt lat="44.61452117527314" lon="7.486885534605514"><ele>400.0</ele><time>2026-04-11T07:38:29.998Z</time></trkpt><trkpt lat="44.61458100404452" lon="7.486919624710063"><ele>400.00000000000006</ele><time>2026-04-11T07:38:32Z</time></trkpt><trkpt lat="44.61463979614197" lon="7.4869637291159945"><ele>400.0</ele><time>2026-04-11T07:38:34Z</time></trkpt><trkpt lat="44.61471634914276" lon="7.487035459458233"><ele>400.0</ele><time>2026-04-11T07:38:37Z</time></trkpt><trkpt lat="44.61477976345848" lon="7.487127258476148"><ele>400.0</ele><time>2026-04-11T07:38:40Z</time></trkpt><trkpt lat="44.614809497883726" lon="7.487249035463774"><ele>400.00000000000006</ele><time>2026-04-11T07:38:43Z</time></trkpt><trkpt lat="44.61484569447355" lon="7.487341976520757"><ele>400.0</ele><time>2026-04-11T07:38:45Z</time></trkpt><trkpt lat="44.6149143839206" lon="7.487359488922982"><ele>400.00000000000006</ele><time>2026-04-11T07:38:47Z</time></trkpt><trkpt lat="44.61499404565151" lon="7.487286727117062"><ele>400.0</ele><time>2026-04-11T07:38:49Z</time></trkpt><trkpt lat="44.615065788272936" lon="7.487209395062803"><ele>400.0</ele><time>2026-04-11T07:38:52Z</time></trkpt><trkpt lat="44.615122812092395" lon="7.487166108769242"><ele>400.0</ele><time>2026-04-11T07:38:54Z</time></trkpt><trkpt lat="44.61520226864735" lon="7.487133003701535"><ele>400.00000000000006</ele><time>2026-04-11T07:38:57Z</time></trkpt><trkpt lat="44.615263211264875" lon="7.48706178115571"><ele>400.0</ele><time>2026-04-11T07:38:59Z</time></trkpt><trkpt lat="44.61532242856682" lon="7.487015952151847"><ele>399.7142857142857</ele><time>2026-04-11T07:39:01Z</time></trkpt><trkpt lat="44.6153781050778" lon="7.486965356125254"><ele>399.42857142857144</ele><time>2026-04-11T07:39:03Z</time></trkpt><trkpt lat="44.615434618769456" lon="7.486897508288518"><ele>399.1428571428571</ele><time>2026-04-11T07:39:05Z</time></trkpt><trkpt lat="44.61548040854704" lon="7.486815665348916"><ele>398.8571428571429</ele><time>2026-04-11T07:39:07Z</time></trkpt><trkpt lat="44.61554657787082" lon="7.48676609374736"><ele>398.57142857142856</ele><time>2026-04-11T07:39:09Z</time></trkpt><trkpt lat="44.615601617891485" lon="7.486676503605348"><ele>398.2857142857143</ele><time>2026-04-11T07:39:11Z</time></trkpt><trkpt lat="44.615659720138716" lon="7.486622106944642"><ele>398.0</ele><time>2026-04-11T07:39:13Z</time></trkpt><trkpt lat="44.61572058697945" lon="7.486549213837046"><ele>397.99999999999994</ele><time>2026-04-11T07:39:15Z</time></trkpt><trkpt lat="44.61579627684742" lon="7.486485305387181"><ele>398.0</ele><time>2026-04-11T07:39:17Z</time></trkpt><trkpt lat="44.615850966116284" lon="7.4864345161503305"><ele>398.0</ele><time>2026-04-11T07:39:19Z</time></trkpt><trkpt lat="44.61589986759275" lon="7.486370071379961"><ele>398.0</ele><time>2026-04-11T07:39:21Z</time></trkpt><trkpt lat="44.61594023589441" lon="7.486281982210504"><ele>398.0</ele><time>2026-04-11T07:39:24Z</time></trkpt><trkpt lat="44.61600491153927" lon="7.486225342596021"><ele>397.99999999999994</ele><time>2026-04-11T07:39:27Z</time></trkpt><trkpt lat="44.6160680545624" lon="7.4861680131619055"><ele>398.0</ele><time>2026-04-11T07:39:29.999Z</time></trkpt><trkpt lat="44.61613187335549" lon="7.486095487184103"><ele>398.99999999999994</ele><time>2026-04-11T07:39:32.999Z</time></trkpt><trkpt lat="44.61620076847794" lon="7.486014916859174"><ele>400.0</ele><time>2026-04-11T07:39:35.999Z</time></trkpt><trkpt lat="44.61624801789955" lon="7.485927501633766"><ele>401.0</ele><time>2026-04-11T07:39:38.999Z</time></trkpt><trkpt lat="44.61630522395551" lon="7.485861944210459"><ele>402.0</ele><time>2026-04-11T07:39:41.999Z</time></trkpt><trkpt lat="44.61637607526143" lon="7.485810136051768"><ele>402.99999999999994</ele><time>2026-04-11T07:39:44.999Z</time></trkpt><trkpt lat="44.616427485309956" lon="7.485725508394945"><ele>404.0</ele><time>2026-04-11T07:39:47.999Z</time></trkpt><trkpt lat="44.61649864165569" lon="7.485661516468802"><ele>404.0</ele><time>2026-04-11T07:39:50.999Z</time></trkpt><trkpt lat="44.61656345653084" lon="7.485595017584747"><ele>404.0</ele><time>2026-04-11T07:39:53.999Z</time></trkpt><trkpt lat="44.616621430098924" lon="7.485528048181035"><ele>404.0</ele><time>2026-04-11T07:39:56.999Z</time></trkpt><trkpt lat="44.61666614125351" lon="7.485424550393246"><ele>404.0</ele><time>2026-04-11T07:39:59.999Z</time></trkpt><trkpt lat="44.6167764032723" lon="7.485378261270852"><ele>404.0</ele><time>2026-04-11T07:40:04.999Z</time></trkpt><trkpt lat="44.616840746690826" lon="7.48549701245033"><ele>404.0</ele><time>2026-04-11T07:40:06.999Z</time></trkpt><trkpt lat="44.616921955157906" lon="7.485612324103839"><ele>404.0</ele><time>2026-04-11T07:40:08.999Z</time></trkpt><trkpt lat="44.617031754793494" lon="7.48568349066267"><ele>404.0</ele><time>2026-04-11T07:40:10.999Z</time></trkpt><trkpt lat="44.61711507157155" lon="7.485783176076773"><ele>404.0</ele><time>2026-04-11T07:40:12.999Z</time></trkpt><trkpt lat="44.617196952018396" lon="7.485844895243151"><ele>404.0</ele><time>2026-04-11T07:40:14.999Z</time></trkpt><trkpt lat="44.61729595286575" lon="7.485879748691257"><ele>404.0</ele><time>2026-04-11T07:40:17.999Z</time></trkpt><trkpt lat="44.617376723495354" lon="7.485904593999017"><ele>404.0</ele><time>2026-04-11T07:40:19.999Z</time></trkpt><trkpt lat="44.6176057546864" lon="7.485949064686671"><ele>404.0</ele><time>2026-04-11T07:40:25.998Z</time></trkpt><trkpt lat="44.61768535851154" lon="7.485987416317872"><ele>404.0</ele><time>2026-04-11T07:40:27.998Z</time></trkpt><trkpt lat="44.61779591084556" lon="7.486029378644126"><ele>403.6</ele><time>2026-04-11T07:40:29.998Z</time></trkpt><trkpt lat="44.617884021128006" lon="7.486037253251375"><ele>403.2</ele><time>2026-04-11T07:40:31.998Z</time></trkpt><trkpt lat="44.61797808812208" lon="7.486038485981749"><ele>402.8</ele><time>2026-04-11T07:40:33.998Z</time></trkpt><trkpt lat="44.61807594602136" lon="7.486091510456624"><ele>402.40000000000003</ele><time>2026-04-11T07:40:35.998Z</time></trkpt><trkpt lat="44.61822506533871" lon="7.486146024274563"><ele>402.0</ele><time>2026-04-11T07:40:40Z</time></trkpt><trkpt lat="44.618312435685034" lon="7.486194603664271"><ele>402.0</ele><time>2026-04-11T07:40:42Z</time></trkpt><trkpt lat="44.61839206085339" lon="7.486230353534143"><ele>402.0</ele><time>2026-04-11T07:40:44Z</time></trkpt><trkpt lat="44.61848285202903" lon="7.48627456175829"><ele>402.0</ele><time>2026-04-11T07:40:46Z</time></trkpt><trkpt lat="44.61857898926318" lon="7.486315908997698"><ele>402.0</ele><time>2026-04-11T07:40:48Z</time></trkpt><trkpt lat="44.618667032546924" lon="7.4863573871466995"><ele>402.0</ele><time>2026-04-11T07:40:50Z</time></trkpt><trkpt lat="44.618757093064076" lon="7.48640019848118"><ele>401.20000000000005</ele><time>2026-04-11T07:40:52Z</time></trkpt><trkpt lat="44.618847024594444" lon="7.486447434836885"><ele>400.4</ele><time>2026-04-11T07:40:54Z</time></trkpt><trkpt lat="44.61893762097332" lon="7.486485278862671"><ele>399.6</ele><time>2026-04-11T07:40:56Z</time></trkpt><trkpt lat="44.61902940819462" lon="7.486534117643936"><ele>398.79999999999995</ele><time>2026-04-11T07:40:58Z</time></trkpt><trkpt lat="44.61912109149651" lon="7.486577599939807"><ele>398.0</ele><time>2026-04-11T07:41:00Z</time></trkpt><trkpt lat="44.619207913732865" lon="7.486622083630042"><ele>398.0</ele><time>2026-04-11T07:41:02Z</time></trkpt><trkpt lat="44.61929580929461" lon="7.486665802893418"><ele>398.0</ele><time>2026-04-11T07:41:04Z</time></trkpt><trkpt lat="44.61938450586346" lon="7.486706386742581"><ele>398.0</ele><time>2026-04-11T07:41:06Z</time></trkpt><trkpt lat="44.619468539558696" lon="7.486747032987901"><ele>398.0</ele><time>2026-04-11T07:41:08Z</time></trkpt><trkpt lat="44.61955089358169" lon="7.486791794613906"><ele>398.0</ele><time>2026-04-11T07:41:10Z</time></trkpt><trkpt lat="44.619640609136745" lon="7.4868275216573"><ele>397.8333333333333</ele><time>2026-04-11T07:41:12Z</time></trkpt><trkpt lat="44.61972462161593" lon="7.486867822126479"><ele>397.66666666666663</ele><time>2026-04-11T07:41:14Z</time></trkpt><trkpt lat="44.619809434695036" lon="7.486910471173469"><ele>397.5</ele><time>2026-04-11T07:41:16Z</time></trkpt><trkpt lat="44.61989621744817" lon="7.486939961434116"><ele>397.33333333333337</ele><time>2026-04-11T07:41:18Z</time></trkpt><trkpt lat="44.619978275748856" lon="7.486981035026767"><ele>397.1666666666667</ele><time>2026-04-11T07:41:20Z</time></trkpt><trkpt lat="44.62006439215301" lon="7.487015083515673"><ele>397.0</ele><time>2026-04-11T07:41:22Z</time></trkpt><trkpt lat="44.62014815735646" lon="7.487054873811057"><ele>397.00000000000006</ele><time>2026-04-11T07:41:24Z</time></trkpt><trkpt lat="44.62022891520627" lon="7.487093781002725"><ele>397.0</ele><time>2026-04-11T07:41:26Z</time></trkpt><trkpt lat="44.6203047743876" lon="7.487147620807137"><ele>397.0</ele><time>2026-04-11T07:41:28Z</time></trkpt><trkpt lat="44.62039174941609" lon="7.487197912152666"><ele>397.0</ele><time>2026-04-11T07:41:30Z</time></trkpt><trkpt lat="44.620471991052014" lon="7.487241104448501"><ele>397.00000000000006</ele><time>2026-04-11T07:41:31.999Z</time></trkpt><trkpt lat="44.620546779445874" lon="7.487278268380347"><ele>397.0</ele><time>2026-04-11T07:41:33.999Z</time></trkpt><trkpt lat="44.62062723291532" lon="7.487320615428272"><ele>397.00000000000006</ele><time>2026-04-11T07:41:35.999Z</time></trkpt><trkpt lat="44.620701607967604" lon="7.487355400762205"><ele>397.0</ele><time>2026-04-11T07:41:37.999Z</time></trkpt><trkpt lat="44.62076820695508" lon="7.487403406484487"><ele>397.0</ele><time>2026-04-11T07:41:39.999Z</time></trkpt><trkpt lat="44.620837477198315" lon="7.4874592770328965"><ele>397.0</ele><time>2026-04-11T07:41:41.999Z</time></trkpt><trkpt lat="44.6209203446884" lon="7.487495072395782"><ele>397.00000000000006</ele><time>2026-04-11T07:41:43.999Z</time></trkpt><trkpt lat="44.62099002293571" lon="7.487531641325039"><ele>397.0</ele><time>2026-04-11T07:41:45.999Z</time></trkpt><trkpt lat="44.62106738281636" lon="7.487572166867876"><ele>397.00000000000006</ele><time>2026-04-11T07:41:47.999Z</time></trkpt><trkpt lat="44.621137196983945" lon="7.487600031642009"><ele>397.0</ele><time>2026-04-11T07:41:49.999Z</time></trkpt><trkpt lat="44.621217073480494" lon="7.487636170576998"><ele>397.0</ele><time>2026-04-11T07:41:52.999Z</time></trkpt><trkpt lat="44.621289853353936" lon="7.487674126909284"><ele>397.0</ele><time>2026-04-11T07:41:54.999Z</time></trkpt><trkpt lat="44.62134864204782" lon="7.487709011341029"><ele>397.00000000000006</ele><time>2026-04-11T07:41:55.999Z</time></trkpt><trkpt lat="44.62142150505745" lon="7.48778086225707"><ele>397.0</ele><time>2026-04-11T07:41:57.999Z</time></trkpt><trkpt lat="44.621518493413646" lon="7.487834451080731"><ele>397.0</ele><time>2026-04-11T07:41:59.999Z</time></trkpt><trkpt lat="44.62160544811545" lon="7.487897231142501"><ele>397.0</ele><time>2026-04-11T07:42:01.999Z</time></trkpt><trkpt lat="44.62169660872588" lon="7.487935581930395"><ele>397.0</ele><time>2026-04-11T07:42:03.999Z</time></trkpt><trkpt lat="44.62179164310504" lon="7.487971003354908"><ele>397.0</ele><time>2026-04-11T07:42:05.999Z</time></trkpt><trkpt lat="44.621881621219394" lon="7.488014827409971"><ele>397.0</ele><time>2026-04-11T07:42:07.999Z</time></trkpt><trkpt lat="44.62196983043781" lon="7.488068254934505"><ele>397.40000000000003</ele><time>2026-04-11T07:42:09.999Z</time></trkpt><trkpt lat="44.6220594246885" lon="7.4881077827522855"><ele>397.8</ele><time>2026-04-11T07:42:11.999Z</time></trkpt><trkpt lat="44.622145250542964" lon="7.488165364522896"><ele>398.2</ele><time>2026-04-11T07:42:13.999Z</time></trkpt><trkpt lat="44.62223033882695" lon="7.488224863684749"><ele>398.6</ele><time>2026-04-11T07:42:15.999Z</time></trkpt><trkpt lat="44.62230876990548" lon="7.488288766589953"><ele>399.0</ele><time>2026-04-11T07:42:17.999Z</time></trkpt><trkpt lat="44.62239929823942" lon="7.4883623317466865"><ele>399.0</ele><time>2026-04-11T07:42:19.999Z</time></trkpt><trkpt lat="44.62248768651857" lon="7.488427966967166"><ele>399.0</ele><time>2026-04-11T07:42:21.999Z</time></trkpt><trkpt lat="44.622568869283405" lon="7.488490303716886"><ele>399.0</ele><time>2026-04-11T07:42:23.998Z</time></trkpt><trkpt lat="44.62265266509596" lon="7.488553242639334"><ele>399.0</ele><time>2026-04-11T07:42:25.998Z</time></trkpt><trkpt lat="44.62271110919247" lon="7.488614797213036"><ele>399.0</ele><time>2026-04-11T07:42:27.998Z</time></trkpt><trkpt lat="44.62278807988921" lon="7.488685465570791"><ele>400.0</ele><time>2026-04-11T07:42:29.998Z</time></trkpt><trkpt lat="44.62285550049461" lon="7.48875551166908"><ele>401.0</ele><time>2026-04-11T07:42:31.998Z</time></trkpt><trkpt lat="44.6229448436521" lon="7.488840999598182"><ele>402.0</ele><time>2026-04-11T07:42:33.998Z</time></trkpt><trkpt lat="44.62301447043134" lon="7.488910887516849"><ele>403.0</ele><time>2026-04-11T07:42:35.998Z</time></trkpt><trkpt lat="44.62310562598258" lon="7.489003886976841"><ele>404.0</ele><time>2026-04-11T07:42:37.998Z</time></trkpt><trkpt lat="44.62318220742322" lon="7.489076819865792"><ele>401.6</ele><time>2026-04-11T07:42:39.998Z</time></trkpt><trkpt lat="44.623271275138364" lon="7.489134727701026"><ele>399.2</ele><time>2026-04-11T07:42:41.998Z</time></trkpt><trkpt lat="44.62336797457551" lon="7.489193329054374"><ele>396.8</ele><time>2026-04-11T07:42:44Z</time></trkpt><trkpt lat="44.6234561185739" lon="7.489248438296731"><ele>394.40000000000003</ele><time>2026-04-11T07:42:46Z</time></trkpt><trkpt lat="44.62354574873676" lon="7.489230957552842"><ele>392.0</ele><time>2026-04-11T07:42:48Z</time></trkpt><trkpt lat="44.62361921556449" lon="7.489190629892381"><ele>391.40000000000003</ele><time>2026-04-11T07:42:50Z</time></trkpt><trkpt lat="44.62367401364293" lon="7.48908983758304"><ele>390.8</ele><time>2026-04-11T07:42:52Z</time></trkpt><trkpt lat="44.62371730649912" lon="7.488919170616652"><ele>390.2</ele><time>2026-04-11T07:42:54Z</time></trkpt><trkpt lat="44.62373283391036" lon="7.488764758906994"><ele>389.6</ele><time>2026-04-11T07:42:56Z</time></trkpt><trkpt lat="44.62367939311342" lon="7.488626396487048"><ele>389.0</ele><time>2026-04-11T07:42:58Z</time></trkpt><trkpt lat="44.62369975805529" lon="7.48852000224888"><ele>390.0</ele><time>2026-04-11T07:43:01Z</time></trkpt><trkpt lat="44.623699212543116" lon="7.4884236854504325"><ele>391.0</ele><time>2026-04-11T07:43:05Z</time></trkpt><trkpt lat="44.623638139958665" lon="7.488365371917328"><ele>392.0</ele><time>2026-04-11T07:43:08Z</time></trkpt><trkpt lat="44.623582365505705" lon="7.488267282812437"><ele>393.0</ele><time>2026-04-11T07:43:14Z</time></trkpt><trkpt lat="44.62352963116887" lon="7.488211825601357"><ele>394.0</ele><time>2026-04-11T07:43:18Z</time></trkpt><trkpt lat="44.62346833263297" lon="7.48816813103156"><ele>395.0</ele><time>2026-04-11T07:43:22Z</time></trkpt><trkpt lat="44.623405729176305" lon="7.488117752451861"><ele>396.0</ele><time>2026-04-11T07:43:26Z</time></trkpt><trkpt lat="44.62334636460329" lon="7.488067900044209"><ele>397.14285714285717</ele><time>2026-04-11T07:43:30Z</time></trkpt><trkpt lat="44.62327598177978" lon="7.488029776829946"><ele>398.2857142857143</ele><time>2026-04-11T07:43:34Z</time></trkpt><trkpt lat="44.62321570960764" lon="7.487980488874033"><ele>399.42857142857144</ele><time>2026-04-11T07:43:38.999Z</time></trkpt><trkpt lat="44.62315939616199" lon="7.487898502901808"><ele>400.57142857142856</ele><time>2026-04-11T07:43:42.999Z</time></trkpt><trkpt lat="44.62310861259758" lon="7.487819432984674"><ele>401.71428571428567</ele><time>2026-04-11T07:43:46.999Z</time></trkpt><trkpt lat="44.62306249402134" lon="7.487755137101493"><ele>402.85714285714283</ele><time>2026-04-11T07:43:50.999Z</time></trkpt><trkpt lat="44.6230263683931" lon="7.487681497579567"><ele>404.0</ele><time>2026-04-11T07:43:53.999Z</time></trkpt><trkpt lat="44.62297371485648" lon="7.48760680532595"><ele>405.49999999999994</ele><time>2026-04-11T07:43:57.999Z</time></trkpt><trkpt lat="44.622934727611565" lon="7.487515647352629"><ele>407.0</ele><time>2026-04-11T07:44:01.999Z</time></trkpt><trkpt lat="44.622884781106364" lon="7.487432846049382"><ele>408.5</ele><time>2026-04-11T07:44:05.999Z</time></trkpt><trkpt lat="44.62287459709204" lon="7.487342382864773"><ele>410.0</ele><time>2026-04-11T07:44:08.999Z</time></trkpt><trkpt lat="44.6228857030098" lon="7.487226796628997"><ele>411.49999999999994</ele><time>2026-04-11T07:44:12.999Z</time></trkpt><trkpt lat="44.62289717607685" lon="7.487109827217853"><ele>413.0</ele><time>2026-04-11T07:44:16.999Z</time></trkpt><trkpt lat="44.62291547130752" lon="7.487012829761799"><ele>414.57142857142856</ele><time>2026-04-11T07:44:20.999Z</time></trkpt><trkpt lat="44.62297692814128" lon="7.486956365074243"><ele>416.1428571428571</ele><time>2026-04-11T07:44:24.999Z</time></trkpt><trkpt lat="44.62303239476636" lon="7.486913330184034"><ele>417.7142857142857</ele><time>2026-04-11T07:44:27.999Z</time></trkpt><trkpt lat="44.623088263744854" lon="7.486859437525329"><ele>419.2857142857143</ele><time>2026-04-11T07:44:31.998Z</time></trkpt><trkpt lat="44.623149024973394" lon="7.4867915591314675"><ele>420.85714285714283</ele><time>2026-04-11T07:44:35.998Z</time></trkpt><trkpt lat="44.623211936579466" lon="7.486722314383937"><ele>422.42857142857144</ele><time>2026-04-11T07:44:39.998Z</time></trkpt><trkpt lat="44.623253569497166" lon="7.486654620475203"><ele>424.0</ele><time>2026-04-11T07:44:42.998Z</time></trkpt><trkpt lat="44.62330243242062" lon="7.486586088954634"><ele>424.00000000000006</ele><time>2026-04-11T07:44:46.998Z</time></trkpt><trkpt lat="44.623363412649624" lon="7.486502761706775"><ele>424.0</ele><time>2026-04-11T07:44:51Z</time></trkpt><trkpt lat="44.62341742818915" lon="7.486423389330863"><ele>424.0</ele><time>2026-04-11T07:44:55Z</time></trkpt><trkpt lat="44.62346225366594" lon="7.486352082723338"><ele>424.0</ele><time>2026-04-11T07:44:58Z</time></trkpt><trkpt lat="44.62351001058706" lon="7.486288885559841"><ele>424.00000000000006</ele><time>2026-04-11T07:45:01Z</time></trkpt><trkpt lat="44.62357056154988" lon="7.4862246995659945"><ele>424.0</ele><time>2026-04-11T07:45:05Z</time></trkpt><trkpt lat="44.62363941365032" lon="7.486151101539603"><ele>425.2857142857143</ele><time>2026-04-11T07:45:09Z</time></trkpt><trkpt lat="44.623693202104654" lon="7.4860846154977"><ele>426.57142857142856</ele><time>2026-04-11T07:45:12Z</time></trkpt><trkpt lat="44.62375115730384" lon="7.486030649115277"><ele>427.85714285714283</ele><time>2026-04-11T07:45:15Z</time></trkpt><trkpt lat="44.62380250219872" lon="7.485971089184149"><ele>429.1428571428571</ele><time>2026-04-11T07:45:18Z</time></trkpt><trkpt lat="44.62385183867454" lon="7.485910065632589"><ele>430.42857142857144</ele><time>2026-04-11T07:45:21Z</time></trkpt><trkpt lat="44.62390574116044" lon="7.4858433520401135"><ele>431.71428571428567</ele><time>2026-04-11T07:45:24Z</time></trkpt><trkpt lat="44.623961180366244" lon="7.485761932958341"><ele>433.0</ele><time>2026-04-11T07:45:28Z</time></trkpt><trkpt lat="44.624015109256895" lon="7.485680294242251"><ele>433.00000000000006</ele><time>2026-04-11T07:45:32Z</time></trkpt><trkpt lat="44.624065897695274" lon="7.485585671092693"><ele>433.0</ele><time>2026-04-11T07:45:36Z</time></trkpt><trkpt lat="44.62411560750037" lon="7.485504786237573"><ele>433.0</ele><time>2026-04-11T07:45:39.999Z</time></trkpt><trkpt lat="44.62416852694369" lon="7.485415698683983"><ele>433.0</ele><time>2026-04-11T07:45:43.999Z</time></trkpt><trkpt lat="44.62420880313851" lon="7.485325231563811"><ele>433.00000000000006</ele><time>2026-04-11T07:45:47.999Z</time></trkpt><trkpt lat="44.62425385427885" lon="7.485235804164683"><ele>433.0</ele><time>2026-04-11T07:45:52.999Z</time></trkpt><trkpt lat="44.62429186660306" lon="7.485144115982341"><ele>434.1428571428571</ele><time>2026-04-11T07:45:56.999Z</time></trkpt><trkpt lat="44.6243195725119" lon="7.485056098136175"><ele>435.2857142857143</ele><time>2026-04-11T07:46:00.999Z</time></trkpt><trkpt lat="44.62434044731449" lon="7.484963748873028"><ele>436.42857142857144</ele><time>2026-04-11T07:46:04.999Z</time></trkpt><trkpt lat="44.6243981699553" lon="7.484880202940299"><ele>437.57142857142856</ele><time>2026-04-11T07:46:08.999Z</time></trkpt><trkpt lat="44.624432216114315" lon="7.484790430702325"><ele>438.7142857142857</ele><time>2026-04-11T07:46:12.999Z</time></trkpt><trkpt lat="44.624440039007915" lon="7.484695369429274"><ele>439.85714285714283</ele><time>2026-04-11T07:46:16.999Z</time></trkpt><trkpt lat="44.62447061659085" lon="7.484584157698742"><ele>441.0</ele><time>2026-04-11T07:46:21.999Z</time></trkpt><trkpt lat="44.624494763783076" lon="7.484482006887145"><ele>443.3333333333333</ele><time>2026-04-11T07:46:25.999Z</time></trkpt><trkpt lat="44.624527129623665" lon="7.48437368042095"><ele>445.66666666666663</ele><time>2026-04-11T07:46:30.999Z</time></trkpt><trkpt lat="44.624553687639505" lon="7.484285313345572"><ele>448.0</ele><time>2026-04-11T07:46:34.998Z</time></trkpt><trkpt lat="44.62458565650678" lon="7.484192504115559"><ele>450.3333333333333</ele><time>2026-04-11T07:46:38.998Z</time></trkpt><trkpt lat="44.624607996140725" lon="7.484077320510795"><ele>452.66666666666663</ele><time>2026-04-11T07:46:42.998Z</time></trkpt><trkpt lat="44.6246248151767" lon="7.483967174172195"><ele>455.0</ele><time>2026-04-11T07:46:46.998Z</time></trkpt><trkpt lat="44.624637580598424" lon="7.483868275457219"><ele>455.0</ele><time>2026-04-11T07:46:50.998Z</time></trkpt><trkpt lat="44.624639547706515" lon="7.483770053794294"><ele>455.0</ele><time>2026-04-11T07:46:55Z</time></trkpt><trkpt lat="44.62464841778091" lon="7.483665239091433"><ele>455.0</ele><time>2026-04-11T07:46:59Z</time></trkpt><trkpt lat="44.624661274117436" lon="7.483558181473065"><ele>455.0</ele><time>2026-04-11T07:47:03Z</time></trkpt><trkpt lat="44.624670824606504" lon="7.483454173773971"><ele>455.0</ele><time>2026-04-11T07:47:08Z</time></trkpt><trkpt lat="44.62466289001573" lon="7.48334628361338"><ele>455.0</ele><time>2026-04-11T07:47:12Z</time></trkpt><trkpt lat="44.6247128496442" lon="7.4832807493388716"><ele>455.0</ele><time>2026-04-11T07:47:16Z</time></trkpt><trkpt lat="44.624783849355325" lon="7.483286424109907"><ele>456.7142857142857</ele><time>2026-04-11T07:47:20Z</time></trkpt><trkpt lat="44.62485682021618" lon="7.483270551456362"><ele>458.42857142857144</ele><time>2026-04-11T07:47:24Z</time></trkpt><trkpt lat="44.62491320854125" lon="7.483208974472678"><ele>460.1428571428571</ele><time>2026-04-11T07:47:28Z</time></trkpt><trkpt lat="44.624926121932404" lon="7.483116685012477"><ele>461.85714285714283</ele><time>2026-04-11T07:47:32Z</time></trkpt><trkpt lat="44.624959273822775" lon="7.48302266953266"><ele>463.57142857142856</ele><time>2026-04-11T07:47:37Z</time></trkpt><trkpt lat="44.62499052205048" lon="7.482937321707249"><ele>465.2857142857142</ele><time>2026-04-11T07:47:41Z</time></trkpt><trkpt lat="44.624999138501394" lon="7.4828439827726685"><ele>466.99999999999994</ele><time>2026-04-11T07:47:44.999Z</time></trkpt><trkpt lat="44.62499601813912" lon="7.4827468734019735"><ele>468.71428571428567</ele><time>2026-04-11T07:47:48.999Z</time></trkpt><trkpt lat="44.62500065454464" lon="7.482657241885018"><ele>470.42857142857144</ele><time>2026-04-11T07:47:52.999Z</time></trkpt><trkpt lat="44.62502268583452" lon="7.482559131398816"><ele>472.1428571428571</ele><time>2026-04-11T07:47:56.999Z</time></trkpt><trkpt lat="44.625011605314086" lon="7.4824583395042685"><ele>473.85714285714283</ele><time>2026-04-11T07:48:01.999Z</time></trkpt><trkpt lat="44.62499416057297" lon="7.482356740190664"><ele>475.57142857142856</ele><time>2026-04-11T07:48:05.999Z</time></trkpt><trkpt lat="44.62500823532571" lon="7.482267967582657"><ele>477.2857142857143</ele><time>2026-04-11T07:48:09.999Z</time></trkpt><trkpt lat="44.6250093010657" lon="7.482174265935753"><ele>479.0</ele><time>2026-04-11T07:48:13.999Z</time></trkpt><trkpt lat="44.62504733860886" lon="7.482082750258097"><ele>479.71428571428567</ele><time>2026-04-11T07:48:17.999Z</time></trkpt><trkpt lat="44.62507266212734" lon="7.481992377076993"><ele>480.42857142857144</ele><time>2026-04-11T07:48:21.999Z</time></trkpt><trkpt lat="44.625106211534494" lon="7.4818903703839315"><ele>481.1428571428571</ele><time>2026-04-11T07:48:25.999Z</time></trkpt><trkpt lat="44.62514941610158" lon="7.481811043923566"><ele>481.85714285714283</ele><time>2026-04-11T07:48:30.999Z</time></trkpt><trkpt lat="44.62519634084879" lon="7.48172386821603"><ele>482.57142857142856</ele><time>2026-04-11T07:48:34.999Z</time></trkpt><trkpt lat="44.62524045712497" lon="7.481653748807129"><ele>483.2857142857143</ele><time>2026-04-11T07:48:38.998Z</time></trkpt><trkpt lat="44.625266186003664" lon="7.481559270115355"><ele>484.0</ele><time>2026-04-11T07:48:42.998Z</time></trkpt><trkpt lat="44.625313242158505" lon="7.481479099725555"><ele>484.57142857142856</ele><time>2026-04-11T07:48:46.998Z</time></trkpt><trkpt lat="44.62535733091595" lon="7.481391946550019"><ele>485.1428571428571</ele><time>2026-04-11T07:48:51.998Z</time></trkpt><trkpt lat="44.62540162885811" lon="7.4813201441467685"><ele>485.71428571428567</ele><time>2026-04-11T07:48:55.998Z</time></trkpt><trkpt lat="44.62545239108715" lon="7.4812421684060135"><ele>486.2857142857142</ele><time>2026-04-11T07:48:59.998Z</time></trkpt><trkpt lat="44.625482290368076" lon="7.481139148541194"><ele>486.85714285714283</ele><time>2026-04-11T07:49:04Z</time></trkpt><trkpt lat="44.62551238201216" lon="7.4810566216460375"><ele>487.42857142857133</ele><time>2026-04-11T07:49:07Z</time></trkpt><trkpt lat="44.6255460917147" lon="7.4809673038760875"><ele>487.99999999999994</ele><time>2026-04-11T07:49:09Z</time></trkpt><trkpt lat="44.62559284258751" lon="7.480887636057402"><ele>488.99999999999994</ele><time>2026-04-11T07:49:12Z</time></trkpt><trkpt lat="44.62565491964325" lon="7.480766460363225"><ele>490.0</ele><time>2026-04-11T07:49:14Z</time></trkpt><trkpt lat="44.62571158129381" lon="7.480681387005817"><ele>491.0</ele><time>2026-04-11T07:49:16Z</time></trkpt><trkpt lat="44.625759327395194" lon="7.480622899588038"><ele>492.0</ele><time>2026-04-11T07:49:18Z</time></trkpt><trkpt lat="44.625817207225154" lon="7.4805579194419405"><ele>492.99999999999994</ele><time>2026-04-11T07:49:21Z</time></trkpt><trkpt lat="44.62585732371473" lon="7.480467803232972"><ele>494.0</ele><time>2026-04-11T07:49:24Z</time></trkpt><trkpt lat="44.62591652937946" lon="7.480363723432106"><ele>493.99999999999994</ele><time>2026-04-11T07:49:27Z</time></trkpt><trkpt lat="44.625978571875585" lon="7.480284321550784"><ele>494.0</ele><time>2026-04-11T07:49:30Z</time></trkpt><trkpt lat="44.62601213193148" lon="7.480181852323886"><ele>494.0</ele><time>2026-04-11T07:49:33Z</time></trkpt><trkpt lat="44.62603898555974" lon="7.480101175658277"><ele>494.0</ele><time>2026-04-11T07:49:36Z</time></trkpt><trkpt lat="44.62607513788357" lon="7.480005818961379"><ele>493.99999999999994</ele><time>2026-04-11T07:49:40Z</time></trkpt><trkpt lat="44.62611358703939" lon="7.479933813235205"><ele>494.0</ele><time>2026-04-11T07:49:42Z</time></trkpt><trkpt lat="44.62617438282746" lon="7.479848122778701"><ele>494.66666666666663</ele><time>2026-04-11T07:49:45Z</time></trkpt><trkpt lat="44.62621624809986" lon="7.4797568260888365"><ele>495.3333333333333</ele><time>2026-04-11T07:49:48Z</time></trkpt><trkpt lat="44.626248971280376" lon="7.479653371854089"><ele>496.0</ele><time>2026-04-11T07:49:49.999Z</time></trkpt><trkpt lat="44.62626142605659" lon="7.479547323966588"><ele>496.66666666666663</ele><time>2026-04-11T07:49:51.999Z</time></trkpt><trkpt lat="44.626290225343865" lon="7.479460395292926"><ele>497.3333333333333</ele><time>2026-04-11T07:49:54.999Z</time></trkpt><trkpt lat="44.62628522437657" lon="7.479364082171653"><ele>498.0</ele><time>2026-04-11T07:49:57.999Z</time></trkpt><trkpt lat="44.62628888026495" lon="7.479237463747487"><ele>498.8333333333333</ele><time>2026-04-11T07:50:00.999Z</time></trkpt><trkpt lat="44.62631690591002" lon="7.479132764352493"><ele>499.66666666666663</ele><time>2026-04-11T07:50:03.999Z</time></trkpt><trkpt lat="44.626334862321954" lon="7.479018678457416"><ele>500.5</ele><time>2026-04-11T07:50:06.999Z</time></trkpt><trkpt lat="44.626354423956265" lon="7.4789170310646345"><ele>501.3333333333333</ele><time>2026-04-11T07:50:09.999Z</time></trkpt><trkpt lat="44.62636791273296" lon="7.478829048567054"><ele>502.16666666666663</ele><time>2026-04-11T07:50:11.999Z</time></trkpt><trkpt lat="44.62637321608128" lon="7.478696337562155"><ele>503.0</ele><time>2026-04-11T07:50:14.999Z</time></trkpt><trkpt lat="44.62637249712732" lon="7.478580888867757"><ele>503.8333333333333</ele><time>2026-04-11T07:50:17.999Z</time></trkpt><trkpt lat="44.6263893693737" lon="7.478465500056805"><ele>504.66666666666663</ele><time>2026-04-11T07:50:20.999Z</time></trkpt><trkpt lat="44.626451630868004" lon="7.478451748671749"><ele>505.5</ele><time>2026-04-11T07:50:23.999Z</time></trkpt><trkpt lat="44.62652969073095" lon="7.47845373790914"><ele>506.33333333333337</ele><time>2026-04-11T07:50:26.999Z</time></trkpt><trkpt lat="44.62660637858178" lon="7.478457953447292"><ele>507.1666666666667</ele><time>2026-04-11T07:50:29.999Z</time></trkpt><trkpt lat="44.6266840154843" lon="7.478427220103664"><ele>508.0</ele><time>2026-04-11T07:50:32.999Z</time></trkpt><trkpt lat="44.62676420395083" lon="7.478403243132145"><ele>508.0</ele><time>2026-04-11T07:50:36.999Z</time></trkpt><trkpt lat="44.62682628819047" lon="7.478377102303419"><ele>508.0</ele><time>2026-04-11T07:50:39.999Z</time></trkpt><trkpt lat="44.626913752358206" lon="7.478363903271583"><ele>508.0</ele><time>2026-04-11T07:50:43.998Z</time></trkpt><trkpt lat="44.626968702491425" lon="7.4784241771313305"><ele>508.0</ele><time>2026-04-11T07:50:49.998Z</time></trkpt><trkpt lat="44.62698347822314" lon="7.478535349247174"><ele>508.0</ele><time>2026-04-11T07:50:54.998Z</time></trkpt><trkpt lat="44.62700239076299" lon="7.478635526019343"><ele>508.0</ele><time>2026-04-11T07:50:58.998Z</time></trkpt><trkpt lat="44.62703576526422" lon="7.478714056686237"><ele>508.0</ele><time>2026-04-11T07:51:01.998Z</time></trkpt><trkpt lat="44.62708162699168" lon="7.478776048642827"><ele>510.14285714285717</ele><time>2026-04-11T07:51:04.998Z</time></trkpt><trkpt lat="44.62712884732662" lon="7.478711320197493"><ele>512.2857142857142</ele><time>2026-04-11T07:51:09Z</time></trkpt><trkpt lat="44.62709434814735" lon="7.478622878184614"><ele>514.4285714285713</ele><time>2026-04-11T07:51:12Z</time></trkpt><trkpt lat="44.627074642975586" lon="7.478532466715815"><ele>516.5714285714286</ele><time>2026-04-11T07:51:15Z</time></trkpt><trkpt lat="44.62707878077561" lon="7.478437746423597"><ele>518.7142857142857</ele><time>2026-04-11T07:51:18Z</time></trkpt><trkpt lat="44.62706169402426" lon="7.478338322269576"><ele>520.8571428571428</ele><time>2026-04-11T07:51:21Z</time></trkpt><trkpt lat="44.62707003331061" lon="7.478217887300044"><ele>523.0</ele><time>2026-04-11T07:51:24Z</time></trkpt><trkpt lat="44.62705400313121" lon="7.47811028366583"><ele>523.0</ele><time>2026-04-11T07:51:27Z</time></trkpt><trkpt lat="44.62704246522313" lon="7.477993133933871"><ele>523.0</ele><time>2026-04-11T07:51:30Z</time></trkpt><trkpt lat="44.62703584952255" lon="7.477893431574641"><ele>523.0</ele><time>2026-04-11T07:51:33Z</time></trkpt><trkpt lat="44.627016121442715" lon="7.477770272940453"><ele>523.0</ele><time>2026-04-11T07:51:37Z</time></trkpt><trkpt lat="44.626986535843265" lon="7.477671576121258"><ele>523.0</ele><time>2026-04-11T07:51:40Z</time></trkpt><trkpt lat="44.62695849997885" lon="7.4775711997454"><ele>523.0</ele><time>2026-04-11T07:51:43Z</time></trkpt><trkpt lat="44.62692095702617" lon="7.477494381335043"><ele>522.1428571428571</ele><time>2026-04-11T07:51:46Z</time></trkpt><trkpt lat="44.62687763657439" lon="7.477425416492577"><ele>521.2857142857142</ele><time>2026-04-11T07:51:49Z</time></trkpt><trkpt lat="44.626809281361005" lon="7.477357116580314"><ele>520.4285714285714</ele><time>2026-04-11T07:51:54Z</time></trkpt><trkpt lat="44.626754551577434" lon="7.477286675379308"><ele>519.5714285714286</ele><time>2026-04-11T07:51:56.999Z</time></trkpt><trkpt lat="44.62670560532585" lon="7.477230678424709"><ele>518.7142857142858</ele><time>2026-04-11T07:51:59.999Z</time></trkpt><trkpt lat="44.62666306806301" lon="7.477162983527314"><ele>517.8571428571429</ele><time>2026-04-11T07:52:02.999Z</time></trkpt><trkpt lat="44.626586459649744" lon="7.477145941273956"><ele>517.0</ele><time>2026-04-11T07:52:06.999Z</time></trkpt><trkpt lat="44.62651706643708" lon="7.477111879572923"><ele>518.8333333333334</ele><time>2026-04-11T07:52:09.999Z</time></trkpt><trkpt lat="44.62645270773714" lon="7.477049357989388"><ele>520.6666666666667</ele><time>2026-04-11T07:52:13.999Z</time></trkpt><trkpt lat="44.62638532572862" lon="7.4769851926901065"><ele>522.5</ele><time>2026-04-11T07:52:17.999Z</time></trkpt><trkpt lat="44.626337386760504" lon="7.4769117249405594"><ele>524.3333333333334</ele><time>2026-04-11T07:52:21.999Z</time></trkpt><trkpt lat="44.62627584610104" lon="7.476836534375466"><ele>526.1666666666666</ele><time>2026-04-11T07:52:25.999Z</time></trkpt><trkpt lat="44.62621860639242" lon="7.4767622804677645"><ele>528.0</ele><time>2026-04-11T07:52:28.999Z</time></trkpt><trkpt lat="44.6261768720405" lon="7.476692155040592"><ele>527.0</ele><time>2026-04-11T07:52:31.999Z</time></trkpt><trkpt lat="44.62612744914559" lon="7.47663449663539"><ele>526.0</ele><time>2026-04-11T07:52:34.999Z</time></trkpt><trkpt lat="44.62607841834839" lon="7.476511990760218"><ele>525.0</ele><time>2026-04-11T07:52:37.999Z</time></trkpt><trkpt lat="44.626063024281" lon="7.476402215061413"><ele>524.0</ele><time>2026-04-11T07:52:41.999Z</time></trkpt><trkpt lat="44.62602106320081" lon="7.476304472062656"><ele>523.0</ele><time>2026-04-11T07:52:44.999Z</time></trkpt><trkpt lat="44.62597576238141" lon="7.476208320783643"><ele>522.0</ele><time>2026-04-11T07:52:48.999Z</time></trkpt><trkpt lat="44.62598140423977" lon="7.4760892582725145"><ele>522.0</ele><time>2026-04-11T07:52:51.998Z</time></trkpt><trkpt lat="44.62599511016238" lon="7.4760002746817005"><ele>522.0</ele><time>2026-04-11T07:52:54.998Z</time></trkpt><trkpt lat="44.626013976745774" lon="7.475879325206518"><ele>522.0</ele><time>2026-04-11T07:52:58.998Z</time></trkpt><trkpt lat="44.62603881120902" lon="7.475788693098815"><ele>522.0</ele><time>2026-04-11T07:53:01.998Z</time></trkpt><trkpt lat="44.62606970133072" lon="7.475705014918068"><ele>522.0</ele><time>2026-04-11T07:53:04.998Z</time></trkpt><trkpt lat="44.6260915006176" lon="7.4756005401815"><ele>522.0</ele><time>2026-04-11T07:53:07.998Z</time></trkpt><trkpt lat="44.626097460558455" lon="7.4755084086189605"><ele>522.0</ele><time>2026-04-11T07:53:10.998Z</time></trkpt><trkpt lat="44.626080862617926" lon="7.475423019297533"><ele>523.2857142857143</ele><time>2026-04-11T07:53:14Z</time></trkpt><trkpt lat="44.62605790396576" lon="7.475325567226158"><ele>524.5714285714286</ele><time>2026-04-11T07:53:17Z</time></trkpt><trkpt lat="44.626004964210956" lon="7.475238564703738"><ele>525.8571428571429</ele><time>2026-04-11T07:53:20Z</time></trkpt><trkpt lat="44.62594149431521" lon="7.475175159683442"><ele>527.1428571428571</ele><time>2026-04-11T07:53:23Z</time></trkpt><trkpt lat="44.62587599822465" lon="7.475132383072227"><ele>528.4285714285714</ele><time>2026-04-11T07:53:26Z</time></trkpt><trkpt lat="44.6258078246038" lon="7.475082897160511"><ele>529.7142857142858</ele><time>2026-04-11T07:53:29Z</time></trkpt><trkpt lat="44.6257465246079" lon="7.475043002958366"><ele>531.0</ele><time>2026-04-11T07:53:31Z</time></trkpt><trkpt lat="44.62567258163079" lon="7.474984513299066"><ele>531.0</ele><time>2026-04-11T07:53:34Z</time></trkpt><trkpt lat="44.625598505302186" lon="7.474939224014655"><ele>531.0</ele><time>2026-04-11T07:53:37Z</time></trkpt><trkpt lat="44.625528385582584" lon="7.474900104552265"><ele>531.0</ele><time>2026-04-11T07:53:40Z</time></trkpt><trkpt lat="44.62546172839952" lon="7.474858542627028"><ele>531.0</ele><time>2026-04-11T07:53:43Z</time></trkpt><trkpt lat="44.6253907112429" lon="7.474806882938164"><ele>531.0</ele><time>2026-04-11T07:53:46Z</time></trkpt><trkpt lat="44.62532363772754" lon="7.474753250692431"><ele>531.0</ele><time>2026-04-11T07:53:49Z</time></trkpt><trkpt lat="44.62525921530375" lon="7.474689887474119"><ele>531.6666666666666</ele><time>2026-04-11T07:53:52Z</time></trkpt><trkpt lat="44.6251997272076" lon="7.4746206846282846"><ele>532.3333333333334</ele><time>2026-04-11T07:53:55Z</time></trkpt><trkpt lat="44.62513018271156" lon="7.474577809734561"><ele>533.0</ele><time>2026-04-11T07:53:57Z</time></trkpt><trkpt lat="44.625066767574744" lon="7.4745260032259235"><ele>533.6666666666667</ele><time>2026-04-11T07:53:59Z</time></trkpt><trkpt lat="44.62499095061547" lon="7.474474395844956"><ele>534.3333333333334</ele><time>2026-04-11T07:54:01Z</time></trkpt><trkpt lat="44.624919285963884" lon="7.474393669026865"><ele>535.0</ele><time>2026-04-11T07:54:02.999Z</time></trkpt><trkpt lat="44.624838341644505" lon="7.474306717444162"><ele>535.0</ele><time>2026-04-11T07:54:04.999Z</time></trkpt><trkpt lat="44.62475117105136" lon="7.474201372284116"><ele>535.0</ele><time>2026-04-11T07:54:06.999Z</time></trkpt><trkpt lat="44.6246847176775" lon="7.47407125353474"><ele>535.0</ele><time>2026-04-11T07:54:08.999Z</time></trkpt><trkpt lat="44.62465538318712" lon="7.473986706526878"><ele>535.0</ele><time>2026-04-11T07:54:09.999Z</time></trkpt><trkpt lat="44.62463443104998" lon="7.473820783253738"><ele>535.0</ele><time>2026-04-11T07:54:11.999Z</time></trkpt><trkpt lat="44.624626761969495" lon="7.473657775813152"><ele>535.3333333333334</ele><time>2026-04-11T07:54:13.999Z</time></trkpt><trkpt lat="44.62464250139379" lon="7.473489087891287"><ele>535.6666666666667</ele><time>2026-04-11T07:54:15.999Z</time></trkpt><trkpt lat="44.62465127042445" lon="7.473396710605354"><ele>536.0</ele><time>2026-04-11T07:54:16.999Z</time></trkpt><trkpt lat="44.62466199756447" lon="7.473306184419577"><ele>536.3333333333334</ele><time>2026-04-11T07:54:17.999Z</time></trkpt><trkpt lat="44.62467073587265" lon="7.473216106479966"><ele>536.6666666666666</ele><time>2026-04-11T07:54:18.999Z</time></trkpt><trkpt lat="44.62468304423509" lon="7.473054526320292"><ele>537.0</ele><time>2026-04-11T07:54:20.999Z</time></trkpt><trkpt lat="44.62469353380717" lon="7.472895577185428"><ele>536.2</ele><time>2026-04-11T07:54:22.999Z</time></trkpt><trkpt lat="44.624695368565504" lon="7.472747198969831"><ele>535.4000000000001</ele><time>2026-04-11T07:54:24.999Z</time></trkpt><trkpt lat="44.62468483991929" lon="7.4726022169076085"><ele>534.5999999999999</ele><time>2026-04-11T07:54:26.999Z</time></trkpt><trkpt lat="44.62465490509559" lon="7.472470639904235"><ele>533.8</ele><time>2026-04-11T07:54:28.999Z</time></trkpt><trkpt lat="44.62460182589168" lon="7.472348391698203"><ele>533.0</ele><time>2026-04-11T07:54:30.999Z</time></trkpt><trkpt lat="44.62454131306943" lon="7.472236636442354"><ele>531.8</ele><time>2026-04-11T07:54:32.999Z</time></trkpt><trkpt lat="44.62447157380091" lon="7.47212496991477"><ele>530.5999999999999</ele><time>2026-04-11T07:54:34.999Z</time></trkpt><trkpt lat="44.624394604737645" lon="7.472047742003599"><ele>529.4000000000001</ele><time>2026-04-11T07:54:36.999Z</time></trkpt><trkpt lat="44.624307038288826" lon="7.471990846699507"><ele>528.2</ele><time>2026-04-11T07:54:38.999Z</time></trkpt><trkpt lat="44.62421075313014" lon="7.471934388829093"><ele>527.0</ele><time>2026-04-11T07:54:40.999Z</time></trkpt><trkpt lat="44.624121619992316" lon="7.471895603182973"><ele>527.0</ele><time>2026-04-11T07:54:42.999Z</time></trkpt><trkpt lat="44.6240390694412" lon="7.471873065804435"><ele>527.0</ele><time>2026-04-11T07:54:44.999Z</time></trkpt><trkpt lat="44.62395731465707" lon="7.471846793756911"><ele>527.0</ele><time>2026-04-11T07:54:46.999Z</time></trkpt><trkpt lat="44.62388494693112" lon="7.471821131067194"><ele>527.0</ele><time>2026-04-11T07:54:48.999Z</time></trkpt><trkpt lat="44.62381445065079" lon="7.471811824767071"><ele>527.0</ele><time>2026-04-11T07:54:50.999Z</time></trkpt><trkpt lat="44.62373940022339" lon="7.471781314917322"><ele>527.0</ele><time>2026-04-11T07:54:52.999Z</time></trkpt><trkpt lat="44.623668013723766" lon="7.4717594777260485"><ele>525.6666666666666</ele><time>2026-04-11T07:54:54.999Z</time></trkpt><trkpt lat="44.62359222709275" lon="7.471744940439242"><ele>524.3333333333333</ele><time>2026-04-11T07:54:56.998Z</time></trkpt><trkpt lat="44.62351435320096" lon="7.471704134736792"><ele>523.0</ele><time>2026-04-11T07:54:58.998Z</time></trkpt><trkpt lat="44.623433243191975" lon="7.47167815234188"><ele>521.6666666666666</ele><time>2026-04-11T07:55:00.998Z</time></trkpt><trkpt lat="44.62335764371514" lon="7.471648021686641"><ele>520.3333333333334</ele><time>2026-04-11T07:55:02.998Z</time></trkpt><trkpt lat="44.62327659402178" lon="7.471617917176969"><ele>519.0</ele><time>2026-04-11T07:55:04.998Z</time></trkpt><trkpt lat="44.62319674469395" lon="7.47158770965442"><ele>519.0</ele><time>2026-04-11T07:55:06.998Z</time></trkpt><trkpt lat="44.62312380494885" lon="7.471560696505746"><ele>519.0</ele><time>2026-04-11T07:55:08.998Z</time></trkpt><trkpt lat="44.623046170207225" lon="7.471536400446045"><ele>519.0</ele><time>2026-04-11T07:55:10.998Z</time></trkpt><trkpt lat="44.62297427000447" lon="7.4715269958537505"><ele>519.0</ele><time>2026-04-11T07:55:13.998Z</time></trkpt><trkpt lat="44.62291082939812" lon="7.471491033610782"><ele>519.0</ele><time>2026-04-11T07:55:15.998Z</time></trkpt><trkpt lat="44.62284514949767" lon="7.471441741141637"><ele>519.0</ele><time>2026-04-11T07:55:17.998Z</time></trkpt><trkpt lat="44.62277944406793" lon="7.471386670457613"><ele>519.0</ele><time>2026-04-11T07:55:20Z</time></trkpt><trkpt lat="44.62272939494284" lon="7.471320144618442"><ele>520.0</ele><time>2026-04-11T07:55:22Z</time></trkpt><trkpt lat="44.62257364194956" lon="7.471104859273558"><ele>521.0</ele><time>2026-04-11T07:55:25Z</time></trkpt><trkpt lat="44.62253608703496" lon="7.471023143403317"><ele>522.0</ele><time>2026-04-11T07:55:27Z</time></trkpt><trkpt lat="44.62248432452513" lon="7.47091398940893"><ele>523.0</ele><time>2026-04-11T07:55:30Z</time></trkpt><trkpt lat="44.62244979255955" lon="7.4708343770848735"><ele>524.0</ele><time>2026-04-11T07:55:32Z</time></trkpt><trkpt lat="44.622412895508994" lon="7.47075801161421"><ele>524.0</ele><time>2026-04-11T07:55:34Z</time></trkpt><trkpt lat="44.622373362213324" lon="7.470675326764611"><ele>524.0</ele><time>2026-04-11T07:55:36Z</time></trkpt><trkpt lat="44.622346549963765" lon="7.470583544996792"><ele>524.0</ele><time>2026-04-11T07:55:38Z</time></trkpt><trkpt lat="44.62232307553345" lon="7.4704904997079815"><ele>524.0</ele><time>2026-04-11T07:55:40Z</time></trkpt><trkpt lat="44.62230041771549" lon="7.470402963351568"><ele>524.0</ele><time>2026-04-11T07:55:42Z</time></trkpt><trkpt lat="44.62226171078456" lon="7.470321891600682"><ele>524.0</ele><time>2026-04-11T07:55:44Z</time></trkpt><trkpt lat="44.622237987069056" lon="7.470219662166346"><ele>524.0</ele><time>2026-04-11T07:55:48Z</time></trkpt><trkpt lat="44.62224804062655" lon="7.470094352339614"><ele>524.8333333333333</ele><time>2026-04-11T07:55:51Z</time></trkpt><trkpt lat="44.622288410593164" lon="7.469988601075312"><ele>525.6666666666666</ele><time>2026-04-11T07:55:53Z</time></trkpt><trkpt lat="44.6222952474263" lon="7.469886988882158"><ele>526.5</ele><time>2026-04-11T07:55:55Z</time></trkpt><trkpt lat="44.622286253295435" lon="7.469796070916018"><ele>527.3333333333334</ele><time>2026-04-11T07:55:57Z</time></trkpt><trkpt lat="44.6222846998346" lon="7.469678056927649"><ele>528.1666666666667</ele><time>2026-04-11T07:56:00Z</time></trkpt><trkpt lat="44.62227664121397" lon="7.469564832968494"><ele>529.0</ele><time>2026-04-11T07:56:03Z</time></trkpt><trkpt lat="44.62226916494051" lon="7.4694423424950065"><ele>529.0</ele><time>2026-04-11T07:56:06Z</time></trkpt><trkpt lat="44.62224118585965" lon="7.469322883219002"><ele>529.0</ele><time>2026-04-11T07:56:08.999Z</time></trkpt><trkpt lat="44.62220341572882" lon="7.469186659243491"><ele>529.0</ele><time>2026-04-11T07:56:11.999Z</time></trkpt><trkpt lat="44.622185825219404" lon="7.469073157465452"><ele>529.0</ele><time>2026-04-11T07:56:13.999Z</time></trkpt><trkpt lat="44.62213425903217" lon="7.468999142505088"><ele>529.0</ele><time>2026-04-11T07:56:15.999Z</time></trkpt><trkpt lat="44.62208992684777" lon="7.4689047302760665"><ele>529.0</ele><time>2026-04-11T07:56:17.999Z</time></trkpt><trkpt lat="44.62205025167522" lon="7.468808365987229"><ele>528.8333333333334</ele><time>2026-04-11T07:56:19.999Z</time></trkpt><trkpt lat="44.622016868989974" lon="7.468684287945452"><ele>528.6666666666667</ele><time>2026-04-11T07:56:22.999Z</time></trkpt><trkpt lat="44.621977444299674" lon="7.468612334647123"><ele>528.5</ele><time>2026-04-11T07:56:24.999Z</time></trkpt><trkpt lat="44.62194616669704" lon="7.468503947551563"><ele>528.3333333333334</ele><time>2026-04-11T07:56:27.999Z</time></trkpt><trkpt lat="44.62191798921024" lon="7.46841558116766"><ele>528.1666666666666</ele><time>2026-04-11T07:56:29.999Z</time></trkpt><trkpt lat="44.62187895614602" lon="7.468328793686645"><ele>528.0</ele><time>2026-04-11T07:56:31.999Z</time></trkpt><trkpt lat="44.621818992286926" lon="7.468248090750126"><ele>528.0</ele><time>2026-04-11T07:56:33.999Z</time></trkpt><trkpt lat="44.62173282584883" lon="7.468197382061032"><ele>528.0</ele><time>2026-04-11T07:56:35.999Z</time></trkpt><trkpt lat="44.621636420043714" lon="7.468170176774392"><ele>528.0</ele><time>2026-04-11T07:56:37.999Z</time></trkpt><trkpt lat="44.62152488908454" lon="7.46814940636662"><ele>528.0</ele><time>2026-04-11T07:56:39.999Z</time></trkpt><trkpt lat="44.621432238697565" lon="7.468120605204532"><ele>528.0</ele><time>2026-04-11T07:56:41.999Z</time></trkpt><trkpt lat="44.621354144401636" lon="7.46803624103471"><ele>528.0</ele><time>2026-04-11T07:56:43.999Z</time></trkpt><trkpt lat="44.62129942819643" lon="7.46794583994721"><ele>528.0</ele><time>2026-04-11T07:56:45.999Z</time></trkpt><trkpt lat="44.62126463266387" lon="7.467858299035422"><ele>528.0</ele><time>2026-04-11T07:56:47.999Z</time></trkpt><trkpt lat="44.621230114706506" lon="7.4677701363120805"><ele>528.0</ele><time>2026-04-11T07:56:49.999Z</time></trkpt><trkpt lat="44.62118079395178" lon="7.467712427449032"><ele>528.0</ele><time>2026-04-11T07:56:51.999Z</time></trkpt><trkpt lat="44.621134897849934" lon="7.467594620604596"><ele>528.0</ele><time>2026-04-11T07:56:54.999Z</time></trkpt><trkpt lat="44.62111026408442" lon="7.467484439412853"><ele>529.0</ele><time>2026-04-11T07:56:57.999Z</time></trkpt><trkpt lat="44.62107869287881" lon="7.4674078789831055"><ele>530.0</ele><time>2026-04-11T07:56:59.999Z</time></trkpt><trkpt lat="44.621048857437444" lon="7.467320251005757"><ele>531.0</ele><time>2026-04-11T07:57:01.998Z</time></trkpt><trkpt lat="44.62101043463884" lon="7.46721565175127"><ele>532.0</ele><time>2026-04-11T07:57:04.998Z</time></trkpt><trkpt lat="44.620975494105124" lon="7.467102341631406"><ele>533.0</ele><time>2026-04-11T07:57:08.998Z</time></trkpt><trkpt lat="44.6209492333461" lon="7.4669889425423595"><ele>534.0</ele><time>2026-04-11T07:57:11.998Z</time></trkpt><trkpt lat="44.620942131820435" lon="7.466893365364026"><ele>534.0</ele><time>2026-04-11T07:57:13.998Z</time></trkpt><trkpt lat="44.6209189259741" lon="7.466765637615845"><ele>534.0</ele><time>2026-04-11T07:57:16.998Z</time></trkpt><trkpt lat="44.62091354742214" lon="7.466630738612348"><ele>534.0</ele><time>2026-04-11T07:57:19.998Z</time></trkpt><trkpt lat="44.62090674781653" lon="7.46653742939242"><ele>534.0</ele><time>2026-04-11T07:57:21.998Z</time></trkpt><trkpt lat="44.62085574557116" lon="7.466414568210096"><ele>534.0</ele><time>2026-04-11T07:57:25Z</time></trkpt><trkpt lat="44.62080279546404" lon="7.466324126765637"><ele>534.0</ele><time>2026-04-11T07:57:27Z</time></trkpt><trkpt lat="44.62076830242485" lon="7.466223550386452"><ele>531.8571428571429</ele><time>2026-04-11T07:57:30Z</time></trkpt><trkpt lat="44.620730286986735" lon="7.46613265672426"><ele>529.7142857142858</ele><time>2026-04-11T07:57:32Z</time></trkpt><trkpt lat="44.62067443824071" lon="7.466060624831884"><ele>527.5714285714286</ele><time>2026-04-11T07:57:34Z</time></trkpt><trkpt lat="44.62059744054114" lon="7.466023160082811"><ele>525.4285714285714</ele><time>2026-04-11T07:57:37Z</time></trkpt><trkpt lat="44.62053470179488" lon="7.4660111209367575"><ele>523.2857142857142</ele><time>2026-04-11T07:57:39Z</time></trkpt><trkpt lat="44.620468716077696" lon="7.4660024513152665"><ele>521.1428571428571</ele><time>2026-04-11T07:57:41Z</time></trkpt><trkpt lat="44.62039671495027" lon="7.466019595440134"><ele>519.0</ele><time>2026-04-11T07:57:43Z</time></trkpt><trkpt lat="44.62032509542753" lon="7.466049631273688"><ele>521.0</ele><time>2026-04-11T07:57:45Z</time></trkpt><trkpt lat="44.62026422476443" lon="7.466074277020609"><ele>523.0</ele><time>2026-04-11T07:57:47Z</time></trkpt><trkpt lat="44.62017594705982" lon="7.46609896564089"><ele>525.0</ele><time>2026-04-11T07:57:50Z</time></trkpt><trkpt lat="44.62007137879026" lon="7.466118249836754"><ele>527.0</ele><time>2026-04-11T07:57:53Z</time></trkpt><trkpt lat="44.62000483747062" lon="7.46613214150243"><ele>529.0</ele><time>2026-04-11T07:57:55Z</time></trkpt><trkpt lat="44.61994278282543" lon="7.466113678368488"><ele>531.0</ele><time>2026-04-11T07:57:58Z</time></trkpt><trkpt lat="44.619886132928556" lon="7.466061505339842"><ele>531.0</ele><time>2026-04-11T07:58:01Z</time></trkpt><trkpt lat="44.61983858784612" lon="7.465948367543592"><ele>531.0</ele><time>2026-04-11T07:58:04Z</time></trkpt><trkpt lat="44.61980450346841" lon="7.465814223899052"><ele>531.0</ele><time>2026-04-11T07:58:07Z</time></trkpt><trkpt lat="44.61974191030827" lon="7.46568944263519"><ele>531.0</ele><time>2026-04-11T07:58:10Z</time></trkpt><trkpt lat="44.619724078453885" lon="7.465550920063767"><ele>531.0</ele><time>2026-04-11T07:58:13Z</time></trkpt><trkpt lat="44.61967805550126" lon="7.46541359447832"><ele>530.0</ele><time>2026-04-11T07:58:15.999Z</time></trkpt><trkpt lat="44.6196363081617" lon="7.465338438265338"><ele>529.0</ele><time>2026-04-11T07:58:17.999Z</time></trkpt><trkpt lat="44.61960485750563" lon="7.465258889576252"><ele>528.0</ele><time>2026-04-11T07:58:19.999Z</time></trkpt><trkpt lat="44.619570785228646" lon="7.465169287696945"><ele>527.0</ele><time>2026-04-11T07:58:21.999Z</time></trkpt><trkpt lat="44.61954349397029" lon="7.4650746574212095"><ele>526.0</ele><time>2026-04-11T07:58:23.999Z</time></trkpt><trkpt lat="44.61949858591173" lon="7.464970883408412"><ele>525.0</ele><time>2026-04-11T07:58:26.999Z</time></trkpt><trkpt lat="44.61948422047908" lon="7.464864497945114"><ele>524.0</ele><time>2026-04-11T07:58:29.999Z</time></trkpt><trkpt lat="44.619457471642846" lon="7.464777704035167"><ele>524.0</ele><time>2026-04-11T07:58:31.999Z</time></trkpt><trkpt lat="44.61944418117774" lon="7.4646616143784525"><ele>524.0</ele><time>2026-04-11T07:58:34.999Z</time></trkpt><trkpt lat="44.61942885671765" lon="7.4645514397454376"><ele>524.0</ele><time>2026-04-11T07:58:37.999Z</time></trkpt><trkpt lat="44.61940224533317" lon="7.464440257640302"><ele>524.0</ele><time>2026-04-11T07:58:40.999Z</time></trkpt><trkpt lat="44.61938150120912" lon="7.46431270833419"><ele>524.0</ele><time>2026-04-11T07:58:43.999Z</time></trkpt><trkpt lat="44.61935887144639" lon="7.464191983719817"><ele>524.0</ele><time>2026-04-11T07:58:46.999Z</time></trkpt><trkpt lat="44.61932327158039" lon="7.46407801662038"><ele>525.1666666666666</ele><time>2026-04-11T07:58:49.999Z</time></trkpt><trkpt lat="44.61929566520744" lon="7.46397625480435"><ele>526.3333333333333</ele><time>2026-04-11T07:58:52.999Z</time></trkpt><trkpt lat="44.61926475246852" lon="7.463861710107945"><ele>527.5</ele><time>2026-04-11T07:58:55.999Z</time></trkpt><trkpt lat="44.61922432034817" lon="7.463756190089521"><ele>528.6666666666666</ele><time>2026-04-11T07:58:58.999Z</time></trkpt><trkpt lat="44.61919163911537" lon="7.463647977475977"><ele>529.8333333333334</ele><time>2026-04-11T07:59:01.999Z</time></trkpt><trkpt lat="44.61916445489885" lon="7.463532140149615"><ele>531.0</ele><time>2026-04-11T07:59:04.999Z</time></trkpt><trkpt lat="44.619138814461046" lon="7.463414336572561"><ele>532.1666666666666</ele><time>2026-04-11T07:59:07.998Z</time></trkpt><trkpt lat="44.619109730498266" lon="7.46331747373344"><ele>533.3333333333334</ele><time>2026-04-11T07:59:10.998Z</time></trkpt><trkpt lat="44.619061470868914" lon="7.463239603066035"><ele>534.5</ele><time>2026-04-11T07:59:12.998Z</time></trkpt><trkpt lat="44.61901266081009" lon="7.463179654451521"><ele>535.6666666666667</ele><time>2026-04-11T07:59:14.998Z</time></trkpt><trkpt lat="44.618936814578866" lon="7.463119077815947"><ele>536.8333333333334</ele><time>2026-04-11T07:59:17.998Z</time></trkpt><trkpt lat="44.61885013880037" lon="7.463069594002556"><ele>538.0</ele><time>2026-04-11T07:59:20.998Z</time></trkpt><trkpt lat="44.61877255768601" lon="7.463033314775787"><ele>538.0</ele><time>2026-04-11T07:59:23.998Z</time></trkpt><trkpt lat="44.61869714712443" lon="7.462979545813316"><ele>538.0</ele><time>2026-04-11T07:59:26.998Z</time></trkpt><trkpt lat="44.61861989872711" lon="7.462926781247615"><ele>538.0</ele><time>2026-04-11T07:59:29.998Z</time></trkpt><trkpt lat="44.61855853895139" lon="7.462893887253463"><ele>538.0</ele><time>2026-04-11T07:59:32Z</time></trkpt><trkpt lat="44.61848583050589" lon="7.462841978289118"><ele>538.0</ele><time>2026-04-11T07:59:35Z</time></trkpt><trkpt lat="44.618417653230296" lon="7.4627881364929385"><ele>538.0</ele><time>2026-04-11T07:59:38Z</time></trkpt><trkpt lat="44.618368586947796" lon="7.462723393484648"><ele>538.4285714285714</ele><time>2026-04-11T07:59:41Z</time></trkpt><trkpt lat="44.61832004008686" lon="7.462639312212054"><ele>538.8571428571429</ele><time>2026-04-11T07:59:44Z</time></trkpt><trkpt lat="44.61827638917702" lon="7.462558818458065"><ele>539.2857142857143</ele><time>2026-04-11T07:59:47Z</time></trkpt><trkpt lat="44.61823147339794" lon="7.462474279500572"><ele>539.7142857142858</ele><time>2026-04-11T07:59:50Z</time></trkpt><trkpt lat="44.618188108497186" lon="7.462385112978048"><ele>540.1428571428571</ele><time>2026-04-11T07:59:53Z</time></trkpt><trkpt lat="44.61816997114536" lon="7.462286033823544"><ele>540.5714285714287</ele><time>2026-04-11T07:59:56Z</time></trkpt><trkpt lat="44.6181489473519" lon="7.462185512430217"><ele>541.0</ele><time>2026-04-11T07:59:59Z</time></trkpt><trkpt lat="44.61813574669381" lon="7.462081748362928"><ele>542.0000000000001</ele><time>2026-04-11T08:00:03Z</time></trkpt><trkpt lat="44.618128495196956" lon="7.461978264073851"><ele>543.0</ele><time>2026-04-11T08:00:06Z</time></trkpt><trkpt lat="44.618118548958705" lon="7.461882926534952"><ele>544.0</ele><time>2026-04-11T08:00:08Z</time></trkpt><trkpt lat="44.61810656125766" lon="7.4617763146444"><ele>545.0</ele><time>2026-04-11T08:00:11Z</time></trkpt><trkpt lat="44.6181091904751" lon="7.4616604067784476"><ele>546.0</ele><time>2026-04-11T08:00:14Z</time></trkpt><trkpt lat="44.61811711159891" lon="7.461564072665566"><ele>547.0000000000001</ele><time>2026-04-11T08:00:17Z</time></trkpt><trkpt lat="44.61813099159489" lon="7.461476602362298"><ele>548.0</ele><time>2026-04-11T08:00:20Z</time></trkpt><trkpt lat="44.618154288830766" lon="7.461383758211899"><ele>548.0000000000001</ele><time>2026-04-11T08:00:22.999Z</time></trkpt><trkpt lat="44.618180287813104" lon="7.461293041408876"><ele>548.0</ele><time>2026-04-11T08:00:25.999Z</time></trkpt><trkpt lat="44.61821476035558" lon="7.461204172175008"><ele>548.0</ele><time>2026-04-11T08:00:28.999Z</time></trkpt><trkpt lat="44.618238516041615" lon="7.461116481400505"><ele>548.0</ele><time>2026-04-11T08:00:31.999Z</time></trkpt><trkpt lat="44.61825666745585" lon="7.461015610978356"><ele>548.0</ele><time>2026-04-11T08:00:34.999Z</time></trkpt><trkpt lat="44.61827516046833" lon="7.460922444742576"><ele>548.0000000000001</ele><time>2026-04-11T08:00:37.999Z</time></trkpt><trkpt lat="44.61829432729138" lon="7.460829651279985"><ele>548.0</ele><time>2026-04-11T08:00:40.999Z</time></trkpt><trkpt lat="44.61832181358021" lon="7.460740707994028"><ele>549.8333333333333</ele><time>2026-04-11T08:00:43.999Z</time></trkpt><trkpt lat="44.61833114352883" lon="7.460647100324772"><ele>551.6666666666666</ele><time>2026-04-11T08:00:46.999Z</time></trkpt><trkpt lat="44.61832027660737" lon="7.460539150227253"><ele>553.5</ele><time>2026-04-11T08:00:49.999Z</time></trkpt><trkpt lat="44.61832489485357" lon="7.460439011491248"><ele>555.3333333333334</ele><time>2026-04-11T08:00:52.999Z</time></trkpt><trkpt lat="44.61833796086461" lon="7.460329012899255"><ele>557.1666666666667</ele><time>2026-04-11T08:00:55.999Z</time></trkpt><trkpt lat="44.61834128032619" lon="7.460212892884061"><ele>559.0</ele><time>2026-04-11T08:00:58.999Z</time></trkpt><trkpt lat="44.6183299968018" lon="7.4600951315338495"><ele>559.1666666666667</ele><time>2026-04-11T08:01:01.999Z</time></trkpt><trkpt lat="44.61831187029336" lon="7.4600031201676815"><ele>559.3333333333334</ele><time>2026-04-11T08:01:04.999Z</time></trkpt><trkpt lat="44.61829425871094" lon="7.459877318439742"><ele>559.5</ele><time>2026-04-11T08:01:07.999Z</time></trkpt><trkpt lat="44.61828593054668" lon="7.459762265680912"><ele>559.6666666666666</ele><time>2026-04-11T08:01:10.999Z</time></trkpt><trkpt lat="44.61829464843567" lon="7.459658393953186"><ele>559.8333333333333</ele><time>2026-04-11T08:01:13.999Z</time></trkpt><trkpt lat="44.61831259714029" lon="7.459554786329949"><ele>560.0</ele><time>2026-04-11T08:01:16.998Z</time></trkpt><trkpt lat="44.6182933972084" lon="7.459450461333774"><ele>560.0</ele><time>2026-04-11T08:01:19.998Z</time></trkpt><trkpt lat="44.61827713452278" lon="7.4593602474328575"><ele>560.0</ele><time>2026-04-11T08:01:22.998Z</time></trkpt><trkpt lat="44.61824266834822" lon="7.459284762923778"><ele>560.0</ele><time>2026-04-11T08:01:25.998Z</time></trkpt><trkpt lat="44.61818707993401" lon="7.459204602368236"><ele>560.0</ele><time>2026-04-11T08:01:28.998Z</time></trkpt><trkpt lat="44.6181260998439" lon="7.459114868094449"><ele>560.0</ele><time>2026-04-11T08:01:31.998Z</time></trkpt><trkpt lat="44.61807757877353" lon="7.45904435457013"><ele>560.0</ele><time>2026-04-11T08:01:34.998Z</time></trkpt><trkpt lat="44.618053133368775" lon="7.458943509550613"><ele>560.0</ele><time>2026-04-11T08:01:39Z</time></trkpt><trkpt lat="44.61801799022065" lon="7.4588551135403875"><ele>559.8571428571429</ele><time>2026-04-11T08:01:43Z</time></trkpt><trkpt lat="44.61800073427746" lon="7.45876419989453"><ele>559.7142857142858</ele><time>2026-04-11T08:01:47Z</time></trkpt><trkpt lat="44.61796094297528" lon="7.458666784832495"><ele>559.5714285714286</ele><time>2026-04-11T08:01:51Z</time></trkpt><trkpt lat="44.617929352673144" lon="7.458560859234575"><ele>559.4285714285714</ele><time>2026-04-11T08:01:55Z</time></trkpt><trkpt lat="44.61790093968565" lon="7.458475393145038"><ele>559.2857142857143</ele><time>2026-04-11T08:01:59Z</time></trkpt><trkpt lat="44.61787590811638" lon="7.4583778523137205"><ele>559.1428571428571</ele><time>2026-04-11T08:02:02Z</time></trkpt><trkpt lat="44.617837159819814" lon="7.458286357048647"><ele>559.0</ele><time>2026-04-11T08:02:06Z</time></trkpt><trkpt lat="44.617789990860885" lon="7.458204452139697"><ele>558.8333333333334</ele><time>2026-04-11T08:02:09Z</time></trkpt><trkpt lat="44.617761090649196" lon="7.458099345406471"><ele>558.6666666666667</ele><time>2026-04-11T08:02:13Z</time></trkpt><trkpt lat="44.617705627162444" lon="7.458026930853273"><ele>558.5</ele><time>2026-04-11T08:02:17Z</time></trkpt><trkpt lat="44.61765197816445" lon="7.457960975164861"><ele>558.3333333333334</ele><time>2026-04-11T08:02:20Z</time></trkpt><trkpt lat="44.61758532707605" lon="7.457891236819134"><ele>558.1666666666666</ele><time>2026-04-11T08:02:24Z</time></trkpt><trkpt lat="44.6175410741315" lon="7.457828253443721"><ele>558.0</ele><time>2026-04-11T08:02:27Z</time></trkpt><trkpt lat="44.61748325089742" lon="7.457741993105324"><ele>560.0</ele><time>2026-04-11T08:02:30.999Z</time></trkpt><trkpt lat="44.61744043675726" lon="7.4576731181511144"><ele>562.0</ele><time>2026-04-11T08:02:33.999Z</time></trkpt><trkpt lat="44.6173984505522" lon="7.4575967743946014"><ele>564.0</ele><time>2026-04-11T08:02:36.999Z</time></trkpt><trkpt lat="44.61735346176149" lon="7.457504250183153"><ele>566.0</ele><time>2026-04-11T08:02:39.999Z</time></trkpt><trkpt lat="44.6172858009231" lon="7.457435361372959"><ele>568.0</ele><time>2026-04-11T08:02:42.999Z</time></trkpt><trkpt lat="44.61725002884911" lon="7.457339882757379"><ele>570.0</ele><time>2026-04-11T08:02:45.999Z</time></trkpt><trkpt lat="44.6171750539811" lon="7.4572450857426595"><ele>570.0</ele><time>2026-04-11T08:02:48.999Z</time></trkpt><trkpt lat="44.6171060458539" lon="7.457169502376295"><ele>570.0</ele><time>2026-04-11T08:02:51.999Z</time></trkpt><trkpt lat="44.61703667704728" lon="7.457111784452574"><ele>570.0</ele><time>2026-04-11T08:02:54.999Z</time></trkpt><trkpt lat="44.61696200078" lon="7.457029873214374"><ele>570.0</ele><time>2026-04-11T08:02:57.999Z</time></trkpt><trkpt lat="44.61690800321655" lon="7.4569719755430555"><ele>570.0</ele><time>2026-04-11T08:02:59.999Z</time></trkpt><trkpt lat="44.616862174445394" lon="7.456907552357832"><ele>570.0</ele><time>2026-04-11T08:03:02.999Z</time></trkpt><trkpt lat="44.61678225874955" lon="7.456846400581403"><ele>570.6666666666666</ele><time>2026-04-11T08:03:05.999Z</time></trkpt><trkpt lat="44.61672355465428" lon="7.456810930032945"><ele>571.3333333333334</ele><time>2026-04-11T08:03:08.999Z</time></trkpt><trkpt lat="44.61666361692063" lon="7.456744882016981"><ele>572.0</ele><time>2026-04-11T08:03:11.999Z</time></trkpt><trkpt lat="44.61658283286814" lon="7.456684872842931"><ele>572.6666666666667</ele><time>2026-04-11T08:03:14.999Z</time></trkpt><trkpt lat="44.61649771177734" lon="7.456610080453965"><ele>573.3333333333334</ele><time>2026-04-11T08:03:17.999Z</time></trkpt><trkpt lat="44.61644360818586" lon="7.456512963740405"><ele>574.0</ele><time>2026-04-11T08:03:21.998Z</time></trkpt><trkpt lat="44.616381583722884" lon="7.456462397228366"><ele>574.0</ele><time>2026-04-11T08:03:23.998Z</time></trkpt><trkpt lat="44.61631472670872" lon="7.456417398215824"><ele>574.0</ele><time>2026-04-11T08:03:27.998Z</time></trkpt><trkpt lat="44.61626281502337" lon="7.456327588061454"><ele>574.0</ele><time>2026-04-11T08:03:30.998Z</time></trkpt><trkpt lat="44.616221482204615" lon="7.4562601567791535"><ele>574.0</ele><time>2026-04-11T08:03:34.998Z</time></trkpt><trkpt lat="44.61617056445772" lon="7.456182224933713"><ele>574.0</ele><time>2026-04-11T08:03:38.998Z</time></trkpt><trkpt lat="44.61611808741552" lon="7.45609328081366"><ele>574.0</ele><time>2026-04-11T08:03:43Z</time></trkpt><trkpt lat="44.616063088909094" lon="7.456019682286476"><ele>574.7142857142857</ele><time>2026-04-11T08:03:47Z</time></trkpt><trkpt lat="44.61601950753965" lon="7.4559297270903535"><ele>575.4285714285714</ele><time>2026-04-11T08:03:51Z</time></trkpt><trkpt lat="44.61597657911487" lon="7.455847703504004"><ele>576.1428571428571</ele><time>2026-04-11T08:03:55Z</time></trkpt><trkpt lat="44.61591925601384" lon="7.455786279653142"><ele>576.8571428571429</ele><time>2026-04-11T08:03:59Z</time></trkpt><trkpt lat="44.615872910978915" lon="7.4557118499371615"><ele>577.5714285714286</ele><time>2026-04-11T08:04:03Z</time></trkpt><trkpt lat="44.615824309123035" lon="7.455648536205215"><ele>578.2857142857142</ele><time>2026-04-11T08:04:07Z</time></trkpt><trkpt lat="44.61575131855851" lon="7.455610212167203"><ele>579.0</ele><time>2026-04-11T08:04:12Z</time></trkpt><trkpt lat="44.6156781798733" lon="7.455578737275774"><ele>578.9999999999999</ele><time>2026-04-11T08:04:16Z</time></trkpt><trkpt lat="44.61561778960466" lon="7.45552996963699"><ele>579.0</ele><time>2026-04-11T08:04:20Z</time></trkpt><trkpt lat="44.61555179320275" lon="7.455508820014817"><ele>579.0</ele><time>2026-04-11T08:04:24Z</time></trkpt><trkpt lat="44.61549307791479" lon="7.455474094053024"><ele>579.0</ele><time>2026-04-11T08:04:28Z</time></trkpt><trkpt lat="44.6154279244482" lon="7.455427751188937"><ele>579.0</ele><time>2026-04-11T08:04:32Z</time></trkpt><trkpt lat="44.6153650169588" lon="7.455392264009495"><ele>578.9999999999999</ele><time>2026-04-11T08:04:35.999Z</time></trkpt><trkpt lat="44.61530877644056" lon="7.45535119450467"><ele>579.0</ele><time>2026-04-11T08:04:39.999Z</time></trkpt><trkpt lat="44.61525122916858" lon="7.455294310629249"><ele>581.1428571428571</ele><time>2026-04-11T08:04:43.999Z</time></trkpt><trkpt lat="44.615187856654224" lon="7.455241041691626"><ele>583.2857142857142</ele><time>2026-04-11T08:04:48.999Z</time></trkpt><trkpt lat="44.61513261237313" lon="7.455188455940577"><ele>585.4285714285714</ele><time>2026-04-11T08:04:52.999Z</time></trkpt><trkpt lat="44.61507265450148" lon="7.455133553026868"><ele>587.5714285714286</ele><time>2026-04-11T08:04:55.999Z</time></trkpt><trkpt lat="44.615035126827976" lon="7.455049925112504"><ele>589.7142857142858</ele><time>2026-04-11T08:05:00.999Z</time></trkpt><trkpt lat="44.61499296888346" lon="7.45497873760214"><ele>591.8571428571429</ele><time>2026-04-11T08:05:04.999Z</time></trkpt><trkpt lat="44.614936632871725" lon="7.454906027299511"><ele>594.0</ele><time>2026-04-11T08:05:08.999Z</time></trkpt><trkpt lat="44.61487797971053" lon="7.454856429229719"><ele>594.0</ele><time>2026-04-11T08:05:12.999Z</time></trkpt><trkpt lat="44.614834076994725" lon="7.454786402542343"><ele>594.0</ele><time>2026-04-11T08:05:16.999Z</time></trkpt><trkpt lat="44.61477685007744" lon="7.454729367674555"><ele>594.0</ele><time>2026-04-11T08:05:20.999Z</time></trkpt><trkpt lat="44.61471766920727" lon="7.45465941108812"><ele>594.0</ele><time>2026-04-11T08:05:24.999Z</time></trkpt><trkpt lat="44.61465115843376" lon="7.454589932528695"><ele>594.0</ele><time>2026-04-11T08:05:28.998Z</time></trkpt><trkpt lat="44.614593201535044" lon="7.454547029146748"><ele>594.0</ele><time>2026-04-11T08:05:32.998Z</time></trkpt><trkpt lat="44.614528151298614" lon="7.454503486989256"><ele>594.0</ele><time>2026-04-11T08:05:36.998Z</time></trkpt><trkpt lat="44.61447190470805" lon="7.454448408332715"><ele>595.2857142857143</ele><time>2026-04-11T08:05:41.998Z</time></trkpt><trkpt lat="44.61440303819487" lon="7.454409843204805"><ele>596.5714285714287</ele><time>2026-04-11T08:05:45.998Z</time></trkpt><trkpt lat="44.614345515306276" lon="7.454368682265996"><ele>597.8571428571429</ele><time>2026-04-11T08:05:49Z</time></trkpt><trkpt lat="44.61429123457067" lon="7.454310490724563"><ele>599.1428571428571</ele><time>2026-04-11T08:05:52Z</time></trkpt><trkpt lat="44.61422491533426" lon="7.4542638036961275"><ele>600.4285714285713</ele><time>2026-04-11T08:05:56Z</time></trkpt><trkpt lat="44.61416511557183" lon="7.454217849686676"><ele>601.7142857142858</ele><time>2026-04-11T08:06:00Z</time></trkpt><trkpt lat="44.61409589282055" lon="7.454187234030339"><ele>603.0</ele><time>2026-04-11T08:06:04Z</time></trkpt><trkpt lat="44.61402813200197" lon="7.454144404347449"><ele>603.0</ele><time>2026-04-11T08:06:08Z</time></trkpt><trkpt lat="44.61397573884309" lon="7.454087807259272"><ele>603.0</ele><time>2026-04-11T08:06:12Z</time></trkpt><trkpt lat="44.61392362835843" lon="7.454030236311186"><ele>603.0</ele><time>2026-04-11T08:06:16Z</time></trkpt><trkpt lat="44.61388543199013" lon="7.453943535873014"><ele>603.0</ele><time>2026-04-11T08:06:20Z</time></trkpt><trkpt lat="44.6138428708192" lon="7.453870594686393"><ele>603.0</ele><time>2026-04-11T08:06:23Z</time></trkpt><trkpt lat="44.61379434098846" lon="7.453809026486225"><ele>603.0</ele><time>2026-04-11T08:06:27Z</time></trkpt><trkpt lat="44.61373370763318" lon="7.453742031183151"><ele>603.0</ele><time>2026-04-11T08:06:31Z</time></trkpt><trkpt lat="44.61366481389399" lon="7.4536911692025445"><ele>602.6666666666666</ele><time>2026-04-11T08:06:36Z</time></trkpt><trkpt lat="44.61358946035226" lon="7.453664050192447"><ele>602.3333333333334</ele><time>2026-04-11T08:06:39.999Z</time></trkpt><trkpt lat="44.61352345766874" lon="7.453630374782842"><ele>602.0</ele><time>2026-04-11T08:06:43.999Z</time></trkpt><trkpt lat="44.613443123159016" lon="7.453603135823024"><ele>601.6666666666667</ele><time>2026-04-11T08:06:47.999Z</time></trkpt><trkpt lat="44.61337178600812" lon="7.453564174387509"><ele>601.3333333333334</ele><time>2026-04-11T08:06:50.999Z</time></trkpt><trkpt lat="44.61329730689695" lon="7.453493638007176"><ele>601.0</ele><time>2026-04-11T08:06:52.999Z</time></trkpt><trkpt lat="44.613243122318835" lon="7.453419131482518"><ele>601.0</ele><time>2026-04-11T08:06:54.999Z</time></trkpt><trkpt lat="44.61318118306974" lon="7.45334465398606"><ele>601.0</ele><time>2026-04-11T08:06:56.999Z</time></trkpt><trkpt lat="44.613103414847934" lon="7.453286104490925"><ele>601.0</ele><time>2026-04-11T08:06:58.999Z</time></trkpt><trkpt lat="44.61300807049115" lon="7.453252195734777"><ele>601.0</ele><time>2026-04-11T08:07:00.999Z</time></trkpt><trkpt lat="44.6129086446242" lon="7.453217799605579"><ele>601.0</ele><time>2026-04-11T08:07:02.999Z</time></trkpt><trkpt lat="44.612815882466194" lon="7.453196143491915"><ele>601.0</ele><time>2026-04-11T08:07:04.999Z</time></trkpt><trkpt lat="44.61272499092945" lon="7.453182827928153"><ele>601.0</ele><time>2026-04-11T08:07:06.999Z</time></trkpt><trkpt lat="44.61263649406259" lon="7.453188339526601"><ele>601.0</ele><time>2026-04-11T08:07:08.999Z</time></trkpt><trkpt lat="44.612548423325016" lon="7.453191466420908"><ele>601.0</ele><time>2026-04-11T08:07:10.999Z</time></trkpt><trkpt lat="44.61245727227214" lon="7.45318338612802"><ele>601.0</ele><time>2026-04-11T08:07:12.999Z</time></trkpt><trkpt lat="44.61238108922766" lon="7.453173784805559"><ele>601.0</ele><time>2026-04-11T08:07:14.999Z</time></trkpt><trkpt lat="44.61231343110271" lon="7.453162722705818"><ele>601.0</ele><time>2026-04-11T08:07:16.999Z</time></trkpt><trkpt lat="44.61223441341771" lon="7.453178395554464"><ele>601.0</ele><time>2026-04-11T08:07:18.999Z</time></trkpt><trkpt lat="44.61216664074407" lon="7.453191268296653"><ele>601.0</ele><time>2026-04-11T08:07:20.999Z</time></trkpt><trkpt lat="44.61209722469355" lon="7.453190654581331"><ele>601.0</ele><time>2026-04-11T08:07:22.999Z</time></trkpt><trkpt lat="44.612034650242045" lon="7.453213114846452"><ele>601.0</ele><time>2026-04-11T08:07:24.999Z</time></trkpt><trkpt lat="44.61194784043052" lon="7.453223304301868"><ele>601.0</ele><time>2026-04-11T08:07:27.999Z</time></trkpt><trkpt lat="44.61187949631363" lon="7.453223856981169"><ele>601.0</ele><time>2026-04-11T08:07:29.999Z</time></trkpt><trkpt lat="44.611801043874074" lon="7.453218393421548"><ele>601.6666666666667</ele><time>2026-04-11T08:07:31.999Z</time></trkpt><trkpt lat="44.61170726190283" lon="7.453200122368534"><ele>602.3333333333334</ele><time>2026-04-11T08:07:35.998Z</time></trkpt><trkpt lat="44.611636532937325" lon="7.4532011271019405"><ele>603.0</ele><time>2026-04-11T08:07:38.998Z</time></trkpt><trkpt lat="44.61156449806234" lon="7.453202391128804"><ele>603.6666666666666</ele><time>2026-04-11T08:07:41.998Z</time></trkpt><trkpt lat="44.61149736443136" lon="7.453228247431329"><ele>604.3333333333333</ele><time>2026-04-11T08:07:43.998Z</time></trkpt><trkpt lat="44.61143321952232" lon="7.453282366695867"><ele>605.0</ele><time>2026-04-11T08:07:45.998Z</time></trkpt><trkpt lat="44.61135633277175" lon="7.453333975248852"><ele>605.0</ele><time>2026-04-11T08:07:48.998Z</time></trkpt><trkpt lat="44.61129382134447" lon="7.4533570392744135"><ele>605.0</ele><time>2026-04-11T08:07:50.998Z</time></trkpt><trkpt lat="44.61122277921142" lon="7.453345521495188"><ele>605.0</ele><time>2026-04-11T08:07:54Z</time></trkpt><trkpt lat="44.611153116685664" lon="7.453333468675296"><ele>605.0</ele><time>2026-04-11T08:07:57Z</time></trkpt><trkpt lat="44.61107848055833" lon="7.453305363992172"><ele>605.0</ele><time>2026-04-11T08:08:00Z</time></trkpt><trkpt lat="44.611007996255886" lon="7.4532512041282315"><ele>605.0</ele><time>2026-04-11T08:08:04Z</time></trkpt><trkpt lat="44.610945583965254" lon="7.453185311839395"><ele>605.0</ele><time>2026-04-11T08:08:08Z</time></trkpt><trkpt lat="44.61090120474439" lon="7.453097072133517"><ele>605.5714285714286</ele><time>2026-04-11T08:08:12Z</time></trkpt><trkpt lat="44.61085505186624" lon="7.452998356188016"><ele>606.1428571428571</ele><time>2026-04-11T08:08:16Z</time></trkpt><trkpt lat="44.61080560899141" lon="7.452938248584638"><ele>606.7142857142858</ele><time>2026-04-11T08:08:19Z</time></trkpt><trkpt lat="44.61074755911444" lon="7.452877468340027"><ele>607.2857142857142</ele><time>2026-04-11T08:08:22Z</time></trkpt><trkpt lat="44.6106983483338" lon="7.452801730237108"><ele>607.8571428571429</ele><time>2026-04-11T08:08:25Z</time></trkpt><trkpt lat="44.61063180664852" lon="7.452755156620173"><ele>608.4285714285714</ele><time>2026-04-11T08:08:28Z</time></trkpt><trkpt lat="44.610560423609414" lon="7.4527144108338454"><ele>609.0</ele><time>2026-04-11T08:08:31Z</time></trkpt><trkpt lat="44.61050030727142" lon="7.45268793553599"><ele>609.0</ele><time>2026-04-11T08:08:34Z</time></trkpt><trkpt lat="44.61043781387906" lon="7.452662934891986"><ele>609.0</ele><time>2026-04-11T08:08:37Z</time></trkpt><trkpt lat="44.61037937670014" lon="7.452628845012573"><ele>609.0</ele><time>2026-04-11T08:08:40Z</time></trkpt><trkpt lat="44.610306429683426" lon="7.45257131691893"><ele>609.0</ele><time>2026-04-11T08:08:43.999Z</time></trkpt><trkpt lat="44.61024385852306" lon="7.452488752386969"><ele>609.0</ele><time>2026-04-11T08:08:47.999Z</time></trkpt><trkpt lat="44.61018656078094" lon="7.452411219174371"><ele>609.0</ele><time>2026-04-11T08:08:51.999Z</time></trkpt><trkpt lat="44.61015368633227" lon="7.45232448659481"><ele>609.0</ele><time>2026-04-11T08:08:54.999Z</time></trkpt><trkpt lat="44.61010947029041" lon="7.45224084757295"><ele>610.0</ele><time>2026-04-11T08:08:58.999Z</time></trkpt><trkpt lat="44.610058022772385" lon="7.452154479917598"><ele>611.0</ele><time>2026-04-11T08:09:02.999Z</time></trkpt><trkpt lat="44.61000725983557" lon="7.452088258162478"><ele>612.0</ele><time>2026-04-11T08:09:05.999Z</time></trkpt><trkpt lat="44.60996229825739" lon="7.452005284484817"><ele>613.0</ele><time>2026-04-11T08:09:09.999Z</time></trkpt><trkpt lat="44.60992094890116" lon="7.451923677083983"><ele>614.0</ele><time>2026-04-11T08:09:13.999Z</time></trkpt><trkpt lat="44.60987367742378" lon="7.451843486032187"><ele>615.0</ele><time>2026-04-11T08:09:17.999Z</time></trkpt><trkpt lat="44.609827799344785" lon="7.451781218272289"><ele>616.0</ele><time>2026-04-11T08:09:20.999Z</time></trkpt><trkpt lat="44.60975618925917" lon="7.451733778226489"><ele>616.0</ele><time>2026-04-11T08:09:24.999Z</time></trkpt><trkpt lat="44.60971098861196" lon="7.451662082189613"><ele>616.0</ele><time>2026-04-11T08:09:29.999Z</time></trkpt><trkpt lat="44.60964282262365" lon="7.451601355092371"><ele>616.0</ele><time>2026-04-11T08:09:34.999Z</time></trkpt><trkpt lat="44.60957819588234" lon="7.451560565093348"><ele>616.0</ele><time>2026-04-11T08:09:39.998Z</time></trkpt><trkpt lat="44.60952189015967" lon="7.451500169587485"><ele>616.0</ele><time>2026-04-11T08:10:16Z</time></trkpt><trkpt lat="44.60948018057011" lon="7.451590609979204"><ele>616.0</ele><time>2026-04-11T08:10:20Z</time></trkpt><trkpt lat="44.60943379043952" lon="7.451521572227181"><ele>616.0</ele><time>2026-04-11T08:10:25Z</time></trkpt><trkpt lat="44.60937023547141" lon="7.451493031426694"><ele>618.0</ele><time>2026-04-11T08:10:28Z</time></trkpt><trkpt lat="44.609292482101736" lon="7.451500012978384"><ele>620.0</ele><time>2026-04-11T08:10:30Z</time></trkpt><trkpt lat="44.60919945674546" lon="7.4515630483783815"><ele>622.0</ele><time>2026-04-11T08:10:32Z</time></trkpt><trkpt lat="44.60911173972265" lon="7.451499267270979"><ele>624.0</ele><time>2026-04-11T08:10:35Z</time></trkpt><trkpt lat="44.60904048829589" lon="7.45146045847235"><ele>626.0</ele><time>2026-04-11T08:10:37Z</time></trkpt><trkpt lat="44.60896835959144" lon="7.4514268973974636"><ele>628.0</ele><time>2026-04-11T08:10:40Z</time></trkpt><trkpt lat="44.60888708458632" lon="7.451406337169885"><ele>628.0</ele><time>2026-04-11T08:10:43Z</time></trkpt><trkpt lat="44.608820688258966" lon="7.451382380154221"><ele>628.0</ele><time>2026-04-11T08:10:46Z</time></trkpt><trkpt lat="44.60875921853923" lon="7.451339059963363"><ele>628.0</ele><time>2026-04-11T08:10:48Z</time></trkpt><trkpt lat="44.608676799864234" lon="7.451325054578077"><ele>628.0</ele><time>2026-04-11T08:10:51.999Z</time></trkpt><trkpt lat="44.608597411281934" lon="7.451295523893402"><ele>628.0</ele><time>2026-04-11T08:10:55.999Z</time></trkpt><trkpt lat="44.60853658141704" lon="7.451268653183758"><ele>628.0</ele><time>2026-04-11T08:10:58.999Z</time></trkpt><trkpt lat="44.60845591097588" lon="7.4512258904461754"><ele>628.8571428571428</ele><time>2026-04-11T08:11:02.999Z</time></trkpt><trkpt lat="44.60840360507601" lon="7.451173130895824"><ele>629.7142857142857</ele><time>2026-04-11T08:11:05.999Z</time></trkpt><trkpt lat="44.60833182517738" lon="7.451150162904175"><ele>630.5714285714286</ele><time>2026-04-11T08:11:08.999Z</time></trkpt><trkpt lat="44.60826129981093" lon="7.451169119339093"><ele>631.4285714285713</ele><time>2026-04-11T08:11:11.999Z</time></trkpt><trkpt lat="44.608191867729765" lon="7.451209115349742"><ele>632.2857142857142</ele><time>2026-04-11T08:11:14.999Z</time></trkpt><trkpt lat="44.60811931738143" lon="7.451206498661824"><ele>633.1428571428571</ele><time>2026-04-11T08:11:17.999Z</time></trkpt><trkpt lat="44.60804829700665" lon="7.451201781590495"><ele>634.0</ele><time>2026-04-11T08:11:20.999Z</time></trkpt><trkpt lat="44.60798221458227" lon="7.451215559856471"><ele>634.0</ele><time>2026-04-11T08:11:23.999Z</time></trkpt><trkpt lat="44.60791302865957" lon="7.451237539630033"><ele>634.0</ele><time>2026-04-11T08:11:26.999Z</time></trkpt><trkpt lat="44.60784961904244" lon="7.451235920064692"><ele>634.0</ele><time>2026-04-11T08:11:29.999Z</time></trkpt><trkpt lat="44.607780800153954" lon="7.451277337535661"><ele>634.0</ele><time>2026-04-11T08:11:32.999Z</time></trkpt><trkpt lat="44.60770761909745" lon="7.451224278242245"><ele>634.0</ele><time>2026-04-11T08:11:36.999Z</time></trkpt><trkpt lat="44.60764798782683" lon="7.45116164572201"><ele>634.0</ele><time>2026-04-11T08:11:40.999Z</time></trkpt><trkpt lat="44.60759818632994" lon="7.451104545913471"><ele>634.0</ele><time>2026-04-11T08:11:44.998Z</time></trkpt><trkpt lat="44.60754569945381" lon="7.451047772579956"><ele>636.2857142857143</ele><time>2026-04-11T08:11:48.998Z</time></trkpt><trkpt lat="44.60749747961856" lon="7.4509795332986055"><ele>638.5714285714286</ele><time>2026-04-11T08:11:52.998Z</time></trkpt><trkpt lat="44.607457775150415" lon="7.450908490818601"><ele>640.8571428571429</ele><time>2026-04-11T08:11:56.998Z</time></trkpt><trkpt lat="44.60740949433272" lon="7.45084290130472"><ele>643.1428571428571</ele><time>2026-04-11T08:12:00.998Z</time></trkpt><trkpt lat="44.60738586984358" lon="7.450760406833899"><ele>645.4285714285714</ele><time>2026-04-11T08:12:05Z</time></trkpt><trkpt lat="44.607374033010935" lon="7.450662088134181"><ele>647.7142857142857</ele><time>2026-04-11T08:12:10Z</time></trkpt><trkpt lat="44.60736698590862" lon="7.4505577150308815"><ele>650.0</ele><time>2026-04-11T08:12:16Z</time></trkpt><trkpt lat="44.60735078939693" lon="7.450460945316763"><ele>649.1666666666666</ele><time>2026-04-11T08:12:21Z</time></trkpt><trkpt lat="44.60732798153396" lon="7.450374574518115"><ele>648.3333333333333</ele><time>2026-04-11T08:12:26Z</time></trkpt><trkpt lat="44.60725245009873" lon="7.450324282575993"><ele>647.5</ele><time>2026-04-11T08:12:29Z</time></trkpt><trkpt lat="44.607199346008194" lon="7.450273744592283"><ele>646.6666666666666</ele><time>2026-04-11T08:12:31Z</time></trkpt><trkpt lat="44.60710792148637" lon="7.450233612635897"><ele>645.8333333333334</ele><time>2026-04-11T08:12:33Z</time></trkpt><trkpt lat="44.60702724993452" lon="7.45019070843519"><ele>645.0</ele><time>2026-04-11T08:12:35Z</time></trkpt><trkpt lat="44.606939424149516" lon="7.450147568512287"><ele>647.2857142857143</ele><time>2026-04-11T08:12:37Z</time></trkpt><trkpt lat="44.606880189802055" lon="7.450086962623049"><ele>649.5714285714286</ele><time>2026-04-11T08:12:39Z</time></trkpt><trkpt lat="44.60681582704277" lon="7.450030655701167"><ele>651.8571428571429</ele><time>2026-04-11T08:12:44Z</time></trkpt><trkpt lat="44.60676108452072" lon="7.44995030420536"><ele>654.1428571428571</ele><time>2026-04-11T08:12:48Z</time></trkpt><trkpt lat="44.606719280270056" lon="7.44987132147972"><ele>656.4285714285714</ele><time>2026-04-11T08:12:52Z</time></trkpt><trkpt lat="44.60668211621914" lon="7.449798972267983"><ele>658.7142857142857</ele><time>2026-04-11T08:12:55.999Z</time></trkpt><trkpt lat="44.60664500813017" lon="7.449723362740154"><ele>661.0</ele><time>2026-04-11T08:12:59.999Z</time></trkpt><trkpt lat="44.606584186958806" lon="7.449629203938669"><ele>658.1666666666667</ele><time>2026-04-11T08:13:02.999Z</time></trkpt><trkpt lat="44.60652195740407" lon="7.449599583086115"><ele>655.3333333333334</ele><time>2026-04-11T08:13:04.999Z</time></trkpt><trkpt lat="44.606449467806016" lon="7.449618139650929"><ele>652.5</ele><time>2026-04-11T08:13:06.999Z</time></trkpt><trkpt lat="44.60634788017052" lon="7.449624480159789"><ele>649.6666666666666</ele><time>2026-04-11T08:13:08.999Z</time></trkpt><trkpt lat="44.60629219265373" lon="7.4495667878296326"><ele>646.8333333333333</ele><time>2026-04-11T08:13:11.999Z</time></trkpt><trkpt lat="44.60624158358385" lon="7.449490146572975"><ele>644.0</ele><time>2026-04-11T08:13:15.999Z</time></trkpt><trkpt lat="44.60626782608272" lon="7.449399522583806"><ele>644.0</ele><time>2026-04-11T08:13:20.999Z</time></trkpt><trkpt lat="44.606259155667814" lon="7.449300685218004"><ele>644.0</ele><time>2026-04-11T08:13:25.999Z</time></trkpt><trkpt lat="44.606224925019696" lon="7.449206257159979"><ele>644.0</ele><time>2026-04-11T08:13:29.999Z</time></trkpt><trkpt lat="44.606184313530484" lon="7.449131746122191"><ele>644.0</ele><time>2026-04-11T08:13:33.999Z</time></trkpt><trkpt lat="44.606155246576485" lon="7.449032007279516"><ele>644.0</ele><time>2026-04-11T08:13:37.999Z</time></trkpt><trkpt lat="44.60611174564423" lon="7.4489595640816875"><ele>644.0</ele><time>2026-04-11T08:13:41.999Z</time></trkpt><trkpt lat="44.60605546819492" lon="7.448873195829129"><ele>644.0</ele><time>2026-04-11T08:13:45.999Z</time></trkpt><trkpt lat="44.60598815898508" lon="7.448802901616721"><ele>646.1666666666666</ele><time>2026-04-11T08:13:48.998Z</time></trkpt><trkpt lat="44.605918470985124" lon="7.448776412848585"><ele>648.3333333333333</ele><time>2026-04-11T08:13:50.998Z</time></trkpt><trkpt lat="44.60583878328048" lon="7.44874053289378"><ele>650.5</ele><time>2026-04-11T08:13:51.998Z</time></trkpt><trkpt lat="44.60577840825531" lon="7.448710725927928"><ele>652.6666666666666</ele><time>2026-04-11T08:13:52.998Z</time></trkpt><trkpt lat="44.60572648048212" lon="7.448591461423266"><ele>654.8333333333334</ele><time>2026-04-11T08:13:54.998Z</time></trkpt><trkpt lat="44.60571181089038" lon="7.448493370727196"><ele>657.0</ele><time>2026-04-11T08:13:56.998Z</time></trkpt><trkpt lat="44.60566220511597" lon="7.448438776668078"><ele>657.0</ele><time>2026-04-11T08:13:59.998Z</time></trkpt><trkpt lat="44.60560318811173" lon="7.448367674916854"><ele>657.0</ele><time>2026-04-11T08:14:03.998Z</time></trkpt><trkpt lat="44.60557702511648" lon="7.448286314142484"><ele>657.0</ele><time>2026-04-11T08:14:08.998Z</time></trkpt><trkpt lat="44.605572131768206" lon="7.448191057776078"><ele>657.0</ele><time>2026-04-11T08:14:13Z</time></trkpt><trkpt lat="44.605595985802175" lon="7.448099540630064"><ele>657.0</ele><time>2026-04-11T08:14:16Z</time></trkpt><trkpt lat="44.605625158736856" lon="7.448011981742978"><ele>657.0</ele><time>2026-04-11T08:14:19Z</time></trkpt><trkpt lat="44.60567779740158" lon="7.447950908765319"><ele>657.0</ele><time>2026-04-11T08:14:22Z</time></trkpt><trkpt lat="44.60571634788685" lon="7.447875057402183"><ele>656.5714285714286</ele><time>2026-04-11T08:14:25Z</time></trkpt><trkpt lat="44.605730219976444" lon="7.447782051699981"><ele>656.1428571428572</ele><time>2026-04-11T08:14:28Z</time></trkpt><trkpt lat="44.60573120811981" lon="7.447677022476389"><ele>655.7142857142858</ele><time>2026-04-11T08:14:32Z</time></trkpt><trkpt lat="44.605719174384895" lon="7.447580407497654"><ele>655.2857142857142</ele><time>2026-04-11T08:14:36Z</time></trkpt><trkpt lat="44.605745301741656" lon="7.4474756143974625"><ele>654.8571428571429</ele><time>2026-04-11T08:14:40Z</time></trkpt><trkpt lat="44.60576043444172" lon="7.447373704388705"><ele>654.4285714285714</ele><time>2026-04-11T08:14:44Z</time></trkpt><trkpt lat="44.60576982855034" lon="7.447279250170859"><ele>654.0</ele><time>2026-04-11T08:14:47Z</time></trkpt><trkpt lat="44.605787331640094" lon="7.44719257591718"><ele>652.7142857142857</ele><time>2026-04-11T08:14:51Z</time></trkpt><trkpt lat="44.60577318053586" lon="7.447088523192423"><ele>651.4285714285714</ele><time>2026-04-11T08:14:55Z</time></trkpt><trkpt lat="44.605714100655995" lon="7.44705229915905"><ele>650.1428571428571</ele><time>2026-04-11T08:14:58Z</time></trkpt><trkpt lat="44.60564767459643" lon="7.4470613412638045"><ele>648.8571428571429</ele><time>2026-04-11T08:15:01Z</time></trkpt><trkpt lat="44.605581221882495" lon="7.447053603012143"><ele>647.5714285714286</ele><time>2026-04-11T08:15:03.999Z</time></trkpt><trkpt lat="44.60551421761918" lon="7.447066322220677"><ele>646.2857142857143</ele><time>2026-04-11T08:15:06.999Z</time></trkpt><trkpt lat="44.60543251052579" lon="7.447089971614119"><ele>645.0</ele><time>2026-04-11T08:15:10.999Z</time></trkpt><trkpt lat="44.60534575299087" lon="7.447088693663202"><ele>648.8571428571429</ele><time>2026-04-11T08:15:13.999Z</time></trkpt><trkpt lat="44.605276470572235" lon="7.447093150869886"><ele>652.7142857142857</ele><time>2026-04-11T08:15:16.999Z</time></trkpt><trkpt lat="44.605209175840116" lon="7.44707205794076"><ele>656.5714285714286</ele><time>2026-04-11T08:15:19.999Z</time></trkpt><trkpt lat="44.60521996229505" lon="7.446977542819947"><ele>660.4285714285714</ele><time>2026-04-11T08:15:25.999Z</time></trkpt><trkpt lat="44.605286040524234" lon="7.446924438488005"><ele>664.2857142857142</ele><time>2026-04-11T08:15:29.999Z</time></trkpt><trkpt lat="44.60529176060274" lon="7.446835961363362"><ele>668.1428571428571</ele><time>2026-04-11T08:15:32.999Z</time></trkpt><trkpt lat="44.60531097362651" lon="7.446744493293194"><ele>672.0</ele><time>2026-04-11T08:15:35.999Z</time></trkpt><trkpt lat="44.60529547550663" lon="7.446640729712705"><ele>672.0</ele><time>2026-04-11T08:15:39.999Z</time></trkpt><trkpt lat="44.60528106971609" lon="7.446540864891329"><ele>672.0</ele><time>2026-04-11T08:15:43.999Z</time></trkpt><trkpt lat="44.60521196644322" lon="7.446473224661925"><ele>672.0</ele><time>2026-04-11T08:15:47.999Z</time></trkpt><trkpt lat="44.605148437917144" lon="7.44641306524672"><ele>672.0</ele><time>2026-04-11T08:15:51.999Z</time></trkpt><trkpt lat="44.605095756230035" lon="7.446343951015076"><ele>672.0</ele><time>2026-04-11T08:15:56.998Z</time></trkpt><trkpt lat="44.605050260577045" lon="7.446262964337207"><ele>672.0</ele><time>2026-04-11T08:16:01.998Z</time></trkpt><trkpt lat="44.60507133334619" lon="7.446171653047537"><ele>672.0</ele><time>2026-04-11T08:16:05.998Z</time></trkpt><trkpt lat="44.605092665663655" lon="7.446070948216753"><ele>671.4285714285714</ele><time>2026-04-11T08:16:09.998Z</time></trkpt><trkpt lat="44.60510422488377" lon="7.445964509029081"><ele>670.8571428571429</ele><time>2026-04-11T08:16:13.998Z</time></trkpt><trkpt lat="44.605108518066075" lon="7.445855722879293"><ele>670.2857142857142</ele><time>2026-04-11T08:16:18Z</time></trkpt><trkpt lat="44.60513652967114" lon="7.445761612380726"><ele>669.7142857142858</ele><time>2026-04-11T08:16:22Z</time></trkpt><trkpt lat="44.605179679381" lon="7.445688233626934"><ele>669.1428571428571</ele><time>2026-04-11T08:16:26Z</time></trkpt><trkpt lat="44.60523339423073" lon="7.445607499304087"><ele>668.5714285714286</ele><time>2026-04-11T08:16:30Z</time></trkpt><trkpt lat="44.60529725780122" lon="7.445557707126746"><ele>668.0</ele><time>2026-04-11T08:16:34Z</time></trkpt><trkpt lat="44.60536756173895" lon="7.445492064111367"><ele>667.1428571428571</ele><time>2026-04-11T08:16:38Z</time></trkpt><trkpt lat="44.605422142645956" lon="7.445408337809738"><ele>666.2857142857143</ele><time>2026-04-11T08:16:42Z</time></trkpt><trkpt lat="44.605461750661526" lon="7.445339294916498"><ele>665.4285714285714</ele><time>2026-04-11T08:16:45Z</time></trkpt><trkpt lat="44.60550048937936" lon="7.4452452285594495"><ele>664.5714285714286</ele><time>2026-04-11T08:16:49Z</time></trkpt><trkpt lat="44.605492687523274" lon="7.445154443135808"><ele>663.7142857142857</ele><time>2026-04-11T08:16:52Z</time></trkpt><trkpt lat="44.60542134148275" lon="7.445131937387322"><ele>662.8571428571429</ele><time>2026-04-11T08:16:55Z</time></trkpt><trkpt lat="44.60535048502681" lon="7.445182591111392"><ele>662.0</ele><time>2026-04-11T08:16:59Z</time></trkpt><trkpt lat="44.60529098287853" lon="7.445238975665471"><ele>662.0</ele><time>2026-04-11T08:17:03Z</time></trkpt><trkpt lat="44.60522377205938" lon="7.445264517296675"><ele>662.0</ele><time>2026-04-11T08:17:07Z</time></trkpt><trkpt lat="44.60515534111401" lon="7.445291072875771"><ele>662.0</ele><time>2026-04-11T08:17:10.999Z</time></trkpt><trkpt lat="44.60508356930374" lon="7.445315536906564"><ele>662.0</ele><time>2026-04-11T08:17:14.999Z</time></trkpt><trkpt lat="44.60501433247819" lon="7.445335806869591"><ele>662.0</ele><time>2026-04-11T08:17:18.999Z</time></trkpt><trkpt lat="44.60493845883822" lon="7.445360142190115"><ele>662.0</ele><time>2026-04-11T08:17:23.999Z</time></trkpt><trkpt lat="44.60487736549065" lon="7.445386159956588"><ele>662.0</ele><time>2026-04-11T08:17:27.999Z</time></trkpt><trkpt lat="44.60481468219949" lon="7.445449886245136"><ele>662.8571428571429</ele><time>2026-04-11T08:17:31.999Z</time></trkpt><trkpt lat="44.604761618362254" lon="7.445517118857939"><ele>663.7142857142857</ele><time>2026-04-11T08:17:35.999Z</time></trkpt><trkpt lat="44.60473763733432" lon="7.4456123850155675"><ele>664.5714285714286</ele><time>2026-04-11T08:17:39.999Z</time></trkpt><trkpt lat="44.60473468878658" lon="7.445716374925937"><ele>665.4285714285714</ele><time>2026-04-11T08:17:43.999Z</time></trkpt><trkpt lat="44.60469105222323" lon="7.445796953727097"><ele>666.2857142857143</ele><time>2026-04-11T08:17:47.999Z</time></trkpt><trkpt lat="44.60468178709174" lon="7.445885817250997"><ele>667.1428571428571</ele><time>2026-04-11T08:17:51.999Z</time></trkpt><trkpt lat="44.60466803195407" lon="7.445977848685498"><ele>668.0</ele><time>2026-04-11T08:17:55.999Z</time></trkpt><trkpt lat="44.604652474395664" lon="7.446069443957294"><ele>668.0</ele><time>2026-04-11T08:17:59.999Z</time></trkpt><trkpt lat="44.604642413936475" lon="7.446167129641588"><ele>668.0</ele><time>2026-04-11T08:18:03.998Z</time></trkpt><trkpt lat="44.604613792065344" lon="7.446255181949297"><ele>668.0</ele><time>2026-04-11T08:18:07.998Z</time></trkpt><trkpt lat="44.60457471603167" lon="7.446333231113164"><ele>668.0</ele><time>2026-04-11T08:18:11.998Z</time></trkpt><trkpt lat="44.60453087076771" lon="7.446416703779143"><ele>668.0</ele><time>2026-04-11T08:18:15.998Z</time></trkpt><trkpt lat="44.604497534041194" lon="7.446503247788724"><ele>668.0</ele><time>2026-04-11T08:18:19.998Z</time></trkpt><trkpt lat="44.6045068331355" lon="7.446598954301246"><ele>668.0</ele><time>2026-04-11T08:18:23Z</time></trkpt><trkpt lat="44.60456260139803" lon="7.446666425487025"><ele>668.6666666666666</ele><time>2026-04-11T08:18:27Z</time></trkpt><trkpt lat="44.60463112590018" lon="7.44674127940469"><ele>669.3333333333333</ele><time>2026-04-11T08:18:31Z</time></trkpt><trkpt lat="44.60469095168239" lon="7.446806717151048"><ele>670.0</ele><time>2026-04-11T08:18:35Z</time></trkpt><trkpt lat="44.604683878063376" lon="7.4469056567324445"><ele>670.6666666666666</ele><time>2026-04-11T08:18:40Z</time></trkpt><trkpt lat="44.60464034765222" lon="7.446994797807464"><ele>671.3333333333334</ele><time>2026-04-11T08:18:46Z</time></trkpt><trkpt lat="44.604605166154926" lon="7.447076249930655"><ele>672.0</ele><time>2026-04-11T08:18:50Z</time></trkpt><trkpt lat="44.604559881211635" lon="7.44716117913139"><ele>673.4285714285714</ele><time>2026-04-11T08:18:55Z</time></trkpt><trkpt lat="44.60451870286983" lon="7.447233544262993"><ele>674.8571428571429</ele><time>2026-04-11T08:18:59Z</time></trkpt><trkpt lat="44.60446086465438" lon="7.447306328879432"><ele>676.2857142857142</ele><time>2026-04-11T08:19:04Z</time></trkpt><trkpt lat="44.604416366902754" lon="7.447382681864884"><ele>677.7142857142858</ele><time>2026-04-11T08:19:09Z</time></trkpt><trkpt lat="44.60435106812326" lon="7.447446365992023"><ele>679.1428571428571</ele><time>2026-04-11T08:19:13.999Z</time></trkpt><trkpt lat="44.60430691961882" lon="7.447539448314137"><ele>680.5714285714286</ele><time>2026-04-11T08:19:18.999Z</time></trkpt><trkpt lat="44.60428867457452" lon="7.447633421990426"><ele>682.0</ele><time>2026-04-11T08:19:22.999Z</time></trkpt><trkpt lat="44.604296633231726" lon="7.447731473835019"><ele>685.5714285714286</ele><time>2026-04-11T08:19:26.999Z</time></trkpt><trkpt lat="44.60432720320879" lon="7.447824109312108"><ele>689.1428571428571</ele><time>2026-04-11T08:19:30.999Z</time></trkpt><trkpt lat="44.60434580506281" lon="7.447912541452957"><ele>692.7142857142858</ele><time>2026-04-11T08:19:34.999Z</time></trkpt><trkpt lat="44.604391795474356" lon="7.447981199099807"><ele>696.2857142857142</ele><time>2026-04-11T08:19:38.999Z</time></trkpt><trkpt lat="44.60442073745039" lon="7.44806441442645"><ele>699.8571428571429</ele><time>2026-04-11T08:19:42.999Z</time></trkpt><trkpt lat="44.60437195613187" lon="7.44813466016363"><ele>703.4285714285714</ele><time>2026-04-11T08:19:47.999Z</time></trkpt><trkpt lat="44.60429978372951" lon="7.448103895937366"><ele>707.0</ele><time>2026-04-11T08:19:54.999Z</time></trkpt><trkpt lat="44.60423534790674" lon="7.4480784849064205"><ele>707.0</ele><time>2026-04-11T08:19:58.999Z</time></trkpt><trkpt lat="44.60417642338365" lon="7.448031080351245"><ele>707.0</ele><time>2026-04-11T08:20:02.999Z</time></trkpt><trkpt lat="44.60411044027125" lon="7.448005120918434"><ele>707.0</ele><time>2026-04-11T08:20:06.998Z</time></trkpt><trkpt lat="44.6040435872116" lon="7.44797143257767"><ele>707.0</ele><time>2026-04-11T08:20:10.998Z</time></trkpt><trkpt lat="44.603991308195596" lon="7.447911534870351"><ele>707.0</ele><time>2026-04-11T08:20:15.998Z</time></trkpt><trkpt lat="44.603941384180274" lon="7.447847400076985"><ele>707.0</ele><time>2026-04-11T08:20:20.998Z</time></trkpt><trkpt lat="44.60387680951959" lon="7.4478172671267755"><ele>707.0</ele><time>2026-04-11T08:20:24.998Z</time></trkpt><trkpt lat="44.6038025230889" lon="7.447781502638097"><ele>707.7142857142857</ele><time>2026-04-11T08:20:30Z</time></trkpt><trkpt lat="44.60372672112266" lon="7.447765405373832"><ele>708.4285714285714</ele><time>2026-04-11T08:20:34Z</time></trkpt><trkpt lat="44.60365998688506" lon="7.447730094276644"><ele>709.1428571428571</ele><time>2026-04-11T08:20:38Z</time></trkpt><trkpt lat="44.60359509913198" lon="7.447701019298617"><ele>709.8571428571429</ele><time>2026-04-11T08:20:42Z</time></trkpt><trkpt lat="44.60352583485941" lon="7.447685134124611"><ele>710.5714285714286</ele><time>2026-04-11T08:20:46Z</time></trkpt><trkpt lat="44.60346365888641" lon="7.447656675942262"><ele>711.2857142857142</ele><time>2026-04-11T08:20:50Z</time></trkpt><trkpt lat="44.603395283565064" lon="7.447649256816579"><ele>712.0</ele><time>2026-04-11T08:20:54Z</time></trkpt><trkpt lat="44.60333084945358" lon="7.447609707816276"><ele>713.1666666666667</ele><time>2026-04-11T08:20:58Z</time></trkpt><trkpt lat="44.60325849339535" lon="7.447578515346644"><ele>714.3333333333334</ele><time>2026-04-11T08:21:02Z</time></trkpt><trkpt lat="44.60318992535641" lon="7.447526367906142"><ele>715.5</ele><time>2026-04-11T08:21:06Z</time></trkpt><trkpt lat="44.60312196313891" lon="7.447466854487236"><ele>716.6666666666666</ele><time>2026-04-11T08:21:10Z</time></trkpt><trkpt lat="44.60306338254312" lon="7.447404627181931"><ele>717.8333333333333</ele><time>2026-04-11T08:21:14Z</time></trkpt><trkpt lat="44.60299661321509" lon="7.447346920186495"><ele>719.0</ele><time>2026-04-11T08:21:18Z</time></trkpt><trkpt lat="44.60293767452178" lon="7.447279177370725"><ele>719.0</ele><time>2026-04-11T08:21:21.999Z</time></trkpt><trkpt lat="44.602878699513255" lon="7.447216003586495"><ele>719.0</ele><time>2026-04-11T08:21:25.999Z</time></trkpt><trkpt lat="44.602819034080035" lon="7.447246011690402"><ele>719.0</ele><time>2026-04-11T08:21:28.999Z</time></trkpt><trkpt lat="44.602770894865635" lon="7.447346230715084"><ele>719.0</ele><time>2026-04-11T08:21:31.999Z</time></trkpt><trkpt lat="44.602689976558" lon="7.447490988597998"><ele>719.0</ele><time>2026-04-11T08:21:34.999Z</time></trkpt><trkpt lat="44.60263356960865" lon="7.447532588195467"><ele>719.0</ele><time>2026-04-11T08:21:37.999Z</time></trkpt><trkpt lat="44.602564693134894" lon="7.447576546962994"><ele>718.2</ele><time>2026-04-11T08:21:39.999Z</time></trkpt><trkpt lat="44.60246939100831" lon="7.447630290330277"><ele>717.4000000000001</ele><time>2026-04-11T08:21:41.999Z</time></trkpt><trkpt lat="44.60237533518934" lon="7.4476107575573165"><ele>716.6</ele><time>2026-04-11T08:21:43.999Z</time></trkpt><trkpt lat="44.602276834195436" lon="7.447564485074258"><ele>715.8</ele><time>2026-04-11T08:21:45.999Z</time></trkpt><trkpt lat="44.60216400086359" lon="7.4475568642878684"><ele>715.0</ele><time>2026-04-11T08:21:47.999Z</time></trkpt><trkpt lat="44.60209560126701" lon="7.447606191343234"><ele>715.0</ele><time>2026-04-11T08:21:49.999Z</time></trkpt><trkpt lat="44.6020327032216" lon="7.4476991526141925"><ele>715.0</ele><time>2026-04-11T08:21:51.999Z</time></trkpt><trkpt lat="44.601988943787816" lon="7.447776474276035"><ele>715.0</ele><time>2026-04-11T08:21:52.999Z</time></trkpt><trkpt lat="44.60193688548887" lon="7.447826397280869"><ele>715.0</ele><time>2026-04-11T08:21:53.999Z</time></trkpt><trkpt lat="44.60187326001691" lon="7.447948300725215"><ele>715.0</ele><time>2026-04-11T08:21:55.999Z</time></trkpt><trkpt lat="44.601768832632104" lon="7.447990925857583"><ele>715.0</ele><time>2026-04-11T08:21:57.999Z</time></trkpt><trkpt lat="44.601703354587926" lon="7.447952875457784"><ele>713.1666666666667</ele><time>2026-04-11T08:21:58.999Z</time></trkpt><trkpt lat="44.601638542383384" lon="7.447849043629609"><ele>711.3333333333334</ele><time>2026-04-11T08:22:00.999Z</time></trkpt><trkpt lat="44.60162192001295" lon="7.447737902344434"><ele>709.5</ele><time>2026-04-11T08:22:02.999Z</time></trkpt><trkpt lat="44.60153869351019" lon="7.447732385294024"><ele>707.6666666666666</ele><time>2026-04-11T08:22:05.999Z</time></trkpt><trkpt lat="44.60145390059999" lon="7.4477255323509475"><ele>705.8333333333333</ele><time>2026-04-11T08:22:08.999Z</time></trkpt><trkpt lat="44.60138496992858" lon="7.447669626540114"><ele>704.0</ele><time>2026-04-11T08:22:11.999Z</time></trkpt><trkpt lat="44.601319018148885" lon="7.447667743406422"><ele>704.0</ele><time>2026-04-11T08:22:14.998Z</time></trkpt><trkpt lat="44.60126662714702" lon="7.447741605045425"><ele>704.0</ele><time>2026-04-11T08:22:17.998Z</time></trkpt><trkpt lat="44.60123019585962" lon="7.447844875727893"><ele>704.0</ele><time>2026-04-11T08:22:21.998Z</time></trkpt><trkpt lat="44.601172977985335" lon="7.447912728257547"><ele>704.0</ele><time>2026-04-11T08:22:24.998Z</time></trkpt><trkpt lat="44.601126413275686" lon="7.447983332735629"><ele>704.0</ele><time>2026-04-11T08:22:28.998Z</time></trkpt><trkpt lat="44.601063301567166" lon="7.448066602151301"><ele>704.0</ele><time>2026-04-11T08:22:32.998Z</time></trkpt><trkpt lat="44.6009991066287" lon="7.4480764888453415"><ele>703.5</ele><time>2026-04-11T08:22:37Z</time></trkpt><trkpt lat="44.60092060931722" lon="7.448072832121312"><ele>703.0</ele><time>2026-04-11T08:22:41Z</time></trkpt><trkpt lat="44.60085379697133" lon="7.44805233684595"><ele>702.5</ele><time>2026-04-11T08:22:44Z</time></trkpt><trkpt lat="44.60078852102714" lon="7.448038542911302"><ele>702.0</ele><time>2026-04-11T08:22:47Z</time></trkpt><trkpt lat="44.600702089745646" lon="7.448022114649449"><ele>701.5</ele><time>2026-04-11T08:22:51Z</time></trkpt><trkpt lat="44.600632959014945" lon="7.447996954516291"><ele>701.0</ele><time>2026-04-11T08:22:53Z</time></trkpt><trkpt lat="44.6005535869283" lon="7.447941928602908"><ele>701.0</ele><time>2026-04-11T08:22:56Z</time></trkpt><trkpt lat="44.60050257893037" lon="7.4478705576447926"><ele>701.0</ele><time>2026-04-11T08:22:59Z</time></trkpt><trkpt lat="44.60045406328203" lon="7.447812706564525"><ele>701.0</ele><time>2026-04-11T08:23:02Z</time></trkpt><trkpt lat="44.600400836554435" lon="7.447763680604509"><ele>701.0</ele><time>2026-04-11T08:23:06Z</time></trkpt><trkpt lat="44.600341756481036" lon="7.447729773791321"><ele>701.0</ele><time>2026-04-11T08:23:10Z</time></trkpt><trkpt lat="44.60027480498451" lon="7.447745180839873"><ele>701.0</ele><time>2026-04-11T08:23:13Z</time></trkpt><trkpt lat="44.60021073462503" lon="7.447747060015691"><ele>701.0</ele><time>2026-04-11T08:23:16Z</time></trkpt><trkpt lat="44.60014900550497" lon="7.447765220340374"><ele>699.8333333333333</ele><time>2026-04-11T08:23:20Z</time></trkpt><trkpt lat="44.60007666367557" lon="7.4477989833375355"><ele>698.6666666666666</ele><time>2026-04-11T08:23:24Z</time></trkpt><trkpt lat="44.60005789592918" lon="7.447897975935604"><ele>697.5</ele><time>2026-04-11T08:23:27.999Z</time></trkpt><trkpt lat="44.600091310765166" lon="7.447986166938869"><ele>696.3333333333334</ele><time>2026-04-11T08:23:31.999Z</time></trkpt><trkpt lat="44.600129342306836" lon="7.448077820600708"><ele>695.1666666666667</ele><time>2026-04-11T08:23:35.999Z</time></trkpt><trkpt lat="44.6001231938292" lon="7.448185284858438"><ele>694.0</ele><time>2026-04-11T08:23:39.999Z</time></trkpt><trkpt lat="44.600058207055305" lon="7.448252852380197"><ele>694.0</ele><time>2026-04-11T08:23:44.999Z</time></trkpt><trkpt lat="44.60001273450069" lon="7.448330374405469"><ele>694.0</ele><time>2026-04-11T08:23:47.999Z</time></trkpt><trkpt lat="44.599954070604205" lon="7.448413984386908"><ele>694.0</ele><time>2026-04-11T08:23:50.999Z</time></trkpt><trkpt lat="44.599910118782816" lon="7.448479379843041"><ele>694.0</ele><time>2026-04-11T08:23:53.999Z</time></trkpt><trkpt lat="44.5998624651143" lon="7.448537511514129"><ele>694.0</ele><time>2026-04-11T08:23:56.999Z</time></trkpt><trkpt lat="44.59979780527652" lon="7.448548658450384"><ele>694.0</ele><time>2026-04-11T08:23:59.999Z</time></trkpt><trkpt lat="44.599706771527195" lon="7.448559111724494"><ele>694.0</ele><time>2026-04-11T08:24:02.999Z</time></trkpt><trkpt lat="44.599631357841936" lon="7.448569688328721"><ele>694.0</ele><time>2026-04-11T08:24:04.999Z</time></trkpt><trkpt lat="44.599538573418066" lon="7.448539080439709"><ele>694.0</ele><time>2026-04-11T08:24:06.999Z</time></trkpt><trkpt lat="44.5994773778761" lon="7.448499574411594"><ele>694.0</ele><time>2026-04-11T08:24:07.999Z</time></trkpt><trkpt lat="44.59940771410665" lon="7.448467356350097"><ele>694.0</ele><time>2026-04-11T08:24:08.999Z</time></trkpt><trkpt lat="44.59934445633916" lon="7.448441858000445"><ele>694.0</ele><time>2026-04-11T08:24:09.999Z</time></trkpt><trkpt lat="44.59922101993393" lon="7.448433966074415"><ele>694.0</ele><time>2026-04-11T08:24:11.999Z</time></trkpt><trkpt lat="44.59913798436082" lon="7.448449270722407"><ele>693.8571428571429</ele><time>2026-04-11T08:24:13.999Z</time></trkpt><trkpt lat="44.59907496257689" lon="7.448475541641061"><ele>693.7142857142857</ele><time>2026-04-11T08:24:14.999Z</time></trkpt><trkpt lat="44.598997329532416" lon="7.448511952909253"><ele>693.5714285714286</ele><time>2026-04-11T08:24:16.999Z</time></trkpt><trkpt lat="44.59893584863079" lon="7.44853759230982"><ele>693.4285714285714</ele><time>2026-04-11T08:24:18.999Z</time></trkpt><trkpt lat="44.59886450617054" lon="7.448568791774777"><ele>693.2857142857142</ele><time>2026-04-11T08:24:21.998Z</time></trkpt><trkpt lat="44.59879710371822" lon="7.448574123947107"><ele>693.1428571428571</ele><time>2026-04-11T08:24:24.998Z</time></trkpt><trkpt lat="44.59872965364746" lon="7.448572858365143"><ele>693.0</ele><time>2026-04-11T08:24:26.998Z</time></trkpt><trkpt lat="44.598661949205734" lon="7.44851304034845"><ele>693.4285714285714</ele><time>2026-04-11T08:24:29.998Z</time></trkpt><trkpt lat="44.598597969386496" lon="7.448468881083675"><ele>693.8571428571429</ele><time>2026-04-11T08:24:32.998Z</time></trkpt><trkpt lat="44.598511537025736" lon="7.448471119842542"><ele>694.2857142857142</ele><time>2026-04-11T08:24:35.998Z</time></trkpt><trkpt lat="44.5984985455952" lon="7.448578636079846"><ele>694.7142857142858</ele><time>2026-04-11T08:24:39.998Z</time></trkpt><trkpt lat="44.59847982551075" lon="7.448665103987452"><ele>695.1428571428571</ele><time>2026-04-11T08:24:44Z</time></trkpt><trkpt lat="44.59847358701848" lon="7.448753958857864"><ele>695.5714285714286</ele><time>2026-04-11T08:24:47Z</time></trkpt><trkpt lat="44.598462661982964" lon="7.448854505364021"><ele>696.0</ele><time>2026-04-11T08:24:51Z</time></trkpt><trkpt lat="44.59844942124463" lon="7.44895376357475"><ele>696.0</ele><time>2026-04-11T08:24:55Z</time></trkpt><trkpt lat="44.59844471429589" lon="7.449050324493824"><ele>696.0</ele><time>2026-04-11T08:24:59Z</time></trkpt><trkpt lat="44.598430735416926" lon="7.449155542418826"><ele>696.0</ele><time>2026-04-11T08:25:03Z</time></trkpt><trkpt lat="44.598415263716454" lon="7.4492430297901935"><ele>696.0</ele><time>2026-04-11T08:25:06Z</time></trkpt><trkpt lat="44.5983881823986" lon="7.449325083405134"><ele>696.0</ele><time>2026-04-11T08:25:09Z</time></trkpt><trkpt lat="44.598393929605706" lon="7.449415400289354"><ele>696.0</ele><time>2026-04-11T08:25:12Z</time></trkpt><trkpt lat="44.59837999791655" lon="7.449512225870523"><ele>696.0</ele><time>2026-04-11T08:25:16Z</time></trkpt><trkpt lat="44.59837019965768" lon="7.44962065872002"><ele>696.1428571428571</ele><time>2026-04-11T08:25:20Z</time></trkpt><trkpt lat="44.5983539242615" lon="7.449728915436934"><ele>696.2857142857143</ele><time>2026-04-11T08:25:24Z</time></trkpt><trkpt lat="44.598342271064965" lon="7.44981588808637"><ele>696.4285714285714</ele><time>2026-04-11T08:25:26Z</time></trkpt><trkpt lat="44.5983283299498" lon="7.449910675116879"><ele>696.5714285714286</ele><time>2026-04-11T08:25:30Z</time></trkpt><trkpt lat="44.598351764405145" lon="7.450011757230377"><ele>696.7142857142857</ele><time>2026-04-11T08:25:33.999Z</time></trkpt><trkpt lat="44.59835232157678" lon="7.450119801014323"><ele>696.8571428571429</ele><time>2026-04-11T08:25:37.999Z</time></trkpt><trkpt lat="44.59838298355244" lon="7.450210701073615"><ele>697.0</ele><time>2026-04-11T08:25:40.999Z</time></trkpt><trkpt lat="44.598418004039274" lon="7.450318386073695"><ele>697.0</ele><time>2026-04-11T08:25:43.999Z</time></trkpt><trkpt lat="44.598439127196436" lon="7.450408026051007"><ele>697.0</ele><time>2026-04-11T08:25:46.999Z</time></trkpt><trkpt lat="44.5984618576906" lon="7.450509567626125"><ele>697.0</ele><time>2026-04-11T08:25:50.999Z</time></trkpt><trkpt lat="44.59849057377761" lon="7.45060481192734"><ele>697.0</ele><time>2026-04-11T08:25:54.999Z</time></trkpt><trkpt lat="44.59850861695449" lon="7.450696103023716"><ele>697.0</ele><time>2026-04-11T08:25:58.999Z</time></trkpt><trkpt lat="44.598448072019345" lon="7.450761870766495"><ele>697.0</ele><time>2026-04-11T08:26:03.999Z</time></trkpt><trkpt lat="44.598377362536844" lon="7.4508151420033"><ele>697.0</ele><time>2026-04-11T08:26:08.999Z</time></trkpt><trkpt lat="44.59831685849921" lon="7.450862744948786"><ele>697.1666666666667</ele><time>2026-04-11T08:26:11.999Z</time></trkpt><trkpt lat="44.59828948136552" lon="7.450970604028477"><ele>697.3333333333334</ele><time>2026-04-11T08:26:14.999Z</time></trkpt><trkpt lat="44.59828133395266" lon="7.451084557707103"><ele>697.5</ele><time>2026-04-11T08:26:16.999Z</time></trkpt><trkpt lat="44.59824444918661" lon="7.451187478354982"><ele>697.6666666666666</ele><time>2026-04-11T08:26:18.999Z</time></trkpt><trkpt lat="44.59820419378286" lon="7.451292529630138"><ele>697.8333333333333</ele><time>2026-04-11T08:26:21.999Z</time></trkpt><trkpt lat="44.59822700781356" lon="7.451399527619461"><ele>698.0</ele><time>2026-04-11T08:26:24.999Z</time></trkpt><trkpt lat="44.59825066930815" lon="7.45149779688221"><ele>698.0</ele><time>2026-04-11T08:26:28.998Z</time></trkpt><trkpt lat="44.5982681461181" lon="7.451612984617378"><ele>698.0</ele><time>2026-04-11T08:26:32.998Z</time></trkpt><trkpt lat="44.598306949834814" lon="7.451683191313793"><ele>698.0</ele><time>2026-04-11T08:26:34.998Z</time></trkpt><trkpt lat="44.59833543076156" lon="7.4517789102232195"><ele>698.0</ele><time>2026-04-11T08:26:38.998Z</time></trkpt><trkpt lat="44.59835809080921" lon="7.451890992225229"><ele>698.0</ele><time>2026-04-11T08:26:42.998Z</time></trkpt><trkpt lat="44.598398646429764" lon="7.451983636163711"><ele>698.0</ele><time>2026-04-11T08:26:45.998Z</time></trkpt><trkpt lat="44.598447307367366" lon="7.452051565853426"><ele>697.9999999999999</ele><time>2026-04-11T08:26:50Z</time></trkpt><trkpt lat="44.59851335484163" lon="7.4521045101443555"><ele>698.0</ele><time>2026-04-11T08:26:54Z</time></trkpt><trkpt lat="44.59859247433849" lon="7.452144581145661"><ele>698.0</ele><time>2026-04-11T08:26:58Z</time></trkpt><trkpt lat="44.59867686796513" lon="7.452162350284504"><ele>698.0</ele><time>2026-04-11T08:27:02Z</time></trkpt><trkpt lat="44.59873966585358" lon="7.452195633130533"><ele>698.0</ele><time>2026-04-11T08:27:05Z</time></trkpt><trkpt lat="44.59878834397652" lon="7.452255504116176"><ele>697.9999999999999</ele><time>2026-04-11T08:27:09Z</time></trkpt><trkpt lat="44.598786099405594" lon="7.4523459688658455"><ele>698.0</ele><time>2026-04-11T08:27:13Z</time></trkpt><trkpt lat="44.59875790510614" lon="7.452432191771998"><ele>699.8333333333333</ele><time>2026-04-11T08:27:18Z</time></trkpt><trkpt lat="44.59871632745982" lon="7.45250438822115"><ele>701.6666666666666</ele><time>2026-04-11T08:27:21Z</time></trkpt><trkpt lat="44.59865661938348" lon="7.452597532976346"><ele>703.5</ele><time>2026-04-11T08:27:24Z</time></trkpt><trkpt lat="44.59861777305798" lon="7.452667205169971"><ele>705.3333333333334</ele><time>2026-04-11T08:27:26Z</time></trkpt><trkpt lat="44.598604921789835" lon="7.45276800138322"><ele>707.1666666666667</ele><time>2026-04-11T08:27:27Z</time></trkpt><trkpt lat="44.59855305247101" lon="7.452880203904118"><ele>709.0</ele><time>2026-04-11T08:27:30Z</time></trkpt><trkpt lat="44.59853289539569" lon="7.452984927610352"><ele>709.0</ele><time>2026-04-11T08:27:32Z</time></trkpt><trkpt lat="44.598489668591995" lon="7.453080977408227"><ele>709.0</ele><time>2026-04-11T08:27:34Z</time></trkpt><trkpt lat="44.598450306343636" lon="7.453197906834784"><ele>709.0</ele><time>2026-04-11T08:27:37.999Z</time></trkpt><trkpt lat="44.59843642787109" lon="7.453293807631266"><ele>709.0</ele><time>2026-04-11T08:27:40.999Z</time></trkpt><trkpt lat="44.598408770780175" lon="7.4533782253733865"><ele>709.0</ele><time>2026-04-11T08:27:43.999Z</time></trkpt><trkpt lat="44.59838937322825" lon="7.453472832625854"><ele>709.0</ele><time>2026-04-11T08:27:46.999Z</time></trkpt><trkpt lat="44.59835828991127" lon="7.45356721397266"><ele>709.0000000000001</ele><time>2026-04-11T08:27:49.999Z</time></trkpt><trkpt lat="44.59834006774868" lon="7.453671367407628"><ele>709.0</ele><time>2026-04-11T08:27:53.999Z</time></trkpt><trkpt lat="44.59829658888912" lon="7.453771611810547"><ele>709.0</ele><time>2026-04-11T08:27:57.999Z</time></trkpt><trkpt lat="44.59827668985131" lon="7.453865952011929"><ele>709.0</ele><time>2026-04-11T08:28:01.999Z</time></trkpt><trkpt lat="44.59828346893217" lon="7.453964870621144"><ele>709.0</ele><time>2026-04-11T08:28:06.999Z</time></trkpt><trkpt lat="44.59831232393435" lon="7.454059334537784"><ele>709.0000000000001</ele><time>2026-04-11T08:28:10.999Z</time></trkpt><trkpt lat="44.598336917354345" lon="7.454140990396267"><ele>709.0</ele><time>2026-04-11T08:28:13.999Z</time></trkpt><trkpt lat="44.598368394883614" lon="7.454244757471076"><ele>709.0000000000001</ele><time>2026-04-11T08:28:17.999Z</time></trkpt><trkpt lat="44.598396003340945" lon="7.454326169945638"><ele>709.0</ele><time>2026-04-11T08:28:20.999Z</time></trkpt><trkpt lat="44.59843183422913" lon="7.454414260317886"><ele>709.0</ele><time>2026-04-11T08:28:24.999Z</time></trkpt><trkpt lat="44.598437982427335" lon="7.45451135268154"><ele>709.0</ele><time>2026-04-11T08:28:29.999Z</time></trkpt><trkpt lat="44.59843164949445" lon="7.4546048368974445"><ele>709.0</ele><time>2026-04-11T08:28:34.998Z</time></trkpt><trkpt lat="44.598436301617284" lon="7.454711873629016"><ele>709.0000000000001</ele><time>2026-04-11T08:28:38.998Z</time></trkpt><trkpt lat="44.59844225585449" lon="7.454805324176631"><ele>709.0</ele><time>2026-04-11T08:28:41.998Z</time></trkpt><trkpt lat="44.59847143942188" lon="7.454903226955148"><ele>709.1666666666667</ele><time>2026-04-11T08:28:44.998Z</time></trkpt><trkpt lat="44.59849975110964" lon="7.455005797553848"><ele>709.3333333333334</ele><time>2026-04-11T08:28:47.998Z</time></trkpt><trkpt lat="44.59854392806123" lon="7.455083353297642"><ele>709.5</ele><time>2026-04-11T08:28:48.998Z</time></trkpt><trkpt lat="44.59858592288756" lon="7.455180725410983"><ele>709.6666666666666</ele><time>2026-04-11T08:28:50.998Z</time></trkpt><trkpt lat="44.59861139546822" lon="7.45533901332273"><ele>709.8333333333333</ele><time>2026-04-11T08:28:53Z</time></trkpt><trkpt lat="44.59862137465029" lon="7.45542768033067"><ele>710.0</ele><time>2026-04-11T08:28:54Z</time></trkpt><trkpt lat="44.59863871552365" lon="7.455568343021806"><ele>709.5</ele><time>2026-04-11T08:28:56Z</time></trkpt><trkpt lat="44.59866663256627" lon="7.455681793660637"><ele>709.0</ele><time>2026-04-11T08:28:58Z</time></trkpt><trkpt lat="44.59870656000029" lon="7.4557664460544535"><ele>708.5</ele><time>2026-04-11T08:29:00Z</time></trkpt><trkpt lat="44.59873061968506" lon="7.455867913334475"><ele>708.0</ele><time>2026-04-11T08:29:02Z</time></trkpt><trkpt lat="44.59875283079596" lon="7.4559813997638456"><ele>707.5</ele><time>2026-04-11T08:29:04Z</time></trkpt><trkpt lat="44.598779188477735" lon="7.456113064894582"><ele>707.0</ele><time>2026-04-11T08:29:06Z</time></trkpt><trkpt lat="44.598809339479416" lon="7.456265749704376"><ele>700.4000000000001</ele><time>2026-04-11T08:29:08Z</time></trkpt><trkpt lat="44.598826051560835" lon="7.456412965716488"><ele>693.8000000000001</ele><time>2026-04-11T08:29:10Z</time></trkpt><trkpt lat="44.59887114613488" lon="7.456538558831275"><ele>687.2</ele><time>2026-04-11T08:29:12Z</time></trkpt><trkpt lat="44.59892248425765" lon="7.456661610919797"><ele>680.6</ele><time>2026-04-11T08:29:14Z</time></trkpt><trkpt lat="44.59897964712276" lon="7.456783184245249"><ele>674.0</ele><time>2026-04-11T08:29:16Z</time></trkpt><trkpt lat="44.599012163148856" lon="7.456916537801875"><ele>674.0</ele><time>2026-04-11T08:29:18Z</time></trkpt><trkpt lat="44.599030100788084" lon="7.457046005739665"><ele>674.0</ele><time>2026-04-11T08:29:20Z</time></trkpt><trkpt lat="44.599048943158905" lon="7.4571548510887"><ele>674.0</ele><time>2026-04-11T08:29:22Z</time></trkpt><trkpt lat="44.599072883829095" lon="7.457290596989266"><ele>674.0</ele><time>2026-04-11T08:29:25Z</time></trkpt><trkpt lat="44.59907896732846" lon="7.457389559874132"><ele>674.0</ele><time>2026-04-11T08:29:27Z</time></trkpt><trkpt lat="44.59907690949384" lon="7.457509498892024"><ele>674.0</ele><time>2026-04-11T08:29:29Z</time></trkpt><trkpt lat="44.599077201457426" lon="7.457619840437891"><ele>674.5</ele><time>2026-04-11T08:29:31Z</time></trkpt><trkpt lat="44.59905165304596" lon="7.457704390320431"><ele>675.0</ele><time>2026-04-11T08:29:33Z</time></trkpt><trkpt lat="44.59899753691682" lon="7.457782331501831"><ele>675.5</ele><time>2026-04-11T08:29:35Z</time></trkpt><trkpt lat="44.598907724606754" lon="7.45786059859437"><ele>676.0</ele><time>2026-04-11T08:29:37Z</time></trkpt><trkpt lat="44.59881356493745" lon="7.457907001224428"><ele>676.5</ele><time>2026-04-11T08:29:38Z</time></trkpt><trkpt lat="44.59871580497363" lon="7.457917014615056"><ele>677.0</ele><time>2026-04-11T08:29:39Z</time></trkpt><trkpt lat="44.598647019936195" lon="7.457892545923242"><ele>675.8</ele><time>2026-04-11T08:29:40Z</time></trkpt><trkpt lat="44.59857198060373" lon="7.4578117013679455"><ele>674.6</ele><time>2026-04-11T08:29:41Z</time></trkpt><trkpt lat="44.59845360020573" lon="7.457828120097213"><ele>673.4</ele><time>2026-04-11T08:29:43Z</time></trkpt><trkpt lat="44.5983940869596" lon="7.457956902261944"><ele>672.1999999999999</ele><time>2026-04-11T08:29:44.999Z</time></trkpt><trkpt lat="44.59836203361312" lon="7.458050542469308"><ele>671.0</ele><time>2026-04-11T08:29:46.999Z</time></trkpt><trkpt lat="44.59830919060999" lon="7.4581554572483135"><ele>671.0</ele><time>2026-04-11T08:29:48.999Z</time></trkpt><trkpt lat="44.598228553833565" lon="7.458280555358602"><ele>671.0</ele><time>2026-04-11T08:29:50.999Z</time></trkpt><trkpt lat="44.598174803560525" lon="7.458343977973884"><ele>671.0</ele><time>2026-04-11T08:29:51.999Z</time></trkpt><trkpt lat="44.59810167006698" lon="7.458439594211608"><ele>671.0</ele><time>2026-04-11T08:29:53.999Z</time></trkpt><trkpt lat="44.59803896139532" lon="7.458503337601777"><ele>671.0</ele><time>2026-04-11T08:29:55.999Z</time></trkpt><trkpt lat="44.59797954461481" lon="7.458433208499797"><ele>671.0</ele><time>2026-04-11T08:29:58.999Z</time></trkpt><trkpt lat="44.59799283352239" lon="7.458331367500967"><ele>671.0</ele><time>2026-04-11T08:30:02.999Z</time></trkpt><trkpt lat="44.59800179069866" lon="7.458239203658414"><ele>671.0</ele><time>2026-04-11T08:30:51.998Z</time></trkpt><trkpt lat="44.59797778616539" lon="7.458127226617791"><ele>671.0</ele><time>2026-04-11T08:30:54.998Z</time></trkpt><trkpt lat="44.59795873466115" lon="7.458026995771072"><ele>671.0</ele><time>2026-04-11T08:30:57.998Z</time></trkpt><trkpt lat="44.59790309266357" lon="7.457924702509261"><ele>671.0</ele><time>2026-04-11T08:31:01Z</time></trkpt><trkpt lat="44.59785504830796" lon="7.457839607122438"><ele>671.0</ele><time>2026-04-11T08:31:03Z</time></trkpt><trkpt lat="44.597799021147544" lon="7.457727609989037"><ele>674.3333333333333</ele><time>2026-04-11T08:31:06Z</time></trkpt><trkpt lat="44.59774069906108" lon="7.457650596904565"><ele>677.6666666666666</ele><time>2026-04-11T08:31:08Z</time></trkpt><trkpt lat="44.59768036545872" lon="7.457594897959256"><ele>681.0</ele><time>2026-04-11T08:31:10Z</time></trkpt><trkpt lat="44.597608649831045" lon="7.457543225905867"><ele>684.3333333333334</ele><time>2026-04-11T08:31:12Z</time></trkpt><trkpt lat="44.59752728909363" lon="7.457534476199685"><ele>687.6666666666667</ele><time>2026-04-11T08:31:15Z</time></trkpt><trkpt lat="44.597464549633415" lon="7.457501263952245"><ele>691.0</ele><time>2026-04-11T08:31:17Z</time></trkpt><trkpt lat="44.59738048955809" lon="7.457468433370315"><ele>690.9999999999999</ele><time>2026-04-11T08:31:19Z</time></trkpt><trkpt lat="44.597304323521904" lon="7.457467530430554"><ele>691.0</ele><time>2026-04-11T08:31:21Z</time></trkpt><trkpt lat="44.597240360185786" lon="7.457529650091523"><ele>691.0</ele><time>2026-04-11T08:31:24Z</time></trkpt><trkpt lat="44.597170666148685" lon="7.457523698140463"><ele>691.0</ele><time>2026-04-11T08:31:28Z</time></trkpt><trkpt lat="44.59711267864166" lon="7.457454999808536"><ele>691.0</ele><time>2026-04-11T08:31:32Z</time></trkpt><trkpt lat="44.597050993896396" lon="7.457428463057477"><ele>690.9999999999999</ele><time>2026-04-11T08:31:36Z</time></trkpt><trkpt lat="44.59697936863362" lon="7.457425429269494"><ele>691.0</ele><time>2026-04-11T08:31:40Z</time></trkpt><trkpt lat="44.59692050260412" lon="7.457470648227117"><ele>692.2857142857142</ele><time>2026-04-11T08:31:43Z</time></trkpt><trkpt lat="44.596859646960986" lon="7.457501131857281"><ele>693.5714285714286</ele><time>2026-04-11T08:31:46Z</time></trkpt><trkpt lat="44.59679654594666" lon="7.457517383155453"><ele>694.8571428571429</ele><time>2026-04-11T08:31:49Z</time></trkpt><trkpt lat="44.596738380596925" lon="7.457580162392601"><ele>696.1428571428571</ele><time>2026-04-11T08:31:52.999Z</time></trkpt><trkpt lat="44.59667522117005" lon="7.457638571604934"><ele>697.4285714285714</ele><time>2026-04-11T08:31:56.999Z</time></trkpt><trkpt lat="44.59663657414021" lon="7.4577122358387875"><ele>698.7142857142857</ele><time>2026-04-11T08:31:59.999Z</time></trkpt><trkpt lat="44.59660061794906" lon="7.457796622991406"><ele>700.0</ele><time>2026-04-11T08:32:02.999Z</time></trkpt><trkpt lat="44.59656870455349" lon="7.457901574454633"><ele>697.4285714285714</ele><time>2026-04-11T08:32:05.999Z</time></trkpt><trkpt lat="44.596557078602245" lon="7.457995179147987"><ele>694.8571428571429</ele><time>2026-04-11T08:32:08.999Z</time></trkpt><trkpt lat="44.59652304284239" lon="7.458085619320821"><ele>692.2857142857142</ele><time>2026-04-11T08:32:11.999Z</time></trkpt><trkpt lat="44.596492470853114" lon="7.458163061426393"><ele>689.7142857142858</ele><time>2026-04-11T08:32:14.999Z</time></trkpt><trkpt lat="44.596415796662704" lon="7.458198767855379"><ele>687.1428571428571</ele><time>2026-04-11T08:32:18.999Z</time></trkpt><trkpt lat="44.59636405103909" lon="7.458265392754938"><ele>684.5714285714286</ele><time>2026-04-11T08:32:21.999Z</time></trkpt><trkpt lat="44.596313226096335" lon="7.4583301436804845"><ele>682.0</ele><time>2026-04-11T08:32:24.999Z</time></trkpt><trkpt lat="44.59625221659692" lon="7.45836739359177"><ele>682.0</ele><time>2026-04-11T08:32:27.999Z</time></trkpt><trkpt lat="44.59618399893324" lon="7.458393483406456"><ele>682.0</ele><time>2026-04-11T08:32:31.999Z</time></trkpt><trkpt lat="44.59610663233405" lon="7.458402469903492"><ele>682.0</ele><time>2026-04-11T08:32:35.999Z</time></trkpt><trkpt lat="44.596031325380366" lon="7.458426352472105"><ele>682.0</ele><time>2026-04-11T08:32:39.999Z</time></trkpt><trkpt lat="44.59595479397856" lon="7.458465282702462"><ele>682.0</ele><time>2026-04-11T08:32:43.999Z</time></trkpt><trkpt lat="44.59590492448797" lon="7.4585375252324155"><ele>682.0</ele><time>2026-04-11T08:32:47.998Z</time></trkpt><trkpt lat="44.595867265619646" lon="7.458615055273326"><ele>682.0</ele><time>2026-04-11T08:32:51.998Z</time></trkpt><trkpt lat="44.59587571896889" lon="7.458726471127578"><ele>685.3333333333334</ele><time>2026-04-11T08:32:54.998Z</time></trkpt><trkpt lat="44.59587835689475" lon="7.458833540051081"><ele>688.6666666666667</ele><time>2026-04-11T08:32:58.998Z</time></trkpt><trkpt lat="44.59587203519097" lon="7.45893287319106"><ele>692.0</ele><time>2026-04-11T08:33:02.998Z</time></trkpt><trkpt lat="44.59587210533506" lon="7.459043513713289"><ele>695.3333333333334</ele><time>2026-04-11T08:33:07Z</time></trkpt><trkpt lat="44.59588322661832" lon="7.459135959215251"><ele>698.6666666666666</ele><time>2026-04-11T08:33:10Z</time></trkpt><trkpt lat="44.59592893925089" lon="7.459244646679828"><ele>702.0</ele><time>2026-04-11T08:33:13Z</time></trkpt><trkpt lat="44.595963547612165" lon="7.459332066297513"><ele>702.0000000000001</ele><time>2026-04-11T08:33:15Z</time></trkpt><trkpt lat="44.5959911797308" lon="7.459416802622061"><ele>702.0</ele><time>2026-04-11T08:33:17Z</time></trkpt><trkpt lat="44.59602314596927" lon="7.459523259516734"><ele>702.0</ele><time>2026-04-11T08:33:19Z</time></trkpt><trkpt lat="44.59604953388374" lon="7.459614899720083"><ele>702.0</ele><time>2026-04-11T08:33:21Z</time></trkpt><trkpt lat="44.59608054242385" lon="7.459707488181763"><ele>702.0</ele><time>2026-04-11T08:33:23Z</time></trkpt><trkpt lat="44.59611154496927" lon="7.459813147050152"><ele>702.0000000000001</ele><time>2026-04-11T08:33:25Z</time></trkpt><trkpt lat="44.59610060909164" lon="7.459901748725939"><ele>702.0</ele><time>2026-04-11T08:33:28Z</time></trkpt><trkpt lat="44.596095443335265" lon="7.459990800513151"><ele>702.1428571428572</ele><time>2026-04-11T08:33:36Z</time></trkpt><trkpt lat="44.59609054154793" lon="7.460085284966338"><ele>702.2857142857143</ele><time>2026-04-11T08:33:41Z</time></trkpt><trkpt lat="44.596100565305896" lon="7.460205793864348"><ele>702.4285714285714</ele><time>2026-04-11T08:33:57.999Z</time></trkpt><trkpt lat="44.59612803068903" lon="7.4602934224185615"><ele>702.5714285714287</ele><time>2026-04-11T08:34:10.999Z</time></trkpt><trkpt lat="44.596178365757055" lon="7.460358271889818"><ele>702.7142857142858</ele><time>2026-04-11T08:34:13.999Z</time></trkpt><trkpt lat="44.59622881165026" lon="7.46042399273451"><ele>702.8571428571429</ele><time>2026-04-11T08:34:15.999Z</time></trkpt><trkpt lat="44.59628245753585" lon="7.460505738887264"><ele>703.0</ele><time>2026-04-11T08:34:18.999Z</time></trkpt><trkpt lat="44.59631155087738" lon="7.460600185179923"><ele>696.3333333333334</ele><time>2026-04-11T08:34:21.999Z</time></trkpt><trkpt lat="44.596313879344535" lon="7.460728050641028"><ele>689.6666666666667</ele><time>2026-04-11T08:34:24.999Z</time></trkpt><trkpt lat="44.59629147299317" lon="7.460820938583444"><ele>683.0</ele><time>2026-04-11T08:34:26.999Z</time></trkpt><trkpt lat="44.5962647779182" lon="7.460905113101039"><ele>676.3333333333334</ele><time>2026-04-11T08:34:28.999Z</time></trkpt><trkpt lat="44.596239771147026" lon="7.46101385835403"><ele>669.6666666666666</ele><time>2026-04-11T08:34:31.999Z</time></trkpt><trkpt lat="44.5962156781402" lon="7.461115701751552"><ele>663.0</ele><time>2026-04-11T08:34:33.999Z</time></trkpt><trkpt lat="44.5961821844764" lon="7.461222101774694"><ele>664.8571428571428</ele><time>2026-04-11T08:34:35.999Z</time></trkpt><trkpt lat="44.596162726302325" lon="7.461306535614919"><ele>666.7142857142857</ele><time>2026-04-11T08:34:37.999Z</time></trkpt><trkpt lat="44.59612869817045" lon="7.461387221701305"><ele>668.5714285714286</ele><time>2026-04-11T08:34:40.999Z</time></trkpt><trkpt lat="44.5960588842207" lon="7.461402328879174"><ele>670.4285714285713</ele><time>2026-04-11T08:36:57.998Z</time></trkpt><trkpt lat="44.595991390839025" lon="7.461370620660241"><ele>672.2857142857142</ele><time>2026-04-11T08:37:02.998Z</time></trkpt><trkpt lat="44.59592989608224" lon="7.4613429411625"><ele>674.1428571428571</ele><time>2026-04-11T08:37:05.998Z</time></trkpt><trkpt lat="44.59584722215379" lon="7.461332107850179"><ele>676.0</ele><time>2026-04-11T08:37:10.998Z</time></trkpt><trkpt lat="44.59577607590556" lon="7.461312893993101"><ele>676.0</ele><time>2026-04-11T08:37:14.998Z</time></trkpt><trkpt lat="44.59569760489847" lon="7.461290756448021"><ele>676.0</ele><time>2026-04-11T08:37:18Z</time></trkpt><trkpt lat="44.595619685557836" lon="7.461286728213798"><ele>676.0</ele><time>2026-04-11T08:37:21Z</time></trkpt><trkpt lat="44.59554753080981" lon="7.461269668553811"><ele>676.0</ele><time>2026-04-11T08:37:25Z</time></trkpt><trkpt lat="44.59548325965488" lon="7.4612554679083605"><ele>676.0</ele><time>2026-04-11T08:37:29Z</time></trkpt><trkpt lat="44.595416733202086" lon="7.461250632567719"><ele>676.0</ele><time>2026-04-11T08:37:33Z</time></trkpt><trkpt lat="44.595337605504106" lon="7.461235525648933"><ele>676.0</ele><time>2026-04-11T08:37:38Z</time></trkpt><trkpt lat="44.59526986740824" lon="7.461229280319381"><ele>680.5</ele><time>2026-04-11T08:37:42Z</time></trkpt><trkpt lat="44.5952051586326" lon="7.461225888694303"><ele>685.0</ele><time>2026-04-11T08:37:46Z</time></trkpt><trkpt lat="44.59513022142611" lon="7.4612228729594845"><ele>689.5</ele><time>2026-04-11T08:37:51Z</time></trkpt><trkpt lat="44.595056468202046" lon="7.461194169482089"><ele>694.0</ele><time>2026-04-11T08:37:56Z</time></trkpt><trkpt lat="44.594992993435234" lon="7.461210110857131"><ele>698.5</ele><time>2026-04-11T08:38:00Z</time></trkpt><trkpt lat="44.59493510478137" lon="7.461173507747343"><ele>703.0</ele><time>2026-04-11T08:38:07Z</time></trkpt><trkpt lat="44.594829378386294" lon="7.461196480631807"><ele>703.0</ele><time>2026-04-11T08:38:10.999Z</time></trkpt><trkpt lat="44.59476635266304" lon="7.461178285780146"><ele>703.0</ele><time>2026-04-11T08:38:13.999Z</time></trkpt><trkpt lat="44.59469430162767" lon="7.461162131062674"><ele>703.0</ele><time>2026-04-11T08:38:17.999Z</time></trkpt><trkpt lat="44.594631734786134" lon="7.46111638872177"><ele>703.0</ele><time>2026-04-11T08:38:21.999Z</time></trkpt><trkpt lat="44.59456714932418" lon="7.461084694731691"><ele>703.0</ele><time>2026-04-11T08:38:25.999Z</time></trkpt><trkpt lat="44.59450257250216" lon="7.461109358119075"><ele>703.0</ele><time>2026-04-11T08:38:28.999Z</time></trkpt><trkpt lat="44.59442911808499" lon="7.4611426122114874"><ele>703.0</ele><time>2026-04-11T08:38:31.999Z</time></trkpt><trkpt lat="44.59435544611673" lon="7.461109968273903"><ele>704.0</ele><time>2026-04-11T08:38:35.999Z</time></trkpt><trkpt lat="44.594286519168" lon="7.461117635404767"><ele>705.0</ele><time>2026-04-11T08:38:39.999Z</time></trkpt><trkpt lat="44.59420815838853" lon="7.461106136726697"><ele>706.0</ele><time>2026-04-11T08:38:44.999Z</time></trkpt><trkpt lat="44.59414043146469" lon="7.461073220178219"><ele>707.0</ele><time>2026-04-11T08:38:48.999Z</time></trkpt><trkpt lat="44.594075218508465" lon="7.4610541126946135"><ele>708.0</ele><time>2026-04-11T08:38:52.999Z</time></trkpt><trkpt lat="44.59401714404673" lon="7.460993486748367"><ele>709.0</ele><time>2026-04-11T08:38:56.999Z</time></trkpt><trkpt lat="44.5939491963046" lon="7.460938362072412"><ele>710.0</ele><time>2026-04-11T08:39:00.998Z</time></trkpt><trkpt lat="44.59387683428293" lon="7.460921382502369"><ele>710.0</ele><time>2026-04-11T08:39:04.998Z</time></trkpt><trkpt lat="44.5938139736465" lon="7.460883372619459"><ele>710.0</ele><time>2026-04-11T08:39:08.998Z</time></trkpt><trkpt lat="44.59375173420924" lon="7.460825707112557"><ele>710.0</ele><time>2026-04-11T08:39:12.998Z</time></trkpt><trkpt lat="44.59370471291004" lon="7.46075832580954"><ele>710.0</ele><time>2026-04-11T08:39:16.998Z</time></trkpt><trkpt lat="44.59364153536554" lon="7.460734363113132"><ele>710.0</ele><time>2026-04-11T08:39:32Z</time></trkpt><trkpt lat="44.59358787218033" lon="7.4606575683842875"><ele>710.0</ele><time>2026-04-11T08:39:36Z</time></trkpt><trkpt lat="44.59353001640145" lon="7.460583616644189"><ele>710.0</ele><time>2026-04-11T08:39:40Z</time></trkpt><trkpt lat="44.59349390398415" lon="7.460489747109009"><ele>709.7142857142857</ele><time>2026-04-11T08:39:44Z</time></trkpt><trkpt lat="44.59342034947342" lon="7.460442235549242"><ele>709.4285714285714</ele><time>2026-04-11T08:39:48Z</time></trkpt><trkpt lat="44.593354656066104" lon="7.460439299181778"><ele>709.1428571428571</ele><time>2026-04-11T08:39:51Z</time></trkpt><trkpt lat="44.59327932638019" lon="7.460475081590272"><ele>708.8571428571429</ele><time>2026-04-11T08:39:55Z</time></trkpt><trkpt lat="44.593209459781995" lon="7.460488809373247"><ele>708.5714285714286</ele><time>2026-04-11T08:40:00Z</time></trkpt><trkpt lat="44.59314890972673" lon="7.460447182778657"><ele>708.2857142857143</ele><time>2026-04-11T08:40:05Z</time></trkpt><trkpt lat="44.593092505591706" lon="7.460398936288035"><ele>708.0</ele><time>2026-04-11T08:40:09Z</time></trkpt><trkpt lat="44.593036958403594" lon="7.460337081398509"><ele>708.7142857142858</ele><time>2026-04-11T08:40:14Z</time></trkpt><trkpt lat="44.59299956947773" lon="7.460254835522001"><ele>709.4285714285713</ele><time>2026-04-11T08:40:17.999Z</time></trkpt><trkpt lat="44.59295845883257" lon="7.4601630103256555"><ele>710.1428571428571</ele><time>2026-04-11T08:40:22.999Z</time></trkpt><trkpt lat="44.59292668938645" lon="7.460066159167937"><ele>710.8571428571429</ele><time>2026-04-11T08:40:26.999Z</time></trkpt><trkpt lat="44.592901636375316" lon="7.459960562312198"><ele>711.5714285714287</ele><time>2026-04-11T08:40:29.999Z</time></trkpt><trkpt lat="44.592846519355696" lon="7.459890151914032"><ele>712.2857142857142</ele><time>2026-04-11T08:40:33.999Z</time></trkpt><trkpt lat="44.59279627118114" lon="7.459828370763626"><ele>713.0</ele><time>2026-04-11T08:40:37.999Z</time></trkpt><trkpt lat="44.59274118919737" lon="7.459765581655866"><ele>713.0</ele><time>2026-04-11T08:40:41.999Z</time></trkpt><trkpt lat="44.5926989277189" lon="7.4596698827464065"><ele>713.0</ele><time>2026-04-11T08:40:46.999Z</time></trkpt><trkpt lat="44.592646466989265" lon="7.459610095544899"><ele>713.0</ele><time>2026-04-11T08:40:50.999Z</time></trkpt><trkpt lat="44.59259900089461" lon="7.459551027181051"><ele>713.0</ele><time>2026-04-11T08:40:54.999Z</time></trkpt><trkpt lat="44.592553230994746" lon="7.459486904934529"><ele>713.0</ele><time>2026-04-11T08:40:58.999Z</time></trkpt><trkpt lat="44.59250983467284" lon="7.4594211704258875"><ele>713.0</ele><time>2026-04-11T08:41:02.999Z</time></trkpt><trkpt lat="44.592454695863395" lon="7.459346619992577"><ele>713.0</ele><time>2026-04-11T08:41:07.999Z</time></trkpt><trkpt lat="44.59240417152399" lon="7.459272854691817"><ele>714.8571428571428</ele><time>2026-04-11T08:41:12.998Z</time></trkpt><trkpt lat="44.592357068159565" lon="7.459201534828126"><ele>716.7142857142858</ele><time>2026-04-11T08:41:16.998Z</time></trkpt><trkpt lat="44.59229806552174" lon="7.459148951450529"><ele>718.5714285714286</ele><time>2026-04-11T08:41:20.998Z</time></trkpt><trkpt lat="44.59221566675057" lon="7.459120275047464"><ele>720.4285714285713</ele><time>2026-04-11T08:41:24.998Z</time></trkpt><trkpt lat="44.59215097181794" lon="7.459098562053432"><ele>722.2857142857142</ele><time>2026-04-11T08:41:27.998Z</time></trkpt><trkpt lat="44.59208710389716" lon="7.459123177210981"><ele>724.1428571428571</ele><time>2026-04-11T08:41:38Z</time></trkpt><trkpt lat="44.59213959930658" lon="7.459174723630931"><ele>726.0</ele><time>2026-04-11T08:41:43Z</time></trkpt><trkpt lat="44.592213481222345" lon="7.459181863107222"><ele>726.0</ele><time>2026-04-11T08:42:15Z</time></trkpt><trkpt lat="44.59226839142469" lon="7.4591090122008605"><ele>726.0</ele><time>2026-04-11T08:42:18Z</time></trkpt><trkpt lat="44.592269383398055" lon="7.459001348091109"><ele>726.0</ele><time>2026-04-11T08:42:22.999Z</time></trkpt><trkpt lat="44.59231256082694" lon="7.458928283732808"><ele>726.0</ele><time>2026-04-11T08:42:27.999Z</time></trkpt><trkpt lat="44.59233838323666" lon="7.458845576840789"><ele>726.0</ele><time>2026-04-11T08:42:31.999Z</time></trkpt><trkpt lat="44.59234405091781" lon="7.458721383477323"><ele>726.0</ele><time>2026-04-11T08:42:34.999Z</time></trkpt><trkpt lat="44.59232851859287" lon="7.458596160978962"><ele>727.2857142857142</ele><time>2026-04-11T08:42:37.999Z</time></trkpt><trkpt lat="44.59233258891107" lon="7.458501765962043"><ele>728.5714285714286</ele><time>2026-04-11T08:42:39.999Z</time></trkpt><trkpt lat="44.592322015844644" lon="7.45839276306723"><ele>729.8571428571429</ele><time>2026-04-11T08:42:41.999Z</time></trkpt><trkpt lat="44.59231881769909" lon="7.458274578210513"><ele>731.1428571428571</ele><time>2026-04-11T08:42:43.999Z</time></trkpt><trkpt lat="44.59231461988948" lon="7.458165260730257"><ele>732.4285714285714</ele><time>2026-04-11T08:42:45.999Z</time></trkpt><trkpt lat="44.592293551986415" lon="7.458078878364589"><ele>733.7142857142857</ele><time>2026-04-11T08:42:48.999Z</time></trkpt><trkpt lat="44.59227766360366" lon="7.457988611582381"><ele>735.0</ele><time>2026-04-11T08:42:50.999Z</time></trkpt><trkpt lat="44.59225320537158" lon="7.4578465497665345"><ele>735.8571428571429</ele><time>2026-04-11T08:42:52.999Z</time></trkpt><trkpt lat="44.59223629543614" lon="7.457744203826859"><ele>736.7142857142858</ele><time>2026-04-11T08:42:54.999Z</time></trkpt><trkpt lat="44.592229359803596" lon="7.457637393130191"><ele>737.5714285714286</ele><time>2026-04-11T08:42:56.999Z</time></trkpt><trkpt lat="44.59223870689713" lon="7.457523315506938"><ele>738.4285714285714</ele><time>2026-04-11T08:42:59.999Z</time></trkpt><trkpt lat="44.59225897664957" lon="7.457424201939537"><ele>739.2857142857143</ele><time>2026-04-11T08:43:04.999Z</time></trkpt><trkpt lat="44.59229674411772" lon="7.457340842663894"><ele>740.1428571428571</ele><time>2026-04-11T08:43:08.999Z</time></trkpt><trkpt lat="44.59232479035094" lon="7.45725065430007"><ele>741.0</ele><time>2026-04-11T08:43:13.999Z</time></trkpt><trkpt lat="44.592364485999276" lon="7.45716743648002"><ele>741.8571428571428</ele><time>2026-04-11T08:43:18.998Z</time></trkpt><trkpt lat="44.592383936040456" lon="7.457070556908675"><ele>742.7142857142858</ele><time>2026-04-11T08:43:22.998Z</time></trkpt><trkpt lat="44.59239945077409" lon="7.45696301286085"><ele>743.5714285714286</ele><time>2026-04-11T08:43:27.998Z</time></trkpt><trkpt lat="44.592387605791096" lon="7.456854356538693"><ele>744.4285714285713</ele><time>2026-04-11T08:43:32.998Z</time></trkpt><trkpt lat="44.59235814437759" lon="7.456766504683678"><ele>745.2857142857142</ele><time>2026-04-11T08:43:37Z</time></trkpt><trkpt lat="44.59234432894379" lon="7.456667537121737"><ele>746.1428571428571</ele><time>2026-04-11T08:43:42Z</time></trkpt><trkpt lat="44.59233578470184" lon="7.456563125035004"><ele>747.0</ele><time>2026-04-11T08:43:47Z</time></trkpt><trkpt lat="44.59230398652642" lon="7.456464556805277"><ele>746.9999999999999</ele><time>2026-04-11T08:43:52Z</time></trkpt><trkpt lat="44.59226842101515" lon="7.456383108807156"><ele>747.0</ele><time>2026-04-11T08:43:57Z</time></trkpt><trkpt lat="44.59222818308768" lon="7.456297789023972"><ele>747.0</ele><time>2026-04-11T08:44:02Z</time></trkpt><trkpt lat="44.59219418930778" lon="7.4562070425619345"><ele>747.0</ele><time>2026-04-11T08:44:07Z</time></trkpt><trkpt lat="44.59215065509738" lon="7.456116578256268"><ele>747.0</ele><time>2026-04-11T08:44:12Z</time></trkpt><trkpt lat="44.59212448350038" lon="7.45603116477089"><ele>746.9999999999999</ele><time>2026-04-11T08:44:16Z</time></trkpt><trkpt lat="44.59209158817027" lon="7.455939426903405"><ele>747.0</ele><time>2026-04-11T08:44:21Z</time></trkpt><trkpt lat="44.59207840949817" lon="7.455849184556541"><ele>748.9999999999999</ele><time>2026-04-11T08:44:25.999Z</time></trkpt><trkpt lat="44.592070601653255" lon="7.455747776690626"><ele>751.0</ele><time>2026-04-11T08:44:30.999Z</time></trkpt><trkpt lat="44.59207503741237" lon="7.455645391881943"><ele>753.0</ele><time>2026-04-11T08:44:35.999Z</time></trkpt><trkpt lat="44.59210165313742" lon="7.455547443061843"><ele>755.0</ele><time>2026-04-11T08:44:40.999Z</time></trkpt><trkpt lat="44.59212822959696" lon="7.455451574681886"><ele>757.0</ele><time>2026-04-11T08:44:45.999Z</time></trkpt><trkpt lat="44.59211648036755" lon="7.455344436818089"><ele>758.9999999999999</ele><time>2026-04-11T08:44:50.999Z</time></trkpt><trkpt lat="44.592099452436265" lon="7.455238758341582"><ele>761.0</ele><time>2026-04-11T08:44:55.999Z</time></trkpt><trkpt lat="44.59207906091733" lon="7.455136428104597"><ele>760.9999999999999</ele><time>2026-04-11T08:45:00.999Z</time></trkpt><trkpt lat="44.592045945302765" lon="7.45504266601287"><ele>761.0</ele><time>2026-04-11T08:45:05.999Z</time></trkpt><trkpt lat="44.59201632253465" lon="7.454945991687769"><ele>761.0</ele><time>2026-04-11T08:45:10.999Z</time></trkpt><trkpt lat="44.59199452558442" lon="7.454848189375217"><ele>761.0</ele><time>2026-04-11T08:45:15.999Z</time></trkpt><trkpt lat="44.59197722067814" lon="7.454762414497677"><ele>761.0</ele><time>2026-04-11T08:45:19.998Z</time></trkpt><trkpt lat="44.591955738598536" lon="7.454665683378831"><ele>760.9999999999999</ele><time>2026-04-11T08:45:24.998Z</time></trkpt><trkpt lat="44.591931136476525" lon="7.454578583938535"><ele>761.0</ele><time>2026-04-11T08:45:29.998Z</time></trkpt><trkpt lat="44.59190118173023" lon="7.454482077072939"><ele>760.9999999999999</ele><time>2026-04-11T08:45:34.998Z</time></trkpt><trkpt lat="44.59186587467994" lon="7.454383349527485"><ele>761.0</ele><time>2026-04-11T08:45:40Z</time></trkpt><trkpt lat="44.5918268614307" lon="7.454304381930965"><ele>761.0</ele><time>2026-04-11T08:45:44Z</time></trkpt><trkpt lat="44.5918095525523" lon="7.454214919983407"><ele>761.0</ele><time>2026-04-11T08:45:49Z</time></trkpt><trkpt lat="44.591790389075854" lon="7.454128471900451"><ele>761.0</ele><time>2026-04-11T08:45:54Z</time></trkpt><trkpt lat="44.591769100796924" lon="7.454027961660945"><ele>760.9999999999999</ele><time>2026-04-11T08:45:59Z</time></trkpt><trkpt lat="44.59174374486419" lon="7.453939867826497"><ele>761.0</ele><time>2026-04-11T08:46:04Z</time></trkpt><trkpt lat="44.591720777377155" lon="7.453852990233791"><ele>763.7142857142857</ele><time>2026-04-11T08:46:08Z</time></trkpt><trkpt lat="44.59169110326428" lon="7.453754322954755"><ele>766.4285714285714</ele><time>2026-04-11T08:46:13Z</time></trkpt><trkpt lat="44.591668885465545" lon="7.453651423168815"><ele>769.1428571428571</ele><time>2026-04-11T08:46:18Z</time></trkpt><trkpt lat="44.59163577127091" lon="7.453573888714145"><ele>771.8571428571429</ele><time>2026-04-11T08:46:22Z</time></trkpt><trkpt lat="44.591602511197614" lon="7.453482772200143"><ele>774.5714285714286</ele><time>2026-04-11T08:46:27Z</time></trkpt><trkpt lat="44.591562859163766" lon="7.45340181318141"><ele>777.2857142857142</ele><time>2026-04-11T08:46:31.999Z</time></trkpt><trkpt lat="44.591543183263234" lon="7.453317169240708"><ele>780.0</ele><time>2026-04-11T08:46:35.999Z</time></trkpt><trkpt lat="44.59151148154224" lon="7.453227817790296"><ele>780.0</ele><time>2026-04-11T08:46:40.999Z</time></trkpt><trkpt lat="44.59147068554722" lon="7.453139995605003"><ele>780.0</ele><time>2026-04-11T08:46:45.999Z</time></trkpt><trkpt lat="44.591429641521295" lon="7.453051114171038"><ele>780.0</ele><time>2026-04-11T08:46:50.999Z</time></trkpt><trkpt lat="44.5913815520183" lon="7.4529680549863695"><ele>780.0</ele><time>2026-04-11T08:46:55.999Z</time></trkpt><trkpt lat="44.59134732185227" lon="7.45287152238733"><ele>780.0</ele><time>2026-04-11T08:47:00.999Z</time></trkpt><trkpt lat="44.591324089346195" lon="7.452783285987478"><ele>780.0</ele><time>2026-04-11T08:47:05.999Z</time></trkpt><trkpt lat="44.591307112833974" lon="7.4526793388327235"><ele>780.0</ele><time>2026-04-11T08:47:10.999Z</time></trkpt><trkpt lat="44.59129734758041" lon="7.452589909734597"><ele>781.0</ele><time>2026-04-11T08:47:15.999Z</time></trkpt><trkpt lat="44.59128597804658" lon="7.452492292929913"><ele>782.0</ele><time>2026-04-11T08:47:20.999Z</time></trkpt><trkpt lat="44.59126879086105" lon="7.452388493889341"><ele>783.0</ele><time>2026-04-11T08:47:25.998Z</time></trkpt><trkpt lat="44.59126536026655" lon="7.452299258848921"><ele>784.0</ele><time>2026-04-11T08:47:29.998Z</time></trkpt><trkpt lat="44.591245131979136" lon="7.452205178448498"><ele>785.0</ele><time>2026-04-11T08:47:34.998Z</time></trkpt><trkpt lat="44.59121432311758" lon="7.452112534905681"><ele>786.0</ele><time>2026-04-11T08:47:39.998Z</time></trkpt><trkpt lat="44.5911708853694" lon="7.452027808302241"><ele>787.0</ele><time>2026-04-11T08:47:45Z</time></trkpt><trkpt lat="44.591147362494574" lon="7.451943762520092"><ele>787.0</ele><time>2026-04-11T08:47:49Z</time></trkpt><trkpt lat="44.59111476102957" lon="7.451844513228451"><ele>787.0</ele><time>2026-04-11T08:47:54Z</time></trkpt><trkpt lat="44.591085964000726" lon="7.451762325125607"><ele>787.0</ele><time>2026-04-11T08:47:58Z</time></trkpt><trkpt lat="44.59106322257513" lon="7.451678336784159"><ele>787.0</ele><time>2026-04-11T08:48:03Z</time></trkpt><trkpt lat="44.59104241250416" lon="7.451592314587121"><ele>787.0</ele><time>2026-04-11T08:48:07Z</time></trkpt><trkpt lat="44.5910236355336" lon="7.451501972345386"><ele>787.0</ele><time>2026-04-11T08:48:12Z</time></trkpt><trkpt lat="44.591011677082065" lon="7.451401503170314"><ele>787.0</ele><time>2026-04-11T08:48:16Z</time></trkpt><trkpt lat="44.590972487544136" lon="7.451311798887105"><ele>788.8571428571429</ele><time>2026-04-11T08:48:21Z</time></trkpt><trkpt lat="44.59092926133748" lon="7.45124617347108"><ele>790.7142857142857</ele><time>2026-04-11T08:48:25Z</time></trkpt><trkpt lat="44.590893272467284" lon="7.451166997788932"><ele>792.5714285714287</ele><time>2026-04-11T08:48:29Z</time></trkpt><trkpt lat="44.59085975333435" lon="7.4510869185083966"><ele>794.4285714285714</ele><time>2026-04-11T08:48:33Z</time></trkpt><trkpt lat="44.5908423056668" lon="7.450995897939667"><ele>796.2857142857143</ele><time>2026-04-11T08:48:37.999Z</time></trkpt><trkpt lat="44.590820578729605" lon="7.45090411711296"><ele>798.1428571428572</ele><time>2026-04-11T08:48:42.999Z</time></trkpt><trkpt lat="44.590819004605706" lon="7.450815602021514"><ele>800.0</ele><time>2026-04-11T08:48:47.999Z</time></trkpt><trkpt lat="44.59084208365576" lon="7.45072802625233"><ele>800.0000000000001</ele><time>2026-04-11T08:48:52.999Z</time></trkpt><trkpt lat="44.59087574463477" lon="7.450652155890827"><ele>800.0</ele><time>2026-04-11T08:48:57.999Z</time></trkpt><trkpt lat="44.59090323928789" lon="7.450572231261871"><ele>800.0</ele><time>2026-04-11T08:49:01.999Z</time></trkpt><trkpt lat="44.59092742303305" lon="7.450483888277292"><ele>800.0</ele><time>2026-04-11T08:49:06.999Z</time></trkpt><trkpt lat="44.59092250700586" lon="7.450376205109548"><ele>800.0</ele><time>2026-04-11T08:49:11.999Z</time></trkpt><trkpt lat="44.59093388929928" lon="7.450270675389683"><ele>800.0000000000001</ele><time>2026-04-11T08:49:16.999Z</time></trkpt><trkpt lat="44.59093439226696" lon="7.450170143365188"><ele>800.0</ele><time>2026-04-11T08:49:21.999Z</time></trkpt><trkpt lat="44.590940631723726" lon="7.450071150557957"><ele>801.4285714285714</ele><time>2026-04-11T08:49:26.999Z</time></trkpt><trkpt lat="44.59094560784379" lon="7.449963015762433"><ele>802.8571428571429</ele><time>2026-04-11T08:49:31.998Z</time></trkpt><trkpt lat="44.590955388384344" lon="7.449863478296842"><ele>804.2857142857142</ele><time>2026-04-11T08:49:36.998Z</time></trkpt><trkpt lat="44.59095629948758" lon="7.449759568866694"><ele>805.7142857142858</ele><time>2026-04-11T08:49:41.998Z</time></trkpt><trkpt lat="44.5909602311346" lon="7.449658262696611"><ele>807.1428571428571</ele><time>2026-04-11T08:49:46.998Z</time></trkpt><trkpt lat="44.59091915913571" lon="7.449577615248949"><ele>808.5714285714286</ele><time>2026-04-11T08:49:51Z</time></trkpt><trkpt lat="44.59085306604192" lon="7.449551399982195"><ele>810.0</ele><time>2026-04-11T08:49:54Z</time></trkpt><trkpt lat="44.590799233424065" lon="7.4494947084321"><ele>812.5714285714286</ele><time>2026-04-11T08:49:58Z</time></trkpt><trkpt lat="44.59075154925195" lon="7.449427398561344"><ele>815.1428571428571</ele><time>2026-04-11T08:50:02Z</time></trkpt><trkpt lat="44.590735647009495" lon="7.449327430715885"><ele>817.7142857142858</ele><time>2026-04-11T08:50:07Z</time></trkpt><trkpt lat="44.59070081539596" lon="7.449251462216828"><ele>820.2857142857142</ele><time>2026-04-11T08:50:11Z</time></trkpt><trkpt lat="44.59067395870755" lon="7.4491697569787485"><ele>822.8571428571429</ele><time>2026-04-11T08:50:15Z</time></trkpt><trkpt lat="44.59065058046809" lon="7.449069660965705"><ele>825.4285714285714</ele><time>2026-04-11T08:50:21Z</time></trkpt><trkpt lat="44.590622429430496" lon="7.448984028130924"><ele>828.0</ele><time>2026-04-11T08:50:27Z</time></trkpt><trkpt lat="44.59058303546919" lon="7.448890734671573"><ele>828.0</ele><time>2026-04-11T08:50:31Z</time></trkpt><trkpt lat="44.59051845419731" lon="7.448822186904474"><ele>828.0</ele><time>2026-04-11T08:50:35Z</time></trkpt><trkpt lat="44.590457702509404" lon="7.448758567535954"><ele>828.0</ele><time>2026-04-11T08:50:39Z</time></trkpt><trkpt lat="44.59039185423919" lon="7.4487004355319515"><ele>828.0</ele><time>2026-04-11T08:50:42.999Z</time></trkpt><trkpt lat="44.59032289035013" lon="7.448630055850964"><ele>828.0</ele><time>2026-04-11T08:50:46.999Z</time></trkpt><trkpt lat="44.590270644831946" lon="7.448577219169231"><ele>828.0</ele><time>2026-04-11T08:50:50.999Z</time></trkpt><trkpt lat="44.59023270335768" lon="7.448492873079158"><ele>827.0000000000001</ele><time>2026-04-11T08:50:54.999Z</time></trkpt><trkpt lat="44.5901937845646" lon="7.448419548592121"><ele>826.0</ele><time>2026-04-11T08:50:58.999Z</time></trkpt><trkpt lat="44.59015258936327" lon="7.448349057203126"><ele>825.0</ele><time>2026-04-11T08:51:03.999Z</time></trkpt><trkpt lat="44.59013470130006" lon="7.448244233620088"><ele>824.0</ele><time>2026-04-11T08:51:08.999Z</time></trkpt><trkpt lat="44.590131781092374" lon="7.4481526718837205"><ele>823.0</ele><time>2026-04-11T08:51:12.999Z</time></trkpt><trkpt lat="44.59010030556367" lon="7.448061574990695"><ele>822.0000000000001</ele><time>2026-04-11T08:51:17.999Z</time></trkpt><trkpt lat="44.59006153267585" lon="7.447980878743444"><ele>821.0</ele><time>2026-04-11T08:51:21.999Z</time></trkpt><trkpt lat="44.59001903385316" lon="7.447909839384728"><ele>824.4285714285714</ele><time>2026-04-11T08:51:25.999Z</time></trkpt><trkpt lat="44.58996982860507" lon="7.447839469294244"><ele>827.8571428571429</ele><time>2026-04-11T08:51:29.999Z</time></trkpt><trkpt lat="44.58990640666945" lon="7.447793274620022"><ele>831.2857142857142</ele><time>2026-04-11T08:51:33.999Z</time></trkpt><trkpt lat="44.58985192403393" lon="7.447727077920214"><ele>834.7142857142858</ele><time>2026-04-11T08:51:37.998Z</time></trkpt><trkpt lat="44.5897971795865" lon="7.447671430304178"><ele>838.1428571428571</ele><time>2026-04-11T08:51:41.998Z</time></trkpt><trkpt lat="44.58973641840349" lon="7.447611351520389"><ele>841.5714285714286</ele><time>2026-04-11T08:51:45.998Z</time></trkpt><trkpt lat="44.58969265653738" lon="7.447531946501633"><ele>845.0</ele><time>2026-04-11T08:51:49.998Z</time></trkpt><trkpt lat="44.58963456905914" lon="7.447460567497764"><ele>844.9999999999999</ele><time>2026-04-11T08:51:53.998Z</time></trkpt><trkpt lat="44.58958264459096" lon="7.4473880342408805"><ele>845.0</ele><time>2026-04-11T08:51:58Z</time></trkpt><trkpt lat="44.58954485946625" lon="7.44730880263534"><ele>845.0</ele><time>2026-04-11T08:52:02Z</time></trkpt><trkpt lat="44.58952042293733" lon="7.447216679809474"><ele>845.0</ele><time>2026-04-11T08:52:06Z</time></trkpt><trkpt lat="44.5895178759802" lon="7.447117487603526"><ele>845.0</ele><time>2026-04-11T08:52:11Z</time></trkpt><trkpt lat="44.589494167611264" lon="7.447025947203299"><ele>844.9999999999999</ele><time>2026-04-11T08:52:16Z</time></trkpt><trkpt lat="44.589454132971376" lon="7.4469371573076355"><ele>845.0</ele><time>2026-04-11T08:52:21Z</time></trkpt><trkpt lat="44.58939839562108" lon="7.446857783106945"><ele>844.7142857142857</ele><time>2026-04-11T08:52:26Z</time></trkpt><trkpt lat="44.58934129607615" lon="7.446809952358509"><ele>844.4285714285714</ele><time>2026-04-11T08:52:30Z</time></trkpt><trkpt lat="44.5892653893721" lon="7.446777691103874"><ele>844.1428571428571</ele><time>2026-04-11T08:52:35Z</time></trkpt><trkpt lat="44.58919586080113" lon="7.44672280182778"><ele>843.8571428571429</ele><time>2026-04-11T08:52:40Z</time></trkpt><trkpt lat="44.589143059936184" lon="7.446669728282952"><ele>843.5714285714286</ele><time>2026-04-11T08:52:44Z</time></trkpt><trkpt lat="44.58908957789125" lon="7.4466167345442225"><ele>843.2857142857142</ele><time>2026-04-11T08:52:48Z</time></trkpt><trkpt lat="44.589040771909836" lon="7.4465490605307885"><ele>843.0</ele><time>2026-04-11T08:52:51.999Z</time></trkpt><trkpt lat="44.588982126196456" lon="7.44648960417512"><ele>843.0</ele><time>2026-04-11T08:52:55.999Z</time></trkpt><trkpt lat="44.58892616823276" lon="7.446420574792492"><ele>843.0</ele><time>2026-04-11T08:52:59.999Z</time></trkpt><trkpt lat="44.58887250770754" lon="7.446347936651737"><ele>843.0</ele><time>2026-04-11T08:53:03.999Z</time></trkpt><trkpt lat="44.58881352481565" lon="7.446283926706182"><ele>843.0</ele><time>2026-04-11T08:53:07.999Z</time></trkpt><trkpt lat="44.58876411768754" lon="7.446220992030273"><ele>843.0</ele><time>2026-04-11T08:53:11.999Z</time></trkpt><trkpt lat="44.58872887611181" lon="7.446134210725406"><ele>843.0</ele><time>2026-04-11T08:53:15.999Z</time></trkpt><trkpt lat="44.58868624682284" lon="7.446063601812809"><ele>843.0</ele><time>2026-04-11T08:53:19.999Z</time></trkpt><trkpt lat="44.58866768122528" lon="7.445959562636536"><ele>845.7142857142857</ele><time>2026-04-11T08:53:23.999Z</time></trkpt><trkpt lat="44.5886769870782" lon="7.445861525518399"><ele>848.4285714285713</ele><time>2026-04-11T08:53:28.999Z</time></trkpt><trkpt lat="44.58874590447152" lon="7.445880158726732"><ele>851.1428571428571</ele><time>2026-04-11T08:53:49.998Z</time></trkpt><trkpt lat="44.5888172109165" lon="7.445896360156759"><ele>853.8571428571429</ele><time>2026-04-11T08:53:55.998Z</time></trkpt><trkpt lat="44.58887686852095" lon="7.445928368038681"><ele>856.5714285714286</ele><time>2026-04-11T08:53:58.998Z</time></trkpt><trkpt lat="44.588935784581956" lon="7.445974330588623"><ele>859.2857142857143</ele><time>2026-04-11T08:54:04Z</time></trkpt><trkpt lat="44.58900477834648" lon="7.446019502487565"><ele>862.0</ele><time>2026-04-11T08:54:08Z</time></trkpt><trkpt lat="44.58907140218611" lon="7.446045755868494"><ele>862.0</ele><time>2026-04-11T08:54:12Z</time></trkpt><trkpt lat="44.58913565215857" lon="7.446081542924769"><ele>862.0</ele><time>2026-04-11T08:54:18Z</time></trkpt><trkpt lat="44.58920195975809" lon="7.446084422478601"><ele>862.0</ele><time>2026-04-11T08:54:23Z</time></trkpt><trkpt lat="44.58926511154189" lon="7.4461038079085915"><ele>862.0</ele><time>2026-04-11T08:54:28Z</time></trkpt><trkpt lat="44.58933424929788" lon="7.446126596905321"><ele>862.0</ele><time>2026-04-11T08:54:32Z</time></trkpt><trkpt lat="44.58941009129389" lon="7.4461389640131435"><ele>862.0</ele><time>2026-04-11T08:54:37Z</time></trkpt><trkpt lat="44.58948064921422" lon="7.446138627312224"><ele>862.0</ele><time>2026-04-11T08:54:41Z</time></trkpt><trkpt lat="44.58955505906321" lon="7.446120760468771"><ele>864.5714285714286</ele><time>2026-04-11T08:54:46Z</time></trkpt><trkpt lat="44.58961918819403" lon="7.446076559981359"><ele>867.1428571428571</ele><time>2026-04-11T08:54:50Z</time></trkpt><trkpt lat="44.589673030126406" lon="7.44600929241225"><ele>869.7142857142857</ele><time>2026-04-11T08:54:54Z</time></trkpt><trkpt lat="44.58974120777903" lon="7.445950180537257"><ele>872.2857142857142</ele><time>2026-04-11T08:54:58.999Z</time></trkpt><trkpt lat="44.58980841758445" lon="7.445927022609859"><ele>874.8571428571429</ele><time>2026-04-11T08:55:02.999Z</time></trkpt><trkpt lat="44.58987950543113" lon="7.4459298066865385"><ele>877.4285714285713</ele><time>2026-04-11T08:55:07.999Z</time></trkpt><trkpt lat="44.58994729836808" lon="7.4459785407675945"><ele>880.0</ele><time>2026-04-11T08:55:12.999Z</time></trkpt><trkpt lat="44.59000817302631" lon="7.446034321771389"><ele>879.9999999999999</ele><time>2026-04-11T08:55:17.999Z</time></trkpt><trkpt lat="44.590053707441164" lon="7.446103348060247"><ele>880.0</ele><time>2026-04-11T08:55:22.999Z</time></trkpt><trkpt lat="44.59009966344284" lon="7.446175707962151"><ele>880.0</ele><time>2026-04-11T08:55:27.999Z</time></trkpt><trkpt lat="44.59014779274224" lon="7.446233423523172"><ele>880.0</ele><time>2026-04-11T08:55:32.999Z</time></trkpt><trkpt lat="44.59020740702232" lon="7.446273879997803"><ele>880.0</ele><time>2026-04-11T08:55:36.999Z</time></trkpt><trkpt lat="44.59026783479706" lon="7.446313232726712"><ele>879.9999999999999</ele><time>2026-04-11T08:55:40.999Z</time></trkpt><trkpt lat="44.59033028073995" lon="7.446330815373492"><ele>880.0</ele><time>2026-04-11T08:55:44.999Z</time></trkpt><trkpt lat="44.59038802276066" lon="7.44638541863573"><ele>881.4285714285713</ele><time>2026-04-11T08:55:48.998Z</time></trkpt><trkpt lat="44.59045055123343" lon="7.446436438387169"><ele>882.8571428571429</ele><time>2026-04-11T08:55:56.998Z</time></trkpt><trkpt lat="44.590511055224596" lon="7.446470250373439"><ele>884.2857142857142</ele><time>2026-04-11T08:56:00.998Z</time></trkpt><trkpt lat="44.590579781090824" lon="7.446499354117691"><ele>885.7142857142857</ele><time>2026-04-11T08:56:04.998Z</time></trkpt><trkpt lat="44.590633533572294" lon="7.44655398472104"><ele>887.1428571428571</ele><time>2026-04-11T08:56:09Z</time></trkpt><trkpt lat="44.59068279748071" lon="7.446632108538241"><ele>888.5714285714286</ele><time>2026-04-11T08:56:14Z</time></trkpt><trkpt lat="44.59073962844831" lon="7.446671577031119"><ele>890.0</ele><time>2026-04-11T08:56:18Z</time></trkpt><trkpt lat="44.59081242499114" lon="7.446702878150686"><ele>890.0</ele><time>2026-04-11T08:56:22Z</time></trkpt><trkpt lat="44.59087580361604" lon="7.446719670716681"><ele>890.0</ele><time>2026-04-11T08:56:26Z</time></trkpt><trkpt lat="44.59094064129898" lon="7.446743383019528"><ele>890.0</ele><time>2026-04-11T08:56:30Z</time></trkpt><trkpt lat="44.591003351229425" lon="7.446756105527733"><ele>890.0</ele><time>2026-04-11T08:56:34Z</time></trkpt><trkpt lat="44.59106610094782" lon="7.446744334899703"><ele>890.0</ele><time>2026-04-11T08:56:38Z</time></trkpt><trkpt lat="44.591128849624084" lon="7.446732929484488"><ele>890.0</ele><time>2026-04-11T08:56:42Z</time></trkpt><trkpt lat="44.59119621632893" lon="7.44672457464607"><ele>890.0</ele><time>2026-04-11T08:56:46Z</time></trkpt><trkpt lat="44.591273119467374" lon="7.446737672223452"><ele>893.2857142857143</ele><time>2026-04-11T08:56:51Z</time></trkpt><trkpt lat="44.59133827667445" lon="7.446773138857496"><ele>896.5714285714284</ele><time>2026-04-11T08:56:55Z</time></trkpt><trkpt lat="44.59140574779161" lon="7.446826108072473"><ele>899.8571428571428</ele><time>2026-04-11T08:57:00Z</time></trkpt><trkpt lat="44.59146149823634" lon="7.4468769513487665"><ele>903.1428571428571</ele><time>2026-04-11T08:57:04.999Z</time></trkpt><trkpt lat="44.591520619180514" lon="7.446932771140372"><ele>906.4285714285713</ele><time>2026-04-11T08:57:09.999Z</time></trkpt><trkpt lat="44.59157564877074" lon="7.446984012512261"><ele>909.7142857142856</ele><time>2026-04-11T08:57:13.999Z</time></trkpt><trkpt lat="44.59163819036653" lon="7.447048739950784"><ele>912.9999999999999</ele><time>2026-04-11T08:57:18.999Z</time></trkpt><trkpt lat="44.591700429933226" lon="7.447097748695264"><ele>914.2857142857142</ele><time>2026-04-11T08:57:22.999Z</time></trkpt><trkpt lat="44.591764387982145" lon="7.447137549200324"><ele>915.5714285714286</ele><time>2026-04-11T08:57:26.999Z</time></trkpt><trkpt lat="44.59182740761086" lon="7.44719924672553"><ele>916.8571428571429</ele><time>2026-04-11T08:57:31.999Z</time></trkpt><trkpt lat="44.59186978563858" lon="7.447269146740752"><ele>918.1428571428571</ele><time>2026-04-11T08:57:35.999Z</time></trkpt><trkpt lat="44.591935551807424" lon="7.447300109541837"><ele>919.4285714285716</ele><time>2026-04-11T08:57:39.999Z</time></trkpt><trkpt lat="44.59200498979189" lon="7.447353588948737"><ele>920.7142857142858</ele><time>2026-04-11T08:57:44.999Z</time></trkpt><trkpt lat="44.592064282234" lon="7.447391745257056"><ele>922.0</ele><time>2026-04-11T08:57:48.999Z</time></trkpt><trkpt lat="44.59212515855126" lon="7.447365508504983"><ele>922.0</ele><time>2026-04-11T08:57:54.998Z</time></trkpt><trkpt lat="44.59213417416871" lon="7.447270992624491"><ele>922.0000000000001</ele><time>2026-04-11T08:57:59.998Z</time></trkpt><trkpt lat="44.59208539374436" lon="7.4472038992142835"><ele>922.0</ele><time>2026-04-11T08:58:03.998Z</time></trkpt><trkpt lat="44.592030978236096" lon="7.447146176433375"><ele>922.0</ele><time>2026-04-11T08:58:07.998Z</time></trkpt><trkpt lat="44.591990965262426" lon="7.447052905512644"><ele>922.0000000000001</ele><time>2026-04-11T08:58:12.998Z</time></trkpt><trkpt lat="44.59198638679584" lon="7.446941146609749"><ele>922.0</ele><time>2026-04-11T08:58:18Z</time></trkpt><trkpt lat="44.59196612932306" lon="7.4468251432524"><ele>922.0</ele><time>2026-04-11T08:58:22Z</time></trkpt><trkpt lat="44.59195813701561" lon="7.446718712260297"><ele>923.3333333333333</ele><time>2026-04-11T08:58:26Z</time></trkpt><trkpt lat="44.59193126491108" lon="7.446603258402177"><ele>924.6666666666666</ele><time>2026-04-11T08:58:30Z</time></trkpt><trkpt lat="44.59188527175969" lon="7.446509598567067"><ele>926.0</ele><time>2026-04-11T08:58:34Z</time></trkpt><trkpt lat="44.59183131927477" lon="7.446431426743951"><ele>927.3333333333333</ele><time>2026-04-11T08:58:38Z</time></trkpt><trkpt lat="44.591775997958806" lon="7.4463667832227705"><ele>928.6666666666666</ele><time>2026-04-11T08:58:42Z</time></trkpt><trkpt lat="44.591720474326955" lon="7.446307874383483"><ele>930.0</ele><time>2026-04-11T08:58:45Z</time></trkpt><trkpt lat="44.5916574777354" lon="7.44626016162492"><ele>930.0</ele><time>2026-04-11T08:58:48Z</time></trkpt><trkpt lat="44.59159392443439" lon="7.446187338275296"><ele>930.0</ele><time>2026-04-11T08:58:52Z</time></trkpt><trkpt lat="44.59154532688269" lon="7.446092437862328"><ele>930.0</ele><time>2026-04-11T08:58:56Z</time></trkpt><trkpt lat="44.59149668023489" lon="7.446000494749904"><ele>930.0</ele><time>2026-04-11T08:59:00Z</time></trkpt><trkpt lat="44.59144834654719" lon="7.445933293416324"><ele>930.0</ele><time>2026-04-11T08:59:03Z</time></trkpt><trkpt lat="44.59141860659364" lon="7.445835728772394"><ele>930.0</ele><time>2026-04-11T08:59:06Z</time></trkpt><trkpt lat="44.59143479398869" lon="7.445739500475054"><ele>930.0</ele><time>2026-04-11T08:59:09.999Z</time></trkpt><trkpt lat="44.591406429985774" lon="7.4456470665545185"><ele>930.0</ele><time>2026-04-11T08:59:13.999Z</time></trkpt><trkpt lat="44.591386021545325" lon="7.445559892092752"><ele>930.0</ele><time>2026-04-11T08:59:17.999Z</time></trkpt><trkpt lat="44.59137119776841" lon="7.445448194518383"><ele>930.0</ele><time>2026-04-11T08:59:21.999Z</time></trkpt><trkpt lat="44.59134301589596" lon="7.445335327079141"><ele>930.0</ele><time>2026-04-11T08:59:25.999Z</time></trkpt><trkpt lat="44.5913207500687" lon="7.445233935751651"><ele>930.0</ele><time>2026-04-11T08:59:29.999Z</time></trkpt><trkpt lat="44.59129888168364" lon="7.445129577013975"><ele>932.5</ele><time>2026-04-11T08:59:33.999Z</time></trkpt><trkpt lat="44.59127697541005" lon="7.445024131406807"><ele>935.0</ele><time>2026-04-11T08:59:37.999Z</time></trkpt><trkpt lat="44.59124078057708" lon="7.44492608970074"><ele>937.5</ele><time>2026-04-11T08:59:41.999Z</time></trkpt><trkpt lat="44.591235401386896" lon="7.4448129528419775"><ele>940.0</ele><time>2026-04-11T08:59:45.999Z</time></trkpt><trkpt lat="44.59121640267793" lon="7.444710154013823"><ele>942.5</ele><time>2026-04-11T08:59:50.999Z</time></trkpt><trkpt lat="44.591205672906526" lon="7.444597016075287"><ele>945.0</ele><time>2026-04-11T08:59:55.999Z</time></trkpt><trkpt lat="44.5912124929885" lon="7.4444913112300695"><ele>946.1666666666666</ele><time>2026-04-11T08:59:59.999Z</time></trkpt><trkpt lat="44.59120921861313" lon="7.444384802467489"><ele>947.3333333333333</ele><time>2026-04-11T09:00:03.998Z</time></trkpt><trkpt lat="44.59121064652458" lon="7.444277600564766"><ele>948.5</ele><time>2026-04-11T09:00:07.998Z</time></trkpt><trkpt lat="44.591219446818926" lon="7.444165508156448"><ele>949.6666666666666</ele><time>2026-04-11T09:00:11.998Z</time></trkpt><trkpt lat="44.591226558488685" lon="7.444056898589163"><ele>950.8333333333333</ele><time>2026-04-11T09:00:14.998Z</time></trkpt><trkpt lat="44.59122302067749" lon="7.443940227448932"><ele>952.0</ele><time>2026-04-11T09:00:18.998Z</time></trkpt><trkpt lat="44.59120070169781" lon="7.443855955952049"><ele>950.4999999999999</ele><time>2026-04-11T09:00:22Z</time></trkpt><trkpt lat="44.59121007341287" lon="7.443759395100963"><ele>949.0</ele><time>2026-04-11T09:00:25Z</time></trkpt><trkpt lat="44.59122083586483" lon="7.443664126095681"><ele>947.5</ele><time>2026-04-11T09:00:28Z</time></trkpt><trkpt lat="44.5912345873948" lon="7.443566017292452"><ele>946.0</ele><time>2026-04-11T09:00:32Z</time></trkpt><trkpt lat="44.59121794099028" lon="7.443457522260894"><ele>944.4999999999999</ele><time>2026-04-11T09:00:36Z</time></trkpt><trkpt lat="44.59118642243909" lon="7.4433480343932485"><ele>943.0</ele><time>2026-04-11T09:00:40Z</time></trkpt><trkpt lat="44.59113891581414" lon="7.443253814883821"><ele>943.0</ele><time>2026-04-11T09:00:44Z</time></trkpt><trkpt lat="44.59108585488454" lon="7.4431748238740925"><ele>943.0000000000001</ele><time>2026-04-11T09:00:48Z</time></trkpt><trkpt lat="44.591040204130174" lon="7.443111312053057"><ele>943.0</ele><time>2026-04-11T09:00:51Z</time></trkpt><trkpt lat="44.59097683303086" lon="7.4430573190138976"><ele>943.0</ele><time>2026-04-11T09:00:55Z</time></trkpt><trkpt lat="44.59092227108156" lon="7.442996264711585"><ele>943.0000000000001</ele><time>2026-04-11T09:00:59Z</time></trkpt><trkpt lat="44.59086334560988" lon="7.442926424606423"><ele>943.0</ele><time>2026-04-11T09:01:03Z</time></trkpt><trkpt lat="44.59083437041695" lon="7.44284781186424"><ele>943.0</ele><time>2026-04-11T09:01:07Z</time></trkpt><trkpt lat="44.590804246397646" lon="7.442768497486038"><ele>945.5714285714287</ele><time>2026-04-11T09:01:11Z</time></trkpt><trkpt lat="44.59076954448715" lon="7.442668148976586"><ele>948.1428571428572</ele><time>2026-04-11T09:01:15.999Z</time></trkpt><trkpt lat="44.59073219801499" lon="7.442586178668664"><ele>950.7142857142858</ele><time>2026-04-11T09:01:19.999Z</time></trkpt><trkpt lat="44.5907123039802" lon="7.442487010957119"><ele>953.2857142857142</ele><time>2026-04-11T09:01:23.999Z</time></trkpt><trkpt lat="44.59068912989209" lon="7.442387956702033"><ele>955.8571428571428</ele><time>2026-04-11T09:01:27.999Z</time></trkpt><trkpt lat="44.5906732729155" lon="7.442283478580524"><ele>958.4285714285713</ele><time>2026-04-11T09:01:31.999Z</time></trkpt><trkpt lat="44.59066733716982" lon="7.442188947129595"><ele>961.0</ele><time>2026-04-11T09:01:34.999Z</time></trkpt><trkpt lat="44.59066402823827" lon="7.442077064367297"><ele>963.4285714285713</ele><time>2026-04-11T09:01:38.999Z</time></trkpt><trkpt lat="44.590658538570025" lon="7.44197247004381"><ele>965.8571428571428</ele><time>2026-04-11T09:01:42.999Z</time></trkpt><trkpt lat="44.590678544476496" lon="7.441865360302005"><ele>968.2857142857142</ele><time>2026-04-11T09:01:46.999Z</time></trkpt><trkpt lat="44.59068999286962" lon="7.441768148534508"><ele>970.7142857142858</ele><time>2026-04-11T09:01:50.999Z</time></trkpt><trkpt lat="44.590679436573154" lon="7.441672489397309"><ele>973.1428571428572</ele><time>2026-04-11T09:01:55.999Z</time></trkpt><trkpt lat="44.59064533341393" lon="7.441580668146145"><ele>975.5714285714287</ele><time>2026-04-11T09:02:00.999Z</time></trkpt><trkpt lat="44.59060862882915" lon="7.441505423930772"><ele>978.0</ele><time>2026-04-11T09:02:04.998Z</time></trkpt><trkpt lat="44.59055649860993" lon="7.441418423005237"><ele>978.0</ele><time>2026-04-11T09:02:09.998Z</time></trkpt><trkpt lat="44.59051022402396" lon="7.441344426372437"><ele>978.0000000000001</ele><time>2026-04-11T09:02:13.998Z</time></trkpt><trkpt lat="44.59044549248692" lon="7.441289247938742"><ele>978.0</ele><time>2026-04-11T09:02:17.998Z</time></trkpt><trkpt lat="44.59038957495948" lon="7.441235612298484"><ele>978.0</ele><time>2026-04-11T09:02:21.998Z</time></trkpt><trkpt lat="44.590328619219775" lon="7.441202208762428"><ele>978.0000000000001</ele><time>2026-04-11T09:02:26Z</time></trkpt><trkpt lat="44.59027754441709" lon="7.441149312074162"><ele>978.0</ele><time>2026-04-11T09:02:30Z</time></trkpt><trkpt lat="44.59022114781209" lon="7.4410764971435635"><ele>978.0</ele><time>2026-04-11T09:02:34Z</time></trkpt><trkpt lat="44.59017621672033" lon="7.441007298556704"><ele>977.7142857142858</ele><time>2026-04-11T09:02:38Z</time></trkpt><trkpt lat="44.59013955940091" lon="7.440913107516251"><ele>977.4285714285716</ele><time>2026-04-11T09:02:42Z</time></trkpt><trkpt lat="44.590116249781" lon="7.440819865874423"><ele>977.1428571428571</ele><time>2026-04-11T09:02:46Z</time></trkpt><trkpt lat="44.590092234843986" lon="7.440732790866727"><ele>976.8571428571429</ele><time>2026-04-11T09:02:50Z</time></trkpt><trkpt lat="44.59008075727766" lon="7.440639270043185"><ele>976.5714285714286</ele><time>2026-04-11T09:02:54Z</time></trkpt><trkpt lat="44.59006416440767" lon="7.440527590853458"><ele>976.2857142857142</ele><time>2026-04-11T09:02:58Z</time></trkpt><trkpt lat="44.59005829830526" lon="7.440419353156248"><ele>975.9999999999999</ele><time>2026-04-11T09:03:02Z</time></trkpt><trkpt lat="44.59004018348526" lon="7.44032173180925"><ele>978.2857142857142</ele><time>2026-04-11T09:03:05Z</time></trkpt><trkpt lat="44.59001059620523" lon="7.440233337302423"><ele>980.5714285714286</ele><time>2026-04-11T09:03:08Z</time></trkpt><trkpt lat="44.5899608641807" lon="7.440169463842256"><ele>982.8571428571429</ele><time>2026-04-11T09:03:11Z</time></trkpt><trkpt lat="44.58988737896447" lon="7.44011184016346"><ele>985.1428571428571</ele><time>2026-04-11T09:03:15Z</time></trkpt><trkpt lat="44.589810547709654" lon="7.440079483827076"><ele>987.4285714285716</ele><time>2026-04-11T09:03:18.999Z</time></trkpt><trkpt lat="44.589742950159746" lon="7.440033379951558"><ele>989.7142857142858</ele><time>2026-04-11T09:03:22.999Z</time></trkpt><trkpt lat="44.58967758839407" lon="7.440005775478597"><ele>992.0</ele><time>2026-04-11T09:03:26.999Z</time></trkpt><trkpt lat="44.589599715912414" lon="7.4399737301159234"><ele>992.0</ele><time>2026-04-11T09:03:30.999Z</time></trkpt><trkpt lat="44.589540925939346" lon="7.439900630465753"><ele>992.0000000000001</ele><time>2026-04-11T09:03:34.999Z</time></trkpt><trkpt lat="44.589487195427296" lon="7.439825843265866"><ele>992.0</ele><time>2026-04-11T09:03:38.999Z</time></trkpt><trkpt lat="44.58948489716653" lon="7.439716734601069"><ele>992.0</ele><time>2026-04-11T09:03:43.999Z</time></trkpt><trkpt lat="44.58950357197885" lon="7.4396284785793005"><ele>992.0000000000001</ele><time>2026-04-11T09:03:47.999Z</time></trkpt><trkpt lat="44.58954521213433" lon="7.439541234856561"><ele>992.0</ele><time>2026-04-11T09:03:51.999Z</time></trkpt><trkpt lat="44.58955663797059" lon="7.439442613414546"><ele>992.0</ele><time>2026-04-11T09:03:55.999Z</time></trkpt><trkpt lat="44.58957407867299" lon="7.439350559380738"><ele>993.7142857142858</ele><time>2026-04-11T09:03:59.999Z</time></trkpt><trkpt lat="44.58958867493205" lon="7.439261578560502"><ele>995.4285714285716</ele><time>2026-04-11T09:04:03.999Z</time></trkpt><trkpt lat="44.58961117953138" lon="7.439152017830636"><ele>997.1428571428571</ele><time>2026-04-11T09:04:07.999Z</time></trkpt><trkpt lat="44.58961964502148" lon="7.439060164589405"><ele>998.8571428571429</ele><time>2026-04-11T09:04:10.998Z</time></trkpt><trkpt lat="44.589641067982946" lon="7.438964748720212"><ele>1000.5714285714286</ele><time>2026-04-11T09:04:13.998Z</time></trkpt><trkpt lat="44.589683856342084" lon="7.438891595141409"><ele>1002.2857142857142</ele><time>2026-04-11T09:04:16.998Z</time></trkpt><trkpt lat="44.58974371044956" lon="7.438807799809948"><ele>1003.9999999999999</ele><time>2026-04-11T09:04:20.998Z</time></trkpt><trkpt lat="44.589784062055934" lon="7.438718292543556"><ele>1004.142857142857</ele><time>2026-04-11T09:04:23.998Z</time></trkpt><trkpt lat="44.58983395923544" lon="7.438663453621483"><ele>1004.2857142857142</ele><time>2026-04-11T09:04:26.998Z</time></trkpt><trkpt lat="44.58988274242205" lon="7.438590806910288"><ele>1004.4285714285714</ele><time>2026-04-11T09:04:30.998Z</time></trkpt><trkpt lat="44.589911804274834" lon="7.43850027601719"><ele>1004.5714285714286</ele><time>2026-04-11T09:04:35Z</time></trkpt><trkpt lat="44.589949608377964" lon="7.438426198404043"><ele>1004.7142857142858</ele><time>2026-04-11T09:04:39Z</time></trkpt><trkpt lat="44.589937783768875" lon="7.438324168116918"><ele>1004.857142857143</ele><time>2026-04-11T09:04:44Z</time></trkpt><trkpt lat="44.58990918804152" lon="7.438231339557312"><ele>1005.0000000000001</ele><time>2026-04-11T09:04:49Z</time></trkpt><trkpt lat="44.58986595012323" lon="7.438141519981501"><ele>1005.0000000000001</ele><time>2026-04-11T09:04:54Z</time></trkpt><trkpt lat="44.589819793173945" lon="7.438080335865901"><ele>1005.0</ele><time>2026-04-11T09:04:58Z</time></trkpt><trkpt lat="44.58976414810809" lon="7.438035186206376"><ele>1005.0000000000001</ele><time>2026-04-11T09:05:02Z</time></trkpt><trkpt lat="44.58969939891495" lon="7.437991353712588"><ele>1005.0000000000001</ele><time>2026-04-11T09:05:07Z</time></trkpt><trkpt lat="44.589641594965556" lon="7.4379176810888294"><ele>1005.0</ele><time>2026-04-11T09:05:50.999Z</time></trkpt><trkpt lat="44.58956362383944" lon="7.437920113724524"><ele>1005.0000000000001</ele><time>2026-04-11T09:05:52.999Z</time></trkpt><trkpt lat="44.58949674334176" lon="7.4378780251253875"><ele>1005.0000000000001</ele><time>2026-04-11T09:05:54.999Z</time></trkpt><trkpt lat="44.5894199463588" lon="7.437867332495549"><ele>1006.2857142857144</ele><time>2026-04-11T09:05:56.999Z</time></trkpt><trkpt lat="44.58935145801475" lon="7.437879018457707"><ele>1007.5714285714287</ele><time>2026-04-11T09:05:58.999Z</time></trkpt><trkpt lat="44.589282797817305" lon="7.4378946238360095"><ele>1008.8571428571429</ele><time>2026-04-11T09:06:01.999Z</time></trkpt><trkpt lat="44.58921057985563" lon="7.4378643779293085"><ele>1010.1428571428572</ele><time>2026-04-11T09:06:05.999Z</time></trkpt><trkpt lat="44.58915518651712" lon="7.437817853339914"><ele>1011.4285714285716</ele><time>2026-04-11T09:06:08.999Z</time></trkpt><trkpt lat="44.58907154261894" lon="7.437789345882351"><ele>1012.7142857142857</ele><time>2026-04-11T09:06:12.999Z</time></trkpt><trkpt lat="44.58900675154604" lon="7.4377592321553365"><ele>1014.0</ele><time>2026-04-11T09:06:16.999Z</time></trkpt><trkpt lat="44.588935050696996" lon="7.437750118678"><ele>1014.0</ele><time>2026-04-11T09:06:20.998Z</time></trkpt><trkpt lat="44.58885452904051" lon="7.437732605394784"><ele>1014.0</ele><time>2026-04-11T09:06:24.998Z</time></trkpt><trkpt lat="44.5887695760322" lon="7.437719096024434"><ele>1014.0</ele><time>2026-04-11T09:06:28.998Z</time></trkpt><trkpt lat="44.58868721600408" lon="7.437715744154943"><ele>1014.0</ele><time>2026-04-11T09:06:32.998Z</time></trkpt><trkpt lat="44.588610756131246" lon="7.437696758360468"><ele>1014.0</ele><time>2026-04-11T09:06:36.998Z</time></trkpt><trkpt lat="44.588541111346814" lon="7.437679578387784"><ele>1014.0</ele><time>2026-04-11T09:06:41Z</time></trkpt><trkpt lat="44.58848356759004" lon="7.437642853665358"><ele>1013.8333333333334</ele><time>2026-04-11T09:06:44Z</time></trkpt><trkpt lat="44.58842430193471" lon="7.437596796744204"><ele>1013.6666666666667</ele><time>2026-04-11T09:06:48Z</time></trkpt><trkpt lat="44.5883588754346" lon="7.437541840895315"><ele>1013.5</ele><time>2026-04-11T09:06:52Z</time></trkpt><trkpt lat="44.58829720839359" lon="7.437506166881279"><ele>1013.3333333333334</ele><time>2026-04-11T09:06:55Z</time></trkpt><trkpt lat="44.58822186466184" lon="7.4374476803932446"><ele>1013.1666666666667</ele><time>2026-04-11T09:06:58Z</time></trkpt><trkpt lat="44.58813593496094" lon="7.437411124769731"><ele>1013.0</ele><time>2026-04-11T09:07:01Z</time></trkpt><trkpt lat="44.588048603358175" lon="7.437381198412106"><ele>1013.0000000000001</ele><time>2026-04-11T09:07:04Z</time></trkpt><trkpt lat="44.58795249686104" lon="7.437367328071796"><ele>1013.0</ele><time>2026-04-11T09:07:07Z</time></trkpt><trkpt lat="44.58787791914139" lon="7.437361162072559"><ele>1013.0</ele><time>2026-04-11T09:07:10Z</time></trkpt><trkpt lat="44.58781434686321" lon="7.43733227710755"><ele>1013.0</ele><time>2026-04-11T09:07:12Z</time></trkpt><trkpt lat="44.58775271232427" lon="7.437302083088664"><ele>1013.0000000000001</ele><time>2026-04-11T09:07:14Z</time></trkpt><trkpt lat="44.58768355411591" lon="7.437252546400894"><ele>1013.0</ele><time>2026-04-11T09:07:17Z</time></trkpt><trkpt lat="44.58760307334718" lon="7.43717980499332"><ele>1014.0000000000001</ele><time>2026-04-11T09:07:20Z</time></trkpt><trkpt lat="44.587527886628685" lon="7.437111472685324"><ele>1015.0</ele><time>2026-04-11T09:07:22Z</time></trkpt><trkpt lat="44.5874559090266" lon="7.437051615928987"><ele>1016.0</ele><time>2026-04-11T09:07:24Z</time></trkpt><trkpt lat="44.587388286648284" lon="7.436982864640845"><ele>1017.0</ele><time>2026-04-11T09:07:26Z</time></trkpt><trkpt lat="44.58730559998762" lon="7.436920945266751"><ele>1018.0000000000001</ele><time>2026-04-11T09:07:28Z</time></trkpt><trkpt lat="44.58725681967674" lon="7.436854823986454"><ele>1019.0</ele><time>2026-04-11T09:07:30Z</time></trkpt><trkpt lat="44.58717687105886" lon="7.436772959522583"><ele>1019.0</ele><time>2026-04-11T09:07:31.999Z</time></trkpt><trkpt lat="44.587074045319454" lon="7.436687295866756"><ele>1019.0000000000001</ele><time>2026-04-11T09:07:33.999Z</time></trkpt><trkpt lat="44.58702231858357" lon="7.436636320928313"><ele>1019.0000000000001</ele><time>2026-04-11T09:07:34.999Z</time></trkpt><trkpt lat="44.58695873520689" lon="7.43661720593936"><ele>1019.0</ele><time>2026-04-11T09:07:35.999Z</time></trkpt><trkpt lat="44.58686100420996" lon="7.436602200254426"><ele>1019.0</ele><time>2026-04-11T09:07:37.999Z</time></trkpt><trkpt lat="44.58673787238273" lon="7.4365351329083955"><ele>1015.4000000000001</ele><time>2026-04-11T09:07:39.999Z</time></trkpt><trkpt lat="44.586625647222114" lon="7.436477706801518"><ele>1011.8000000000001</ele><time>2026-04-11T09:07:41.999Z</time></trkpt><trkpt lat="44.586506696403646" lon="7.436420451404181"><ele>1008.1999999999999</ele><time>2026-04-11T09:07:43.999Z</time></trkpt><trkpt lat="44.58643794253379" lon="7.436394322605917"><ele>1004.5999999999999</ele><time>2026-04-11T09:07:44.999Z</time></trkpt><trkpt lat="44.586363120213605" lon="7.436391273338026"><ele>1001.0</ele><time>2026-04-11T09:07:45.999Z</time></trkpt><trkpt lat="44.586299518768065" lon="7.43640272434801"><ele>1001.0000000000001</ele><time>2026-04-11T09:07:46.999Z</time></trkpt><trkpt lat="44.586221318690114" lon="7.4364042705516065"><ele>1001.0</ele><time>2026-04-11T09:07:48.999Z</time></trkpt><trkpt lat="44.58616527174842" lon="7.436331864879658"><ele>1001.0</ele><time>2026-04-11T09:07:51.999Z</time></trkpt><trkpt lat="44.58611410633769" lon="7.436276706019059"><ele>1001.0</ele><time>2026-04-11T09:07:54.999Z</time></trkpt><trkpt lat="44.58605573234112" lon="7.436205654277292"><ele>1001.0000000000001</ele><time>2026-04-11T09:07:58.999Z</time></trkpt><trkpt lat="44.58599452384925" lon="7.436143574045603"><ele>1001.0</ele><time>2026-04-11T09:08:02.999Z</time></trkpt><trkpt lat="44.58593388781017" lon="7.436053732986727"><ele>1003.1428571428571</ele><time>2026-04-11T09:08:06.999Z</time></trkpt><trkpt lat="44.58589742302193" lon="7.435978182193234"><ele>1005.2857142857142</ele><time>2026-04-11T09:08:09.999Z</time></trkpt><trkpt lat="44.585845246312296" lon="7.4358950083898"><ele>1007.4285714285714</ele><time>2026-04-11T09:08:13.999Z</time></trkpt><trkpt lat="44.58578051775198" lon="7.435853194771312"><ele>1009.5714285714286</ele><time>2026-04-11T09:08:17.999Z</time></trkpt><trkpt lat="44.585743416773816" lon="7.435769275014092"><ele>1011.7142857142857</ele><time>2026-04-11T09:08:21.999Z</time></trkpt><trkpt lat="44.5856795944169" lon="7.435748558266188"><ele>1013.8571428571429</ele><time>2026-04-11T09:08:25.998Z</time></trkpt><trkpt lat="44.58561187908254" lon="7.4357913579534305"><ele>1016.0</ele><time>2026-04-11T09:08:29.998Z</time></trkpt><trkpt lat="44.58554784971484" lon="7.435841181619572"><ele>1016.0</ele><time>2026-04-11T09:08:34.998Z</time></trkpt><trkpt lat="44.58548298334181" lon="7.435838547451688"><ele>1016.0</ele><time>2026-04-11T09:08:40.998Z</time></trkpt><trkpt lat="44.58540768625016" lon="7.435847445409797"><ele>1016.0</ele><time>2026-04-11T09:08:49Z</time></trkpt><trkpt lat="44.58533494850718" lon="7.435823225490147"><ele>1016.0</ele><time>2026-04-11T09:08:53Z</time></trkpt><trkpt lat="44.585262462165765" lon="7.43584204342931"><ele>1016.0</ele><time>2026-04-11T09:08:57Z</time></trkpt><trkpt lat="44.585195760520456" lon="7.435864101037934"><ele>1016.0</ele><time>2026-04-11T09:09:01Z</time></trkpt><trkpt lat="44.58513230257417" lon="7.435851225155485"><ele>1016.0</ele><time>2026-04-11T09:09:05Z</time></trkpt><trkpt lat="44.58505839615111" lon="7.435811228371322"><ele>1016.2857142857143</ele><time>2026-04-11T09:09:11Z</time></trkpt><trkpt lat="44.58498517657728" lon="7.435760218145461"><ele>1016.5714285714284</ele><time>2026-04-11T09:09:17Z</time></trkpt><trkpt lat="44.58493405869774" lon="7.4357069799100435"><ele>1016.8571428571428</ele><time>2026-04-11T09:09:21Z</time></trkpt><trkpt lat="44.584878156542416" lon="7.4356305771357025"><ele>1017.1428571428571</ele><time>2026-04-11T09:09:27Z</time></trkpt><trkpt lat="44.58483800387472" lon="7.435555997220975"><ele>1017.4285714285713</ele><time>2026-04-11T09:09:33Z</time></trkpt><trkpt lat="44.58488796256295" lon="7.435500490913141"><ele>1017.7142857142856</ele><time>2026-04-11T09:09:39.999Z</time></trkpt><trkpt lat="44.58495755931799" lon="7.435443897080269"><ele>1017.9999999999999</ele><time>2026-04-11T09:09:43.999Z</time></trkpt><trkpt lat="44.5849994284629" lon="7.43537170805351"><ele>1021.4285714285713</ele><time>2026-04-11T09:09:47.999Z</time></trkpt><trkpt lat="44.585044925431326" lon="7.4352813577138805"><ele>1024.857142857143</ele><time>2026-04-11T09:09:51.999Z</time></trkpt><trkpt lat="44.585103472855295" lon="7.4352174579954715"><ele>1028.2857142857142</ele><time>2026-04-11T09:09:55.999Z</time></trkpt><trkpt lat="44.58515754358817" lon="7.435165454842252"><ele>1031.7142857142858</ele><time>2026-04-11T09:09:59.999Z</time></trkpt><trkpt lat="44.585214946742916" lon="7.435097889181627"><ele>1035.142857142857</ele><time>2026-04-11T09:10:04.999Z</time></trkpt><trkpt lat="44.58522540554877" lon="7.434989319927926"><ele>1038.5714285714284</ele><time>2026-04-11T09:10:09.999Z</time></trkpt><trkpt lat="44.58516847572486" lon="7.434944173736381"><ele>1042.0</ele><time>2026-04-11T09:10:12.999Z</time></trkpt><trkpt lat="44.58510400277925" lon="7.434967643304853"><ele>1042.0</ele><time>2026-04-11T09:10:15.999Z</time></trkpt><trkpt lat="44.585036878783725" lon="7.43497304170128"><ele>1042.0</ele><time>2026-04-11T09:10:19.999Z</time></trkpt><trkpt lat="44.58497150634952" lon="7.4349344166218785"><ele>1042.0</ele><time>2026-04-11T09:10:23.999Z</time></trkpt><trkpt lat="44.58490328911976" lon="7.434928398947973"><ele>1042.0</ele><time>2026-04-11T09:10:28.999Z</time></trkpt><trkpt lat="44.58483167909872" lon="7.434907836860052"><ele>1042.0</ele><time>2026-04-11T09:10:33.998Z</time></trkpt><trkpt lat="44.58476674287271" lon="7.43488418494342"><ele>1042.0</ele><time>2026-04-11T09:10:40.998Z</time></trkpt><trkpt lat="44.58468974078602" lon="7.4348803827527625"><ele>1042.0</ele><time>2026-04-11T09:10:45.998Z</time></trkpt><trkpt lat="44.58461277945731" lon="7.434848693138026"><ele>1042.0</ele><time>2026-04-11T09:10:52Z</time></trkpt><trkpt lat="44.5845517241971" lon="7.434813860212008"><ele>1042.0</ele><time>2026-04-11T09:10:57Z</time></trkpt><trkpt lat="44.58448303888151" lon="7.43479691371053"><ele>1042.0</ele><time>2026-04-11T09:11:02Z</time></trkpt><trkpt lat="44.58441396280871" lon="7.434820198284687"><ele>1042.0</ele><time>2026-04-11T09:11:06Z</time></trkpt><trkpt lat="44.58434783225364" lon="7.434796964587038"><ele>1042.0</ele><time>2026-04-11T09:11:10Z</time></trkpt><trkpt lat="44.58428388273973" lon="7.43475456925008"><ele>1042.0</ele><time>2026-04-11T09:11:14Z</time></trkpt><trkpt lat="44.58421275017062" lon="7.434718880880024"><ele>1042.0</ele><time>2026-04-11T09:11:18Z</time></trkpt><trkpt lat="44.584159476758856" lon="7.43464875779445"><ele>1045.7142857142858</ele><time>2026-04-11T09:11:23Z</time></trkpt><trkpt lat="44.58413078724405" lon="7.434570024289824"><ele>1049.4285714285716</ele><time>2026-04-11T09:11:28Z</time></trkpt><trkpt lat="44.58414376650293" lon="7.434474015957115"><ele>1053.1428571428573</ele><time>2026-04-11T09:11:32Z</time></trkpt><trkpt lat="44.58410973136332" lon="7.4343959982558525"><ele>1056.857142857143</ele><time>2026-04-11T09:11:36Z</time></trkpt><trkpt lat="44.58405302855457" lon="7.434336787885713"><ele>1060.5714285714287</ele><time>2026-04-11T09:11:40Z</time></trkpt><trkpt lat="44.584006867063565" lon="7.4342715634380525"><ele>1064.2857142857144</ele><time>2026-04-11T09:11:43.999Z</time></trkpt><trkpt lat="44.58394868851985" lon="7.434206993373215"><ele>1068.0</ele><time>2026-04-11T09:11:47.999Z</time></trkpt><trkpt lat="44.58390966634786" lon="7.434125989368037"><ele>1068.0000000000002</ele><time>2026-04-11T09:11:51.999Z</time></trkpt><trkpt lat="44.58388570448579" lon="7.434040398337292"><ele>1068.0</ele><time>2026-04-11T09:11:55.999Z</time></trkpt><trkpt lat="44.583840717174745" lon="7.433977386153813"><ele>1068.0</ele><time>2026-04-11T09:11:59.999Z</time></trkpt><trkpt lat="44.583779390448605" lon="7.433933413332963"><ele>1068.0</ele><time>2026-04-11T09:12:03.999Z</time></trkpt><trkpt lat="44.583705536024574" lon="7.433928465279451"><ele>1068.0</ele><time>2026-04-11T09:12:06.999Z</time></trkpt><trkpt lat="44.58363482799526" lon="7.433899526149816"><ele>1068.0000000000002</ele><time>2026-04-11T09:12:09.999Z</time></trkpt><trkpt lat="44.58357223240996" lon="7.433843531424642"><ele>1068.0</ele><time>2026-04-11T09:12:11.999Z</time></trkpt><trkpt lat="44.58349312450119" lon="7.433773455588368"><ele>1068.5</ele><time>2026-04-11T09:12:14.999Z</time></trkpt><trkpt lat="44.58339326554575" lon="7.4337099669950035"><ele>1069.0</ele><time>2026-04-11T09:12:16.999Z</time></trkpt><trkpt lat="44.58331615154468" lon="7.433635220928865"><ele>1069.5</ele><time>2026-04-11T09:12:17.999Z</time></trkpt><trkpt lat="44.583258439459236" lon="7.433572852647322"><ele>1070.0</ele><time>2026-04-11T09:12:18.999Z</time></trkpt><trkpt lat="44.58320233794003" lon="7.4335172907388065"><ele>1070.5</ele><time>2026-04-11T09:12:19.999Z</time></trkpt><trkpt lat="44.583139754624874" lon="7.433472516224253"><ele>1071.0</ele><time>2026-04-11T09:12:20.999Z</time></trkpt><trkpt lat="44.58308345079196" lon="7.433428008654352"><ele>1071.0</ele><time>2026-04-11T09:12:21.999Z</time></trkpt><trkpt lat="44.58301553206443" lon="7.4333908569465486"><ele>1071.0</ele><time>2026-04-11T09:12:23.999Z</time></trkpt><trkpt lat="44.58294698065291" lon="7.433320790419543"><ele>1071.0</ele><time>2026-04-11T09:12:26.999Z</time></trkpt><trkpt lat="44.58288648270613" lon="7.433248036447226"><ele>1071.0</ele><time>2026-04-11T09:12:29.999Z</time></trkpt><trkpt lat="44.58281248432745" lon="7.433205613151471"><ele>1071.0</ele><time>2026-04-11T09:12:32.999Z</time></trkpt><trkpt lat="44.582742528967124" lon="7.433181560687319"><ele>1071.0</ele><time>2026-04-11T09:12:35.999Z</time></trkpt><trkpt lat="44.58267065501277" lon="7.433148916611212"><ele>1071.0</ele><time>2026-04-11T09:12:39.998Z</time></trkpt><trkpt lat="44.582590803262065" lon="7.433135460348233"><ele>1071.0</ele><time>2026-04-11T09:12:44.998Z</time></trkpt><trkpt lat="44.582525006930105" lon="7.4331402409169245"><ele>1071.0</ele><time>2026-04-11T09:12:48.998Z</time></trkpt><trkpt lat="44.58246769634379" lon="7.4330986750379155"><ele>1071.0</ele><time>2026-04-11T09:12:53.998Z</time></trkpt><trkpt lat="44.58245848244137" lon="7.433004205486934"><ele>1071.0</ele><time>2026-04-11T09:12:57Z</time></trkpt><trkpt lat="44.58241507124723" lon="7.432934041182467"><ele>1071.0</ele><time>2026-04-11T09:13:00Z</time></trkpt><trkpt lat="44.582336749263824" lon="7.432886421172569"><ele>1071.0</ele><time>2026-04-11T09:13:03Z</time></trkpt><trkpt lat="44.582301901584245" lon="7.432794866689262"><ele>1071.0</ele><time>2026-04-11T09:13:08Z</time></trkpt><trkpt lat="44.58227471552994" lon="7.432713322121616"><ele>1071.0</ele><time>2026-04-11T09:13:11Z</time></trkpt><trkpt lat="44.58226170670224" lon="7.432604610851591"><ele>1071.0</ele><time>2026-04-11T09:13:15Z</time></trkpt><trkpt lat="44.582232298607835" lon="7.432526223493376"><ele>1071.0</ele><time>2026-04-11T09:13:18Z</time></trkpt><trkpt lat="44.582179524818436" lon="7.432450478809816"><ele>1071.0</ele><time>2026-04-11T09:13:22Z</time></trkpt><trkpt lat="44.58214413853305" lon="7.432362903646811"><ele>1071.0</ele><time>2026-04-11T09:13:26Z</time></trkpt><trkpt lat="44.58208726551744" lon="7.432299651311491"><ele>1071.0</ele><time>2026-04-11T09:13:30Z</time></trkpt><trkpt lat="44.58202432793774" lon="7.432238820708485"><ele>1070.2857142857142</ele><time>2026-04-11T09:13:34Z</time></trkpt><trkpt lat="44.58194759345192" lon="7.43223813287472"><ele>1069.5714285714284</ele><time>2026-04-11T09:13:38Z</time></trkpt><trkpt lat="44.58187728817522" lon="7.432213505470374"><ele>1068.857142857143</ele><time>2026-04-11T09:13:42Z</time></trkpt><trkpt lat="44.58181362268382" lon="7.432165367853497"><ele>1068.142857142857</ele><time>2026-04-11T09:13:45Z</time></trkpt><trkpt lat="44.58175940868223" lon="7.432102495411102"><ele>1067.4285714285713</ele><time>2026-04-11T09:13:49Z</time></trkpt><trkpt lat="44.58170581825832" lon="7.432045103551214"><ele>1066.7142857142858</ele><time>2026-04-11T09:13:52.999Z</time></trkpt><trkpt lat="44.58165006971441" lon="7.431969022367023"><ele>1066.0</ele><time>2026-04-11T09:13:57.999Z</time></trkpt><trkpt lat="44.58160910480264" lon="7.431898113887144"><ele>1068.0</ele><time>2026-04-11T09:14:01.999Z</time></trkpt><trkpt lat="44.58154136518019" lon="7.431861982998275"><ele>1070.0</ele><time>2026-04-11T09:14:05.999Z</time></trkpt><trkpt lat="44.58147588509645" lon="7.431798955515932"><ele>1072.0</ele><time>2026-04-11T09:14:10.999Z</time></trkpt><trkpt lat="44.58141400597993" lon="7.431734448525513"><ele>1074.0</ele><time>2026-04-11T09:14:14.999Z</time></trkpt><trkpt lat="44.58137425067396" lon="7.431653369567438"><ele>1076.0</ele><time>2026-04-11T09:14:19.999Z</time></trkpt><trkpt lat="44.581344951509784" lon="7.431572104393005"><ele>1078.0</ele><time>2026-04-11T09:14:24.999Z</time></trkpt><trkpt lat="44.58130592383899" lon="7.431489385449338"><ele>1080.0</ele><time>2026-04-11T09:14:28.999Z</time></trkpt><trkpt lat="44.581263919276" lon="7.431398612908888"><ele>1080.0</ele><time>2026-04-11T09:14:32.999Z</time></trkpt><trkpt lat="44.58120540894989" lon="7.431309445572906"><ele>1080.0</ele><time>2026-04-11T09:14:37.999Z</time></trkpt><trkpt lat="44.581162632542124" lon="7.431239866696642"><ele>1080.0</ele><time>2026-04-11T09:14:41.998Z</time></trkpt><trkpt lat="44.581135653706326" lon="7.431132998962932"><ele>1080.0</ele><time>2026-04-11T09:14:45.998Z</time></trkpt><trkpt lat="44.58111800848517" lon="7.431004030126266"><ele>1080.0</ele><time>2026-04-11T09:14:49.998Z</time></trkpt><trkpt lat="44.58108069877264" lon="7.430888165607202"><ele>1080.0</ele><time>2026-04-11T09:14:51.998Z</time></trkpt><trkpt lat="44.58103488441902" lon="7.43073035089523"><ele>1079.1666666666667</ele><time>2026-04-11T09:14:53.998Z</time></trkpt><trkpt lat="44.58100617047139" lon="7.4305918708901855"><ele>1078.3333333333333</ele><time>2026-04-11T09:14:55.998Z</time></trkpt><trkpt lat="44.58098544705652" lon="7.430480678338773"><ele>1077.5</ele><time>2026-04-11T09:14:59.998Z</time></trkpt><trkpt lat="44.58096482346837" lon="7.430394184644774"><ele>1076.6666666666665</ele><time>2026-04-11T09:15:03Z</time></trkpt><trkpt lat="44.58095801562397" lon="7.43029868979179"><ele>1075.8333333333333</ele><time>2026-04-11T09:15:06Z</time></trkpt><trkpt lat="44.58096315841709" lon="7.430188992507267"><ele>1075.0</ele><time>2026-04-11T09:15:09Z</time></trkpt><trkpt lat="44.580974211293864" lon="7.430096145810001"><ele>1075.0000000000002</ele><time>2026-04-11T09:15:13Z</time></trkpt><trkpt lat="44.58096912805037" lon="7.430007778054465"><ele>1075.0</ele><time>2026-04-11T09:15:16Z</time></trkpt><trkpt lat="44.58096504334248" lon="7.429914476493083"><ele>1075.0</ele><time>2026-04-11T09:15:19Z</time></trkpt><trkpt lat="44.580974570164464" lon="7.4298204594609185"><ele>1075.0</ele><time>2026-04-11T09:15:22Z</time></trkpt><trkpt lat="44.58098488738052" lon="7.4297331114879235"><ele>1075.0</ele><time>2026-04-11T09:15:25Z</time></trkpt><trkpt lat="44.58098031022629" lon="7.429643945676912"><ele>1075.0000000000002</ele><time>2026-04-11T09:15:28Z</time></trkpt><trkpt lat="44.58098248916131" lon="7.429542066195651"><ele>1075.0</ele><time>2026-04-11T09:15:32Z</time></trkpt><trkpt lat="44.58093236139822" lon="7.4294652470794"><ele>1075.8333333333333</ele><time>2026-04-11T09:15:36Z</time></trkpt><trkpt lat="44.580929828795014" lon="7.4293435623620185"><ele>1076.6666666666665</ele><time>2026-04-11T09:15:39Z</time></trkpt><trkpt lat="44.58094487432019" lon="7.429216850536677"><ele>1077.5</ele><time>2026-04-11T09:15:43Z</time></trkpt><trkpt lat="44.580916767540856" lon="7.429113000168104"><ele>1078.3333333333333</ele><time>2026-04-11T09:15:46Z</time></trkpt><trkpt lat="44.58092038355571" lon="7.429005514683135"><ele>1079.1666666666667</ele><time>2026-04-11T09:15:49Z</time></trkpt><trkpt lat="44.580907673033366" lon="7.4289109819227175"><ele>1080.0</ele><time>2026-04-11T09:15:52Z</time></trkpt><trkpt lat="44.580896729870055" lon="7.428800709158039"><ele>1080.142857142857</ele><time>2026-04-11T09:15:55.999Z</time></trkpt><trkpt lat="44.580910621210904" lon="7.428712165825534"><ele>1080.2857142857142</ele><time>2026-04-11T09:15:58.999Z</time></trkpt><trkpt lat="44.58093070069014" lon="7.428619245541779"><ele>1080.4285714285713</ele><time>2026-04-11T09:16:02.999Z</time></trkpt><trkpt lat="44.58095511250645" lon="7.428536057791629"><ele>1080.5714285714284</ele><time>2026-04-11T09:16:06.999Z</time></trkpt><trkpt lat="44.58098911297177" lon="7.428442892386283"><ele>1080.7142857142858</ele><time>2026-04-11T09:16:11.999Z</time></trkpt><trkpt lat="44.58104736643539" lon="7.428373004468522"><ele>1080.8571428571427</ele><time>2026-04-11T09:16:16.999Z</time></trkpt><trkpt lat="44.581099439320575" lon="7.4282932414729865"><ele>1081.0</ele><time>2026-04-11T09:16:21.999Z</time></trkpt><trkpt lat="44.58114615854156" lon="7.42823278544502"><ele>1083.4285714285713</ele><time>2026-04-11T09:16:24.999Z</time></trkpt><trkpt lat="44.58120809504864" lon="7.428184882585019"><ele>1085.857142857143</ele><time>2026-04-11T09:16:28.999Z</time></trkpt><trkpt lat="44.581271347250386" lon="7.428164500401006"><ele>1088.2857142857142</ele><time>2026-04-11T09:16:32.999Z</time></trkpt><trkpt lat="44.581335458776735" lon="7.4281097465769115"><ele>1090.7142857142858</ele><time>2026-04-11T09:16:36.999Z</time></trkpt><trkpt lat="44.581398464270535" lon="7.428071158675615"><ele>1093.142857142857</ele><time>2026-04-11T09:16:41.999Z</time></trkpt><trkpt lat="44.58147093685025" lon="7.428046731024962"><ele>1095.5714285714284</ele><time>2026-04-11T09:16:45.999Z</time></trkpt><trkpt lat="44.581534366511626" lon="7.428020386484489"><ele>1098.0</ele><time>2026-04-11T09:16:49.998Z</time></trkpt><trkpt lat="44.581594941658906" lon="7.427958841405404"><ele>1098.0</ele><time>2026-04-11T09:16:54.998Z</time></trkpt><trkpt lat="44.58161648247823" lon="7.427870376651077"><ele>1098.0</ele><time>2026-04-11T09:16:58.998Z</time></trkpt><trkpt lat="44.581638457879514" lon="7.427757746372133"><ele>1098.0</ele><time>2026-04-11T09:17:02.998Z</time></trkpt><trkpt lat="44.581626170290875" lon="7.427643829314473"><ele>1098.0</ele><time>2026-04-11T09:17:07Z</time></trkpt><trkpt lat="44.58159897863479" lon="7.427557957248606"><ele>1098.0</ele><time>2026-04-11T09:17:11Z</time></trkpt><trkpt lat="44.58156711722615" lon="7.427467283608296"><ele>1098.0</ele><time>2026-04-11T09:17:15Z</time></trkpt><trkpt lat="44.581536919952576" lon="7.427375979781574"><ele>1098.0</ele><time>2026-04-11T09:17:19Z</time></trkpt><trkpt lat="44.581517134498945" lon="7.427284722011265"><ele>1098.0</ele><time>2026-04-11T09:17:23Z</time></trkpt><trkpt lat="44.581512268467726" lon="7.427186633544667"><ele>1098.0</ele><time>2026-04-11T09:17:27Z</time></trkpt><trkpt lat="44.581540407458384" lon="7.427093956180268"><ele>1098.0</ele><time>2026-04-11T09:17:31Z</time></trkpt><trkpt lat="44.581578275933516" lon="7.427001770962348"><ele>1098.0</ele><time>2026-04-11T09:17:36Z</time></trkpt><trkpt lat="44.581651924780296" lon="7.426946105163415"><ele>1098.0</ele><time>2026-04-11T09:17:41Z</time></trkpt><trkpt lat="44.58172537463191" lon="7.426907581822707"><ele>1098.0</ele><time>2026-04-11T09:17:45Z</time></trkpt><trkpt lat="44.581786515811395" lon="7.426871472875291"><ele>1098.0</ele><time>2026-04-11T09:17:48Z</time></trkpt><trkpt lat="44.58185561320416" lon="7.426844948444184"><ele>1095.8333333333333</ele><time>2026-04-11T09:17:51Z</time></trkpt><trkpt lat="44.58191813051146" lon="7.426800608005401"><ele>1093.6666666666667</ele><time>2026-04-11T09:17:54Z</time></trkpt><trkpt lat="44.58197719096362" lon="7.426750956409555"><ele>1091.5</ele><time>2026-04-11T09:17:57Z</time></trkpt><trkpt lat="44.5820484897225" lon="7.426694419107265"><ele>1089.3333333333335</ele><time>2026-04-11T09:18:00.999Z</time></trkpt><trkpt lat="44.58212594818233" lon="7.426634006307712"><ele>1087.1666666666667</ele><time>2026-04-11T09:18:03.999Z</time></trkpt><trkpt lat="44.58219770491622" lon="7.426587805625218"><ele>1085.0</ele><time>2026-04-11T09:18:07.999Z</time></trkpt><trkpt lat="44.58226332936393" lon="7.426513590816688"><ele>1087.6666666666667</ele><time>2026-04-11T09:18:11.999Z</time></trkpt><trkpt lat="44.58232313359602" lon="7.426457467518098"><ele>1090.3333333333335</ele><time>2026-04-11T09:18:15.999Z</time></trkpt><trkpt lat="44.58240066000648" lon="7.426439159560587"><ele>1093.0</ele><time>2026-04-11T09:18:19.999Z</time></trkpt><trkpt lat="44.5824729640434" lon="7.426409666104305"><ele>1095.6666666666667</ele><time>2026-04-11T09:18:23.999Z</time></trkpt><trkpt lat="44.58253417946414" lon="7.4263674244874815"><ele>1098.3333333333333</ele><time>2026-04-11T09:18:26.999Z</time></trkpt><trkpt lat="44.582581751668066" lon="7.426275853380912"><ele>1101.0</ele><time>2026-04-11T09:18:30.999Z</time></trkpt><trkpt lat="44.58262247590354" lon="7.426185862516103"><ele>1101.0</ele><time>2026-04-11T09:18:34.999Z</time></trkpt><trkpt lat="44.582617019976894" lon="7.4260881838160335"><ele>1101.0</ele><time>2026-04-11T09:18:37.999Z</time></trkpt><trkpt lat="44.582606912182676" lon="7.426000205158413"><ele>1101.0</ele><time>2026-04-11T09:18:40.999Z</time></trkpt><trkpt lat="44.58265187881137" lon="7.425930755150679"><ele>1101.0</ele><time>2026-04-11T09:18:43.999Z</time></trkpt><trkpt lat="44.58267159184784" lon="7.425843878617451"><ele>1101.0</ele><time>2026-04-11T09:19:19Z</time></trkpt><trkpt lat="44.58261158836071" lon="7.425797047623462"><ele>1101.0</ele><time>2026-04-11T09:19:53Z</time></trkpt><trkpt lat="44.58265168272294" lon="7.42586659839572"><ele>1101.0</ele><time>2026-04-11T09:20:06Z</time></trkpt><trkpt lat="44.58271842028926" lon="7.425838356723647"><ele>1101.0</ele><time>2026-04-11T09:20:09.999Z</time></trkpt><trkpt lat="44.58278119147254" lon="7.425809699378557"><ele>1101.0</ele><time>2026-04-11T09:20:12.999Z</time></trkpt><trkpt lat="44.58286354892769" lon="7.425789268323066"><ele>1101.0</ele><time>2026-04-11T09:20:16.999Z</time></trkpt><trkpt lat="44.58292475539226" lon="7.425742116778193"><ele>1101.0</ele><time>2026-04-11T09:20:19.999Z</time></trkpt><trkpt lat="44.58297994599852" lon="7.425657733820965"><ele>1101.0</ele><time>2026-04-11T09:20:23.999Z</time></trkpt><trkpt lat="44.583044418455" lon="7.425609124512878"><ele>1101.0</ele><time>2026-04-11T09:20:27.999Z</time></trkpt><trkpt lat="44.58310743449588" lon="7.425583175344525"><ele>1101.0</ele><time>2026-04-11T09:20:31.999Z</time></trkpt><trkpt lat="44.583174589442415" lon="7.425520647104842"><ele>1105.142857142857</ele><time>2026-04-11T09:20:35.999Z</time></trkpt><trkpt lat="44.58323936064546" lon="7.42551362113378"><ele>1109.2857142857142</ele><time>2026-04-11T09:20:39.999Z</time></trkpt><trkpt lat="44.58330401670925" lon="7.425495724604572"><ele>1113.4285714285713</ele><time>2026-04-11T09:20:43.999Z</time></trkpt><trkpt lat="44.58338304354932" lon="7.425502955363897"><ele>1117.5714285714284</ele><time>2026-04-11T09:20:48.999Z</time></trkpt><trkpt lat="44.583448765492975" lon="7.425488121679751"><ele>1121.7142857142858</ele><time>2026-04-11T09:20:51.999Z</time></trkpt><trkpt lat="44.58351570614485" lon="7.425504696383287"><ele>1125.8571428571427</ele><time>2026-04-11T09:20:56.999Z</time></trkpt><trkpt lat="44.58358939055204" lon="7.425513020578308"><ele>1130.0</ele><time>2026-04-11T09:21:00.998Z</time></trkpt><trkpt lat="44.58364797752859" lon="7.425456348612863"><ele>1131.7142857142856</ele><time>2026-04-11T09:21:03.998Z</time></trkpt><trkpt lat="44.58371423584561" lon="7.425406926933843"><ele>1133.4285714285713</ele><time>2026-04-11T09:21:07.998Z</time></trkpt><trkpt lat="44.58377492275014" lon="7.425376413212924"><ele>1135.142857142857</ele><time>2026-04-11T09:21:10.998Z</time></trkpt><trkpt lat="44.583841078033764" lon="7.425347104466313"><ele>1136.8571428571427</ele><time>2026-04-11T09:21:14.998Z</time></trkpt><trkpt lat="44.583907421155615" lon="7.425312359851281"><ele>1138.5714285714284</ele><time>2026-04-11T09:21:19Z</time></trkpt><trkpt lat="44.583980444004226" lon="7.4252631773998035"><ele>1140.2857142857142</ele><time>2026-04-11T09:21:24Z</time></trkpt><trkpt lat="44.58403495279454" lon="7.425207925377576"><ele>1142.0</ele><time>2026-04-11T09:21:28Z</time></trkpt><trkpt lat="44.584079589207256" lon="7.425289542413809"><ele>1142.0</ele><time>2026-04-11T09:26:31.999Z</time></trkpt><trkpt lat="44.58409679206779" lon="7.425397585899968"><ele>1142.0</ele><time>2026-04-11T09:26:35.999Z</time></trkpt><trkpt lat="44.58410654633828" lon="7.425499490441111"><ele>1142.0</ele><time>2026-04-11T09:26:40.999Z</time></trkpt><trkpt lat="44.58411285189605" lon="7.42561513361031"><ele>1142.0</ele><time>2026-04-11T09:26:43.999Z</time></trkpt><trkpt lat="44.58412147454076" lon="7.425706309993028"><ele>1142.0</ele><time>2026-04-11T09:26:46.999Z</time></trkpt><trkpt lat="44.58414808320199" lon="7.425794947875808"><ele>1142.0</ele><time>2026-04-11T09:26:49.999Z</time></trkpt><trkpt lat="44.58419575098342" lon="7.42586896013505"><ele>1142.0</ele><time>2026-04-11T09:26:53.999Z</time></trkpt><trkpt lat="44.584156219756146" lon="7.425939810569965"><ele>1143.2857142857142</ele><time>2026-04-11T09:26:56.999Z</time></trkpt><trkpt lat="44.58412211686346" lon="7.426014180353778"><ele>1144.5714285714284</ele><time>2026-04-11T09:27:00.999Z</time></trkpt><trkpt lat="44.584058584225815" lon="7.426061986953807"><ele>1145.8571428571427</ele><time>2026-04-11T09:27:05.999Z</time></trkpt><trkpt lat="44.584024727749984" lon="7.426152930682552"><ele>1147.142857142857</ele><time>2026-04-11T09:27:09.999Z</time></trkpt><trkpt lat="44.58401231636151" lon="7.426246543386738"><ele>1148.4285714285713</ele><time>2026-04-11T09:27:14.998Z</time></trkpt><trkpt lat="44.58399728468408" lon="7.426352448462159"><ele>1149.7142857142856</ele><time>2026-04-11T09:27:19.998Z</time></trkpt><trkpt lat="44.58405238049503" lon="7.426403149418665"><ele>1151.0</ele><time>2026-04-11T09:27:25.998Z</time></trkpt><trkpt lat="44.58403901348383" lon="7.426302465067022"><ele>1151.0</ele><time>2026-04-11T09:28:00Z</time></trkpt><trkpt lat="44.58408940250558" lon="7.426189133229099"><ele>1151.0</ele><time>2026-04-11T09:28:03Z</time></trkpt><trkpt lat="44.584145355731145" lon="7.42612409882007"><ele>1151.0</ele><time>2026-04-11T09:28:06Z</time></trkpt><trkpt lat="44.584086347856704" lon="7.426069815141149"><ele>1151.0</ele><time>2026-04-11T09:28:20Z</time></trkpt><trkpt lat="44.58404004399474" lon="7.426151767785739"><ele>1151.0</ele><time>2026-04-11T09:28:25Z</time></trkpt><trkpt lat="44.58401711202035" lon="7.426246457482557"><ele>1151.0</ele><time>2026-04-11T09:28:28.999Z</time></trkpt><trkpt lat="44.584009647779375" lon="7.426358117076398"><ele>1151.8</ele><time>2026-04-11T09:28:33.999Z</time></trkpt><trkpt lat="44.584029144426" lon="7.426464215496622"><ele>1152.6</ele><time>2026-04-11T09:28:36.999Z</time></trkpt><trkpt lat="44.58406018254469" lon="7.426557473478538"><ele>1153.4</ele><time>2026-04-11T09:28:39.999Z</time></trkpt><trkpt lat="44.58408351019108" lon="7.426713959573347"><ele>1154.2</ele><time>2026-04-11T09:28:41.999Z</time></trkpt><trkpt lat="44.58404691427276" lon="7.426904899342881"><ele>1155.0</ele><time>2026-04-11T09:28:42.999Z</time></trkpt><trkpt lat="44.58402610048323" lon="7.427033871235981"><ele>1155.0</ele><time>2026-04-11T09:28:43.999Z</time></trkpt><trkpt lat="44.58401655705222" lon="7.427129039405501"><ele>1155.0</ele><time>2026-04-11T09:28:44.999Z</time></trkpt><trkpt lat="44.58398447194634" lon="7.427263565134475"><ele>1155.0</ele><time>2026-04-11T09:28:46.999Z</time></trkpt><trkpt lat="44.58397016938079" lon="7.4273609019523565"><ele>1155.0</ele><time>2026-04-11T09:28:48.999Z</time></trkpt><trkpt lat="44.58395147927842" lon="7.427470176288408"><ele>1155.0</ele><time>2026-04-11T09:28:50.999Z</time></trkpt><trkpt lat="44.583930271660215" lon="7.427555339569973"><ele>1155.0</ele><time>2026-04-11T09:28:52.999Z</time></trkpt><trkpt lat="44.583901317728255" lon="7.427634226166796"><ele>1155.0</ele><time>2026-04-11T09:28:54.999Z</time></trkpt><trkpt lat="44.583873025951235" lon="7.42771416141327"><ele>1155.0</ele><time>2026-04-11T09:28:56.999Z</time></trkpt><trkpt lat="44.583832869347816" lon="7.427825505361537"><ele>1155.0</ele><time>2026-04-11T09:28:59.999Z</time></trkpt><trkpt lat="44.583802668980866" lon="7.427924818383802"><ele>1155.0</ele><time>2026-04-11T09:29:03.999Z</time></trkpt><trkpt lat="44.58376945931906" lon="7.428013977345856"><ele>1155.0</ele><time>2026-04-11T09:29:08.999Z</time></trkpt><trkpt lat="44.58371923551284" lon="7.428077503090535"><ele>1155.0</ele><time>2026-04-11T09:30:14Z</time></trkpt><trkpt lat="44.5837737484856" lon="7.428026666197087"><ele>1155.0</ele><time>2026-04-11T09:35:39.999Z</time></trkpt><trkpt lat="44.58383365924593" lon="7.4280864672929185"><ele>1155.0</ele><time>2026-04-11T09:36:03Z</time></trkpt><trkpt lat="44.58384593257764" lon="7.428181878766568"><ele>1154.8333333333333</ele><time>2026-04-11T09:36:14Z</time></trkpt><trkpt lat="44.583859574907706" lon="7.428269878729871"><ele>1154.6666666666667</ele><time>2026-04-11T09:36:19Z</time></trkpt><trkpt lat="44.58386602891457" lon="7.428382369292309"><ele>1154.5</ele><time>2026-04-11T09:36:24Z</time></trkpt><trkpt lat="44.58381921253643" lon="7.428459765101881"><ele>1154.3333333333335</ele><time>2026-04-11T09:36:26Z</time></trkpt><trkpt lat="44.583806499649256" lon="7.428549636843233"><ele>1154.1666666666667</ele><time>2026-04-11T09:36:27Z</time></trkpt><trkpt lat="44.583792642736974" lon="7.428650733264552"><ele>1154.0</ele><time>2026-04-11T09:36:28Z</time></trkpt><trkpt lat="44.583769381171486" lon="7.428812780353704"><ele>1154.0</ele><time>2026-04-11T09:36:30Z</time></trkpt><trkpt lat="44.58379542877966" lon="7.428917058238809"><ele>1154.0</ele><time>2026-04-11T09:36:32Z</time></trkpt><trkpt lat="44.58382166253986" lon="7.429024110688709"><ele>1154.0</ele><time>2026-04-11T09:36:34Z</time></trkpt><trkpt lat="44.5838383434173" lon="7.429140994241885"><ele>1154.0</ele><time>2026-04-11T09:36:37Z</time></trkpt><trkpt lat="44.583798462915546" lon="7.429225298561442"><ele>1154.0</ele><time>2026-04-11T09:36:40Z</time></trkpt><trkpt lat="44.58372298702592" lon="7.429249378657875"><ele>1154.0</ele><time>2026-04-11T09:36:43Z</time></trkpt><trkpt lat="44.58365137546942" lon="7.429273269869058"><ele>1152.8333333333335</ele><time>2026-04-11T09:36:46Z</time></trkpt><trkpt lat="44.58359254058828" lon="7.429316082815098"><ele>1151.6666666666667</ele><time>2026-04-11T09:36:49Z</time></trkpt><trkpt lat="44.58356200644347" lon="7.429411359734991"><ele>1150.5</ele><time>2026-04-11T09:36:52Z</time></trkpt><trkpt lat="44.58360807578881" lon="7.42948693963963"><ele>1149.3333333333333</ele><time>2026-04-11T09:37:00.999Z</time></trkpt><trkpt lat="44.58367626814674" lon="7.429595327576055"><ele>1148.1666666666665</ele><time>2026-04-11T09:37:02.999Z</time></trkpt><trkpt lat="44.58369714750548" lon="7.429753356708775"><ele>1147.0</ele><time>2026-04-11T09:37:04.999Z</time></trkpt><trkpt lat="44.583656692045444" lon="7.429828237369198"><ele>1145.4</ele><time>2026-04-11T09:37:05.999Z</time></trkpt><trkpt lat="44.58364751408216" lon="7.429926478276662"><ele>1143.8000000000002</ele><time>2026-04-11T09:37:07.999Z</time></trkpt><trkpt lat="44.583664850198836" lon="7.430038656336587"><ele>1142.2</ele><time>2026-04-11T09:37:09.999Z</time></trkpt><trkpt lat="44.58363150099803" lon="7.430124871758264"><ele>1140.6000000000001</ele><time>2026-04-11T09:37:11.999Z</time></trkpt><trkpt lat="44.583605767034385" lon="7.430234590268271"><ele>1139.0</ele><time>2026-04-11T09:37:14.999Z</time></trkpt><trkpt lat="44.58352549730809" lon="7.430560289000675"><ele>1137.5</ele><time>2026-04-11T09:37:15.999Z</time></trkpt><trkpt lat="44.583487020161165" lon="7.430643530416809"><ele>1136.0</ele><time>2026-04-11T09:37:16.999Z</time></trkpt><trkpt lat="44.583513148532376" lon="7.430764939970689"><ele>1134.5</ele><time>2026-04-11T09:37:18.999Z</time></trkpt><trkpt lat="44.583593269779826" lon="7.430869598209025"><ele>1133.0</ele><time>2026-04-11T09:37:20.999Z</time></trkpt><trkpt lat="44.58362491379571" lon="7.431015631247981"><ele>1131.5</ele><time>2026-04-11T09:37:22.999Z</time></trkpt><trkpt lat="44.583642954677316" lon="7.431108415221872"><ele>1130.0</ele><time>2026-04-11T09:37:25.999Z</time></trkpt><trkpt lat="44.583695394847624" lon="7.431166384246105"><ele>1129.25</ele><time>2026-04-11T09:37:28.999Z</time></trkpt><trkpt lat="44.58360470403538" lon="7.4311522739394205"><ele>1128.5</ele><time>2026-04-11T09:37:31.999Z</time></trkpt><trkpt lat="44.58352320759016" lon="7.431278008070652"><ele>1127.75</ele><time>2026-04-11T09:37:33.999Z</time></trkpt><trkpt lat="44.58349578153196" lon="7.431475576282449"><ele>1127.0</ele><time>2026-04-11T09:37:34.999Z</time></trkpt><trkpt lat="44.58345925470185" lon="7.4316437403517135"><ele>1123.2</ele><time>2026-04-11T09:37:36.999Z</time></trkpt><trkpt lat="44.583401551977836" lon="7.431748835742685"><ele>1119.4</ele><time>2026-04-11T09:37:38.999Z</time></trkpt><trkpt lat="44.58333563761814" lon="7.431873954381498"><ele>1115.6</ele><time>2026-04-11T09:37:40.999Z</time></trkpt><trkpt lat="44.583227350962034" lon="7.431886476300992"><ele>1111.8</ele><time>2026-04-11T09:37:42.999Z</time></trkpt><trkpt lat="44.5831630129917" lon="7.431957147289233"><ele>1108.0</ele><time>2026-04-11T09:37:45.999Z</time></trkpt><trkpt lat="44.583087339575" lon="7.431951312334358"><ele>1108.0</ele><time>2026-04-11T09:37:47.999Z</time></trkpt><trkpt lat="44.58304547208731" lon="7.432081347409308"><ele>1108.0</ele><time>2026-04-11T09:37:49.998Z</time></trkpt><trkpt lat="44.58302760839033" lon="7.432170712448197"><ele>1108.0</ele><time>2026-04-11T09:37:50.998Z</time></trkpt><trkpt lat="44.58304600430103" lon="7.432256072657466"><ele>1108.0</ele><time>2026-04-11T09:37:52.998Z</time></trkpt><trkpt lat="44.582989601883185" lon="7.4323013214293345"><ele>1108.0</ele><time>2026-04-11T09:37:55.998Z</time></trkpt><trkpt lat="44.582976751470454" lon="7.43240423400874"><ele>1108.0</ele><time>2026-04-11T09:37:57.998Z</time></trkpt><trkpt lat="44.58289930191672" lon="7.432409837605114"><ele>1108.0</ele><time>2026-04-11T09:37:59.998Z</time></trkpt><trkpt lat="44.582817075008734" lon="7.432422471029632"><ele>1100.6</ele><time>2026-04-11T09:38:02.998Z</time></trkpt><trkpt lat="44.58278530179093" lon="7.432511260510617"><ele>1093.1999999999998</ele><time>2026-04-11T09:38:06Z</time></trkpt><trkpt lat="44.582708441670675" lon="7.432550469097016"><ele>1085.8</ele><time>2026-04-11T09:38:08Z</time></trkpt><trkpt lat="44.58259376654412" lon="7.432574497355332"><ele>1078.3999999999999</ele><time>2026-04-11T09:38:10Z</time></trkpt><trkpt lat="44.58247678887538" lon="7.432569840272363"><ele>1071.0</ele><time>2026-04-11T09:38:12Z</time></trkpt><trkpt lat="44.58240997771243" lon="7.432667034975832"><ele>1071.0</ele><time>2026-04-11T09:38:14Z</time></trkpt><trkpt lat="44.582423542843586" lon="7.432754992939916"><ele>1071.0</ele><time>2026-04-11T09:38:16Z</time></trkpt><trkpt lat="44.58242443314502" lon="7.432861214318304"><ele>1071.0</ele><time>2026-04-11T09:38:19Z</time></trkpt><trkpt lat="44.58243983607006" lon="7.432964365353861"><ele>1071.0</ele><time>2026-04-11T09:38:22Z</time></trkpt><trkpt lat="44.58242613156494" lon="7.433100794714123"><ele>1071.0</ele><time>2026-04-11T09:38:24Z</time></trkpt><trkpt lat="44.5824355881597" lon="7.433199064799512"><ele>1071.0</ele><time>2026-04-11T09:38:57Z</time></trkpt><trkpt lat="44.582485666369415" lon="7.4332893280413925"><ele>1067.8</ele><time>2026-04-11T09:39:00Z</time></trkpt><trkpt lat="44.58255254191189" lon="7.433375828060625"><ele>1064.6</ele><time>2026-04-11T09:39:01.999Z</time></trkpt><trkpt lat="44.58256336860884" lon="7.433574203787846"><ele>1061.4</ele><time>2026-04-11T09:39:03.999Z</time></trkpt><trkpt lat="44.58257128128895" lon="7.433707808680994"><ele>1058.2</ele><time>2026-04-11T09:39:05.999Z</time></trkpt><trkpt lat="44.58268557781681" lon="7.433691542079995"><ele>1055.0</ele><time>2026-04-11T09:39:08.999Z</time></trkpt><trkpt lat="44.58275006747268" lon="7.4336636815981"><ele>1055.0</ele><time>2026-04-11T09:39:09.999Z</time></trkpt><trkpt lat="44.5828065949935" lon="7.433706078956498"><ele>1055.0</ele><time>2026-04-11T09:39:11.999Z</time></trkpt><trkpt lat="44.58286650428352" lon="7.433780266823548"><ele>1055.0</ele><time>2026-04-11T09:39:13.999Z</time></trkpt><trkpt lat="44.58284751019716" lon="7.433877405502922"><ele>1055.0</ele><time>2026-04-11T09:39:16.999Z</time></trkpt><trkpt lat="44.5828280585945" lon="7.434042813263081"><ele>1055.0</ele><time>2026-04-11T09:39:19.999Z</time></trkpt><trkpt lat="44.582811465963225" lon="7.434133455594248"><ele>1055.0</ele><time>2026-04-11T09:39:20.999Z</time></trkpt><trkpt lat="44.58280802308283" lon="7.434241792366836"><ele>1054.4</ele><time>2026-04-11T09:39:23.999Z</time></trkpt><trkpt lat="44.58288005957628" lon="7.434330345004758"><ele>1053.8</ele><time>2026-04-11T09:39:25.999Z</time></trkpt><trkpt lat="44.58288586427361" lon="7.434455354068317"><ele>1053.2</ele><time>2026-04-11T09:39:27.999Z</time></trkpt><trkpt lat="44.58284177005355" lon="7.434607805526464"><ele>1052.6</ele><time>2026-04-11T09:39:29.999Z</time></trkpt><trkpt lat="44.582788237864406" lon="7.434720521529816"><ele>1052.0</ele><time>2026-04-11T09:39:30.999Z</time></trkpt><trkpt lat="44.5827313559445" lon="7.434803647491472"><ele>1046.3333333333335</ele><time>2026-04-11T09:39:31.999Z</time></trkpt><trkpt lat="44.58267676263986" lon="7.434933728432513"><ele>1040.6666666666667</ele><time>2026-04-11T09:39:33.999Z</time></trkpt><trkpt lat="44.58265806701385" lon="7.435022449644713"><ele>1035.0</ele><time>2026-04-11T09:39:34.999Z</time></trkpt><trkpt lat="44.5826777919546" lon="7.4351457149678755"><ele>1029.3333333333333</ele><time>2026-04-11T09:39:36.999Z</time></trkpt><trkpt lat="44.58272444273857" lon="7.43526221818021"><ele>1023.6666666666666</ele><time>2026-04-11T09:39:38.999Z</time></trkpt><trkpt lat="44.58274681782955" lon="7.435381489247719"><ele>1018.0</ele><time>2026-04-11T09:39:40.999Z</time></trkpt><trkpt lat="44.58273172304798" lon="7.43549958711492"><ele>1014.9999999999999</ele><time>2026-04-11T09:39:42.999Z</time></trkpt><trkpt lat="44.582726106159264" lon="7.435624607819962"><ele>1012.0</ele><time>2026-04-11T09:39:45.999Z</time></trkpt><trkpt lat="44.58269092671005" lon="7.4357180442489"><ele>1009.0</ele><time>2026-04-11T09:39:46.999Z</time></trkpt><trkpt lat="44.58266573576148" lon="7.435804733404723"><ele>1006.0</ele><time>2026-04-11T09:39:47.999Z</time></trkpt><trkpt lat="44.582619920231885" lon="7.435866559744219"><ele>1002.9999999999999</ele><time>2026-04-11T09:39:48.999Z</time></trkpt><trkpt lat="44.582546457543934" lon="7.435887166015843"><ele>1000.0</ele><time>2026-04-11T09:39:49.999Z</time></trkpt><trkpt lat="44.58244707671533" lon="7.435860249610247"><ele>999.9999999999999</ele><time>2026-04-11T09:39:51.999Z</time></trkpt><trkpt lat="44.582411717572946" lon="7.435984802237439"><ele>1000.0</ele><time>2026-04-11T09:39:54.998Z</time></trkpt><trkpt lat="44.58237056000604" lon="7.4360741453633565"><ele>1000.0</ele><time>2026-04-11T09:39:57.998Z</time></trkpt><trkpt lat="44.58235931422034" lon="7.436215871854951"><ele>1000.0</ele><time>2026-04-11T09:40:01.998Z</time></trkpt><trkpt lat="44.58229652293515" lon="7.4363285564311035"><ele>999.9999999999999</ele><time>2026-04-11T09:40:03.998Z</time></trkpt><trkpt lat="44.58229768382143" lon="7.436427939855307"><ele>1000.0</ele><time>2026-04-11T09:40:04.998Z</time></trkpt><trkpt lat="44.58223584130009" lon="7.4365492996969405"><ele>997.3333333333333</ele><time>2026-04-11T09:40:06.998Z</time></trkpt><trkpt lat="44.5821507088466" lon="7.436612410339727"><ele>994.6666666666666</ele><time>2026-04-11T09:40:08.998Z</time></trkpt><trkpt lat="44.58206150021512" lon="7.436575930251919"><ele>992.0</ele><time>2026-04-11T09:40:11Z</time></trkpt><trkpt lat="44.58200764039986" lon="7.436639426435194"><ele>989.3333333333333</ele><time>2026-04-11T09:40:14Z</time></trkpt><trkpt lat="44.58192921028074" lon="7.436609407470731"><ele>986.6666666666666</ele><time>2026-04-11T09:40:15Z</time></trkpt><trkpt lat="44.581829742047404" lon="7.436664067280388"><ele>984.0</ele><time>2026-04-11T09:40:17Z</time></trkpt><trkpt lat="44.581762725352796" lon="7.436713652840759"><ele>982.8333333333334</ele><time>2026-04-11T09:40:18Z</time></trkpt><trkpt lat="44.58170643632599" lon="7.43675536512151"><ele>981.6666666666667</ele><time>2026-04-11T09:40:19Z</time></trkpt><trkpt lat="44.5816443384948" lon="7.436809417096598"><ele>980.5</ele><time>2026-04-11T09:40:21Z</time></trkpt><trkpt lat="44.581670147662784" lon="7.436931885997499"><ele>979.3333333333334</ele><time>2026-04-11T09:40:23Z</time></trkpt><trkpt lat="44.581681034426175" lon="7.4370275081323"><ele>978.1666666666667</ele><time>2026-04-11T09:40:24Z</time></trkpt><trkpt lat="44.58169678887697" lon="7.4371166827571695"><ele>977.0</ele><time>2026-04-11T09:40:25Z</time></trkpt><trkpt lat="44.58175183954459" lon="7.4372167059644045"><ele>974.8</ele><time>2026-04-11T09:40:27Z</time></trkpt><trkpt lat="44.581847623500494" lon="7.4372483218289664"><ele>972.6</ele><time>2026-04-11T09:40:29Z</time></trkpt><trkpt lat="44.58193843804674" lon="7.437242239824193"><ele>970.3999999999999</ele><time>2026-04-11T09:40:37Z</time></trkpt><trkpt lat="44.582002490472156" lon="7.437284413285821"><ele>968.1999999999999</ele><time>2026-04-11T09:40:42Z</time></trkpt><trkpt lat="44.582108867820075" lon="7.4372902969520425"><ele>966.0</ele><time>2026-04-11T09:40:45Z</time></trkpt><trkpt lat="44.58221455284066" lon="7.437299838163395"><ele>966.0</ele><time>2026-04-11T09:40:47Z</time></trkpt><trkpt lat="44.58228316742454" lon="7.437411335265864"><ele>965.9999999999999</ele><time>2026-04-11T09:40:49Z</time></trkpt><trkpt lat="44.582259961921494" lon="7.437565097662814"><ele>965.9999999999999</ele><time>2026-04-11T09:40:51Z</time></trkpt><trkpt lat="44.58219863883598" lon="7.437608641622243"><ele>966.0</ele><time>2026-04-11T09:40:52Z</time></trkpt><trkpt lat="44.58211963387994" lon="7.43763068196719"><ele>966.0</ele><time>2026-04-11T09:40:53Z</time></trkpt><trkpt lat="44.58199506895404" lon="7.437630136510805"><ele>965.1999999999999</ele><time>2026-04-11T09:40:55Z</time></trkpt><trkpt lat="44.58191635642347" lon="7.437624602942443"><ele>964.3999999999999</ele><time>2026-04-11T09:40:56Z</time></trkpt><trkpt lat="44.581824561971466" lon="7.437635105806094"><ele>963.6</ele><time>2026-04-11T09:40:57Z</time></trkpt><trkpt lat="44.58172662956839" lon="7.437611772071275"><ele>962.8</ele><time>2026-04-11T09:40:58Z</time></trkpt><trkpt lat="44.581659865727524" lon="7.437584291866232"><ele>962.0</ele><time>2026-04-11T09:40:59Z</time></trkpt><trkpt lat="44.581539073240926" lon="7.4376116254055376"><ele>962.0000000000001</ele><time>2026-04-11T09:41:01Z</time></trkpt><trkpt lat="44.58145952044112" lon="7.437632699219776"><ele>962.0</ele><time>2026-04-11T09:41:02Z</time></trkpt><trkpt lat="44.58135676540817" lon="7.437634947352426"><ele>962.0</ele><time>2026-04-11T09:41:03Z</time></trkpt><trkpt lat="44.58128991282294" lon="7.437619686587115"><ele>962.0</ele><time>2026-04-11T09:41:03.999Z</time></trkpt><trkpt lat="44.58121757817295" lon="7.437716013715969"><ele>962.0000000000001</ele><time>2026-04-11T09:41:05.999Z</time></trkpt><trkpt lat="44.58115629357018" lon="7.437773466616091"><ele>962.0</ele><time>2026-04-11T09:41:06.999Z</time></trkpt><trkpt lat="44.58109767912471" lon="7.437811571214924"><ele>960.1666666666667</ele><time>2026-04-11T09:41:07.999Z</time></trkpt><trkpt lat="44.58098674745484" lon="7.437883666098634"><ele>958.3333333333334</ele><time>2026-04-11T09:41:09.999Z</time></trkpt><trkpt lat="44.58092973276187" lon="7.437929423170431"><ele>956.5</ele><time>2026-04-11T09:41:10.999Z</time></trkpt><trkpt lat="44.58084308184964" lon="7.437909413116316"><ele>954.6666666666667</ele><time>2026-04-11T09:41:12.999Z</time></trkpt><trkpt lat="44.580795909983955" lon="7.437998837919001"><ele>952.8333333333334</ele><time>2026-04-11T09:41:14.999Z</time></trkpt><trkpt lat="44.58081760514118" lon="7.438089111233523"><ele>951.0</ele><time>2026-04-11T09:41:18.999Z</time></trkpt><trkpt lat="44.58082112084611" lon="7.4381794491854265"><ele>948.6666666666666</ele><time>2026-04-11T09:41:23.999Z</time></trkpt><trkpt lat="44.58074857502485" lon="7.43821272218577"><ele>946.3333333333333</ele><time>2026-04-11T09:41:25.999Z</time></trkpt><trkpt lat="44.58072714778218" lon="7.43833239748739"><ele>944.0</ele><time>2026-04-11T09:41:28.999Z</time></trkpt><trkpt lat="44.58067124010696" lon="7.438463004742041"><ele>941.6666666666666</ele><time>2026-04-11T09:41:30.999Z</time></trkpt><trkpt lat="44.580632729956" lon="7.438553058672432"><ele>939.3333333333333</ele><time>2026-04-11T09:41:32.999Z</time></trkpt><trkpt lat="44.58060102048308" lon="7.438670406434804"><ele>937.0</ele><time>2026-04-11T09:41:35.999Z</time></trkpt><trkpt lat="44.58059184852757" lon="7.438777179254254"><ele>934.3333333333333</ele><time>2026-04-11T09:41:36.999Z</time></trkpt><trkpt lat="44.58059723113384" lon="7.438892535838745"><ele>931.6666666666666</ele><time>2026-04-11T09:41:37.999Z</time></trkpt><trkpt lat="44.58060867984336" lon="7.43898394671701"><ele>929.0</ele><time>2026-04-11T09:41:38.999Z</time></trkpt><trkpt lat="44.58060608586188" lon="7.43913969329023"><ele>926.3333333333333</ele><time>2026-04-11T09:41:40.999Z</time></trkpt><trkpt lat="44.58060598949728" lon="7.439249750465458"><ele>923.6666666666666</ele><time>2026-04-11T09:41:43.999Z</time></trkpt><trkpt lat="44.58053068458601" lon="7.439226978910636"><ele>921.0</ele><time>2026-04-11T09:41:46.999Z</time></trkpt><trkpt lat="44.58050121221096" lon="7.439336102900141"><ele>921.0</ele><time>2026-04-11T09:41:49.999Z</time></trkpt><trkpt lat="44.58049426960127" lon="7.439453542999152"><ele>921.0</ele><time>2026-04-11T09:41:51.999Z</time></trkpt><trkpt lat="44.58048547292029" lon="7.439576380041694"><ele>921.0</ele><time>2026-04-11T09:41:52.999Z</time></trkpt><trkpt lat="44.58047874872002" lon="7.439677729489244"><ele>921.0</ele><time>2026-04-11T09:41:53.999Z</time></trkpt><trkpt lat="44.58053766336573" lon="7.439729963721753"><ele>921.0</ele><time>2026-04-11T09:41:56.998Z</time></trkpt><trkpt lat="44.58062366413079" lon="7.439758507124184"><ele>921.0</ele><time>2026-04-11T09:42:00.998Z</time></trkpt><trkpt lat="44.58069223568898" lon="7.439758661905474"><ele>918.1666666666666</ele><time>2026-04-11T09:42:02.998Z</time></trkpt><trkpt lat="44.58075208180398" lon="7.439797526889954"><ele>915.3333333333333</ele><time>2026-04-11T09:42:05.998Z</time></trkpt><trkpt lat="44.580793288049705" lon="7.439869236112871"><ele>912.5</ele><time>2026-04-11T09:42:07.998Z</time></trkpt><trkpt lat="44.58081536711204" lon="7.440016317840189"><ele>909.6666666666666</ele><time>2026-04-11T09:42:09.998Z</time></trkpt><trkpt lat="44.5808357002402" lon="7.440107953740894"><ele>906.8333333333333</ele><time>2026-04-11T09:42:10.998Z</time></trkpt><trkpt lat="44.58083643186977" lon="7.44021277564181"><ele>904.0</ele><time>2026-04-11T09:42:11.998Z</time></trkpt><trkpt lat="44.580853002271475" lon="7.440327372930604"><ele>903.9999999999999</ele><time>2026-04-11T09:42:12.998Z</time></trkpt><trkpt lat="44.580827991901934" lon="7.440460244328685"><ele>904.0</ele><time>2026-04-11T09:42:14.998Z</time></trkpt><trkpt lat="44.58081111016197" lon="7.440558079399399"><ele>904.0</ele><time>2026-04-11T09:42:15.998Z</time></trkpt><trkpt lat="44.58074850209789" lon="7.440613098365632"><ele>904.0</ele><time>2026-04-11T09:42:17Z</time></trkpt><trkpt lat="44.58065642926507" lon="7.440700194163322"><ele>903.9999999999999</ele><time>2026-04-11T09:42:20Z</time></trkpt><trkpt lat="44.580565995922186" lon="7.440734290837989"><ele>904.0</ele><time>2026-04-11T09:42:22Z</time></trkpt><trkpt lat="44.58050636039988" lon="7.440841650208235"><ele>900.9999999999999</ele><time>2026-04-11T09:42:24Z</time></trkpt><trkpt lat="44.58040590330755" lon="7.440935982420264"><ele>898.0</ele><time>2026-04-11T09:42:26Z</time></trkpt><trkpt lat="44.58034205342651" lon="7.4409519313451415"><ele>895.0</ele><time>2026-04-11T09:42:28Z</time></trkpt><trkpt lat="44.58028952202099" lon="7.441039910658992"><ele>892.0</ele><time>2026-04-11T09:42:30Z</time></trkpt><trkpt lat="44.58024702667616" lon="7.441115509829884"><ele>888.9999999999999</ele><time>2026-04-11T09:42:31Z</time></trkpt><trkpt lat="44.580200584620286" lon="7.441190778484535"><ele>886.0</ele><time>2026-04-11T09:42:33Z</time></trkpt><trkpt lat="44.580133720585316" lon="7.441185473685756"><ele>884.4999999999999</ele><time>2026-04-11T09:42:35Z</time></trkpt><trkpt lat="44.580007805349325" lon="7.441181206253122"><ele>883.0</ele><time>2026-04-11T09:42:38Z</time></trkpt><trkpt lat="44.57993747969733" lon="7.441164539181156"><ele>881.5</ele><time>2026-04-11T09:42:40Z</time></trkpt><trkpt lat="44.5798837040815" lon="7.441252706065375"><ele>880.0</ele><time>2026-04-11T09:42:43Z</time></trkpt><trkpt lat="44.579809789840745" lon="7.441255975686359"><ele>878.4999999999999</ele><time>2026-04-11T09:42:47Z</time></trkpt><trkpt lat="44.57974263876215" lon="7.4412617650443496"><ele>877.0</ele><time>2026-04-11T09:42:50Z</time></trkpt><trkpt lat="44.57971126546809" lon="7.441184316527674"><ele>877.0000000000001</ele><time>2026-04-11T09:42:52Z</time></trkpt><trkpt lat="44.57965404665778" lon="7.441117255332004"><ele>877.0</ele><time>2026-04-11T09:42:55Z</time></trkpt><trkpt lat="44.57959438763867" lon="7.4410833677528165"><ele>877.0</ele><time>2026-04-11T09:42:58Z</time></trkpt><trkpt lat="44.57955432752808" lon="7.441001270087723"><ele>877.0</ele><time>2026-04-11T09:43:01Z</time></trkpt><trkpt lat="44.579506831805176" lon="7.4409284404017875"><ele>877.0</ele><time>2026-04-11T09:43:03Z</time></trkpt><trkpt lat="44.57944543477724" lon="7.440956409453285"><ele>877.0000000000001</ele><time>2026-04-11T09:43:05Z</time></trkpt><trkpt lat="44.579381727732056" lon="7.440953211996638"><ele>877.0</ele><time>2026-04-11T09:43:09Z</time></trkpt><trkpt lat="44.57926103961385" lon="7.4408515010159215"><ele>874.2</ele><time>2026-04-11T09:43:27.999Z</time></trkpt><trkpt lat="44.5792271173869" lon="7.440960008533506"><ele>871.4000000000001</ele><time>2026-04-11T09:43:35.999Z</time></trkpt><trkpt lat="44.579231473288445" lon="7.441077495221659"><ele>868.5999999999999</ele><time>2026-04-11T09:43:37.999Z</time></trkpt><trkpt lat="44.57920277738685" lon="7.441200885530898"><ele>865.8</ele><time>2026-04-11T09:43:40.999Z</time></trkpt><trkpt lat="44.57917143563249" lon="7.441374414783334"><ele>863.0</ele><time>2026-04-11T09:43:42.999Z</time></trkpt><trkpt lat="44.5791469983162" lon="7.4415481597138085"><ele>861.1666666666667</ele><time>2026-04-11T09:43:44.999Z</time></trkpt><trkpt lat="44.579154819898804" lon="7.441642477887588"><ele>859.3333333333334</ele><time>2026-04-11T09:43:45.999Z</time></trkpt><trkpt lat="44.57915952247736" lon="7.441773017932553"><ele>857.5</ele><time>2026-04-11T09:43:47.999Z</time></trkpt><trkpt lat="44.57917573810367" lon="7.441917645289302"><ele>855.6666666666667</ele><time>2026-04-11T09:43:49.999Z</time></trkpt><trkpt lat="44.579142030030454" lon="7.442020492289852"><ele>853.8333333333334</ele><time>2026-04-11T09:43:51.999Z</time></trkpt><trkpt lat="44.57912059487725" lon="7.442110333887977"><ele>852.0</ele><time>2026-04-11T09:43:54.999Z</time></trkpt><trkpt lat="44.579068792624106" lon="7.442185973214131"><ele>850.5</ele><time>2026-04-11T09:44:07.998Z</time></trkpt><trkpt lat="44.57899755197924" lon="7.4422749239528905"><ele>849.0</ele><time>2026-04-11T09:44:11.998Z</time></trkpt><trkpt lat="44.57892617394549" lon="7.4423267268606725"><ele>847.5</ele><time>2026-04-11T09:44:13.998Z</time></trkpt><trkpt lat="44.57885296238787" lon="7.442393564344598"><ele>846.0</ele><time>2026-04-11T09:44:15.998Z</time></trkpt><trkpt lat="44.57877542826897" lon="7.442409137756411"><ele>844.5</ele><time>2026-04-11T09:44:17.998Z</time></trkpt><trkpt lat="44.57870893071753" lon="7.442384315166423"><ele>843.0</ele><time>2026-04-11T09:44:19.998Z</time></trkpt><trkpt lat="44.57861903002717" lon="7.4423639454143915"><ele>843.0</ele><time>2026-04-11T09:44:21.998Z</time></trkpt><trkpt lat="44.57851645688342" lon="7.442342082812104"><ele>843.0</ele><time>2026-04-11T09:44:24Z</time></trkpt><trkpt lat="44.57842386127418" lon="7.442390243448921"><ele>843.0</ele><time>2026-04-11T09:44:26Z</time></trkpt><trkpt lat="44.57836299744462" lon="7.442413048420948"><ele>843.0</ele><time>2026-04-11T09:44:27Z</time></trkpt><trkpt lat="44.57826224392691" lon="7.442477429894049"><ele>843.0</ele><time>2026-04-11T09:44:29Z</time></trkpt><trkpt lat="44.57819314143965" lon="7.4425635786142195"><ele>843.0</ele><time>2026-04-11T09:44:31Z</time></trkpt><trkpt lat="44.57810983422675" lon="7.44268463032964"><ele>843.0</ele><time>2026-04-11T09:44:33Z</time></trkpt><trkpt lat="44.57802266319536" lon="7.442800486640734"><ele>843.0</ele><time>2026-04-11T09:44:35Z</time></trkpt><trkpt lat="44.577936731905844" lon="7.442913458685887"><ele>843.0</ele><time>2026-04-11T09:44:37Z</time></trkpt><trkpt lat="44.577829926799446" lon="7.443015604871615"><ele>842.0</ele><time>2026-04-11T09:44:39Z</time></trkpt><trkpt lat="44.577753835587416" lon="7.443039558648272"><ele>841.0</ele><time>2026-04-11T09:44:40Z</time></trkpt><trkpt lat="44.577655066715536" lon="7.443046674576098"><ele>840.0</ele><time>2026-04-11T09:44:41Z</time></trkpt><trkpt lat="44.57757233671265" lon="7.443021057358904"><ele>839.0</ele><time>2026-04-11T09:44:42Z</time></trkpt><trkpt lat="44.577480214164964" lon="7.442935670993386"><ele>838.0</ele><time>2026-04-11T09:44:43Z</time></trkpt><trkpt lat="44.57741113846656" lon="7.442828840258972"><ele>838.0</ele><time>2026-04-11T09:44:44Z</time></trkpt><trkpt lat="44.57735711353938" lon="7.442718512001873"><ele>838.0</ele><time>2026-04-11T09:44:45Z</time></trkpt><trkpt lat="44.5772513028188" lon="7.442585164203507"><ele>838.0</ele><time>2026-04-11T09:44:46Z</time></trkpt><trkpt lat="44.57717321644969" lon="7.442481894798951"><ele>838.0</ele><time>2026-04-11T09:44:47Z</time></trkpt><trkpt lat="44.57711197981568" lon="7.442411016161867"><ele>838.0</ele><time>2026-04-11T09:44:48Z</time></trkpt><trkpt lat="44.57703968935243" lon="7.4424123229782175"><ele>836.1666666666666</ele><time>2026-04-11T09:44:50Z</time></trkpt><trkpt lat="44.5769953552028" lon="7.442513068048576"><ele>834.3333333333333</ele><time>2026-04-11T09:44:55Z</time></trkpt><trkpt lat="44.576935986443026" lon="7.442479999022209"><ele>832.5</ele><time>2026-04-11T09:44:59Z</time></trkpt><trkpt lat="44.57686731017086" lon="7.4424198297541535"><ele>830.6666666666667</ele><time>2026-04-11T09:45:02Z</time></trkpt><trkpt lat="44.57679149042698" lon="7.4423752887459305"><ele>828.8333333333334</ele><time>2026-04-11T09:45:05Z</time></trkpt><trkpt lat="44.57671991236946" lon="7.442323762621016"><ele>827.0</ele><time>2026-04-11T09:45:08Z</time></trkpt><trkpt lat="44.576675734196556" lon="7.442254520032001"><ele>827.0000000000001</ele><time>2026-04-11T09:45:11Z</time></trkpt><trkpt lat="44.57662502652946" lon="7.442198331052592"><ele>827.0</ele><time>2026-04-11T09:45:13Z</time></trkpt><trkpt lat="44.57655643221874" lon="7.442136176895503"><ele>827.0</ele><time>2026-04-11T09:45:15.999Z</time></trkpt><trkpt lat="44.57648447371366" lon="7.442063128389561"><ele>827.0</ele><time>2026-04-11T09:45:18.999Z</time></trkpt><trkpt lat="44.57640937547926" lon="7.441979919683868"><ele>827.0000000000001</ele><time>2026-04-11T09:45:21.999Z</time></trkpt><trkpt lat="44.576338561814445" lon="7.4418970344129605"><ele>827.0</ele><time>2026-04-11T09:45:24.999Z</time></trkpt><trkpt lat="44.57627845701877" lon="7.441816150238373"><ele>828.6666666666667</ele><time>2026-04-11T09:45:27.999Z</time></trkpt><trkpt lat="44.57622389040584" lon="7.4417319617975775"><ele>830.3333333333334</ele><time>2026-04-11T09:45:30.999Z</time></trkpt><trkpt lat="44.576173015975485" lon="7.441662914562285"><ele>832.0</ele><time>2026-04-11T09:45:33.999Z</time></trkpt><trkpt lat="44.57611436638551" lon="7.4415866652003935"><ele>833.6666666666667</ele><time>2026-04-11T09:45:36.999Z</time></trkpt><trkpt lat="44.576058164630375" lon="7.441514812514642"><ele>835.3333333333334</ele><time>2026-04-11T09:45:39.999Z</time></trkpt><trkpt lat="44.57600417875624" lon="7.441441528842016"><ele>837.0</ele><time>2026-04-11T09:45:42.999Z</time></trkpt><trkpt lat="44.575951827783086" lon="7.441369282344116"><ele>837.0</ele><time>2026-04-11T09:45:45.999Z</time></trkpt><trkpt lat="44.575885133877065" lon="7.441309548897425"><ele>837.0</ele><time>2026-04-11T09:45:48.999Z</time></trkpt><trkpt lat="44.575822888226206" lon="7.441249424228656"><ele>837.0</ele><time>2026-04-11T09:45:51.999Z</time></trkpt><trkpt lat="44.575769776485195" lon="7.44118097261483"><ele>837.0</ele><time>2026-04-11T09:45:54.999Z</time></trkpt><trkpt lat="44.57571241754242" lon="7.441113785292771"><ele>837.0</ele><time>2026-04-11T09:45:57.999Z</time></trkpt><trkpt lat="44.57565481432699" lon="7.441027505233847"><ele>837.0</ele><time>2026-04-11T09:46:01.999Z</time></trkpt><trkpt lat="44.5756161075233" lon="7.440942744864851"><ele>840.5</ele><time>2026-04-11T09:46:04.999Z</time></trkpt><trkpt lat="44.57559908008455" lon="7.440817292103162"><ele>844.0</ele><time>2026-04-11T09:46:07.999Z</time></trkpt><trkpt lat="44.57555056377532" lon="7.4407274336629"><ele>847.5</ele><time>2026-04-11T09:46:10.998Z</time></trkpt><trkpt lat="44.57550133489558" lon="7.440629959011131"><ele>851.0</ele><time>2026-04-11T09:46:13.998Z</time></trkpt><trkpt lat="44.57542766656059" lon="7.440560076776873"><ele>854.5</ele><time>2026-04-11T09:46:16.998Z</time></trkpt><trkpt lat="44.575356887297005" lon="7.440505186229394"><ele>858.0</ele><time>2026-04-11T09:46:19.998Z</time></trkpt><trkpt lat="44.57529996746231" lon="7.440457166290217"><ele>858.0</ele><time>2026-04-11T09:46:21.998Z</time></trkpt><trkpt lat="44.575246816030045" lon="7.440386608771247"><ele>858.0</ele><time>2026-04-11T09:46:24.998Z</time></trkpt><trkpt lat="44.57521837918288" lon="7.440284973833581"><ele>858.0</ele><time>2026-04-11T09:46:29Z</time></trkpt><trkpt lat="44.57518310448703" lon="7.440194563313889"><ele>858.0</ele><time>2026-04-11T09:46:33Z</time></trkpt><trkpt lat="44.57516544695429" lon="7.440086592255336"><ele>858.0</ele><time>2026-04-11T09:46:36Z</time></trkpt><trkpt lat="44.57515254887143" lon="7.439987153712616"><ele>858.0</ele><time>2026-04-11T09:46:39Z</time></trkpt><trkpt lat="44.575136793942335" lon="7.439895557859108"><ele>858.0</ele><time>2026-04-11T09:46:42Z</time></trkpt><trkpt lat="44.57509951058553" lon="7.439792157915582"><ele>858.0</ele><time>2026-04-11T09:46:46Z</time></trkpt><trkpt lat="44.57505513790766" lon="7.439695162456997"><ele>858.0</ele><time>2026-04-11T09:46:49Z</time></trkpt><trkpt lat="44.57502990468031" lon="7.4396095995578575"><ele>858.0</ele><time>2026-04-11T09:46:51Z</time></trkpt><trkpt lat="44.5749834516281" lon="7.439544361706223"><ele>858.0</ele><time>2026-04-11T09:46:53Z</time></trkpt><trkpt lat="44.57492941124498" lon="7.439444334742321"><ele>858.0</ele><time>2026-04-11T09:46:56Z</time></trkpt><trkpt lat="44.574861021302205" lon="7.439337470769331"><ele>858.0</ele><time>2026-04-11T09:46:59Z</time></trkpt><trkpt lat="44.574782826649994" lon="7.439286284411142"><ele>860.3333333333334</ele><time>2026-04-11T09:47:01Z</time></trkpt><trkpt lat="44.57470087388764" lon="7.439240550330375"><ele>862.6666666666667</ele><time>2026-04-11T09:47:03Z</time></trkpt><trkpt lat="44.57464633410391" lon="7.4391757281398725"><ele>865.0</ele><time>2026-04-11T09:47:05Z</time></trkpt><trkpt lat="44.57458397261368" lon="7.439098670501746"><ele>867.3333333333334</ele><time>2026-04-11T09:47:07Z</time></trkpt><trkpt lat="44.57453322634598" lon="7.439043166824971"><ele>869.6666666666667</ele><time>2026-04-11T09:47:08Z</time></trkpt><trkpt lat="44.57446648095857" lon="7.439089246575209"><ele>872.0</ele><time>2026-04-11T09:47:10Z</time></trkpt><trkpt lat="44.57445001680855" lon="7.439392551135377"><ele>872.0</ele><time>2026-04-11T09:47:11Z</time></trkpt><trkpt lat="44.57435688062057" lon="7.439503649321997"><ele>872.0</ele><time>2026-04-11T09:47:13Z</time></trkpt><trkpt lat="44.57426153999319" lon="7.439514193671127"><ele>872.0</ele><time>2026-04-11T09:47:15Z</time></trkpt><trkpt lat="44.57414270337845" lon="7.439561683624139"><ele>872.0</ele><time>2026-04-11T09:47:17Z</time></trkpt><trkpt lat="44.57408773640717" lon="7.4396077958755304"><ele>872.0</ele><time>2026-04-11T09:47:18Z</time></trkpt><trkpt lat="44.57401716892429" lon="7.439677468325139"><ele>869.8333333333334</ele><time>2026-04-11T09:47:19Z</time></trkpt><trkpt lat="44.573942505949596" lon="7.439777203633869"><ele>867.6666666666667</ele><time>2026-04-11T09:47:20Z</time></trkpt><trkpt lat="44.573891338873715" lon="7.439894043101853"><ele>865.5</ele><time>2026-04-11T09:47:21Z</time></trkpt><trkpt lat="44.573860640315694" lon="7.439996946007264"><ele>863.3333333333333</ele><time>2026-04-11T09:47:21.999Z</time></trkpt><trkpt lat="44.573860041961304" lon="7.440103739848196"><ele>861.1666666666666</ele><time>2026-04-11T09:47:32.999Z</time></trkpt><trkpt lat="44.57388722695243" lon="7.440213807769867"><ele>859.0</ele><time>2026-04-11T09:47:49.999Z</time></trkpt><trkpt lat="44.57384426198599" lon="7.440339446879955"><ele>858.9999999999999</ele><time>2026-04-11T09:47:51.999Z</time></trkpt><trkpt lat="44.573824155436576" lon="7.440425121454934"><ele>859.0</ele><time>2026-04-11T09:47:52.999Z</time></trkpt><trkpt lat="44.57379395454718" lon="7.440516908362346"><ele>859.0</ele><time>2026-04-11T09:47:53.999Z</time></trkpt><trkpt lat="44.57374091286494" lon="7.440595015888045"><ele>859.0</ele><time>2026-04-11T09:47:54.999Z</time></trkpt><trkpt lat="44.573700012543554" lon="7.440688896105259"><ele>858.9999999999999</ele><time>2026-04-11T09:47:55.999Z</time></trkpt><trkpt lat="44.57364041220555" lon="7.440775861694696"><ele>859.0</ele><time>2026-04-11T09:47:56.999Z</time></trkpt><trkpt lat="44.573584858056314" lon="7.440880305015883"><ele>856.3333333333333</ele><time>2026-04-11T09:47:57.999Z</time></trkpt><trkpt lat="44.57350868303958" lon="7.440964042182761"><ele>853.6666666666666</ele><time>2026-04-11T09:47:58.999Z</time></trkpt><trkpt lat="44.57345877921631" lon="7.441038782106306"><ele>851.0</ele><time>2026-04-11T09:47:59.999Z</time></trkpt><trkpt lat="44.57342382177157" lon="7.441112638539388"><ele>848.3333333333333</ele><time>2026-04-11T09:48:00.999Z</time></trkpt><trkpt lat="44.573434142059654" lon="7.441216695196639"><ele>845.6666666666666</ele><time>2026-04-11T09:48:03.999Z</time></trkpt><trkpt lat="44.573374708671416" lon="7.441273171354194"><ele>843.0</ele><time>2026-04-11T09:48:07.999Z</time></trkpt><trkpt lat="44.57333254143681" lon="7.441371372919287"><ele>841.3333333333334</ele><time>2026-04-11T09:48:09.999Z</time></trkpt><trkpt lat="44.57329454246315" lon="7.441511778426662"><ele>839.6666666666667</ele><time>2026-04-11T09:48:12.999Z</time></trkpt><trkpt lat="44.57325773383785" lon="7.441645411369961"><ele>838.0</ele><time>2026-04-11T09:48:14.998Z</time></trkpt><trkpt lat="44.57318716996215" lon="7.44172000401557"><ele>836.3333333333334</ele><time>2026-04-11T09:48:17.998Z</time></trkpt><trkpt lat="44.57317961698936" lon="7.441824551556194"><ele>834.6666666666667</ele><time>2026-04-11T09:48:20.998Z</time></trkpt><trkpt lat="44.5731740226155" lon="7.441914939011807"><ele>833.0</ele><time>2026-04-11T09:48:23.998Z</time></trkpt><trkpt lat="44.573148728121566" lon="7.442009411156693"><ele>833.0000000000001</ele><time>2026-04-11T09:48:26.998Z</time></trkpt><trkpt lat="44.57314315163567" lon="7.442107985925468"><ele>833.0</ele><time>2026-04-11T09:48:29.998Z</time></trkpt><trkpt lat="44.573094097927154" lon="7.442173840609511"><ele>833.0</ele><time>2026-04-11T09:48:33.998Z</time></trkpt><trkpt lat="44.573027163222186" lon="7.442162825022367"><ele>833.0</ele><time>2026-04-11T09:48:36Z</time></trkpt><trkpt lat="44.572934676831274" lon="7.4421328527670765"><ele>833.0000000000001</ele><time>2026-04-11T09:48:38Z</time></trkpt><trkpt lat="44.57291423932263" lon="7.442247983823753"><ele>833.0</ele><time>2026-04-11T09:48:41Z</time></trkpt><trkpt lat="44.572966542817106" lon="7.442357679220995"><ele>830.8333333333334</ele><time>2026-04-11T09:48:44Z</time></trkpt><trkpt lat="44.57300008591671" lon="7.442446874314294"><ele>828.6666666666667</ele><time>2026-04-11T09:48:46Z</time></trkpt><trkpt lat="44.573043780902324" lon="7.442540700534831"><ele>826.5</ele><time>2026-04-11T09:48:49Z</time></trkpt><trkpt lat="44.57306150612531" lon="7.442643896614466"><ele>824.3333333333333</ele><time>2026-04-11T09:48:51Z</time></trkpt><trkpt lat="44.573098536943185" lon="7.442727431920526"><ele>822.1666666666666</ele><time>2026-04-11T09:48:53Z</time></trkpt><trkpt lat="44.5730865367134" lon="7.442828368602372"><ele>820.0</ele><time>2026-04-11T09:48:56Z</time></trkpt><trkpt lat="44.57300773442857" lon="7.44296540097265"><ele>816.8333333333333</ele><time>2026-04-11T09:48:59Z</time></trkpt><trkpt lat="44.57298604819836" lon="7.4430845347045285"><ele>813.6666666666666</ele><time>2026-04-11T09:49:01Z</time></trkpt><trkpt lat="44.57305620100925" lon="7.443109338798257"><ele>810.5</ele><time>2026-04-11T09:49:04Z</time></trkpt><trkpt lat="44.57303431546821" lon="7.443227436526115"><ele>807.3333333333333</ele><time>2026-04-11T09:49:07Z</time></trkpt><trkpt lat="44.57305216604531" lon="7.443331110979079"><ele>804.1666666666666</ele><time>2026-04-11T09:49:09Z</time></trkpt><trkpt lat="44.57302452478142" lon="7.443445711880219"><ele>801.0</ele><time>2026-04-11T09:49:11Z</time></trkpt><trkpt lat="44.573003132433996" lon="7.44354216259384"><ele>801.0</ele><time>2026-04-11T09:49:13Z</time></trkpt><trkpt lat="44.57298503041048" lon="7.44362768335664"><ele>801.0</ele><time>2026-04-11T09:49:16Z</time></trkpt><trkpt lat="44.572944267378695" lon="7.443741939035856"><ele>801.0</ele><time>2026-04-11T09:49:19Z</time></trkpt><trkpt lat="44.57292841555298" lon="7.4438293845669525"><ele>801.0</ele><time>2026-04-11T09:49:21Z</time></trkpt><trkpt lat="44.57290168122462" lon="7.443932891435786"><ele>801.0</ele><time>2026-04-11T09:49:24Z</time></trkpt><trkpt lat="44.572847003180925" lon="7.443983881556626"><ele>801.0</ele><time>2026-04-11T09:49:26Z</time></trkpt><trkpt lat="44.57279298201292" lon="7.444043311777275"><ele>801.0</ele><time>2026-04-11T09:49:29Z</time></trkpt><trkpt lat="44.572756804397514" lon="7.444140021327256"><ele>796.3333333333334</ele><time>2026-04-11T09:49:31.999Z</time></trkpt><trkpt lat="44.57271114390931" lon="7.444204930992121"><ele>791.6666666666667</ele><time>2026-04-11T09:49:34.999Z</time></trkpt><trkpt lat="44.57268845651615" lon="7.444349501016404"><ele>787.0</ele><time>2026-04-11T09:49:37.999Z</time></trkpt><trkpt lat="44.57267300518475" lon="7.444466265189198"><ele>782.3333333333334</ele><time>2026-04-11T09:49:41.999Z</time></trkpt><trkpt lat="44.57260533543914" lon="7.44459195090082"><ele>777.6666666666667</ele><time>2026-04-11T09:49:44.999Z</time></trkpt><trkpt lat="44.57259925205952" lon="7.444697460657128"><ele>773.0</ele><time>2026-04-11T09:49:45.999Z</time></trkpt><trkpt lat="44.572591940393345" lon="7.444856832276782"><ele>771.0000000000001</ele><time>2026-04-11T09:49:47.999Z</time></trkpt><trkpt lat="44.5725721299249" lon="7.444971721176832"><ele>769.0</ele><time>2026-04-11T09:49:49.999Z</time></trkpt><trkpt lat="44.57253061522845" lon="7.445054702605031"><ele>767.0</ele><time>2026-04-11T09:50:11.999Z</time></trkpt><trkpt lat="44.57257513742067" lon="7.445123593630589"><ele>765.0</ele><time>2026-04-11T09:50:15.999Z</time></trkpt><trkpt lat="44.57257280115881" lon="7.445216238161436"><ele>763.0</ele><time>2026-04-11T09:50:19.999Z</time></trkpt><trkpt lat="44.572586391382366" lon="7.445331625111838"><ele>761.0</ele><time>2026-04-11T09:50:23.998Z</time></trkpt><trkpt lat="44.57251953448086" lon="7.445424000075198"><ele>759.1666666666666</ele><time>2026-04-11T09:50:25.998Z</time></trkpt><trkpt lat="44.57247918961861" lon="7.445501198375089"><ele>757.3333333333333</ele><time>2026-04-11T09:50:28.998Z</time></trkpt><trkpt lat="44.57243883071851" lon="7.4455864002313445"><ele>755.5</ele><time>2026-04-11T09:50:30.998Z</time></trkpt><trkpt lat="44.57241740323777" lon="7.4456846573889495"><ele>753.6666666666666</ele><time>2026-04-11T09:50:31.998Z</time></trkpt><trkpt lat="44.57234587390505" lon="7.445820005648359"><ele>751.8333333333334</ele><time>2026-04-11T09:50:33.998Z</time></trkpt><trkpt lat="44.57229551220087" lon="7.445889057939053"><ele>750.0</ele><time>2026-04-11T09:50:35.998Z</time></trkpt><trkpt lat="44.572241711845436" lon="7.445953023156756"><ele>750.0</ele><time>2026-04-11T09:50:38.998Z</time></trkpt><trkpt lat="44.57219403000062" lon="7.446028903526409"><ele>750.0</ele><time>2026-04-11T09:50:41Z</time></trkpt><trkpt lat="44.572124537711915" lon="7.446075937817462"><ele>750.0</ele><time>2026-04-11T09:50:44Z</time></trkpt><trkpt lat="44.572073314731554" lon="7.446008204734086"><ele>750.0</ele><time>2026-04-11T09:50:47Z</time></trkpt><trkpt lat="44.57200984399332" lon="7.445914988121339"><ele>750.0</ele><time>2026-04-11T09:50:49Z</time></trkpt><trkpt lat="44.57192533281173" lon="7.445866655814016"><ele>750.0</ele><time>2026-04-11T09:50:51Z</time></trkpt><trkpt lat="44.57184222565562" lon="7.445803928935805"><ele>747.2857142857143</ele><time>2026-04-11T09:50:53Z</time></trkpt><trkpt lat="44.57177406322757" lon="7.445796507016256"><ele>744.5714285714286</ele><time>2026-04-11T09:50:55Z</time></trkpt><trkpt lat="44.571707127777415" lon="7.445752446276466"><ele>741.8571428571429</ele><time>2026-04-11T09:50:58Z</time></trkpt><trkpt lat="44.57164348578306" lon="7.445778781346397"><ele>739.1428571428571</ele><time>2026-04-11T09:51:00Z</time></trkpt><trkpt lat="44.57159699468934" lon="7.445703547666825"><ele>736.4285714285713</ele><time>2026-04-11T09:51:04Z</time></trkpt><trkpt lat="44.57156298668153" lon="7.445607361408097"><ele>733.7142857142857</ele><time>2026-04-11T09:51:06Z</time></trkpt><trkpt lat="44.57147022827045" lon="7.445618803461483"><ele>731.0</ele><time>2026-04-11T09:51:09Z</time></trkpt><trkpt lat="44.57136544947074" lon="7.445591021591379"><ele>731.0</ele><time>2026-04-11T09:51:11Z</time></trkpt><trkpt lat="44.57129382854377" lon="7.445600079579757"><ele>731.0</ele><time>2026-04-11T09:51:13Z</time></trkpt><trkpt lat="44.571214081167504" lon="7.44559532287652"><ele>731.0</ele><time>2026-04-11T09:51:15Z</time></trkpt><trkpt lat="44.57113966271446" lon="7.445559504704017"><ele>731.0</ele><time>2026-04-11T09:51:17Z</time></trkpt><trkpt lat="44.57108504317679" lon="7.445486592673521"><ele>731.0</ele><time>2026-04-11T09:51:21Z</time></trkpt><trkpt lat="44.5710167936215" lon="7.445526664354729"><ele>731.0</ele><time>2026-04-11T09:51:33.999Z</time></trkpt><trkpt lat="44.57101794745401" lon="7.445653190757805"><ele>726.0</ele><time>2026-04-11T09:52:04.999Z</time></trkpt><trkpt lat="44.57104820907586" lon="7.445759170754972"><ele>721.0</ele><time>2026-04-11T09:52:07.999Z</time></trkpt><trkpt lat="44.571084094473875" lon="7.445857952620826"><ele>716.0</ele><time>2026-04-11T09:52:10.999Z</time></trkpt><trkpt lat="44.57103169049836" lon="7.445799671156955"><ele>711.0</ele><time>2026-04-11T09:52:38.998Z</time></trkpt><trkpt lat="44.57099745914246" lon="7.445701348498552"><ele>706.0</ele><time>2026-04-11T09:52:40.998Z</time></trkpt><trkpt lat="44.5709515254206" lon="7.445599607448547"><ele>701.0</ele><time>2026-04-11T09:52:42.998Z</time></trkpt><trkpt lat="44.57091595342135" lon="7.445483966223968"><ele>701.0</ele><time>2026-04-11T09:52:44.998Z</time></trkpt><trkpt lat="44.57086950966469" lon="7.4454023837190455"><ele>701.0</ele><time>2026-04-11T09:52:46Z</time></trkpt><trkpt lat="44.5708255701685" lon="7.445333277947262"><ele>701.0</ele><time>2026-04-11T09:52:47Z</time></trkpt><trkpt lat="44.57079064108432" lon="7.445249430298878"><ele>701.0</ele><time>2026-04-11T09:52:48Z</time></trkpt><trkpt lat="44.57073574180589" lon="7.44515356754528"><ele>701.0</ele><time>2026-04-11T09:52:50Z</time></trkpt><trkpt lat="44.570664562979616" lon="7.445209306016911"><ele>701.0</ele><time>2026-04-11T09:52:52Z</time></trkpt><trkpt lat="44.57069086089618" lon="7.445309440584333"><ele>701.0</ele><time>2026-04-11T09:52:53Z</time></trkpt><trkpt lat="44.570713428055804" lon="7.445430998063401"><ele>701.0</ele><time>2026-04-11T09:52:56Z</time></trkpt><trkpt lat="44.57072455294456" lon="7.445544745033313"><ele>701.0</ele><time>2026-04-11T09:52:58Z</time></trkpt><trkpt lat="44.57070941825786" lon="7.445645418717911"><ele>701.0</ele><time>2026-04-11T09:53:00Z</time></trkpt><trkpt lat="44.57073792705243" lon="7.445728474845114"><ele>701.0</ele><time>2026-04-11T09:53:01Z</time></trkpt><trkpt lat="44.57075107848513" lon="7.445903882435801"><ele>701.0</ele><time>2026-04-11T09:53:03Z</time></trkpt><trkpt lat="44.57076944885376" lon="7.446072948975664"><ele>701.0</ele><time>2026-04-11T09:53:05Z</time></trkpt><trkpt lat="44.570764518152046" lon="7.446209199236346"><ele>701.0</ele><time>2026-04-11T09:53:07Z</time></trkpt><trkpt lat="44.57069384334735" lon="7.446287818044553"><ele>701.0</ele><time>2026-04-11T09:53:10Z</time></trkpt><trkpt lat="44.570605428533064" lon="7.446256618523246"><ele>701.0</ele><time>2026-04-11T09:53:12Z</time></trkpt><trkpt lat="44.57053596508896" lon="7.446238933189853"><ele>701.0</ele><time>2026-04-11T09:53:14Z</time></trkpt><trkpt lat="44.57047101754541" lon="7.446214229758832"><ele>701.0</ele><time>2026-04-11T09:53:16Z</time></trkpt><trkpt lat="44.57037498300088" lon="7.446186080246735"><ele>695.5</ele><time>2026-04-11T09:53:18Z</time></trkpt><trkpt lat="44.570308680683645" lon="7.446165367269344"><ele>690.0</ele><time>2026-04-11T09:53:23Z</time></trkpt><trkpt lat="44.57023254286925" lon="7.446163596549487"><ele>684.5</ele><time>2026-04-11T09:53:25Z</time></trkpt><trkpt lat="44.57016945253796" lon="7.446154522081072"><ele>679.0</ele><time>2026-04-11T09:53:27Z</time></trkpt><trkpt lat="44.570112301885146" lon="7.446042094579486"><ele>673.5</ele><time>2026-04-11T09:53:30Z</time></trkpt><trkpt lat="44.57005343311236" lon="7.445955720665008"><ele>668.0</ele><time>2026-04-11T09:53:32Z</time></trkpt><trkpt lat="44.57007751907932" lon="7.445798287525921"><ele>668.0</ele><time>2026-04-11T09:53:34Z</time></trkpt><trkpt lat="44.57005892544282" lon="7.445690424365762"><ele>668.0</ele><time>2026-04-11T09:53:36Z</time></trkpt><trkpt lat="44.56997719260456" lon="7.445639624222542"><ele>668.0</ele><time>2026-04-11T09:53:38Z</time></trkpt><trkpt lat="44.569918171511425" lon="7.445518743927128"><ele>668.0</ele><time>2026-04-11T09:53:39.999Z</time></trkpt><trkpt lat="44.56989435713626" lon="7.445372757524892"><ele>668.0</ele><time>2026-04-11T09:53:41.999Z</time></trkpt><trkpt lat="44.569881071669776" lon="7.445234991319783"><ele>668.0</ele><time>2026-04-11T09:53:43.999Z</time></trkpt><trkpt lat="44.5698145106026" lon="7.4452176663180065"><ele>668.0</ele><time>2026-04-11T09:53:56.999Z</time></trkpt><trkpt lat="44.569746806218774" lon="7.445245772850057"><ele>668.0</ele><time>2026-04-11T09:53:58.999Z</time></trkpt><trkpt lat="44.569680941907954" lon="7.445315242976726"><ele>668.0</ele><time>2026-04-11T09:54:00.999Z</time></trkpt><trkpt lat="44.56964874001575" lon="7.445416297476058"><ele>668.0</ele><time>2026-04-11T09:54:02.999Z</time></trkpt><trkpt lat="44.56965451195857" lon="7.445540848492808"><ele>668.0</ele><time>2026-04-11T09:54:04.999Z</time></trkpt><trkpt lat="44.56967516075676" lon="7.445645222376356"><ele>668.0</ele><time>2026-04-11T09:54:05.999Z</time></trkpt><trkpt lat="44.56967621596445" lon="7.445760312674362"><ele>668.0</ele><time>2026-04-11T09:54:06.999Z</time></trkpt><trkpt lat="44.56966678336703" lon="7.44586444133471"><ele>668.0</ele><time>2026-04-11T09:54:07.999Z</time></trkpt><trkpt lat="44.56966366582288" lon="7.445969332423068"><ele>668.0</ele><time>2026-04-11T09:54:08.999Z</time></trkpt><trkpt lat="44.56966249399747" lon="7.446085811229199"><ele>668.0</ele><time>2026-04-11T09:54:09.999Z</time></trkpt><trkpt lat="44.56967580634254" lon="7.446192771895933"><ele>668.0</ele><time>2026-04-11T09:54:10.999Z</time></trkpt><trkpt lat="44.5696842602683" lon="7.446325971054232"><ele>668.5</ele><time>2026-04-11T09:54:12.999Z</time></trkpt><trkpt lat="44.56962865037119" lon="7.446446247466101"><ele>669.0</ele><time>2026-04-11T09:54:14.999Z</time></trkpt><trkpt lat="44.56957240795785" lon="7.446545145218119"><ele>669.5</ele><time>2026-04-11T09:54:16.999Z</time></trkpt><trkpt lat="44.56951933456894" lon="7.4466046473612835"><ele>670.0</ele><time>2026-04-11T09:54:17.999Z</time></trkpt><trkpt lat="44.569512614893306" lon="7.4467467534601015"><ele>670.5</ele><time>2026-04-11T09:54:19.999Z</time></trkpt><trkpt lat="44.569497734085765" lon="7.446861392120768"><ele>671.0</ele><time>2026-04-11T09:54:21.999Z</time></trkpt><trkpt lat="44.56949038150672" lon="7.446973184303628"><ele>663.1999999999999</ele><time>2026-04-11T09:54:23.999Z</time></trkpt><trkpt lat="44.56945789874224" lon="7.447123112775746"><ele>655.4</ele><time>2026-04-11T09:54:25.999Z</time></trkpt><trkpt lat="44.56945551959702" lon="7.4472228377278755"><ele>647.6</ele><time>2026-04-11T09:54:26.999Z</time></trkpt><trkpt lat="44.56939750799843" lon="7.447330129519407"><ele>639.8</ele><time>2026-04-11T09:54:27.999Z</time></trkpt><trkpt lat="44.569387058051106" lon="7.447453070415466"><ele>632.0</ele><time>2026-04-11T09:54:29.999Z</time></trkpt><trkpt lat="44.56935325052763" lon="7.447599969696383"><ele>631.3333333333333</ele><time>2026-04-11T09:54:31.998Z</time></trkpt><trkpt lat="44.569337733210176" lon="7.44769011401253"><ele>630.6666666666666</ele><time>2026-04-11T09:54:32.998Z</time></trkpt><trkpt lat="44.569262242044914" lon="7.447818006324176"><ele>630.0</ele><time>2026-04-11T09:54:35.998Z</time></trkpt><trkpt lat="44.56921642783425" lon="7.447886564811991"><ele>629.3333333333334</ele><time>2026-04-11T09:54:36.998Z</time></trkpt><trkpt lat="44.56923093276461" lon="7.447986051418354"><ele>628.6666666666667</ele><time>2026-04-11T09:54:38.998Z</time></trkpt><trkpt lat="44.56925320553848" lon="7.448097182579288"><ele>628.0</ele><time>2026-04-11T09:54:40.998Z</time></trkpt><trkpt lat="44.56925313042462" lon="7.44822328904935"><ele>626.8</ele><time>2026-04-11T09:54:42.998Z</time></trkpt><trkpt lat="44.569245560761345" lon="7.448388827947736"><ele>625.5999999999999</ele><time>2026-04-11T09:54:44.998Z</time></trkpt><trkpt lat="44.56924339778607" lon="7.448521995230665"><ele>624.4000000000001</ele><time>2026-04-11T09:54:46.998Z</time></trkpt><trkpt lat="44.569199467497405" lon="7.448684139259796"><ele>623.2</ele><time>2026-04-11T09:54:48.998Z</time></trkpt><trkpt lat="44.56917982813241" lon="7.448772679571814"><ele>622.0</ele><time>2026-04-11T09:54:49.998Z</time></trkpt><trkpt lat="44.56917529843071" lon="7.448896812729357"><ele>619.6</ele><time>2026-04-11T09:54:52Z</time></trkpt><trkpt lat="44.569205994504564" lon="7.448976394030363"><ele>617.2</ele><time>2026-04-11T09:54:53Z</time></trkpt><trkpt lat="44.56925288928465" lon="7.449102636825551"><ele>614.8</ele><time>2026-04-11T09:54:55Z</time></trkpt><trkpt lat="44.56934308973563" lon="7.449154948795631"><ele>612.4</ele><time>2026-04-11T09:54:57Z</time></trkpt><trkpt lat="44.56944270478803" lon="7.449276312374803"><ele>610.0</ele><time>2026-04-11T09:54:59Z</time></trkpt><trkpt lat="44.56949747817884" lon="7.449332775788953"><ele>609.6666666666667</ele><time>2026-04-11T09:55:00Z</time></trkpt><trkpt lat="44.56956393185647" lon="7.449424544397364"><ele>609.3333333333334</ele><time>2026-04-11T09:55:02Z</time></trkpt><trkpt lat="44.56963361577026" lon="7.449487562298711"><ele>609.0</ele><time>2026-04-11T09:55:04Z</time></trkpt><trkpt lat="44.569714408745774" lon="7.449510119997775"><ele>608.6666666666666</ele><time>2026-04-11T09:55:06Z</time></trkpt><trkpt lat="44.56976024822667" lon="7.449604999796633"><ele>608.3333333333333</ele><time>2026-04-11T09:55:09Z</time></trkpt><trkpt lat="44.5697699979685" lon="7.44974668359074"><ele>608.0</ele><time>2026-04-11T09:55:11Z</time></trkpt><trkpt lat="44.56973380501949" lon="7.449828701877217"><ele>608.0</ele><time>2026-04-11T09:55:17Z</time></trkpt><trkpt lat="44.56975197059357" lon="7.4499399215284825"><ele>608.0</ele><time>2026-04-11T09:55:27Z</time></trkpt><trkpt lat="44.569845911076634" lon="7.450013502893868"><ele>608.0</ele><time>2026-04-11T09:55:30Z</time></trkpt><trkpt lat="44.569930174001996" lon="7.45002151367808"><ele>608.0</ele><time>2026-04-11T09:55:32Z</time></trkpt><trkpt lat="44.5699723395895" lon="7.450148683241979"><ele>608.0</ele><time>2026-04-11T09:55:34Z</time></trkpt><trkpt lat="44.570038018040286" lon="7.4502761178777765"><ele>608.0</ele><time>2026-04-11T09:55:36Z</time></trkpt><trkpt lat="44.57007447482388" lon="7.450363745377328"><ele>608.0</ele><time>2026-04-11T09:55:37Z</time></trkpt><trkpt lat="44.5700801659331" lon="7.450462445725416"><ele>608.0</ele><time>2026-04-11T09:55:38Z</time></trkpt><trkpt lat="44.57009236974546" lon="7.45058836866762"><ele>608.0</ele><time>2026-04-11T09:55:39Z</time></trkpt><trkpt lat="44.570108522018344" lon="7.450680369792763"><ele>608.0</ele><time>2026-04-11T09:55:40Z</time></trkpt><trkpt lat="44.57008507122738" lon="7.450772139060397"><ele>608.0</ele><time>2026-04-11T09:55:41Z</time></trkpt><trkpt lat="44.570024286781994" lon="7.450812990691628"><ele>608.0</ele><time>2026-04-11T09:55:42Z</time></trkpt><trkpt lat="44.569989587729296" lon="7.450982253165378"><ele>606.0</ele><time>2026-04-11T09:55:44Z</time></trkpt><trkpt lat="44.56994861050196" lon="7.4510756316073765"><ele>604.0</ele><time>2026-04-11T09:55:46Z</time></trkpt><trkpt lat="44.569891677950565" lon="7.451124491507467"><ele>602.0</ele><time>2026-04-11T09:55:47.999Z</time></trkpt><trkpt lat="44.56982576092545" lon="7.451172549681933"><ele>600.0</ele><time>2026-04-11T09:55:49.999Z</time></trkpt><trkpt lat="44.56975643919351" lon="7.451201575784288"><ele>598.0</ele><time>2026-04-11T09:55:51.999Z</time></trkpt><trkpt lat="44.56970061641593" lon="7.451348597839059"><ele>596.0</ele><time>2026-04-11T09:55:53.999Z</time></trkpt><trkpt lat="44.56960626625336" lon="7.451403374636331"><ele>591.6666666666666</ele><time>2026-04-11T09:55:55.999Z</time></trkpt><trkpt lat="44.569516222362445" lon="7.4514733953623"><ele>587.3333333333333</ele><time>2026-04-11T09:55:57.999Z</time></trkpt><trkpt lat="44.569448421124726" lon="7.45153220617936"><ele>583.0</ele><time>2026-04-11T09:55:59.999Z</time></trkpt><trkpt lat="44.56937335570039" lon="7.451608769070427"><ele>578.6666666666666</ele><time>2026-04-11T09:56:01.999Z</time></trkpt><trkpt lat="44.56929772572359" lon="7.451690874369176"><ele>574.3333333333334</ele><time>2026-04-11T09:56:03.999Z</time></trkpt><trkpt lat="44.569235372194434" lon="7.451746067714"><ele>570.0</ele><time>2026-04-11T09:56:05.999Z</time></trkpt><trkpt lat="44.56915904162001" lon="7.451796177843045"><ele>570.0</ele><time>2026-04-11T09:56:07.999Z</time></trkpt><trkpt lat="44.569083800451764" lon="7.451859053957555"><ele>570.0</ele><time>2026-04-11T09:56:09.999Z</time></trkpt><trkpt lat="44.569010758177704" lon="7.451965270884346"><ele>570.0</ele><time>2026-04-11T09:56:11.999Z</time></trkpt><trkpt lat="44.56898044718655" lon="7.452054987004648"><ele>570.0</ele><time>2026-04-11T09:56:12.999Z</time></trkpt><trkpt lat="44.568965789507914" lon="7.452155639933891"><ele>570.0</ele><time>2026-04-11T09:56:13.999Z</time></trkpt><trkpt lat="44.56895069459978" lon="7.452256754947874"><ele>570.0</ele><time>2026-04-11T09:56:14.999Z</time></trkpt><trkpt lat="44.568954004319195" lon="7.452371561115029"><ele>568.8</ele><time>2026-04-11T09:56:15.999Z</time></trkpt><trkpt lat="44.56894868724685" lon="7.452487061265246"><ele>567.6</ele><time>2026-04-11T09:56:16.999Z</time></trkpt><trkpt lat="44.56893514240779" lon="7.4526128388420805"><ele>566.4</ele><time>2026-04-11T09:56:17.999Z</time></trkpt><trkpt lat="44.568896084089694" lon="7.452747528817785"><ele>565.2</ele><time>2026-04-11T09:56:19.999Z</time></trkpt><trkpt lat="44.56883388355036" lon="7.452776846695105"><ele>564.0</ele><time>2026-04-11T09:56:20.999Z</time></trkpt><trkpt lat="44.56873135730106" lon="7.452847234847606"><ele>564.0</ele><time>2026-04-11T09:56:22.999Z</time></trkpt><trkpt lat="44.568704522488154" lon="7.452939936275832"><ele>564.0</ele><time>2026-04-11T09:56:24.999Z</time></trkpt><trkpt lat="44.5688065848493" lon="7.452978326654514"><ele>564.0</ele><time>2026-04-11T09:56:26.999Z</time></trkpt><trkpt lat="44.56888785826465" lon="7.4529658873329945"><ele>564.0</ele><time>2026-04-11T09:56:27.999Z</time></trkpt><trkpt lat="44.56895648415044" lon="7.452973178446764"><ele>564.0</ele><time>2026-04-11T09:56:28.999Z</time></trkpt><trkpt lat="44.569029984504446" lon="7.452962366964863"><ele>564.0</ele><time>2026-04-11T09:56:29.999Z</time></trkpt><trkpt lat="44.569093712153595" lon="7.452916787000524"><ele>564.0</ele><time>2026-04-11T09:56:30.999Z</time></trkpt><trkpt lat="44.569162521231966" lon="7.452877655865913"><ele>564.0</ele><time>2026-04-11T09:56:32.999Z</time></trkpt><trkpt lat="44.56921217629706" lon="7.452961508720302"><ele>564.0</ele><time>2026-04-11T09:56:38.999Z</time></trkpt><trkpt lat="44.56919786455284" lon="7.453133936079465"><ele>564.0</ele><time>2026-04-11T09:56:40.998Z</time></trkpt><trkpt lat="44.56918325850747" lon="7.453302495386475"><ele>564.0</ele><time>2026-04-11T09:56:42.998Z</time></trkpt><trkpt lat="44.56907127642405" lon="7.453562288398287"><ele>561.6666666666666</ele><time>2026-04-11T09:56:43.998Z</time></trkpt><trkpt lat="44.56903925666405" lon="7.453673428326613"><ele>559.3333333333334</ele><time>2026-04-11T09:56:44.998Z</time></trkpt><trkpt lat="44.56901778217041" lon="7.453787193130373"><ele>557.0</ele><time>2026-04-11T09:56:45.998Z</time></trkpt><trkpt lat="44.56899958331192" lon="7.453912703715846"><ele>554.6666666666667</ele><time>2026-04-11T09:56:46.998Z</time></trkpt><trkpt lat="44.56898244957106" lon="7.4540328270918215"><ele>552.3333333333334</ele><time>2026-04-11T09:56:47.998Z</time></trkpt><trkpt lat="44.568956778361404" lon="7.454145495104932"><ele>550.0</ele><time>2026-04-11T09:56:48.998Z</time></trkpt><trkpt lat="44.56893681468977" lon="7.454274268455393"><ele>548.0</ele><time>2026-04-11T09:56:49.998Z</time></trkpt><trkpt lat="44.568928292160365" lon="7.454397766844254"><ele>546.0</ele><time>2026-04-11T09:56:50.998Z</time></trkpt><trkpt lat="44.56896106332529" lon="7.454534497795066"><ele>544.0</ele><time>2026-04-11T09:56:51.998Z</time></trkpt><trkpt lat="44.56897522797922" lon="7.454650095671806"><ele>542.0</ele><time>2026-04-11T09:56:52.998Z</time></trkpt><trkpt lat="44.56895937142746" lon="7.454771068620771"><ele>540.0</ele><time>2026-04-11T09:56:53.998Z</time></trkpt><trkpt lat="44.56893031353744" lon="7.454874300624098"><ele>538.0</ele><time>2026-04-11T09:56:54.998Z</time></trkpt><trkpt lat="44.56888866245902" lon="7.454984353115704"><ele>535.8</ele><time>2026-04-11T09:56:55.998Z</time></trkpt><trkpt lat="44.56884051331336" lon="7.455074857311429"><ele>533.5999999999999</ele><time>2026-04-11T09:56:56.998Z</time></trkpt><trkpt lat="44.56873704357662" lon="7.455182437487073"><ele>531.4000000000001</ele><time>2026-04-11T09:56:59Z</time></trkpt><trkpt lat="44.56865670768726" lon="7.455193790025228"><ele>529.2</ele><time>2026-04-11T09:57:00Z</time></trkpt><trkpt lat="44.56858532728184" lon="7.455191188584089"><ele>527.0</ele><time>2026-04-11T09:57:01Z</time></trkpt><trkpt lat="44.56848125523203" lon="7.455104403240135"><ele>524.8000000000001</ele><time>2026-04-11T09:57:03Z</time></trkpt><trkpt lat="44.568430507637714" lon="7.45503352395221"><ele>522.6</ele><time>2026-04-11T09:57:04Z</time></trkpt><trkpt lat="44.56838699101918" lon="7.454924076492274"><ele>520.4000000000001</ele><time>2026-04-11T09:57:05Z</time></trkpt><trkpt lat="44.56833397447455" lon="7.45477467382098"><ele>518.2</ele><time>2026-04-11T09:57:06Z</time></trkpt><trkpt lat="44.56826594870429" lon="7.454681241104668"><ele>516.0</ele><time>2026-04-11T09:57:07Z</time></trkpt><trkpt lat="44.568172359243576" lon="7.454636807451349"><ele>514.2</ele><time>2026-04-11T09:57:08Z</time></trkpt><trkpt lat="44.56806665246273" lon="7.454596640942176"><ele>512.4000000000001</ele><time>2026-04-11T09:57:09Z</time></trkpt><trkpt lat="44.567950266351765" lon="7.454560955620545"><ele>510.6</ele><time>2026-04-11T09:57:10Z</time></trkpt><trkpt lat="44.567845754557105" lon="7.454518040902105"><ele>508.8</ele><time>2026-04-11T09:57:11Z</time></trkpt><trkpt lat="44.567740058008354" lon="7.4544741938217465"><ele>507.0</ele><time>2026-04-11T09:57:12Z</time></trkpt><trkpt lat="44.567642077521946" lon="7.454440081156557"><ele>507.0</ele><time>2026-04-11T09:57:13Z</time></trkpt><trkpt lat="44.567557066226776" lon="7.454414945775138"><ele>507.0</ele><time>2026-04-11T09:57:14Z</time></trkpt><trkpt lat="44.567470169965986" lon="7.454403236886164"><ele>507.0</ele><time>2026-04-11T09:57:15Z</time></trkpt><trkpt lat="44.56739049947235" lon="7.454400227617209"><ele>507.0</ele><time>2026-04-11T09:57:16Z</time></trkpt><trkpt lat="44.567298704813126" lon="7.4543826750122175"><ele>507.0</ele><time>2026-04-11T09:57:17Z</time></trkpt><trkpt lat="44.567216035057825" lon="7.454331524132608"><ele>507.0</ele><time>2026-04-11T09:57:18Z</time></trkpt><trkpt lat="44.567143187025906" lon="7.454248819975734"><ele>507.0</ele><time>2026-04-11T09:57:19Z</time></trkpt><trkpt lat="44.56707928956143" lon="7.454169818228439"><ele>507.00000000000006</ele><time>2026-04-11T09:57:20Z</time></trkpt><trkpt lat="44.56701737390132" lon="7.454108585119165"><ele>507.00000000000006</ele><time>2026-04-11T09:57:21Z</time></trkpt><trkpt lat="44.566932659656054" lon="7.4540718057913695"><ele>507.0</ele><time>2026-04-11T09:57:22Z</time></trkpt><trkpt lat="44.566824580163804" lon="7.454100665862398"><ele>507.0</ele><time>2026-04-11T09:57:23Z</time></trkpt><trkpt lat="44.56673590063581" lon="7.45415597995319"><ele>504.5</ele><time>2026-04-11T09:57:24Z</time></trkpt><trkpt lat="44.56666954689851" lon="7.454172408271515"><ele>502.0</ele><time>2026-04-11T09:57:25Z</time></trkpt><trkpt lat="44.56660136611477" lon="7.454187754732293"><ele>499.5</ele><time>2026-04-11T09:57:26Z</time></trkpt><trkpt lat="44.566522550535026" lon="7.454166133460165"><ele>497.0</ele><time>2026-04-11T09:57:27Z</time></trkpt><trkpt lat="44.566426049568946" lon="7.454160578957712"><ele>494.5</ele><time>2026-04-11T09:57:28Z</time></trkpt><trkpt lat="44.56633999376087" lon="7.45416099401083"><ele>492.0</ele><time>2026-04-11T09:57:30Z</time></trkpt><trkpt lat="44.5662717806173" lon="7.454212909682745"><ele>492.0</ele><time>2026-04-11T09:57:34Z</time></trkpt><trkpt lat="44.56621532594981" lon="7.454319600597696"><ele>492.0</ele><time>2026-04-11T09:57:36Z</time></trkpt><trkpt lat="44.56617440403625" lon="7.454471570219603"><ele>492.0</ele><time>2026-04-11T09:57:38Z</time></trkpt><trkpt lat="44.566141509308245" lon="7.4545555739268385"><ele>492.0</ele><time>2026-04-11T09:57:39Z</time></trkpt><trkpt lat="44.56611802281949" lon="7.454639731585678"><ele>492.0</ele><time>2026-04-11T09:57:40Z</time></trkpt><trkpt lat="44.566134670347296" lon="7.454752466380368"><ele>492.0</ele><time>2026-04-11T09:57:46Z</time></trkpt><trkpt lat="44.56617227899043" lon="7.45484571794856"><ele>491.0</ele><time>2026-04-11T09:57:48Z</time></trkpt><trkpt lat="44.56627632511546" lon="7.4549144847529805"><ele>490.00000000000006</ele><time>2026-04-11T09:57:51.999Z</time></trkpt><trkpt lat="44.566394167209125" lon="7.454944849749749"><ele>489.00000000000006</ele><time>2026-04-11T09:57:53.999Z</time></trkpt><trkpt lat="44.56645824665505" lon="7.454982155348156"><ele>488.0</ele><time>2026-04-11T09:57:54.999Z</time></trkpt><trkpt lat="44.56651946951987" lon="7.455016268220817"><ele>487.0</ele><time>2026-04-11T09:57:55.999Z</time></trkpt><trkpt lat="44.56662559340347" lon="7.455074118759196"><ele>487.0</ele><time>2026-04-11T09:57:57.999Z</time></trkpt><trkpt lat="44.56671111299018" lon="7.455171049010849"><ele>487.0</ele><time>2026-04-11T09:57:59.999Z</time></trkpt><trkpt lat="44.5667881850335" lon="7.4552788963919845"><ele>487.0</ele><time>2026-04-11T09:58:01.999Z</time></trkpt><trkpt lat="44.5668949168757" lon="7.455361658653881"><ele>487.0</ele><time>2026-04-11T09:58:03.999Z</time></trkpt><trkpt lat="44.566977947338565" lon="7.45546485128003"><ele>486.40000000000003</ele><time>2026-04-11T09:58:05.999Z</time></trkpt><trkpt lat="44.56707103597289" lon="7.455503194374591"><ele>485.80000000000007</ele><time>2026-04-11T09:58:07.999Z</time></trkpt><trkpt lat="44.56715909402286" lon="7.455591010555778"><ele>485.2</ele><time>2026-04-11T09:58:09.999Z</time></trkpt><trkpt lat="44.567244243060976" lon="7.455704060855085"><ele>484.6</ele><time>2026-04-11T09:58:11.999Z</time></trkpt><trkpt lat="44.567336466435286" lon="7.455752729551885"><ele>484.0</ele><time>2026-04-11T09:58:13.999Z</time></trkpt><trkpt lat="44.56741645771369" lon="7.455751573841049"><ele>484.0</ele><time>2026-04-11T09:58:15.999Z</time></trkpt><trkpt lat="44.56749933025886" lon="7.455792515532668"><ele>484.0</ele><time>2026-04-11T09:58:17.999Z</time></trkpt><trkpt lat="44.5675838473768" lon="7.455807123437198"><ele>484.0</ele><time>2026-04-11T09:58:19.999Z</time></trkpt><trkpt lat="44.56765641741977" lon="7.4558570167425975"><ele>484.0</ele><time>2026-04-11T09:58:21.999Z</time></trkpt><trkpt lat="44.56772059892896" lon="7.45594092486546"><ele>484.0</ele><time>2026-04-11T09:58:23.999Z</time></trkpt><trkpt lat="44.56779396988641" lon="7.456053260302776"><ele>484.25</ele><time>2026-04-11T09:58:25.999Z</time></trkpt><trkpt lat="44.56786528808869" lon="7.456170136592549"><ele>484.5</ele><time>2026-04-11T09:58:27.999Z</time></trkpt><trkpt lat="44.567928096068265" lon="7.45632926097379"><ele>484.75</ele><time>2026-04-11T09:58:29.999Z</time></trkpt><trkpt lat="44.568007528090746" lon="7.456442799332856"><ele>485.0</ele><time>2026-04-11T09:58:31.999Z</time></trkpt><trkpt lat="44.56809274893891" lon="7.456536730777384"><ele>484.99999999999994</ele><time>2026-04-11T09:58:33.999Z</time></trkpt><trkpt lat="44.56816017894903" lon="7.456634331807263"><ele>485.0</ele><time>2026-04-11T09:58:35.999Z</time></trkpt><trkpt lat="44.56821996786256" lon="7.456720872799252"><ele>485.0</ele><time>2026-04-11T09:58:37.999Z</time></trkpt><trkpt lat="44.56827116937894" lon="7.456796694227956"><ele>485.0</ele><time>2026-04-11T09:58:39.999Z</time></trkpt><trkpt lat="44.568293016049765" lon="7.456918433435487"><ele>484.99999999999994</ele><time>2026-04-11T09:58:41.999Z</time></trkpt><trkpt lat="44.56835151332007" lon="7.457017150446718"><ele>485.0</ele><time>2026-04-11T09:58:43.999Z</time></trkpt><trkpt lat="44.568420199061215" lon="7.457095507111122"><ele>484.8333333333333</ele><time>2026-04-11T09:58:45.998Z</time></trkpt><trkpt lat="44.568490895187075" lon="7.4571602446265075"><ele>484.66666666666663</ele><time>2026-04-11T09:58:47.998Z</time></trkpt><trkpt lat="44.568553299098504" lon="7.4572253741222205"><ele>484.5</ele><time>2026-04-11T09:58:49.998Z</time></trkpt><trkpt lat="44.568610535256326" lon="7.457275088821722"><ele>484.33333333333337</ele><time>2026-04-11T09:58:51.998Z</time></trkpt><trkpt lat="44.568673519492975" lon="7.457364897469489"><ele>484.1666666666667</ele><time>2026-04-11T09:58:53.998Z</time></trkpt><trkpt lat="44.56873918744949" lon="7.45740989983764"><ele>484.0</ele><time>2026-04-11T09:58:55.998Z</time></trkpt><trkpt lat="44.56883330676132" lon="7.457400317848205"><ele>484.00000000000006</ele><time>2026-04-11T09:58:57.998Z</time></trkpt><trkpt lat="44.568898172644" lon="7.457359409297967"><ele>484.0</ele><time>2026-04-11T09:58:59.998Z</time></trkpt><trkpt lat="44.56897834716297" lon="7.457332611238837"><ele>484.0</ele><time>2026-04-11T09:59:01.998Z</time></trkpt><trkpt lat="44.569089177666996" lon="7.457365187821739"><ele>484.0</ele><time>2026-04-11T09:59:04Z</time></trkpt><trkpt lat="44.56916781706141" lon="7.457391308836181"><ele>484.00000000000006</ele><time>2026-04-11T09:59:06Z</time></trkpt><trkpt lat="44.56925880919398" lon="7.457393344176049"><ele>484.0</ele><time>2026-04-11T09:59:08Z</time></trkpt><trkpt lat="44.56934133569612" lon="7.4573917065749695"><ele>484.00000000000006</ele><time>2026-04-11T09:59:10Z</time></trkpt><trkpt lat="44.569419456517416" lon="7.457415954939399"><ele>484.0</ele><time>2026-04-11T09:59:12Z</time></trkpt><trkpt lat="44.569506383009276" lon="7.457425312646434"><ele>484.0</ele><time>2026-04-11T09:59:14Z</time></trkpt><trkpt lat="44.569589252312724" lon="7.457436224746608"><ele>484.0</ele><time>2026-04-11T09:59:16Z</time></trkpt><trkpt lat="44.56966987618174" lon="7.457433631916073"><ele>484.00000000000006</ele><time>2026-04-11T09:59:18Z</time></trkpt><trkpt lat="44.5697576098977" lon="7.45746119659819"><ele>484.0</ele><time>2026-04-11T09:59:20Z</time></trkpt><trkpt lat="44.569849625120085" lon="7.457506548906377"><ele>484.4</ele><time>2026-04-11T09:59:22Z</time></trkpt><trkpt lat="44.56994217980689" lon="7.457548166696783"><ele>484.79999999999995</ele><time>2026-04-11T09:59:24Z</time></trkpt><trkpt lat="44.570039748727154" lon="7.457623542654408"><ele>485.20000000000005</ele><time>2026-04-11T09:59:26Z</time></trkpt><trkpt lat="44.57014775338888" lon="7.4576665795199295"><ele>485.6</ele><time>2026-04-11T09:59:28Z</time></trkpt><trkpt lat="44.570227242076584" lon="7.457754232329063"><ele>486.0</ele><time>2026-04-11T09:59:30Z</time></trkpt><trkpt lat="44.57030663168699" lon="7.457867695260109"><ele>485.1666666666667</ele><time>2026-04-11T09:59:32Z</time></trkpt><trkpt lat="44.570392671242544" lon="7.457986239912689"><ele>484.33333333333337</ele><time>2026-04-11T09:59:34Z</time></trkpt><trkpt lat="44.5704865508316" lon="7.458097362845354"><ele>483.5</ele><time>2026-04-11T09:59:36Z</time></trkpt><trkpt lat="44.570532849384165" lon="7.458160746658206"><ele>482.6666666666667</ele><time>2026-04-11T09:59:37Z</time></trkpt><trkpt lat="44.57059393008104" lon="7.458198167006111"><ele>481.83333333333337</ele><time>2026-04-11T09:59:38Z</time></trkpt><trkpt lat="44.570660048373014" lon="7.458210767546122"><ele>481.0</ele><time>2026-04-11T09:59:39Z</time></trkpt><trkpt lat="44.57077831700883" lon="7.458282316902044"><ele>481.00000000000006</ele><time>2026-04-11T09:59:41Z</time></trkpt><trkpt lat="44.57082927031684" lon="7.458345106039831"><ele>481.0</ele><time>2026-04-11T09:59:42Z</time></trkpt><trkpt lat="44.570889358980104" lon="7.458386649721895"><ele>481.0</ele><time>2026-04-11T09:59:43Z</time></trkpt><trkpt lat="44.570952081664934" lon="7.4584192028996"><ele>481.0</ele><time>2026-04-11T09:59:44Z</time></trkpt><trkpt lat="44.571009051449934" lon="7.458478883910363"><ele>481.00000000000006</ele><time>2026-04-11T09:59:45Z</time></trkpt><trkpt lat="44.571054278485555" lon="7.458560786398594"><ele>481.0</ele><time>2026-04-11T09:59:46Z</time></trkpt><trkpt lat="44.57114689104242" lon="7.458674987437353"><ele>481.0</ele><time>2026-04-11T09:59:48Z</time></trkpt><trkpt lat="44.57118790197556" lon="7.4587464701952"><ele>481.0</ele><time>2026-04-11T09:59:49Z</time></trkpt><trkpt lat="44.571235053022654" lon="7.458809391377891"><ele>481.0</ele><time>2026-04-11T09:59:50Z</time></trkpt><trkpt lat="44.57131617963681" lon="7.458921942639865"><ele>481.0</ele><time>2026-04-11T09:59:52Z</time></trkpt><trkpt lat="44.57139548250244" lon="7.459040131231053"><ele>481.0</ele><time>2026-04-11T09:59:54Z</time></trkpt><trkpt lat="44.5714750135451" lon="7.459150940121289"><ele>480.4</ele><time>2026-04-11T09:59:55.999Z</time></trkpt><trkpt lat="44.57155952231751" lon="7.459233428355545"><ele>479.8</ele><time>2026-04-11T09:59:57.999Z</time></trkpt><trkpt lat="44.57164151569354" lon="7.459336390918198"><ele>479.19999999999993</ele><time>2026-04-11T09:59:59.999Z</time></trkpt><trkpt lat="44.57172535028087" lon="7.4594404769363365"><ele>478.59999999999997</ele><time>2026-04-11T10:00:01.999Z</time></trkpt><trkpt lat="44.57179434059977" lon="7.459544558336883"><ele>478.0</ele><time>2026-04-11T10:00:03.999Z</time></trkpt><trkpt lat="44.57187195477494" lon="7.459650202902673"><ele>478.0</ele><time>2026-04-11T10:00:05.999Z</time></trkpt><trkpt lat="44.571963689216375" lon="7.459749551660916"><ele>477.99999999999994</ele><time>2026-04-11T10:00:07.999Z</time></trkpt><trkpt lat="44.57205429404105" lon="7.45984269660717"><ele>477.99999999999994</ele><time>2026-04-11T10:00:09.999Z</time></trkpt><trkpt lat="44.57210537621886" lon="7.459895945558309"><ele>478.0</ele><time>2026-04-11T10:00:10.999Z</time></trkpt><trkpt lat="44.572202949639596" lon="7.459983901722197"><ele>478.0</ele><time>2026-04-11T10:00:12.999Z</time></trkpt><trkpt lat="44.572297824536214" lon="7.460063053054502"><ele>478.0</ele><time>2026-04-11T10:00:14.999Z</time></trkpt><trkpt lat="44.572390123909635" lon="7.460136547915148"><ele>477.99999999999994</ele><time>2026-04-11T10:00:16.999Z</time></trkpt><trkpt lat="44.57247825065322" lon="7.460224848693733"><ele>477.99999999999994</ele><time>2026-04-11T10:00:18.999Z</time></trkpt><trkpt lat="44.57256555921427" lon="7.460302720336232"><ele>478.0</ele><time>2026-04-11T10:00:20.999Z</time></trkpt><trkpt lat="44.57265600590139" lon="7.46038664824445"><ele>478.0</ele><time>2026-04-11T10:00:22.999Z</time></trkpt><trkpt lat="44.572741302404964" lon="7.460466668147377"><ele>476.79999999999995</ele><time>2026-04-11T10:00:24.999Z</time></trkpt><trkpt lat="44.5728302215044" lon="7.460542170709111"><ele>475.59999999999997</ele><time>2026-04-11T10:00:26.999Z</time></trkpt><trkpt lat="44.57292706078748" lon="7.460626949259594"><ele>474.40000000000003</ele><time>2026-04-11T10:00:28.999Z</time></trkpt><trkpt lat="44.57301520645292" lon="7.460711198508665"><ele>473.20000000000005</ele><time>2026-04-11T10:00:30.999Z</time></trkpt><trkpt lat="44.57311406276139" lon="7.460791407499928"><ele>472.0</ele><time>2026-04-11T10:00:32.999Z</time></trkpt><trkpt lat="44.57320529121391" lon="7.460874475206208"><ele>472.0</ele><time>2026-04-11T10:00:34.999Z</time></trkpt><trkpt lat="44.57330038099051" lon="7.460969951254722"><ele>472.0</ele><time>2026-04-11T10:00:36.999Z</time></trkpt><trkpt lat="44.573401712973066" lon="7.461053910702791"><ele>472.0</ele><time>2026-04-11T10:00:38.999Z</time></trkpt><trkpt lat="44.573496340704125" lon="7.4611430527269"><ele>472.0</ele><time>2026-04-11T10:00:40.999Z</time></trkpt><trkpt lat="44.573592834423636" lon="7.46122005258011"><ele>472.20000000000005</ele><time>2026-04-11T10:00:42.999Z</time></trkpt><trkpt lat="44.57367060689136" lon="7.461304899332618"><ele>472.40000000000003</ele><time>2026-04-11T10:00:44.999Z</time></trkpt><trkpt lat="44.57373735882201" lon="7.461409219659102"><ele>472.59999999999997</ele><time>2026-04-11T10:00:46.999Z</time></trkpt><trkpt lat="44.57374130375747" lon="7.461541229716222"><ele>472.79999999999995</ele><time>2026-04-11T10:00:48.998Z</time></trkpt><trkpt lat="44.57375058230413" lon="7.461641130798478"><ele>473.0</ele><time>2026-04-11T10:00:50.998Z</time></trkpt><trkpt lat="44.57383224514838" lon="7.461726051809716"><ele>473.0</ele><time>2026-04-11T10:00:52.998Z</time></trkpt><trkpt lat="44.57389948313795" lon="7.461731264725698"><ele>472.99999999999994</ele><time>2026-04-11T10:00:53.998Z</time></trkpt><trkpt lat="44.57402021543649" lon="7.461779122367972"><ele>472.99999999999994</ele><time>2026-04-11T10:00:55.998Z</time></trkpt><trkpt lat="44.574114636377494" lon="7.46183986074293"><ele>473.0</ele><time>2026-04-11T10:00:57.998Z</time></trkpt><trkpt lat="44.57421883564518" lon="7.461900083923662"><ele>473.0</ele><time>2026-04-11T10:00:59.998Z</time></trkpt><trkpt lat="44.57431246738091" lon="7.461976553700052"><ele>473.0</ele><time>2026-04-11T10:01:01.998Z</time></trkpt><trkpt lat="44.57439359133226" lon="7.462074707298534"><ele>472.99999999999994</ele><time>2026-04-11T10:01:03.998Z</time></trkpt><trkpt lat="44.57447529686161" lon="7.462192071971666"><ele>472.99999999999994</ele><time>2026-04-11T10:01:05.998Z</time></trkpt><trkpt lat="44.574492539580135" lon="7.462355068443494"><ele>473.0</ele><time>2026-04-11T10:01:07.998Z</time></trkpt><trkpt lat="44.57451844401065" lon="7.4624370454759426"><ele>473.0</ele><time>2026-04-11T10:01:09Z</time></trkpt><trkpt lat="44.574575787531906" lon="7.462488290031158"><ele>472.16666666666663</ele><time>2026-04-11T10:01:10Z</time></trkpt><trkpt lat="44.57463881424568" lon="7.462514685837851"><ele>471.3333333333333</ele><time>2026-04-11T10:01:11Z</time></trkpt><trkpt lat="44.574704815260105" lon="7.4625125117694395"><ele>470.5</ele><time>2026-04-11T10:01:12Z</time></trkpt><trkpt lat="44.574819658241836" lon="7.462507491852362"><ele>469.66666666666663</ele><time>2026-04-11T10:01:14Z</time></trkpt><trkpt lat="44.57492455332659" lon="7.462562648076875"><ele>468.8333333333333</ele><time>2026-04-11T10:01:16Z</time></trkpt><trkpt lat="44.57498043925518" lon="7.462604555627922"><ele>468.0</ele><time>2026-04-11T10:01:17Z</time></trkpt><trkpt lat="44.57504135828881" lon="7.462636498473501"><ele>468.0</ele><time>2026-04-11T10:01:18Z</time></trkpt><trkpt lat="44.575143073062094" lon="7.462704761758446"><ele>468.0</ele><time>2026-04-11T10:01:20Z</time></trkpt><trkpt lat="44.57524671820908" lon="7.462783059495135"><ele>468.0</ele><time>2026-04-11T10:01:22Z</time></trkpt><trkpt lat="44.57534681220837" lon="7.46287610943199"><ele>468.0</ele><time>2026-04-11T10:01:24Z</time></trkpt><trkpt lat="44.57544547288865" lon="7.462964568309495"><ele>467.5</ele><time>2026-04-11T10:01:26Z</time></trkpt><trkpt lat="44.57554509070295" lon="7.463057258765234"><ele>467.0</ele><time>2026-04-11T10:01:28Z</time></trkpt><trkpt lat="44.57564335104817" lon="7.4631472175026055"><ele>466.5</ele><time>2026-04-11T10:01:30Z</time></trkpt><trkpt lat="44.57574583341502" lon="7.463241285466413"><ele>466.0</ele><time>2026-04-11T10:01:32Z</time></trkpt><trkpt lat="44.57584406000135" lon="7.463328563127282"><ele>466.0</ele><time>2026-04-11T10:01:34Z</time></trkpt><trkpt lat="44.57593781107631" lon="7.463418338782431"><ele>466.0</ele><time>2026-04-11T10:01:36Z</time></trkpt><trkpt lat="44.57603236199245" lon="7.463502222297434"><ele>466.0</ele><time>2026-04-11T10:01:38Z</time></trkpt><trkpt lat="44.57612839471487" lon="7.463592964593857"><ele>466.0</ele><time>2026-04-11T10:01:40Z</time></trkpt><trkpt lat="44.576217406538355" lon="7.463678982274138"><ele>466.0</ele><time>2026-04-11T10:01:42Z</time></trkpt><trkpt lat="44.5763166822429" lon="7.463772392428571"><ele>465.5</ele><time>2026-04-11T10:01:44Z</time></trkpt><trkpt lat="44.576416602257105" lon="7.463861570207212"><ele>465.0</ele><time>2026-04-11T10:01:46Z</time></trkpt><trkpt lat="44.576511849584094" lon="7.463947218247604"><ele>464.5</ele><time>2026-04-11T10:01:48Z</time></trkpt><trkpt lat="44.57661246251195" lon="7.464035121870391"><ele>464.0</ele><time>2026-04-11T10:01:50Z</time></trkpt><trkpt lat="44.57670266067922" lon="7.464126434905781"><ele>464.0</ele><time>2026-04-11T10:01:52Z</time></trkpt><trkpt lat="44.57679885356394" lon="7.464220387655448"><ele>464.0</ele><time>2026-04-11T10:01:54Z</time></trkpt><trkpt lat="44.57685197439093" lon="7.464269237204826"><ele>464.0</ele><time>2026-04-11T10:01:55Z</time></trkpt><trkpt lat="44.576908420823315" lon="7.464317987646473"><ele>464.0</ele><time>2026-04-11T10:01:56Z</time></trkpt><trkpt lat="44.57700499819246" lon="7.464402980376326"><ele>464.0</ele><time>2026-04-11T10:01:58Z</time></trkpt><trkpt lat="44.57710065250733" lon="7.464500204493098"><ele>464.0</ele><time>2026-04-11T10:02:00Z</time></trkpt><trkpt lat="44.57720101219114" lon="7.464592312022125"><ele>464.0</ele><time>2026-04-11T10:02:01.999Z</time></trkpt><trkpt lat="44.57730152871513" lon="7.4646816175308"><ele>464.0</ele><time>2026-04-11T10:02:03.999Z</time></trkpt><trkpt lat="44.5773974059351" lon="7.464770824304992"><ele>464.0</ele><time>2026-04-11T10:02:05.999Z</time></trkpt><trkpt lat="44.577500406225404" lon="7.464865527118315"><ele>464.0</ele><time>2026-04-11T10:02:07.999Z</time></trkpt><trkpt lat="44.577601006660416" lon="7.464950745945778"><ele>464.0</ele><time>2026-04-11T10:02:09.999Z</time></trkpt><trkpt lat="44.577652403499755" lon="7.465005877919742"><ele>464.0</ele><time>2026-04-11T10:02:10.999Z</time></trkpt><trkpt lat="44.577745018003384" lon="7.465084200275796"><ele>464.0</ele><time>2026-04-11T10:02:12.999Z</time></trkpt><trkpt lat="44.57782533567772" lon="7.4651711354582915"><ele>464.0</ele><time>2026-04-11T10:02:14.999Z</time></trkpt><trkpt lat="44.57791694993744" lon="7.465259757035313"><ele>464.0</ele><time>2026-04-11T10:02:16.999Z</time></trkpt><trkpt lat="44.57801339391049" lon="7.465341556336421"><ele>464.0</ele><time>2026-04-11T10:02:18.999Z</time></trkpt><trkpt lat="44.57810538172488" lon="7.465442537787461"><ele>464.0</ele><time>2026-04-11T10:02:20.999Z</time></trkpt><trkpt lat="44.578203955670645" lon="7.46552284805024"><ele>464.0</ele><time>2026-04-11T10:02:22.999Z</time></trkpt><trkpt lat="44.578296592867375" lon="7.465608420761785"><ele>464.0</ele><time>2026-04-11T10:02:24.999Z</time></trkpt><trkpt lat="44.5783893896222" lon="7.4656971486314045"><ele>464.0</ele><time>2026-04-11T10:02:26.999Z</time></trkpt><trkpt lat="44.57848244899259" lon="7.465786195368633"><ele>464.0</ele><time>2026-04-11T10:02:28.999Z</time></trkpt><trkpt lat="44.578575748702136" lon="7.465871748638538"><ele>464.0</ele><time>2026-04-11T10:02:30.999Z</time></trkpt><trkpt lat="44.57866775923805" lon="7.465952059366417"><ele>464.0</ele><time>2026-04-11T10:02:32.999Z</time></trkpt><trkpt lat="44.57875737608092" lon="7.466047034484189"><ele>464.0</ele><time>2026-04-11T10:02:34.999Z</time></trkpt><trkpt lat="44.578854716652565" lon="7.466122945317656"><ele>464.0</ele><time>2026-04-11T10:02:36.999Z</time></trkpt><trkpt lat="44.57894749854496" lon="7.466214768530494"><ele>464.0</ele><time>2026-04-11T10:02:38.999Z</time></trkpt><trkpt lat="44.57903953789109" lon="7.466305172083373"><ele>464.0</ele><time>2026-04-11T10:02:40.999Z</time></trkpt><trkpt lat="44.57913316640529" lon="7.4663922508649065"><ele>464.0</ele><time>2026-04-11T10:02:42.999Z</time></trkpt><trkpt lat="44.579229001303126" lon="7.466489623858548"><ele>464.0</ele><time>2026-04-11T10:02:44.999Z</time></trkpt><trkpt lat="44.57931589174708" lon="7.4665867365611645"><ele>464.0</ele><time>2026-04-11T10:02:46.999Z</time></trkpt><trkpt lat="44.57939932352629" lon="7.466703968340964"><ele>464.0</ele><time>2026-04-11T10:02:48.999Z</time></trkpt><trkpt lat="44.5794807864944" lon="7.466820973354858"><ele>464.0</ele><time>2026-04-11T10:02:50.999Z</time></trkpt><trkpt lat="44.57955613412609" lon="7.466937868940134"><ele>464.3333333333333</ele><time>2026-04-11T10:02:52.999Z</time></trkpt><trkpt lat="44.57963877764821" lon="7.467068756842001"><ele>464.66666666666663</ele><time>2026-04-11T10:02:54.998Z</time></trkpt><trkpt lat="44.579679370743904" lon="7.467139674665034"><ele>465.0</ele><time>2026-04-11T10:02:55.998Z</time></trkpt><trkpt lat="44.579723153597" lon="7.467203537814026"><ele>465.33333333333337</ele><time>2026-04-11T10:02:56.998Z</time></trkpt><trkpt lat="44.57980125893731" lon="7.46734426969404"><ele>465.6666666666667</ele><time>2026-04-11T10:02:58.998Z</time></trkpt><trkpt lat="44.57984386277096" lon="7.467416325727343"><ele>466.0</ele><time>2026-04-11T10:02:59.998Z</time></trkpt><trkpt lat="44.57991404969145" lon="7.467557219469471"><ele>466.00000000000006</ele><time>2026-04-11T10:03:01.998Z</time></trkpt><trkpt lat="44.57995449828225" lon="7.467629982147615"><ele>466.0</ele><time>2026-04-11T10:03:02.998Z</time></trkpt><trkpt lat="44.580013916409804" lon="7.467782363757164"><ele>466.0</ele><time>2026-04-11T10:03:04.998Z</time></trkpt><trkpt lat="44.58005027427112" lon="7.467866325427968"><ele>466.0</ele><time>2026-04-11T10:03:05.998Z</time></trkpt><trkpt lat="44.580081387350404" lon="7.46794463902642"><ele>466.00000000000006</ele><time>2026-04-11T10:03:06.998Z</time></trkpt><trkpt lat="44.580111603868446" lon="7.468024656708132"><ele>466.0</ele><time>2026-04-11T10:03:07.998Z</time></trkpt><trkpt lat="44.580146665033574" lon="7.468109456274368"><ele>464.25</ele><time>2026-04-11T10:03:08.998Z</time></trkpt><trkpt lat="44.58020290608364" lon="7.468271947459193"><ele>462.5</ele><time>2026-04-11T10:03:10.998Z</time></trkpt><trkpt lat="44.5802560590689" lon="7.468427030764492"><ele>460.75</ele><time>2026-04-11T10:03:12.998Z</time></trkpt><trkpt lat="44.580310040571646" lon="7.468581916601227"><ele>459.0</ele><time>2026-04-11T10:03:15Z</time></trkpt><trkpt lat="44.58036889980415" lon="7.468728639685301"><ele>461.25</ele><time>2026-04-11T10:03:17Z</time></trkpt><trkpt lat="44.580421977797265" lon="7.468883819620344"><ele>463.5</ele><time>2026-04-11T10:03:19Z</time></trkpt><trkpt lat="44.58047582360852" lon="7.4690377945095925"><ele>465.75</ele><time>2026-04-11T10:03:21Z</time></trkpt><trkpt lat="44.58052958646682" lon="7.4691937749269455"><ele>468.0</ele><time>2026-04-11T10:03:23Z</time></trkpt><trkpt lat="44.58058081599148" lon="7.4693487330362816"><ele>468.0</ele><time>2026-04-11T10:03:25Z</time></trkpt><trkpt lat="44.58063940178943" lon="7.4695006739888035"><ele>468.0</ele><time>2026-04-11T10:03:27Z</time></trkpt><trkpt lat="44.580693541634204" lon="7.4696537343579426"><ele>468.0</ele><time>2026-04-11T10:03:29Z</time></trkpt><trkpt lat="44.580748261436554" lon="7.469801123186866"><ele>468.0</ele><time>2026-04-11T10:03:31Z</time></trkpt><trkpt lat="44.58080298248823" lon="7.4699641947342075"><ele>466.0</ele><time>2026-04-11T10:03:33Z</time></trkpt><trkpt lat="44.58086309337136" lon="7.470119946858954"><ele>464.0</ele><time>2026-04-11T10:03:35Z</time></trkpt><trkpt lat="44.580918450490394" lon="7.470275989135714"><ele>462.0</ele><time>2026-04-11T10:03:37Z</time></trkpt><trkpt lat="44.58097437672165" lon="7.470430829610317"><ele>460.0</ele><time>2026-04-11T10:03:39Z</time></trkpt><trkpt lat="44.58102770753541" lon="7.470582719027387"><ele>459.00000000000006</ele><time>2026-04-11T10:03:41Z</time></trkpt><trkpt lat="44.5810910908052" lon="7.470737713536202"><ele>458.0</ele><time>2026-04-11T10:03:43Z</time></trkpt><trkpt lat="44.58111834415915" lon="7.470831394845745"><ele>457.0</ele><time>2026-04-11T10:03:44Z</time></trkpt><trkpt lat="44.58114790438459" lon="7.470915138293529"><ele>456.0</ele><time>2026-04-11T10:03:45Z</time></trkpt><trkpt lat="44.5811818133282" lon="7.470994464652983"><ele>455.00000000000006</ele><time>2026-04-11T10:03:46Z</time></trkpt><trkpt lat="44.581210342555195" lon="7.471077819279326"><ele>454.0</ele><time>2026-04-11T10:03:47Z</time></trkpt><trkpt lat="44.58124045098042" lon="7.471161269450852"><ele>454.6666666666667</ele><time>2026-04-11T10:03:48Z</time></trkpt><trkpt lat="44.58129568015333" lon="7.471320262751999"><ele>455.33333333333337</ele><time>2026-04-11T10:03:50Z</time></trkpt><trkpt lat="44.581325529138844" lon="7.471400461858129"><ele>456.0</ele><time>2026-04-11T10:03:51Z</time></trkpt><trkpt lat="44.581354462783665" lon="7.471480417845032"><ele>456.66666666666663</ele><time>2026-04-11T10:03:52Z</time></trkpt><trkpt lat="44.58138693116348" lon="7.471557909038222"><ele>457.3333333333333</ele><time>2026-04-11T10:03:53Z</time></trkpt><trkpt lat="44.581412525666586" lon="7.471647327699175"><ele>458.0</ele><time>2026-04-11T10:03:54Z</time></trkpt><trkpt lat="44.58143871147198" lon="7.471732720944354"><ele>458.0</ele><time>2026-04-11T10:03:55Z</time></trkpt><trkpt lat="44.58147244996702" lon="7.471818409543557"><ele>457.99999999999994</ele><time>2026-04-11T10:03:56Z</time></trkpt><trkpt lat="44.58150501020659" lon="7.471900663671923"><ele>457.99999999999994</ele><time>2026-04-11T10:03:57Z</time></trkpt><trkpt lat="44.581534562461385" lon="7.471982708780571"><ele>458.0</ele><time>2026-04-11T10:03:58Z</time></trkpt><trkpt lat="44.58159551521154" lon="7.472138582710009"><ele>458.0</ele><time>2026-04-11T10:04:00Z</time></trkpt><trkpt lat="44.58165208522693" lon="7.472288372764909"><ele>457.2</ele><time>2026-04-11T10:04:02Z</time></trkpt><trkpt lat="44.581706033508276" lon="7.472425343372048"><ele>456.4</ele><time>2026-04-11T10:04:04Z</time></trkpt><trkpt lat="44.581757381483584" lon="7.47256465246506"><ele>455.59999999999997</ele><time>2026-04-11T10:04:06Z</time></trkpt><trkpt lat="44.58180602469382" lon="7.472706991461956"><ele>454.79999999999995</ele><time>2026-04-11T10:04:07.999Z</time></trkpt><trkpt lat="44.58185405173456" lon="7.472838457599274"><ele>454.0</ele><time>2026-04-11T10:04:09.999Z</time></trkpt><trkpt lat="44.58190688721886" lon="7.472982782458396"><ele>453.79999999999995</ele><time>2026-04-11T10:04:11.999Z</time></trkpt><trkpt lat="44.58193220168297" lon="7.4730653794018425"><ele>453.59999999999997</ele><time>2026-04-11T10:04:12.999Z</time></trkpt><trkpt lat="44.5819850196809" lon="7.473211067075279"><ele>453.4</ele><time>2026-04-11T10:04:14.999Z</time></trkpt><trkpt lat="44.58202670899008" lon="7.4733516195606535"><ele>453.2</ele><time>2026-04-11T10:04:16.999Z</time></trkpt><trkpt lat="44.58208083098501" lon="7.473484384843053"><ele>453.0</ele><time>2026-04-11T10:04:18.999Z</time></trkpt><trkpt lat="44.58213092244931" lon="7.473629324011265"><ele>453.0</ele><time>2026-04-11T10:04:20.999Z</time></trkpt><trkpt lat="44.58216026539928" lon="7.473708526943487"><ele>453.0</ele><time>2026-04-11T10:04:21.999Z</time></trkpt><trkpt lat="44.58221656252383" lon="7.473864804683008"><ele>453.0</ele><time>2026-04-11T10:04:23.999Z</time></trkpt><trkpt lat="44.5822434655293" lon="7.473945894018845"><ele>453.0</ele><time>2026-04-11T10:04:24.999Z</time></trkpt><trkpt lat="44.58228461225729" lon="7.474036055629978"><ele>453.0</ele><time>2026-04-11T10:04:25.999Z</time></trkpt><trkpt lat="44.58231126303697" lon="7.474118519297828"><ele>453.0</ele><time>2026-04-11T10:04:26.999Z</time></trkpt><trkpt lat="44.582343691071145" lon="7.474204097304118"><ele>452.3333333333333</ele><time>2026-04-11T10:04:27.999Z</time></trkpt><trkpt lat="44.58237565960743" lon="7.474290431976444"><ele>451.66666666666663</ele><time>2026-04-11T10:04:28.999Z</time></trkpt><trkpt lat="44.5824039559614" lon="7.474374630875985"><ele>451.0</ele><time>2026-04-11T10:04:29.999Z</time></trkpt><trkpt lat="44.58243422737541" lon="7.474459930210624"><ele>450.3333333333333</ele><time>2026-04-11T10:04:30.999Z</time></trkpt><trkpt lat="44.58246476649663" lon="7.474544614447418"><ele>449.66666666666663</ele><time>2026-04-11T10:04:31.999Z</time></trkpt><trkpt lat="44.582493713704956" lon="7.474623687473041"><ele>449.0</ele><time>2026-04-11T10:04:32.999Z</time></trkpt><trkpt lat="44.58254949955104" lon="7.4747939017054925"><ele>448.66666666666663</ele><time>2026-04-11T10:04:34.999Z</time></trkpt><trkpt lat="44.58256996801629" lon="7.474877554463076"><ele>448.3333333333333</ele><time>2026-04-11T10:04:35.999Z</time></trkpt><trkpt lat="44.58259718498745" lon="7.474957470277982"><ele>448.0</ele><time>2026-04-11T10:04:36.999Z</time></trkpt><trkpt lat="44.582624723262334" lon="7.475045588949513"><ele>447.66666666666663</ele><time>2026-04-11T10:04:37.999Z</time></trkpt><trkpt lat="44.582650413848654" lon="7.475140532947393"><ele>447.3333333333333</ele><time>2026-04-11T10:04:38.999Z</time></trkpt><trkpt lat="44.58269235335815" lon="7.475308942761592"><ele>447.0</ele><time>2026-04-11T10:04:40.999Z</time></trkpt><trkpt lat="44.5827060831642" lon="7.475484710333962"><ele>447.0</ele><time>2026-04-11T10:04:42.999Z</time></trkpt><trkpt lat="44.58269334242983" lon="7.475571390915824"><ele>447.0</ele><time>2026-04-11T10:04:43.999Z</time></trkpt><trkpt lat="44.58267091687131" lon="7.475654761989954"><ele>447.0</ele><time>2026-04-11T10:04:44.999Z</time></trkpt><trkpt lat="44.58265465515598" lon="7.475828208573704"><ele>447.0</ele><time>2026-04-11T10:04:46.999Z</time></trkpt><trkpt lat="44.58271001651131" lon="7.475901273057038"><ele>447.0</ele><time>2026-04-11T10:04:47.999Z</time></trkpt><trkpt lat="44.58276255786472" lon="7.475956411611456"><ele>447.0</ele><time>2026-04-11T10:04:48.999Z</time></trkpt><trkpt lat="44.582881145623475" lon="7.4759830982254325"><ele>447.0</ele><time>2026-04-11T10:04:50.999Z</time></trkpt><trkpt lat="44.58297726696748" lon="7.475954609476869"><ele>447.00000000000006</ele><time>2026-04-11T10:04:52.999Z</time></trkpt><trkpt lat="44.58308417871372" lon="7.4759147162975195"><ele>447.00000000000006</ele><time>2026-04-11T10:04:54.999Z</time></trkpt><trkpt lat="44.58317475627137" lon="7.475977340991597"><ele>447.0</ele><time>2026-04-11T10:04:56.999Z</time></trkpt><trkpt lat="44.58326316126285" lon="7.476077503668138"><ele>447.0</ele><time>2026-04-11T10:04:58.999Z</time></trkpt><trkpt lat="44.58334374914233" lon="7.47618750450121"><ele>446.6</ele><time>2026-04-11T10:05:00.998Z</time></trkpt><trkpt lat="44.583433421551085" lon="7.476296527860479"><ele>446.20000000000005</ele><time>2026-04-11T10:05:02.998Z</time></trkpt><trkpt lat="44.58350828497512" lon="7.476414687192352"><ele>445.8</ele><time>2026-04-11T10:05:04.998Z</time></trkpt><trkpt lat="44.58359550180583" lon="7.47649628159853"><ele>445.4</ele><time>2026-04-11T10:05:06.998Z</time></trkpt><trkpt lat="44.58366255504784" lon="7.47659569855275"><ele>445.0</ele><time>2026-04-11T10:05:08.998Z</time></trkpt><trkpt lat="44.58373894391967" lon="7.476688324561483"><ele>444.4</ele><time>2026-04-11T10:05:10.998Z</time></trkpt><trkpt lat="44.5838190455171" lon="7.476790744916801"><ele>443.8</ele><time>2026-04-11T10:05:12.998Z</time></trkpt><trkpt lat="44.583904146228704" lon="7.476904053791898"><ele>443.20000000000005</ele><time>2026-04-11T10:05:14.998Z</time></trkpt><trkpt lat="44.583987784462224" lon="7.477007538864607"><ele>442.6</ele><time>2026-04-11T10:05:16.998Z</time></trkpt><trkpt lat="44.584074772967504" lon="7.4771065507741"><ele>442.0</ele><time>2026-04-11T10:05:18.998Z</time></trkpt><trkpt lat="44.584149655578614" lon="7.477207664781248"><ele>442.0</ele><time>2026-04-11T10:05:21Z</time></trkpt><trkpt lat="44.58422916470922" lon="7.477316580318771"><ele>442.00000000000006</ele><time>2026-04-11T10:05:23Z</time></trkpt><trkpt lat="44.584310935239806" lon="7.47741502467205"><ele>442.00000000000006</ele><time>2026-04-11T10:05:25Z</time></trkpt><trkpt lat="44.58435716490042" lon="7.477479076585954"><ele>442.0</ele><time>2026-04-11T10:05:26Z</time></trkpt><trkpt lat="44.584437614076805" lon="7.477575245809234"><ele>442.0</ele><time>2026-04-11T10:05:28Z</time></trkpt><trkpt lat="44.584514606510794" lon="7.477674943591198"><ele>442.40000000000003</ele><time>2026-04-11T10:05:30Z</time></trkpt><trkpt lat="44.584598206838216" lon="7.477775027594274"><ele>442.80000000000007</ele><time>2026-04-11T10:05:32Z</time></trkpt><trkpt lat="44.58467804339738" lon="7.47788085965319"><ele>443.2</ele><time>2026-04-11T10:05:34Z</time></trkpt><trkpt lat="44.584755087516264" lon="7.477982070579129"><ele>443.6</ele><time>2026-04-11T10:05:36Z</time></trkpt><trkpt lat="44.58482995747477" lon="7.478078980702172"><ele>444.0</ele><time>2026-04-11T10:05:38Z</time></trkpt><trkpt lat="44.58490716161074" lon="7.478179907336803"><ele>444.0</ele><time>2026-04-11T10:05:40Z</time></trkpt><trkpt lat="44.584982391212364" lon="7.478302485355592"><ele>444.0</ele><time>2026-04-11T10:05:42Z</time></trkpt><trkpt lat="44.58506787879361" lon="7.478407771687969"><ele>444.0</ele><time>2026-04-11T10:05:44Z</time></trkpt><trkpt lat="44.58515074718904" lon="7.478518065727913"><ele>444.0</ele><time>2026-04-11T10:05:46Z</time></trkpt><trkpt lat="44.585229852265286" lon="7.478613975518112"><ele>444.0</ele><time>2026-04-11T10:05:48Z</time></trkpt><trkpt lat="44.58530223625822" lon="7.4787244451169865"><ele>443.6</ele><time>2026-04-11T10:05:50Z</time></trkpt><trkpt lat="44.58538388594293" lon="7.478814537220729"><ele>443.2</ele><time>2026-04-11T10:05:52Z</time></trkpt><trkpt lat="44.58546361098078" lon="7.478912078061893"><ele>442.80000000000007</ele><time>2026-04-11T10:05:54Z</time></trkpt><trkpt lat="44.58554752659295" lon="7.479016707848861"><ele>442.40000000000003</ele><time>2026-04-11T10:05:56Z</time></trkpt><trkpt lat="44.58562516285736" lon="7.4791108655137455"><ele>442.0</ele><time>2026-04-11T10:05:58Z</time></trkpt><trkpt lat="44.5857058935232" lon="7.479198052411936"><ele>442.0</ele><time>2026-04-11T10:06:00Z</time></trkpt><trkpt lat="44.585789993935286" lon="7.479297620734362"><ele>442.00000000000006</ele><time>2026-04-11T10:06:02Z</time></trkpt><trkpt lat="44.58586852121655" lon="7.4793835707235825"><ele>442.00000000000006</ele><time>2026-04-11T10:06:04Z</time></trkpt><trkpt lat="44.5859450868428" lon="7.479478783215914"><ele>442.0</ele><time>2026-04-11T10:06:06Z</time></trkpt><trkpt lat="44.586035148244626" lon="7.479566261989642"><ele>442.0</ele><time>2026-04-11T10:06:08Z</time></trkpt><trkpt lat="44.58612532955896" lon="7.479647104316139"><ele>441.5</ele><time>2026-04-11T10:06:10Z</time></trkpt><trkpt lat="44.58621967925882" lon="7.479724074253818"><ele>441.0</ele><time>2026-04-11T10:06:12Z</time></trkpt><trkpt lat="44.586320415210515" lon="7.479799988999616"><ele>440.5</ele><time>2026-04-11T10:06:14Z</time></trkpt><trkpt lat="44.586428489739355" lon="7.4798653568329705"><ele>440.0</ele><time>2026-04-11T10:06:15.999Z</time></trkpt><trkpt lat="44.586529418000126" lon="7.479940580543323"><ele>440.0</ele><time>2026-04-11T10:06:17.999Z</time></trkpt><trkpt lat="44.586632573790276" lon="7.479997975800873"><ele>440.0</ele><time>2026-04-11T10:06:19.999Z</time></trkpt><trkpt lat="44.58673692589421" lon="7.4800480168581815"><ele>440.0</ele><time>2026-04-11T10:06:21.999Z</time></trkpt><trkpt lat="44.586834175433275" lon="7.480115792709384"><ele>440.0</ele><time>2026-04-11T10:06:23.999Z</time></trkpt><trkpt lat="44.58694737862315" lon="7.4801525654893855"><ele>440.0</ele><time>2026-04-11T10:06:25.999Z</time></trkpt><trkpt lat="44.58704587578585" lon="7.4802304007698295"><ele>439.8</ele><time>2026-04-11T10:06:27.999Z</time></trkpt><trkpt lat="44.58715511217268" lon="7.4802943828413655"><ele>439.6</ele><time>2026-04-11T10:06:29.999Z</time></trkpt><trkpt lat="44.58726130786505" lon="7.480354980842502"><ele>439.4</ele><time>2026-04-11T10:06:31.999Z</time></trkpt><trkpt lat="44.587351107372626" lon="7.480411178213958"><ele>439.2</ele><time>2026-04-11T10:06:33.999Z</time></trkpt><trkpt lat="44.58742947650675" lon="7.480458530635975"><ele>439.0</ele><time>2026-04-11T10:06:35.999Z</time></trkpt><trkpt lat="44.587520428380934" lon="7.480473229242916"><ele>439.0</ele><time>2026-04-11T10:06:37.999Z</time></trkpt><trkpt lat="44.587605511524096" lon="7.480522841443921"><ele>439.0</ele><time>2026-04-11T10:06:39.999Z</time></trkpt><trkpt lat="44.58769191989465" lon="7.4805833809129805"><ele>439.0</ele><time>2026-04-11T10:06:41.999Z</time></trkpt><trkpt lat="44.587795349282814" lon="7.4806397936677484"><ele>439.0</ele><time>2026-04-11T10:06:43.999Z</time></trkpt><trkpt lat="44.58790360509865" lon="7.480721605128036"><ele>439.0</ele><time>2026-04-11T10:06:45.999Z</time></trkpt><trkpt lat="44.58800457340454" lon="7.480804461260997"><ele>440.1666666666667</ele><time>2026-04-11T10:06:47.999Z</time></trkpt><trkpt lat="44.58809413617388" lon="7.480839386437123"><ele>441.33333333333337</ele><time>2026-04-11T10:06:49.999Z</time></trkpt><trkpt lat="44.58815877469157" lon="7.480879077716448"><ele>442.5</ele><time>2026-04-11T10:06:50.999Z</time></trkpt><trkpt lat="44.58821382665175" lon="7.4809368695344425"><ele>443.66666666666663</ele><time>2026-04-11T10:06:51.999Z</time></trkpt><trkpt lat="44.588275037658946" lon="7.480977140917431"><ele>444.8333333333333</ele><time>2026-04-11T10:06:52.999Z</time></trkpt><trkpt lat="44.58838343917774" lon="7.481044111475482"><ele>446.0</ele><time>2026-04-11T10:06:54.999Z</time></trkpt><trkpt lat="44.588437135373745" lon="7.481094888152683"><ele>446.0</ele><time>2026-04-11T10:06:55.999Z</time></trkpt><trkpt lat="44.58853061427707" lon="7.481203286872983"><ele>446.0</ele><time>2026-04-11T10:06:57.999Z</time></trkpt><trkpt lat="44.58864690068549" lon="7.481266453491277"><ele>446.0</ele><time>2026-04-11T10:06:59.999Z</time></trkpt><trkpt lat="44.588763872313415" lon="7.481341342434117"><ele>446.0</ele><time>2026-04-11T10:07:01.999Z</time></trkpt><trkpt lat="44.58887850294606" lon="7.481397331169759"><ele>443.75</ele><time>2026-04-11T10:07:03.999Z</time></trkpt><trkpt lat="44.58899885819166" lon="7.481428680474243"><ele>441.5</ele><time>2026-04-11T10:07:05.999Z</time></trkpt><trkpt lat="44.58911902155209" lon="7.481451080418441"><ele>439.25</ele><time>2026-04-11T10:07:07.999Z</time></trkpt><trkpt lat="44.58922857602226" lon="7.481498478983671"><ele>437.0</ele><time>2026-04-11T10:07:09.998Z</time></trkpt><trkpt lat="44.58933902951295" lon="7.481544073783828"><ele>437.0</ele><time>2026-04-11T10:07:11.998Z</time></trkpt><trkpt lat="44.58947175083447" lon="7.481529429861965"><ele>437.0</ele><time>2026-04-11T10:07:13.998Z</time></trkpt><trkpt lat="44.58956979348849" lon="7.481610326602881"><ele>437.0</ele><time>2026-04-11T10:07:15.998Z</time></trkpt><trkpt lat="44.589670065316824" lon="7.481666263883389"><ele>437.0</ele><time>2026-04-11T10:07:17.998Z</time></trkpt><trkpt lat="44.58977470144354" lon="7.481722096914704"><ele>437.20000000000005</ele><time>2026-04-11T10:07:19.998Z</time></trkpt><trkpt lat="44.589884049851115" lon="7.481771610959501"><ele>437.40000000000003</ele><time>2026-04-11T10:07:21.998Z</time></trkpt><trkpt lat="44.58999254446384" lon="7.481835907463063"><ele>437.59999999999997</ele><time>2026-04-11T10:07:23.998Z</time></trkpt><trkpt lat="44.59011001244104" lon="7.481877512181381"><ele>437.79999999999995</ele><time>2026-04-11T10:07:25.998Z</time></trkpt><trkpt lat="44.590170546177085" lon="7.481903860354411"><ele>438.0</ele><time>2026-04-11T10:07:27Z</time></trkpt><trkpt lat="44.59028322728297" lon="7.481935102581396"><ele>437.75</ele><time>2026-04-11T10:07:29Z</time></trkpt><trkpt lat="44.59040057023337" lon="7.481940023785756"><ele>437.5</ele><time>2026-04-11T10:07:31Z</time></trkpt><trkpt lat="44.59051488878151" lon="7.481924480834525"><ele>437.25</ele><time>2026-04-11T10:07:33Z</time></trkpt><trkpt lat="44.59062533712208" lon="7.481896191428362"><ele>437.0</ele><time>2026-04-11T10:07:35Z</time></trkpt><trkpt lat="44.59073633115866" lon="7.481859965465963"><ele>437.0</ele><time>2026-04-11T10:07:37Z</time></trkpt><trkpt lat="44.59080087003116" lon="7.481842697012355"><ele>437.0</ele><time>2026-04-11T10:07:38Z</time></trkpt><trkpt lat="44.590867851329584" lon="7.481823149823602"><ele>437.0</ele><time>2026-04-11T10:07:39Z</time></trkpt><trkpt lat="44.590939120550125" lon="7.4818016226564605"><ele>437.0</ele><time>2026-04-11T10:07:40Z</time></trkpt><trkpt lat="44.59100231505458" lon="7.481783619306046"><ele>437.0</ele><time>2026-04-11T10:07:41Z</time></trkpt><trkpt lat="44.59106561535428" lon="7.481762364462979"><ele>437.0</ele><time>2026-04-11T10:07:42Z</time></trkpt><trkpt lat="44.59111949429975" lon="7.481713577833248"><ele>437.0</ele><time>2026-04-11T10:07:43Z</time></trkpt><trkpt lat="44.59118044340266" lon="7.481682948609907"><ele>436.20000000000005</ele><time>2026-04-11T10:07:44Z</time></trkpt><trkpt lat="44.59128402482916" lon="7.4816268694294745"><ele>435.40000000000003</ele><time>2026-04-11T10:07:46Z</time></trkpt><trkpt lat="44.59136505363343" lon="7.481578966133176"><ele>434.59999999999997</ele><time>2026-04-11T10:07:48Z</time></trkpt><trkpt lat="44.59146481786536" lon="7.481521377767969"><ele>433.79999999999995</ele><time>2026-04-11T10:07:50Z</time></trkpt><trkpt lat="44.59156874231929" lon="7.481462265149443"><ele>433.0</ele><time>2026-04-11T10:07:52Z</time></trkpt><trkpt lat="44.59168141252398" lon="7.4813956254266625"><ele>433.0</ele><time>2026-04-11T10:07:54Z</time></trkpt><trkpt lat="44.59179530157863" lon="7.481331985956564"><ele>432.99999999999994</ele><time>2026-04-11T10:07:56Z</time></trkpt><trkpt lat="44.59186092882218" lon="7.4813070983366305"><ele>432.99999999999994</ele><time>2026-04-11T10:07:57Z</time></trkpt><trkpt lat="44.59199257071473" lon="7.481282809254763"><ele>433.0</ele><time>2026-04-11T10:07:59Z</time></trkpt><trkpt lat="44.59206502255062" lon="7.481282490733901"><ele>433.0</ele><time>2026-04-11T10:08:00Z</time></trkpt><trkpt lat="44.59212820599028" lon="7.481290247601109"><ele>432.59999999999997</ele><time>2026-04-11T10:08:01Z</time></trkpt><trkpt lat="44.592191750329626" lon="7.481306931206942"><ele>432.19999999999993</ele><time>2026-04-11T10:08:02Z</time></trkpt><trkpt lat="44.59230667179286" lon="7.481351253636633"><ele>431.8</ele><time>2026-04-11T10:08:04Z</time></trkpt><trkpt lat="44.59239955858631" lon="7.481413433161476"><ele>431.4</ele><time>2026-04-11T10:08:06Z</time></trkpt><trkpt lat="44.5924975727732" lon="7.481475521719904"><ele>431.0</ele><time>2026-04-11T10:08:08Z</time></trkpt><trkpt lat="44.59259467498769" lon="7.481536263927755"><ele>431.0</ele><time>2026-04-11T10:08:10Z</time></trkpt><trkpt lat="44.59268990955721" lon="7.481608319657379"><ele>431.0</ele><time>2026-04-11T10:08:12Z</time></trkpt><trkpt lat="44.59276529950146" lon="7.481701371556559"><ele>431.0</ele><time>2026-04-11T10:08:14Z</time></trkpt><trkpt lat="44.592860449875296" lon="7.481806235458081"><ele>431.0</ele><time>2026-04-11T10:08:16Z</time></trkpt><trkpt lat="44.59293318878939" lon="7.481934146668258"><ele>431.0</ele><time>2026-04-11T10:08:18Z</time></trkpt><trkpt lat="44.59299671938648" lon="7.482066026568478"><ele>430.25</ele><time>2026-04-11T10:08:19.999Z</time></trkpt><trkpt lat="44.59307008938543" lon="7.482192074702379"><ele>429.5</ele><time>2026-04-11T10:08:21.999Z</time></trkpt><trkpt lat="44.593148922753755" lon="7.482307353719552"><ele>428.75</ele><time>2026-04-11T10:08:23.999Z</time></trkpt><trkpt lat="44.59322677567" lon="7.482424847305687"><ele>428.0</ele><time>2026-04-11T10:08:25.999Z</time></trkpt><trkpt lat="44.59330818854238" lon="7.4825228748238946"><ele>428.0</ele><time>2026-04-11T10:08:27.999Z</time></trkpt><trkpt lat="44.59338333025816" lon="7.482626533562768"><ele>427.99999999999994</ele><time>2026-04-11T10:08:29.999Z</time></trkpt><trkpt lat="44.593460808638156" lon="7.482727711551921"><ele>427.99999999999994</ele><time>2026-04-11T10:08:31.999Z</time></trkpt><trkpt lat="44.593523592331955" lon="7.4828044857507034"><ele>428.0</ele><time>2026-04-11T10:08:33.999Z</time></trkpt><trkpt lat="44.593584414871906" lon="7.482895195373059"><ele>428.0</ele><time>2026-04-11T10:08:36.999Z</time></trkpt><trkpt lat="44.59364046563046" lon="7.482959544168416"><ele>427.59999999999997</ele><time>2026-04-11T10:08:50.999Z</time></trkpt><trkpt lat="44.593666925264785" lon="7.483052798037541"><ele>427.19999999999993</ele><time>2026-04-11T10:08:55.999Z</time></trkpt><trkpt lat="44.59376201686947" lon="7.4831011762904565"><ele>426.8</ele><time>2026-04-11T10:08:57.999Z</time></trkpt><trkpt lat="44.593868685435396" lon="7.483053549445276"><ele>426.4</ele><time>2026-04-11T10:08:59.999Z</time></trkpt><trkpt lat="44.59397698519325" lon="7.483073436669196"><ele>426.0</ele><time>2026-04-11T10:09:01.999Z</time></trkpt><trkpt lat="44.59410342901022" lon="7.483078775601998"><ele>426.0</ele><time>2026-04-11T10:09:03.999Z</time></trkpt><trkpt lat="44.59416837916241" lon="7.483076288445238"><ele>426.0</ele><time>2026-04-11T10:09:04.999Z</time></trkpt><trkpt lat="44.594235642014134" lon="7.483080492344365"><ele>426.0</ele><time>2026-04-11T10:09:05.999Z</time></trkpt><trkpt lat="44.59429932080771" lon="7.483086123795551"><ele>426.0</ele><time>2026-04-11T10:09:06.999Z</time></trkpt><trkpt lat="44.59436756059844" lon="7.483097561697182"><ele>426.0</ele><time>2026-04-11T10:09:07.999Z</time></trkpt><trkpt lat="44.59443250237829" lon="7.483095286340974"><ele>426.0</ele><time>2026-04-11T10:09:08.999Z</time></trkpt><trkpt lat="44.594560820503176" lon="7.483105469676138"><ele>426.0</ele><time>2026-04-11T10:09:10.999Z</time></trkpt><trkpt lat="44.59463111858732" lon="7.483108088073909"><ele>426.0</ele><time>2026-04-11T10:09:11.998Z</time></trkpt><trkpt lat="44.59469536967306" lon="7.483111731168976"><ele>426.0</ele><time>2026-04-11T10:09:12.998Z</time></trkpt><trkpt lat="44.59476097201702" lon="7.483117790108681"><ele>426.0</ele><time>2026-04-11T10:09:13.998Z</time></trkpt><trkpt lat="44.594828916205145" lon="7.483115379893388"><ele>426.0</ele><time>2026-04-11T10:09:14.998Z</time></trkpt><trkpt lat="44.59489430541002" lon="7.483112050359885"><ele>426.0</ele><time>2026-04-11T10:09:15.998Z</time></trkpt><trkpt lat="44.595018643415834" lon="7.483087709938168"><ele>426.0</ele><time>2026-04-11T10:09:17.998Z</time></trkpt><trkpt lat="44.59508275256356" lon="7.483088974934641"><ele>426.0</ele><time>2026-04-11T10:09:18.998Z</time></trkpt><trkpt lat="44.59514719620222" lon="7.483084908152715"><ele>426.0</ele><time>2026-04-11T10:09:19.998Z</time></trkpt><trkpt lat="44.59521833506592" lon="7.483073309435589"><ele>426.0</ele><time>2026-04-11T10:09:20.998Z</time></trkpt><trkpt lat="44.59528633535485" lon="7.483059699079331"><ele>426.0</ele><time>2026-04-11T10:09:21.998Z</time></trkpt><trkpt lat="44.59535456144103" lon="7.483061408152017"><ele>426.0</ele><time>2026-04-11T10:09:22.998Z</time></trkpt><trkpt lat="44.59547948022981" lon="7.483055571247954"><ele>426.20000000000005</ele><time>2026-04-11T10:09:24.998Z</time></trkpt><trkpt lat="44.59559810471818" lon="7.483038639155864"><ele>426.40000000000003</ele><time>2026-04-11T10:09:26.998Z</time></trkpt><trkpt lat="44.595724580784896" lon="7.483032737115905"><ele>426.6</ele><time>2026-04-11T10:09:28.998Z</time></trkpt><trkpt lat="44.59585551950627" lon="7.483047365091312"><ele>426.8</ele><time>2026-04-11T10:09:30.998Z</time></trkpt><trkpt lat="44.59592043476331" lon="7.483054648116609"><ele>427.0</ele><time>2026-04-11T10:09:32Z</time></trkpt><trkpt lat="44.5959847394435" lon="7.483057738478153"><ele>427.00000000000006</ele><time>2026-04-11T10:09:33Z</time></trkpt><trkpt lat="44.596051522592845" lon="7.483058830177119"><ele>427.0</ele><time>2026-04-11T10:09:34Z</time></trkpt><trkpt lat="44.596177998616554" lon="7.483058719288292"><ele>427.0</ele><time>2026-04-11T10:09:36Z</time></trkpt><trkpt lat="44.5962441096333" lon="7.483068594729944"><ele>427.0</ele><time>2026-04-11T10:09:37Z</time></trkpt><trkpt lat="44.59630766757296" lon="7.4830817207793165"><ele>427.00000000000006</ele><time>2026-04-11T10:09:38Z</time></trkpt><trkpt lat="44.59637474073181" lon="7.483097987320464"><ele>427.0</ele><time>2026-04-11T10:09:39Z</time></trkpt><trkpt lat="44.59644717311737" lon="7.48313088152813"><ele>427.00000000000006</ele><time>2026-04-11T10:09:40Z</time></trkpt><trkpt lat="44.59651148153719" lon="7.483127983032462"><ele>427.0</ele><time>2026-04-11T10:09:41Z</time></trkpt><trkpt lat="44.59657713028314" lon="7.483125282586381"><ele>427.0</ele><time>2026-04-11T10:09:42Z</time></trkpt><trkpt lat="44.59664645516317" lon="7.483145757480194"><ele>427.0</ele><time>2026-04-11T10:09:43Z</time></trkpt><trkpt lat="44.59670917874227" lon="7.48313450666171"><ele>427.00000000000006</ele><time>2026-04-11T10:09:44Z</time></trkpt><trkpt lat="44.59683990197789" lon="7.483159422567517"><ele>427.0</ele><time>2026-04-11T10:09:46Z</time></trkpt><trkpt lat="44.59690435864367" lon="7.483155491597564"><ele>426.6</ele><time>2026-04-11T10:09:47Z</time></trkpt><trkpt lat="44.59702954093859" lon="7.483171516648157"><ele>426.20000000000005</ele><time>2026-04-11T10:09:49Z</time></trkpt><trkpt lat="44.59711965133791" lon="7.483191574784828"><ele>425.8</ele><time>2026-04-11T10:09:51Z</time></trkpt><trkpt lat="44.597215737399765" lon="7.483209637850997"><ele>425.4</ele><time>2026-04-11T10:09:54Z</time></trkpt><trkpt lat="44.59729161922087" lon="7.483237025985288"><ele>425.0</ele><time>2026-04-11T10:09:56Z</time></trkpt><trkpt lat="44.59738732106421" lon="7.483276649169982"><ele>425.0</ele><time>2026-04-11T10:09:58Z</time></trkpt><trkpt lat="44.59749502139989" lon="7.48329925159436"><ele>425.0</ele><time>2026-04-11T10:10:00Z</time></trkpt><trkpt lat="44.59759415450164" lon="7.483311559557367"><ele>425.0</ele><time>2026-04-11T10:10:02Z</time></trkpt><trkpt lat="44.59770019243301" lon="7.483316334360445"><ele>425.0</ele><time>2026-04-11T10:10:04Z</time></trkpt><trkpt lat="44.59781821759203" lon="7.48332686573703"><ele>425.0</ele><time>2026-04-11T10:10:06Z</time></trkpt><trkpt lat="44.597933307589805" lon="7.483333890981878"><ele>424.4</ele><time>2026-04-11T10:10:08Z</time></trkpt><trkpt lat="44.59805045038057" lon="7.483320511908666"><ele>423.8</ele><time>2026-04-11T10:10:10Z</time></trkpt><trkpt lat="44.598165664887986" lon="7.483227849136686"><ele>423.20000000000005</ele><time>2026-04-11T10:10:12Z</time></trkpt><trkpt lat="44.598279594582536" lon="7.483192556758462"><ele>422.6</ele><time>2026-04-11T10:10:14Z</time></trkpt><trkpt lat="44.598343489661175" lon="7.483160609164098"><ele>422.0</ele><time>2026-04-11T10:10:15Z</time></trkpt><trkpt lat="44.59841108637589" lon="7.483209555768031"><ele>422.0</ele><time>2026-04-11T10:10:16Z</time></trkpt><trkpt lat="44.59852120367464" lon="7.483132510256648"><ele>422.0</ele><time>2026-04-11T10:10:18Z</time></trkpt><trkpt lat="44.598575460074365" lon="7.483073123188708"><ele>422.0</ele><time>2026-04-11T10:10:19Z</time></trkpt><trkpt lat="44.59863203757486" lon="7.483031388011253"><ele>422.0</ele><time>2026-04-11T10:10:20Z</time></trkpt><trkpt lat="44.598743302607325" lon="7.48298989873647"><ele>422.0</ele><time>2026-04-11T10:10:22Z</time></trkpt><trkpt lat="44.598842799723215" lon="7.482981798751473"><ele>422.3333333333333</ele><time>2026-04-11T10:10:24Z</time></trkpt><trkpt lat="44.59894554797625" lon="7.482960729426738"><ele>422.66666666666663</ele><time>2026-04-11T10:10:26Z</time></trkpt><trkpt lat="44.59907215077862" lon="7.482948127201183"><ele>423.0</ele><time>2026-04-11T10:10:27.999Z</time></trkpt><trkpt lat="44.599140023636906" lon="7.482936492221829"><ele>423.33333333333337</ele><time>2026-04-11T10:10:28.999Z</time></trkpt><trkpt lat="44.5992058900574" lon="7.482929663973153"><ele>423.6666666666667</ele><time>2026-04-11T10:10:29.999Z</time></trkpt><trkpt lat="44.59927183585018" lon="7.482923197111446"><ele>424.0</ele><time>2026-04-11T10:10:30.999Z</time></trkpt><trkpt lat="44.599339121166" lon="7.482906194884768"><ele>423.83333333333337</ele><time>2026-04-11T10:10:31.999Z</time></trkpt><trkpt lat="44.59945807573526" lon="7.48287242559995"><ele>423.6666666666667</ele><time>2026-04-11T10:10:33.999Z</time></trkpt><trkpt lat="44.59952044920623" lon="7.482852898588623"><ele>423.5</ele><time>2026-04-11T10:10:34.999Z</time></trkpt><trkpt lat="44.59962372637234" lon="7.4828817411210835"><ele>423.33333333333337</ele><time>2026-04-11T10:10:36.999Z</time></trkpt><trkpt lat="44.599702471795446" lon="7.482895333588068"><ele>423.1666666666667</ele><time>2026-04-11T10:10:38.999Z</time></trkpt><trkpt lat="44.599772741995075" lon="7.482890492159053"><ele>423.0</ele><time>2026-04-11T10:10:41.999Z</time></trkpt><trkpt lat="44.599823389742994" lon="7.482804980087003"><ele>423.0</ele><time>2026-04-11T10:10:44.999Z</time></trkpt><trkpt lat="44.599867142014304" lon="7.48269768467705"><ele>423.0</ele><time>2026-04-11T10:10:46.999Z</time></trkpt><trkpt lat="44.59995164211589" lon="7.482646192193447"><ele>423.0</ele><time>2026-04-11T10:10:48.999Z</time></trkpt><trkpt lat="44.6000521868953" lon="7.482596826437627"><ele>423.0</ele><time>2026-04-11T10:10:50.999Z</time></trkpt><trkpt lat="44.60011835777837" lon="7.482551949711718"><ele>423.0</ele><time>2026-04-11T10:10:52.999Z</time></trkpt><trkpt lat="44.6001862388947" lon="7.482439772590709"><ele>423.0</ele><time>2026-04-11T10:10:54.999Z</time></trkpt><trkpt lat="44.60018940338436" lon="7.482350416137868"><ele>423.0</ele><time>2026-04-11T10:10:55.999Z</time></trkpt><trkpt lat="44.60020872805103" lon="7.482257614114736"><ele>423.0</ele><time>2026-04-11T10:10:56.999Z</time></trkpt><trkpt lat="44.600226497433326" lon="7.482161742983207"><ele>423.0</ele><time>2026-04-11T10:10:57.999Z</time></trkpt><trkpt lat="44.60022659836255" lon="7.482070292383867"><ele>423.0</ele><time>2026-04-11T10:10:58.999Z</time></trkpt><trkpt lat="44.6002424623999" lon="7.481959566492994"><ele>423.0</ele><time>2026-04-11T10:10:59.999Z</time></trkpt><trkpt lat="44.60027113062601" lon="7.481806512958043"><ele>424.0</ele><time>2026-04-11T10:11:01.999Z</time></trkpt><trkpt lat="44.60026985778391" lon="7.4816567435926"><ele>425.0</ele><time>2026-04-11T10:11:03.999Z</time></trkpt><trkpt lat="44.600286618054135" lon="7.481530044430581"><ele>425.99999999999994</ele><time>2026-04-11T10:11:06.999Z</time></trkpt><trkpt lat="44.60027012184897" lon="7.481428296303842"><ele>427.0</ele><time>2026-04-11T10:11:08.999Z</time></trkpt><trkpt lat="44.60029642089051" lon="7.481310021636746"><ele>428.0</ele><time>2026-04-11T10:11:10.999Z</time></trkpt><trkpt lat="44.600292355633755" lon="7.481162016664065"><ele>428.79999999999995</ele><time>2026-04-11T10:11:12.999Z</time></trkpt><trkpt lat="44.60031025023119" lon="7.481025049644602"><ele>429.59999999999997</ele><time>2026-04-11T10:11:14.999Z</time></trkpt><trkpt lat="44.60031038778574" lon="7.480881678602108"><ele>430.40000000000003</ele><time>2026-04-11T10:11:16.999Z</time></trkpt><trkpt lat="44.600321787520315" lon="7.480749477641564"><ele>431.20000000000005</ele><time>2026-04-11T10:11:18.999Z</time></trkpt><trkpt lat="44.60028777614392" lon="7.480631039196314"><ele>432.0</ele><time>2026-04-11T10:11:20.998Z</time></trkpt><trkpt lat="44.60021939247323" lon="7.4805519561149225"><ele>432.0</ele><time>2026-04-11T10:11:22.998Z</time></trkpt><trkpt lat="44.600170630564776" lon="7.480482486214388"><ele>432.0</ele><time>2026-04-11T10:11:23.998Z</time></trkpt><trkpt lat="44.60014960973486" lon="7.480331633203647"><ele>434.0</ele><time>2026-04-11T10:11:25.998Z</time></trkpt><trkpt lat="44.60014976986256" lon="7.480215026599726"><ele>434.0</ele><time>2026-04-11T10:11:27.998Z</time></trkpt><trkpt lat="44.600076135184004" lon="7.4801808908017815"><ele>434.0</ele><time>2026-04-11T10:11:38Z</time></trkpt><trkpt lat="44.600010559981726" lon="7.480216330113593"><ele>434.0</ele><time>2026-04-11T10:11:42Z</time></trkpt></trkseg></trk></gpx>